<?xml version='1.0' encoding='UTF-8'?><gpx version="1.1" creator="JPX - https://github.com/jenetics/jpx" xmlns="http://www.topografix.com/GPX/1/1"><trk><trkseg><trkpt lat="45.421230590743235" lon="11.108357189457262"><ele>44.0</ele><time>2026-03-23T06:52:42.524Z</time></trkpt><trkpt lat="45.4211971858057" lon="11.108459604916908"><ele>44.0</ele><time>2026-03-23T06:53:30.895Z</time></trkpt><trkpt lat="45.42114481550684" lon="11.108599246535858"><ele>44.0</ele><time>2026-03-23T06:53:38.405Z</time></trkpt><trkpt lat="45.420919354116" lon="11.108484808365915"><ele>44.0</ele><time>2026-03-23T06:53:43.057Z</time></trkpt><trkpt lat="45.42102467272935" lon="11.108501069258068"><ele>44.0</ele><time>2026-03-23T06:53:46.98Z</time></trkpt><trkpt lat="45.42108481288461" lon="11.108429906900142"><ele>44.0</ele><time>2026-03-23T06:53:48.982Z</time></trkpt><trkpt lat="45.4211577354422" lon="11.108361845846389"><ele>44.0</ele><time>2026-03-23T06:53:50.985Z</time></trkpt><trkpt lat="45.42120417118577" lon="11.108287330727194"><ele>44.0</ele><time>2026-03-23T06:53:52.987Z</time></trkpt><trkpt lat="45.421245190801294" lon="11.108217743173112"><ele>44.0</ele><time>2026-03-23T06:53:54.989Z</time></trkpt><trkpt lat="45.421303890132585" lon="11.108261962665866"><ele>44.0</ele><time>2026-03-23T06:53:56.99Z</time></trkpt><trkpt lat="45.421339848733595" lon="11.108349890582971"><ele>44.0</ele><time>2026-03-23T06:53:59.992Z</time></trkpt><trkpt lat="45.42141271505201" lon="11.108427048783476"><ele>43.6</ele><time>2026-03-23T06:54:17.998Z</time></trkpt><trkpt lat="45.42147403328238" lon="11.10831628354812"><ele>43.2</ele><time>2026-03-23T06:54:19.998Z</time></trkpt><trkpt lat="45.42147892448452" lon="11.108206817809107"><ele>42.800000000000004</ele><time>2026-03-23T06:54:20.998Z</time></trkpt><trkpt lat="45.4214794592003" lon="11.108085987830355"><ele>42.400000000000006</ele><time>2026-03-23T06:54:21.998Z</time></trkpt><trkpt lat="45.421494628059655" lon="11.107945201813672"><ele>42.0</ele><time>2026-03-23T06:54:22.999Z</time></trkpt><trkpt lat="45.421530466461356" lon="11.107805215682886"><ele>42.0</ele><time>2026-03-23T06:54:23.999Z</time></trkpt><trkpt lat="45.42157821992997" lon="11.107700077957183"><ele>42.0</ele><time>2026-03-23T06:54:24.999Z</time></trkpt><trkpt lat="45.42163891712953" lon="11.107600500438505"><ele>42.0</ele><time>2026-03-23T06:54:25.999Z</time></trkpt><trkpt lat="45.42171506482401" lon="11.107524346375168"><ele>42.0</ele><time>2026-03-23T06:54:26.999Z</time></trkpt><trkpt lat="45.4217991415518" lon="11.107451952265425"><ele>42.0</ele><time>2026-03-23T06:54:27.999Z</time></trkpt><trkpt lat="45.42185787082585" lon="11.10736028634137"><ele>42.0</ele><time>2026-03-23T06:54:28.999Z</time></trkpt><trkpt lat="45.42189182871372" lon="11.10725856119339"><ele>42.0</ele><time>2026-03-23T06:54:29.999Z</time></trkpt><trkpt lat="45.42191121056371" lon="11.107136627684705"><ele>42.0</ele><time>2026-03-23T06:54:30.999Z</time></trkpt><trkpt lat="45.421895911744215" lon="11.107016222818208"><ele>42.0</ele><time>2026-03-23T06:54:31.999Z</time></trkpt><trkpt lat="45.42184501565546" lon="11.10690874212789"><ele>42.0</ele><time>2026-03-23T06:54:32.999Z</time></trkpt><trkpt lat="45.421771399889735" lon="11.106819631849502"><ele>42.0</ele><time>2026-03-23T06:54:34Z</time></trkpt><trkpt lat="45.42173759869091" lon="11.10669434774617"><ele>41.8</ele><time>2026-03-23T06:54:35Z</time></trkpt><trkpt lat="45.42170266867261" lon="11.106561534134173"><ele>41.6</ele><time>2026-03-23T06:54:36Z</time></trkpt><trkpt lat="45.42168139653445" lon="11.10641662662779"><ele>41.4</ele><time>2026-03-23T06:54:37Z</time></trkpt><trkpt lat="45.42167846924609" lon="11.106257169084063"><ele>41.199999999999996</ele><time>2026-03-23T06:54:38Z</time></trkpt><trkpt lat="45.42169368384466" lon="11.106094340238512"><ele>41.0</ele><time>2026-03-23T06:54:39Z</time></trkpt><trkpt lat="45.42170068760266" lon="11.10592486777613"><ele>41.0</ele><time>2026-03-23T06:54:40Z</time></trkpt><trkpt lat="45.42171118419768" lon="11.105752384792554"><ele>41.0</ele><time>2026-03-23T06:54:41Z</time></trkpt><trkpt lat="45.42171888983451" lon="11.105581038300356"><ele>41.0</ele><time>2026-03-23T06:54:42Z</time></trkpt><trkpt lat="45.42172936138694" lon="11.105413905233439"><ele>41.0</ele><time>2026-03-23T06:54:43Z</time></trkpt><trkpt lat="45.42174092586291" lon="11.105253624786123"><ele>41.75</ele><time>2026-03-23T06:54:44Z</time></trkpt><trkpt lat="45.42175030391567" lon="11.105098508512368"><ele>42.5</ele><time>2026-03-23T06:54:45Z</time></trkpt><trkpt lat="45.421758486603125" lon="11.10494510024281"><ele>43.25</ele><time>2026-03-23T06:54:46Z</time></trkpt><trkpt lat="45.42176961177481" lon="11.104778401669451"><ele>44.0</ele><time>2026-03-23T06:54:47Z</time></trkpt><trkpt lat="45.42177707049342" lon="11.104614744832688"><ele>44.400000000000006</ele><time>2026-03-23T06:54:48Z</time></trkpt><trkpt lat="45.42177883920663" lon="11.10447768681205"><ele>44.8</ele><time>2026-03-23T06:54:49Z</time></trkpt><trkpt lat="45.42176758283424" lon="11.104354674624238"><ele>45.2</ele><time>2026-03-23T06:54:50Z</time></trkpt><trkpt lat="45.42175641324079" lon="11.104211928602878"><ele>45.599999999999994</ele><time>2026-03-23T06:54:51Z</time></trkpt><trkpt lat="45.421754705136486" lon="11.104060224427196"><ele>46.0</ele><time>2026-03-23T06:54:52Z</time></trkpt><trkpt lat="45.42177336749188" lon="11.103906560101684"><ele>46.0</ele><time>2026-03-23T06:54:53Z</time></trkpt><trkpt lat="45.42180476108391" lon="11.103754349513245"><ele>46.0</ele><time>2026-03-23T06:54:54Z</time></trkpt><trkpt lat="45.42183068311728" lon="11.103609249562863"><ele>46.0</ele><time>2026-03-23T06:54:55Z</time></trkpt><trkpt lat="45.42184010432133" lon="11.103463283042625"><ele>46.0</ele><time>2026-03-23T06:54:56Z</time></trkpt><trkpt lat="45.42184751717255" lon="11.103318661381454"><ele>46.0</ele><time>2026-03-23T06:54:57Z</time></trkpt><trkpt lat="45.42185957473068" lon="11.103173862109427"><ele>45.8</ele><time>2026-03-23T06:54:58Z</time></trkpt><trkpt lat="45.42187091939538" lon="11.103034902136418"><ele>45.599999999999994</ele><time>2026-03-23T06:54:59Z</time></trkpt><trkpt lat="45.42188258461715" lon="11.102888428594806"><ele>45.4</ele><time>2026-03-23T06:55:00Z</time></trkpt><trkpt lat="45.421891647518045" lon="11.102735819139259"><ele>45.2</ele><time>2026-03-23T06:55:01Z</time></trkpt><trkpt lat="45.42190174191159" lon="11.102591257649587"><ele>45.0</ele><time>2026-03-23T06:55:02Z</time></trkpt><trkpt lat="45.42191931568027" lon="11.102448059146745"><ele>45.0</ele><time>2026-03-23T06:55:03Z</time></trkpt><trkpt lat="45.42193013304565" lon="11.102303155193214"><ele>45.0</ele><time>2026-03-23T06:55:04Z</time></trkpt><trkpt lat="45.42193924224032" lon="11.102156318206298"><ele>45.0</ele><time>2026-03-23T06:55:05Z</time></trkpt><trkpt lat="45.421952407581806" lon="11.10200015116584"><ele>45.0</ele><time>2026-03-23T06:55:06Z</time></trkpt><trkpt lat="45.42196794713641" lon="11.10185003507263"><ele>45.0</ele><time>2026-03-23T06:55:07Z</time></trkpt><trkpt lat="45.42197569576889" lon="11.101699535675547"><ele>45.0</ele><time>2026-03-23T06:55:08Z</time></trkpt><trkpt lat="45.421987951744676" lon="11.101548549666184"><ele>45.0</ele><time>2026-03-23T06:55:09Z</time></trkpt><trkpt lat="45.42200267783037" lon="11.10139982641036"><ele>45.0</ele><time>2026-03-23T06:55:10Z</time></trkpt><trkpt lat="45.42201664446795" lon="11.101251964989922"><ele>45.0</ele><time>2026-03-23T06:55:11Z</time></trkpt><trkpt lat="45.42203234742104" lon="11.101118463839262"><ele>45.0</ele><time>2026-03-23T06:55:12Z</time></trkpt><trkpt lat="45.42204680114503" lon="11.100993823825974"><ele>45.0</ele><time>2026-03-23T06:55:13Z</time></trkpt><trkpt lat="45.422060972400494" lon="11.100861492861396"><ele>45.0</ele><time>2026-03-23T06:55:14Z</time></trkpt><trkpt lat="45.42207989591055" lon="11.100719950545692"><ele>45.0</ele><time>2026-03-23T06:55:15Z</time></trkpt><trkpt lat="45.422096155116044" lon="11.100574198634947"><ele>45.0</ele><time>2026-03-23T06:55:16Z</time></trkpt><trkpt lat="45.42212194387048" lon="11.10042439325624"><ele>45.0</ele><time>2026-03-23T06:55:17Z</time></trkpt><trkpt lat="45.42214861347216" lon="11.10026959313808"><ele>45.25</ele><time>2026-03-23T06:55:18Z</time></trkpt><trkpt lat="45.42217527401449" lon="11.100111714527836"><ele>45.5</ele><time>2026-03-23T06:55:19Z</time></trkpt><trkpt lat="45.42220259363382" lon="11.099951006698491"><ele>45.75</ele><time>2026-03-23T06:55:20Z</time></trkpt><trkpt lat="45.4222327635495" lon="11.09979140442362"><ele>46.0</ele><time>2026-03-23T06:55:21Z</time></trkpt><trkpt lat="45.42226400430181" lon="11.099634574435434"><ele>46.0</ele><time>2026-03-23T06:55:22Z</time></trkpt><trkpt lat="45.4222973741484" lon="11.09947651105332"><ele>46.0</ele><time>2026-03-23T06:55:23Z</time></trkpt><trkpt lat="45.422326453681976" lon="11.099326219604512"><ele>46.0</ele><time>2026-03-23T06:55:24Z</time></trkpt><trkpt lat="45.42235531704345" lon="11.099191952546484"><ele>46.0</ele><time>2026-03-23T06:55:25Z</time></trkpt><trkpt lat="45.42237622888148" lon="11.099055664383174"><ele>46.0</ele><time>2026-03-23T06:55:26Z</time></trkpt><trkpt lat="45.42240270375176" lon="11.098915990865043"><ele>46.0</ele><time>2026-03-23T06:55:27Z</time></trkpt><trkpt lat="45.42242882557531" lon="11.09877445970062"><ele>46.0</ele><time>2026-03-23T06:55:28Z</time></trkpt><trkpt lat="45.4224527966987" lon="11.09862673490344"><ele>46.0</ele><time>2026-03-23T06:55:29Z</time></trkpt><trkpt lat="45.422481347399106" lon="11.098480584367092"><ele>46.0</ele><time>2026-03-23T06:55:30Z</time></trkpt><trkpt lat="45.42250879748366" lon="11.098336808327801"><ele>46.0</ele><time>2026-03-23T06:55:31Z</time></trkpt><trkpt lat="45.422532127795186" lon="11.098209591628393"><ele>45.833333333333336</ele><time>2026-03-23T06:55:32Z</time></trkpt><trkpt lat="45.42255242981317" lon="11.09811232228176"><ele>45.66666666666667</ele><time>2026-03-23T06:55:33Z</time></trkpt><trkpt lat="45.42257916482251" lon="11.097983394364423"><ele>45.5</ele><time>2026-03-23T06:55:35Z</time></trkpt><trkpt lat="45.42259974330357" lon="11.09785607304605"><ele>45.333333333333336</ele><time>2026-03-23T06:55:38Z</time></trkpt><trkpt lat="45.42261769603264" lon="11.097766732719563"><ele>45.166666666666664</ele><time>2026-03-23T06:55:42Z</time></trkpt><trkpt lat="45.42263532989791" lon="11.097644471535776"><ele>45.0</ele><time>2026-03-23T06:55:50.001Z</time></trkpt><trkpt lat="45.42266003273626" lon="11.097528144425436"><ele>45.2</ele><time>2026-03-23T06:55:52.001Z</time></trkpt><trkpt lat="45.422684520231115" lon="11.097407622957448"><ele>45.4</ele><time>2026-03-23T06:55:54Z</time></trkpt><trkpt lat="45.422716463033595" lon="11.09723666374338"><ele>45.599999999999994</ele><time>2026-03-23T06:55:56Z</time></trkpt><trkpt lat="45.422753699479856" lon="11.097063779120857"><ele>45.8</ele><time>2026-03-23T06:55:58Z</time></trkpt><trkpt lat="45.422774772906585" lon="11.096961514657245"><ele>46.0</ele><time>2026-03-23T06:55:59Z</time></trkpt><trkpt lat="45.42279966889008" lon="11.096849522893207"><ele>46.0</ele><time>2026-03-23T06:56:00Z</time></trkpt><trkpt lat="45.42282814993767" lon="11.096731727972813"><ele>46.0</ele><time>2026-03-23T06:56:01Z</time></trkpt><trkpt lat="45.422858020724796" lon="11.096610362655067"><ele>46.0</ele><time>2026-03-23T06:56:02Z</time></trkpt><trkpt lat="45.4228806333516" lon="11.09649615417425"><ele>46.0</ele><time>2026-03-23T06:56:03Z</time></trkpt><trkpt lat="45.422899088229336" lon="11.096393872053154"><ele>46.0</ele><time>2026-03-23T06:56:04Z</time></trkpt><trkpt lat="45.422916578488" lon="11.096296517776521"><ele>46.0</ele><time>2026-03-23T06:56:05Z</time></trkpt><trkpt lat="45.422931585653615" lon="11.096199931501832"><ele>46.142857142857146</ele><time>2026-03-23T06:56:06Z</time></trkpt><trkpt lat="45.42294661571295" lon="11.096109533883784"><ele>46.285714285714285</ele><time>2026-03-23T06:56:07Z</time></trkpt><trkpt lat="45.422959680204585" lon="11.096014367791138"><ele>46.42857142857143</ele><time>2026-03-23T06:56:08Z</time></trkpt><trkpt lat="45.42297356670379" lon="11.095915929195954"><ele>46.57142857142857</ele><time>2026-03-23T06:56:09Z</time></trkpt><trkpt lat="45.42298810839357" lon="11.09582290684325"><ele>46.71428571428571</ele><time>2026-03-23T06:56:10Z</time></trkpt><trkpt lat="45.4230092309928" lon="11.095720330892178"><ele>46.857142857142854</ele><time>2026-03-23T06:56:11Z</time></trkpt><trkpt lat="45.423027244702574" lon="11.095615737752421"><ele>47.0</ele><time>2026-03-23T06:56:12Z</time></trkpt><trkpt lat="45.42304514817256" lon="11.095520139120095"><ele>47.400000000000006</ele><time>2026-03-23T06:56:13Z</time></trkpt><trkpt lat="45.42305941081793" lon="11.095431022467022"><ele>47.800000000000004</ele><time>2026-03-23T06:56:14Z</time></trkpt><trkpt lat="45.42309436369377" lon="11.095274972089939"><ele>48.2</ele><time>2026-03-23T06:56:16Z</time></trkpt><trkpt lat="45.42312213965655" lon="11.095131412462129"><ele>48.6</ele><time>2026-03-23T06:56:18Z</time></trkpt><trkpt lat="45.42315439305975" lon="11.094985096599673"><ele>49.0</ele><time>2026-03-23T06:56:20Z</time></trkpt><trkpt lat="45.423181998990046" lon="11.094860215242639"><ele>48.99999999999999</ele><time>2026-03-23T06:56:22Z</time></trkpt><trkpt lat="45.423202091649024" lon="11.094749503410155"><ele>49.0</ele><time>2026-03-23T06:56:24Z</time></trkpt><trkpt lat="45.42321461027119" lon="11.094641029890946"><ele>49.0</ele><time>2026-03-23T06:56:26Z</time></trkpt><trkpt lat="45.423226082421614" lon="11.094540722252178"><ele>49.0</ele><time>2026-03-23T06:56:28Z</time></trkpt><trkpt lat="45.42322420037434" lon="11.094403375925296"><ele>48.99999999999999</ele><time>2026-03-23T06:56:30Z</time></trkpt><trkpt lat="45.42321802020046" lon="11.094232147937639"><ele>49.0</ele><time>2026-03-23T06:56:32Z</time></trkpt><trkpt lat="45.423211481038706" lon="11.094139051563463"><ele>48.666666666666664</ele><time>2026-03-23T06:56:33Z</time></trkpt><trkpt lat="45.42320142899448" lon="11.094041872458938"><ele>48.33333333333333</ele><time>2026-03-23T06:56:34Z</time></trkpt><trkpt lat="45.423186601181435" lon="11.093945874423122"><ele>48.0</ele><time>2026-03-23T06:56:35Z</time></trkpt><trkpt lat="45.423166061955925" lon="11.093845917666307"><ele>47.666666666666664</ele><time>2026-03-23T06:56:36Z</time></trkpt><trkpt lat="45.42314224919523" lon="11.093752144829379"><ele>47.33333333333333</ele><time>2026-03-23T06:56:37Z</time></trkpt><trkpt lat="45.4231200693463" lon="11.093667373928481"><ele>47.0</ele><time>2026-03-23T06:56:38Z</time></trkpt><trkpt lat="45.423074847146474" lon="11.093519191024352"><ele>47.0</ele><time>2026-03-23T06:56:40Z</time></trkpt><trkpt lat="45.42301384165891" lon="11.093353428003327"><ele>47.0</ele><time>2026-03-23T06:56:42Z</time></trkpt><trkpt lat="45.42298502481336" lon="11.093272320698151"><ele>47.0</ele><time>2026-03-23T06:56:43Z</time></trkpt><trkpt lat="45.42293397789971" lon="11.093119456350761"><ele>47.0</ele><time>2026-03-23T06:56:45Z</time></trkpt><trkpt lat="45.422884304186354" lon="11.092977914807973"><ele>47.0</ele><time>2026-03-23T06:56:47Z</time></trkpt><trkpt lat="45.42285046807136" lon="11.09284362070955"><ele>47.166666666666664</ele><time>2026-03-23T06:56:49Z</time></trkpt><trkpt lat="45.42281236262035" lon="11.092708316966313"><ele>47.33333333333333</ele><time>2026-03-23T06:56:51Z</time></trkpt><trkpt lat="45.42277493232324" lon="11.092539201735248"><ele>47.5</ele><time>2026-03-23T06:56:53Z</time></trkpt><trkpt lat="45.42275135475756" lon="11.09244810668171"><ele>47.666666666666664</ele><time>2026-03-23T06:56:54Z</time></trkpt><trkpt lat="45.42272178289664" lon="11.092355226666657"><ele>47.833333333333336</ele><time>2026-03-23T06:56:55Z</time></trkpt><trkpt lat="45.42270513815962" lon="11.092260761654355"><ele>48.0</ele><time>2026-03-23T06:56:56Z</time></trkpt><trkpt lat="45.422685514175605" lon="11.092170003804139"><ele>47.666666666666664</ele><time>2026-03-23T06:56:57Z</time></trkpt><trkpt lat="45.422661461158704" lon="11.092067014378975"><ele>47.333333333333336</ele><time>2026-03-23T06:57:00Z</time></trkpt><trkpt lat="45.42263283010506" lon="11.091970511050556"><ele>47.0</ele><time>2026-03-23T06:57:04Z</time></trkpt><trkpt lat="45.4226102484471" lon="11.091867293029905"><ele>46.66666666666667</ele><time>2026-03-23T06:57:06Z</time></trkpt><trkpt lat="45.42258954999314" lon="11.091768336307142"><ele>46.333333333333336</ele><time>2026-03-23T06:57:08Z</time></trkpt><trkpt lat="45.42256628465386" lon="11.091638331506282"><ele>46.0</ele><time>2026-03-23T06:57:10Z</time></trkpt><trkpt lat="45.42254764547642" lon="11.091484827623038"><ele>46.0</ele><time>2026-03-23T06:57:12Z</time></trkpt><trkpt lat="45.422528166583156" lon="11.091342854151856"><ele>46.0</ele><time>2026-03-23T06:57:14Z</time></trkpt><trkpt lat="45.42251210756358" lon="11.091256064209755"><ele>46.0</ele><time>2026-03-23T06:57:15Z</time></trkpt><trkpt lat="45.422499536461125" lon="11.091078508973165"><ele>46.0</ele><time>2026-03-23T06:57:17Z</time></trkpt><trkpt lat="45.422492995131016" lon="11.090926827044541"><ele>46.0</ele><time>2026-03-23T06:57:19Z</time></trkpt><trkpt lat="45.42249523600087" lon="11.090818350114816"><ele>46.333333333333336</ele><time>2026-03-23T06:57:21Z</time></trkpt><trkpt lat="45.422507132333294" lon="11.0907008406405"><ele>46.66666666666667</ele><time>2026-03-23T06:57:24Z</time></trkpt><trkpt lat="45.422492752309054" lon="11.090580174639399"><ele>47.0</ele><time>2026-03-23T06:58:01Z</time></trkpt><trkpt lat="45.42250464948453" lon="11.090490097978412"><ele>47.333333333333336</ele><time>2026-03-23T06:58:04Z</time></trkpt><trkpt lat="45.42252706935927" lon="11.090362684995958"><ele>47.666666666666664</ele><time>2026-03-23T06:58:06Z</time></trkpt><trkpt lat="45.42254924385808" lon="11.090259585292916"><ele>48.0</ele><time>2026-03-23T06:58:08Z</time></trkpt><trkpt lat="45.42258067428669" lon="11.090121355585836"><ele>48.0</ele><time>2026-03-23T06:58:10Z</time></trkpt><trkpt lat="45.4226273347309" lon="11.089965365351821"><ele>48.0</ele><time>2026-03-23T06:58:12Z</time></trkpt><trkpt lat="45.42268772671603" lon="11.089797691424252"><ele>48.0</ele><time>2026-03-23T06:58:14Z</time></trkpt><trkpt lat="45.42272789272113" lon="11.089695263471858"><ele>48.0</ele><time>2026-03-23T06:58:15Z</time></trkpt><trkpt lat="45.42277175376476" lon="11.089585367167555"><ele>48.0</ele><time>2026-03-23T06:58:16Z</time></trkpt><trkpt lat="45.422814824846974" lon="11.089469655135217"><ele>47.8</ele><time>2026-03-23T06:58:17Z</time></trkpt><trkpt lat="45.42286127426913" lon="11.089354296476774"><ele>47.599999999999994</ele><time>2026-03-23T06:58:18Z</time></trkpt><trkpt lat="45.42291787400018" lon="11.089243560089427"><ele>47.400000000000006</ele><time>2026-03-23T06:58:19Z</time></trkpt><trkpt lat="45.422972833858324" lon="11.089127294378066"><ele>47.2</ele><time>2026-03-23T06:58:20Z</time></trkpt><trkpt lat="45.42302771639588" lon="11.089016822997507"><ele>47.0</ele><time>2026-03-23T06:58:21Z</time></trkpt><trkpt lat="45.42309068457162" lon="11.088883917167188"><ele>47.0</ele><time>2026-03-23T06:58:22Z</time></trkpt><trkpt lat="45.42314788839516" lon="11.088760613539685"><ele>47.0</ele><time>2026-03-23T06:58:23Z</time></trkpt><trkpt lat="45.423199698527526" lon="11.088644350442639"><ele>47.0</ele><time>2026-03-23T06:58:24Z</time></trkpt><trkpt lat="45.42325340162135" lon="11.088535125661865"><ele>47.0</ele><time>2026-03-23T06:58:25Z</time></trkpt><trkpt lat="45.42330772696863" lon="11.088423569807086"><ele>47.0</ele><time>2026-03-23T06:58:26Z</time></trkpt><trkpt lat="45.42336137136877" lon="11.088309752827486"><ele>47.0</ele><time>2026-03-23T06:58:27Z</time></trkpt><trkpt lat="45.42341558203292" lon="11.088193356316594"><ele>47.0</ele><time>2026-03-23T06:58:28Z</time></trkpt><trkpt lat="45.42346656735014" lon="11.088073304126395"><ele>47.0</ele><time>2026-03-23T06:58:29Z</time></trkpt><trkpt lat="45.42352064108496" lon="11.087943107553693"><ele>47.0</ele><time>2026-03-23T06:58:30Z</time></trkpt><trkpt lat="45.42357204516661" lon="11.087805297946845"><ele>47.0</ele><time>2026-03-23T06:58:31Z</time></trkpt><trkpt lat="45.423623029036115" lon="11.087657373865598"><ele>47.0</ele><time>2026-03-23T06:58:32Z</time></trkpt><trkpt lat="45.42367412036626" lon="11.087510028685438"><ele>47.0</ele><time>2026-03-23T06:58:33Z</time></trkpt><trkpt lat="45.42371598210156" lon="11.087357497773242"><ele>47.0</ele><time>2026-03-23T06:58:34Z</time></trkpt><trkpt lat="45.42375677611015" lon="11.08721245942883"><ele>47.0</ele><time>2026-03-23T06:58:35Z</time></trkpt><trkpt lat="45.423795021888445" lon="11.0870711223514"><ele>47.0</ele><time>2026-03-23T06:58:36Z</time></trkpt><trkpt lat="45.42382955827387" lon="11.08693717196494"><ele>46.8</ele><time>2026-03-23T06:58:37Z</time></trkpt><trkpt lat="45.42386379858009" lon="11.086802473130637"><ele>46.6</ele><time>2026-03-23T06:58:38Z</time></trkpt><trkpt lat="45.42390059577224" lon="11.08666389731665"><ele>46.4</ele><time>2026-03-23T06:58:39Z</time></trkpt><trkpt lat="45.423943148160035" lon="11.086523355507365"><ele>46.199999999999996</ele><time>2026-03-23T06:58:40Z</time></trkpt><trkpt lat="45.423985009746794" lon="11.08638158620309"><ele>46.0</ele><time>2026-03-23T06:58:41Z</time></trkpt><trkpt lat="45.4240243973048" lon="11.086249427389031"><ele>46.16666666666667</ele><time>2026-03-23T06:58:42Z</time></trkpt><trkpt lat="45.42405711693505" lon="11.086122774131624"><ele>46.333333333333336</ele><time>2026-03-23T06:58:43Z</time></trkpt><trkpt lat="45.42408955171615" lon="11.0860058320755"><ele>46.5</ele><time>2026-03-23T06:58:44Z</time></trkpt><trkpt lat="45.42412296004834" lon="11.085896995755233"><ele>46.666666666666664</ele><time>2026-03-23T06:58:45Z</time></trkpt><trkpt lat="45.42415625098109" lon="11.085795440932685"><ele>46.83333333333333</ele><time>2026-03-23T06:58:46Z</time></trkpt><trkpt lat="45.42419111523808" lon="11.085689170341283"><ele>47.0</ele><time>2026-03-23T06:58:47Z</time></trkpt><trkpt lat="45.424229440488816" lon="11.085578610181384"><ele>47.0</ele><time>2026-03-23T06:58:48Z</time></trkpt><trkpt lat="45.424267809310855" lon="11.085467233440834"><ele>47.0</ele><time>2026-03-23T06:58:49Z</time></trkpt><trkpt lat="45.4243133983846" lon="11.085352523193674"><ele>47.0</ele><time>2026-03-23T06:58:50Z</time></trkpt><trkpt lat="45.424355038447395" lon="11.085238080353006"><ele>47.0</ele><time>2026-03-23T06:58:51Z</time></trkpt><trkpt lat="45.42439790225158" lon="11.085114246714245"><ele>47.0</ele><time>2026-03-23T06:58:52Z</time></trkpt><trkpt lat="45.42444163032563" lon="11.084983639617667"><ele>47.0</ele><time>2026-03-23T06:58:53Z</time></trkpt><trkpt lat="45.424485746462906" lon="11.084857009190756"><ele>47.0</ele><time>2026-03-23T06:58:54Z</time></trkpt><trkpt lat="45.42452606310588" lon="11.084739396619531"><ele>47.0</ele><time>2026-03-23T06:58:55Z</time></trkpt><trkpt lat="45.424559385505894" lon="11.084642019940286"><ele>47.0</ele><time>2026-03-23T06:58:56Z</time></trkpt><trkpt lat="45.42460198723345" lon="11.08452768023175"><ele>47.0</ele><time>2026-03-23T06:58:58Z</time></trkpt><trkpt lat="45.424635141989874" lon="11.084434584233088"><ele>47.0</ele><time>2026-03-23T06:59:01Z</time></trkpt><trkpt lat="45.42466791581061" lon="11.084348626284658"><ele>47.400000000000006</ele><time>2026-03-23T06:59:20Z</time></trkpt><trkpt lat="45.424710610304935" lon="11.084207544460817"><ele>47.800000000000004</ele><time>2026-03-23T06:59:22Z</time></trkpt><trkpt lat="45.424755408027025" lon="11.08407616212789"><ele>48.2</ele><time>2026-03-23T06:59:24Z</time></trkpt><trkpt lat="45.42480812529713" lon="11.083904385124645"><ele>48.6</ele><time>2026-03-23T06:59:26Z</time></trkpt><trkpt lat="45.42484092853259" lon="11.083804052800106"><ele>49.0</ele><time>2026-03-23T06:59:27Z</time></trkpt><trkpt lat="45.42487314179549" lon="11.083693711665438"><ele>48.99999999999999</ele><time>2026-03-23T06:59:28Z</time></trkpt><trkpt lat="45.42490792086186" lon="11.08357889042731"><ele>49.0</ele><time>2026-03-23T06:59:29Z</time></trkpt><trkpt lat="45.42493854964547" lon="11.083479757913093"><ele>49.0</ele><time>2026-03-23T06:59:30Z</time></trkpt><trkpt lat="45.42501926937684" lon="11.083368773844649"><ele>49.0</ele><time>2026-03-23T06:59:32Z</time></trkpt><trkpt lat="45.42508089711838" lon="11.08334273489099"><ele>48.99999999999999</ele><time>2026-03-23T06:59:33Z</time></trkpt><trkpt lat="45.42514921042562" lon="11.083332695510856"><ele>49.0</ele><time>2026-03-23T06:59:34Z</time></trkpt><trkpt lat="45.42524285179437" lon="11.083324503408242"><ele>49.0</ele><time>2026-03-23T06:59:36Z</time></trkpt><trkpt lat="45.42534179419772" lon="11.083302010076029"><ele>49.0</ele><time>2026-03-23T06:59:38Z</time></trkpt><trkpt lat="45.42541314062559" lon="11.083293808578807"><ele>49.0</ele><time>2026-03-23T06:59:39Z</time></trkpt><trkpt lat="45.425498639070696" lon="11.08329285908739"><ele>49.0</ele><time>2026-03-23T06:59:40Z</time></trkpt><trkpt lat="45.42559590272857" lon="11.083296862653091"><ele>49.0</ele><time>2026-03-23T06:59:41Z</time></trkpt><trkpt lat="45.42570777714781" lon="11.083302238174513"><ele>48.75</ele><time>2026-03-23T06:59:42Z</time></trkpt><trkpt lat="45.425828767274155" lon="11.08331380737023"><ele>48.5</ele><time>2026-03-23T06:59:43Z</time></trkpt><trkpt lat="45.425944703269465" lon="11.083322382985639"><ele>48.25</ele><time>2026-03-23T06:59:44Z</time></trkpt><trkpt lat="45.426064729804196" lon="11.083331867091985"><ele>48.0</ele><time>2026-03-23T06:59:45Z</time></trkpt><trkpt lat="45.426173200382" lon="11.083340113976739"><ele>48.0</ele><time>2026-03-23T06:59:46Z</time></trkpt><trkpt lat="45.42628897795976" lon="11.083347966870141"><ele>48.0</ele><time>2026-03-23T06:59:47Z</time></trkpt><trkpt lat="45.426413515427" lon="11.083358101912303"><ele>48.0</ele><time>2026-03-23T06:59:48Z</time></trkpt><trkpt lat="45.426543206820654" lon="11.083372411891014"><ele>48.0</ele><time>2026-03-23T06:59:49Z</time></trkpt><trkpt lat="45.42667993657557" lon="11.083384341410165"><ele>48.0</ele><time>2026-03-23T06:59:50Z</time></trkpt><trkpt lat="45.42682058288934" lon="11.08340824430533"><ele>48.0</ele><time>2026-03-23T06:59:51Z</time></trkpt><trkpt lat="45.426961748594444" lon="11.083435526303091"><ele>48.0</ele><time>2026-03-23T06:59:52Z</time></trkpt><trkpt lat="45.42710807334041" lon="11.083444690721597"><ele>48.0</ele><time>2026-03-23T06:59:53Z</time></trkpt><trkpt lat="45.427262592692514" lon="11.083455322402429"><ele>47.666666666666664</ele><time>2026-03-23T06:59:54Z</time></trkpt><trkpt lat="45.427411658351595" lon="11.083465959600364"><ele>47.33333333333333</ele><time>2026-03-23T06:59:55Z</time></trkpt><trkpt lat="45.427562769734756" lon="11.083476776716324"><ele>47.0</ele><time>2026-03-23T06:59:56Z</time></trkpt><trkpt lat="45.427716047612" lon="11.083487212123059"><ele>47.0</ele><time>2026-03-23T06:59:57Z</time></trkpt><trkpt lat="45.42787362542121" lon="11.083496321115364"><ele>47.0</ele><time>2026-03-23T06:59:58Z</time></trkpt><trkpt lat="45.42803546046163" lon="11.083509479921787"><ele>47.0</ele><time>2026-03-23T06:59:59Z</time></trkpt><trkpt lat="45.42820007297916" lon="11.083524325031714"><ele>47.666666666666664</ele><time>2026-03-23T07:00:00Z</time></trkpt><trkpt lat="45.428359417079804" lon="11.083538213645356"><ele>48.33333333333333</ele><time>2026-03-23T07:00:01Z</time></trkpt><trkpt lat="45.428525419478945" lon="11.083549487848828"><ele>49.0</ele><time>2026-03-23T07:00:02Z</time></trkpt><trkpt lat="45.42869261667753" lon="11.083557697994529"><ele>47.666666666666664</ele><time>2026-03-23T07:00:03Z</time></trkpt><trkpt lat="45.428859503138014" lon="11.083564444133367"><ele>46.33333333333333</ele><time>2026-03-23T07:00:04Z</time></trkpt><trkpt lat="45.42902388771771" lon="11.083563915824316"><ele>45.0</ele><time>2026-03-23T07:00:05Z</time></trkpt><trkpt lat="45.4291822711403" lon="11.083561020287616"><ele>45.0</ele><time>2026-03-23T07:00:06Z</time></trkpt><trkpt lat="45.42934590265052" lon="11.083557596039373"><ele>45.0</ele><time>2026-03-23T07:00:07Z</time></trkpt><trkpt lat="45.42950838125714" lon="11.083557196744843"><ele>45.0</ele><time>2026-03-23T07:00:08Z</time></trkpt><trkpt lat="45.42967206927985" lon="11.08355741676338"><ele>45.666666666666664</ele><time>2026-03-23T07:00:09Z</time></trkpt><trkpt lat="45.42983652154022" lon="11.083558929145319"><ele>46.33333333333333</ele><time>2026-03-23T07:00:10Z</time></trkpt><trkpt lat="45.4299997530156" lon="11.083561013419105"><ele>47.0</ele><time>2026-03-23T07:00:11Z</time></trkpt><trkpt lat="45.43015974859447" lon="11.083560888831695"><ele>47.0</ele><time>2026-03-23T07:00:12Z</time></trkpt><trkpt lat="45.43031953387702" lon="11.083558568210773"><ele>47.0</ele><time>2026-03-23T07:00:13Z</time></trkpt><trkpt lat="45.43047808796299" lon="11.083558406951395"><ele>47.0</ele><time>2026-03-23T07:00:14Z</time></trkpt><trkpt lat="45.430637642080086" lon="11.083556713388498"><ele>46.33333333333333</ele><time>2026-03-23T07:00:15Z</time></trkpt><trkpt lat="45.43079442024029" lon="11.083556456672689"><ele>45.666666666666664</ele><time>2026-03-23T07:00:16Z</time></trkpt><trkpt lat="45.43095421297908" lon="11.083554770604927"><ele>45.0</ele><time>2026-03-23T07:00:17Z</time></trkpt><trkpt lat="45.4311075143465" lon="11.083558492371266"><ele>45.0</ele><time>2026-03-23T07:00:18Z</time></trkpt><trkpt lat="45.4312574116754" lon="11.083559871782814"><ele>45.0</ele><time>2026-03-23T07:00:19Z</time></trkpt><trkpt lat="45.431408083133185" lon="11.083557005539857"><ele>45.0</ele><time>2026-03-23T07:00:20Z</time></trkpt><trkpt lat="45.431561359026006" lon="11.083552365934338"><ele>45.333333333333336</ele><time>2026-03-23T07:00:21Z</time></trkpt><trkpt lat="45.431716647966454" lon="11.083543018906283"><ele>45.66666666666667</ele><time>2026-03-23T07:00:22Z</time></trkpt><trkpt lat="45.43187354196767" lon="11.08352067546895"><ele>46.0</ele><time>2026-03-23T07:00:23Z</time></trkpt><trkpt lat="45.43202798294851" lon="11.083475771588423"><ele>46.333333333333336</ele><time>2026-03-23T07:00:24Z</time></trkpt><trkpt lat="45.432184194169984" lon="11.08341376250726"><ele>46.666666666666664</ele><time>2026-03-23T07:00:25Z</time></trkpt><trkpt lat="45.432336318066845" lon="11.083333843842535"><ele>47.0</ele><time>2026-03-23T07:00:26Z</time></trkpt><trkpt lat="45.432484865916564" lon="11.083243792402053"><ele>47.666666666666664</ele><time>2026-03-23T07:00:27Z</time></trkpt><trkpt lat="45.43263047456239" lon="11.083149526025863"><ele>48.33333333333333</ele><time>2026-03-23T07:00:28Z</time></trkpt><trkpt lat="45.4327768129413" lon="11.083048472902266"><ele>49.0</ele><time>2026-03-23T07:00:29Z</time></trkpt><trkpt lat="45.43291840071599" lon="11.082945674513104"><ele>48.666666666666664</ele><time>2026-03-23T07:00:30Z</time></trkpt><trkpt lat="45.43306414294056" lon="11.082842362717525"><ele>48.33333333333333</ele><time>2026-03-23T07:00:31Z</time></trkpt><trkpt lat="45.433206287309126" lon="11.082734872461117"><ele>48.0</ele><time>2026-03-23T07:00:32Z</time></trkpt><trkpt lat="45.43334755163128" lon="11.082626720621144"><ele>48.0</ele><time>2026-03-23T07:00:33Z</time></trkpt><trkpt lat="45.43348675201397" lon="11.082516650952698"><ele>48.0</ele><time>2026-03-23T07:00:34Z</time></trkpt><trkpt lat="45.43362767174846" lon="11.082399619903315"><ele>48.0</ele><time>2026-03-23T07:00:35Z</time></trkpt><trkpt lat="45.43376938400084" lon="11.082293127300344"><ele>47.333333333333336</ele><time>2026-03-23T07:00:36Z</time></trkpt><trkpt lat="45.433917222091274" lon="11.082204424275158"><ele>46.66666666666667</ele><time>2026-03-23T07:00:37Z</time></trkpt><trkpt lat="45.43407312540034" lon="11.082163479296002"><ele>46.0</ele><time>2026-03-23T07:00:38Z</time></trkpt><trkpt lat="45.43422922342461" lon="11.082147458771981"><ele>46.0</ele><time>2026-03-23T07:00:39Z</time></trkpt><trkpt lat="45.43438982718753" lon="11.082159148361105"><ele>46.0</ele><time>2026-03-23T07:00:40Z</time></trkpt><trkpt lat="45.43454902546087" lon="11.082179441877063"><ele>46.0</ele><time>2026-03-23T07:00:41Z</time></trkpt><trkpt lat="45.43470694235181" lon="11.082207337689134"><ele>46.333333333333336</ele><time>2026-03-23T07:00:42Z</time></trkpt><trkpt lat="45.43486732648623" lon="11.08224048488085"><ele>46.666666666666664</ele><time>2026-03-23T07:00:43Z</time></trkpt><trkpt lat="45.43502999503951" lon="11.082271494762571"><ele>47.0</ele><time>2026-03-23T07:00:44Z</time></trkpt><trkpt lat="45.43518859727103" lon="11.08228899641802"><ele>47.0</ele><time>2026-03-23T07:00:45Z</time></trkpt><trkpt lat="45.435348578927886" lon="11.08229291405735"><ele>47.0</ele><time>2026-03-23T07:00:46Z</time></trkpt><trkpt lat="45.435509635295666" lon="11.082278845164863"><ele>47.0</ele><time>2026-03-23T07:00:47Z</time></trkpt><trkpt lat="45.43566879350454" lon="11.082254131791455"><ele>47.666666666666664</ele><time>2026-03-23T07:00:48Z</time></trkpt><trkpt lat="45.43582886555896" lon="11.082221946955515"><ele>48.33333333333333</ele><time>2026-03-23T07:00:49Z</time></trkpt><trkpt lat="45.43598903147946" lon="11.08219063747775"><ele>49.0</ele><time>2026-03-23T07:00:50Z</time></trkpt><trkpt lat="45.436147651749856" lon="11.082159289743185"><ele>48.666666666666664</ele><time>2026-03-23T07:00:51Z</time></trkpt><trkpt lat="45.43630493097314" lon="11.082123377621079"><ele>48.33333333333333</ele><time>2026-03-23T07:00:52Z</time></trkpt><trkpt lat="45.436462338114225" lon="11.08208942747304"><ele>48.0</ele><time>2026-03-23T07:00:53Z</time></trkpt><trkpt lat="45.43662386351629" lon="11.08205521228579"><ele>48.0</ele><time>2026-03-23T07:00:54Z</time></trkpt><trkpt lat="45.43678271813437" lon="11.08202190033385"><ele>48.0</ele><time>2026-03-23T07:00:55Z</time></trkpt><trkpt lat="45.436943115237504" lon="11.081991421910411"><ele>48.0</ele><time>2026-03-23T07:00:56Z</time></trkpt><trkpt lat="45.43710108902093" lon="11.081958999615713"><ele>48.33333333333333</ele><time>2026-03-23T07:00:57Z</time></trkpt><trkpt lat="45.43726218424698" lon="11.081923847542047"><ele>48.666666666666664</ele><time>2026-03-23T07:00:58Z</time></trkpt><trkpt lat="45.43742171668229" lon="11.08188776250975"><ele>49.0</ele><time>2026-03-23T07:00:59Z</time></trkpt><trkpt lat="45.43757980966118" lon="11.081851098194624"><ele>49.0</ele><time>2026-03-23T07:01:00Z</time></trkpt><trkpt lat="45.43773535525198" lon="11.081800001902408"><ele>49.0</ele><time>2026-03-23T07:01:01Z</time></trkpt><trkpt lat="45.43788824698837" lon="11.081728945745873"><ele>49.0</ele><time>2026-03-23T07:01:02Z</time></trkpt><trkpt lat="45.438037246032565" lon="11.081647399810933"><ele>49.0</ele><time>2026-03-23T07:01:03Z</time></trkpt><trkpt lat="45.43818923172458" lon="11.081559563884815"><ele>49.0</ele><time>2026-03-23T07:01:04Z</time></trkpt><trkpt lat="45.43834077861704" lon="11.081470093608194"><ele>49.0</ele><time>2026-03-23T07:01:05Z</time></trkpt><trkpt lat="45.43849076769084" lon="11.081378084254629"><ele>49.0</ele><time>2026-03-23T07:01:06Z</time></trkpt><trkpt lat="45.43863966812591" lon="11.081283644464316"><ele>49.0</ele><time>2026-03-23T07:01:07Z</time></trkpt><trkpt lat="45.43878650384133" lon="11.081187242912572"><ele>49.0</ele><time>2026-03-23T07:01:08Z</time></trkpt><trkpt lat="45.43893425505406" lon="11.081091203184682"><ele>49.0</ele><time>2026-03-23T07:01:09Z</time></trkpt><trkpt lat="45.439081599738984" lon="11.080996996848652"><ele>49.0</ele><time>2026-03-23T07:01:10Z</time></trkpt><trkpt lat="45.439229455177575" lon="11.080903924984932"><ele>49.0</ele><time>2026-03-23T07:01:11Z</time></trkpt><trkpt lat="45.439378242963905" lon="11.080811026306144"><ele>49.0</ele><time>2026-03-23T07:01:12Z</time></trkpt><trkpt lat="45.439526389778315" lon="11.080717900806174"><ele>49.0</ele><time>2026-03-23T07:01:13Z</time></trkpt><trkpt lat="45.43967275730023" lon="11.080622797542402"><ele>49.0</ele><time>2026-03-23T07:01:14Z</time></trkpt><trkpt lat="45.439818472925495" lon="11.080526665654865"><ele>48.75</ele><time>2026-03-23T07:01:15Z</time></trkpt><trkpt lat="45.439953732090686" lon="11.080438323072222"><ele>48.5</ele><time>2026-03-23T07:01:16Z</time></trkpt><trkpt lat="45.440085080595345" lon="11.080350411988848"><ele>48.25</ele><time>2026-03-23T07:01:17Z</time></trkpt><trkpt lat="45.4402138741492" lon="11.080266515992989"><ele>48.0</ele><time>2026-03-23T07:01:18Z</time></trkpt><trkpt lat="45.44033801820416" lon="11.080187088405275"><ele>48.0</ele><time>2026-03-23T07:01:19Z</time></trkpt><trkpt lat="45.44045794687843" lon="11.080108691493315"><ele>48.0</ele><time>2026-03-23T07:01:20Z</time></trkpt><trkpt lat="45.44057575307088" lon="11.080030122621979"><ele>48.0</ele><time>2026-03-23T07:01:21Z</time></trkpt><trkpt lat="45.440696551432495" lon="11.079949419313829"><ele>48.0</ele><time>2026-03-23T07:01:22Z</time></trkpt><trkpt lat="45.440822125575146" lon="11.079869170906536"><ele>48.0</ele><time>2026-03-23T07:01:23Z</time></trkpt><trkpt lat="45.44094227403345" lon="11.079789676463658"><ele>48.0</ele><time>2026-03-23T07:01:24Z</time></trkpt><trkpt lat="45.44105859410183" lon="11.0797107410491"><ele>48.0</ele><time>2026-03-23T07:01:25Z</time></trkpt><trkpt lat="45.441183258409964" lon="11.079628778749392"><ele>48.0</ele><time>2026-03-23T07:01:26Z</time></trkpt><trkpt lat="45.4413079125542" lon="11.079551495356062"><ele>48.0</ele><time>2026-03-23T07:01:27Z</time></trkpt><trkpt lat="45.44142599248581" lon="11.079482024333203"><ele>48.0</ele><time>2026-03-23T07:01:28Z</time></trkpt><trkpt lat="45.441539610440046" lon="11.079420380453039"><ele>48.0</ele><time>2026-03-23T07:01:29Z</time></trkpt><trkpt lat="45.44165415241535" lon="11.079362814257776"><ele>48.0</ele><time>2026-03-23T07:01:30Z</time></trkpt><trkpt lat="45.4417737039994" lon="11.079302306491085"><ele>48.0</ele><time>2026-03-23T07:01:31Z</time></trkpt><trkpt lat="45.44189378436467" lon="11.079242556409932"><ele>48.0</ele><time>2026-03-23T07:01:32Z</time></trkpt><trkpt lat="45.4420146130197" lon="11.079187562998845"><ele>48.0</ele><time>2026-03-23T07:01:33Z</time></trkpt><trkpt lat="45.44213711832408" lon="11.07913194901603"><ele>48.0</ele><time>2026-03-23T07:01:34Z</time></trkpt><trkpt lat="45.44226121951128" lon="11.07907090776954"><ele>48.5</ele><time>2026-03-23T07:01:35Z</time></trkpt><trkpt lat="45.442380299338886" lon="11.079011307249276"><ele>49.0</ele><time>2026-03-23T07:01:36Z</time></trkpt><trkpt lat="45.44249329108598" lon="11.078949766650897"><ele>49.5</ele><time>2026-03-23T07:01:37Z</time></trkpt><trkpt lat="45.44260304834298" lon="11.078892104435612"><ele>50.0</ele><time>2026-03-23T07:01:38Z</time></trkpt><trkpt lat="45.442704511670605" lon="11.078837728167741"><ele>50.00000000000001</ele><time>2026-03-23T07:01:39Z</time></trkpt><trkpt lat="45.4428019056048" lon="11.078790224134758"><ele>50.0</ele><time>2026-03-23T07:01:40Z</time></trkpt><trkpt lat="45.44289241592822" lon="11.078745864772964"><ele>50.0</ele><time>2026-03-23T07:01:41Z</time></trkpt><trkpt lat="45.442976583036774" lon="11.078704889914519"><ele>50.0</ele><time>2026-03-23T07:01:42Z</time></trkpt><trkpt lat="45.44305422629204" lon="11.078666940307492"><ele>50.00000000000001</ele><time>2026-03-23T07:01:43Z</time></trkpt><trkpt lat="45.44312507177779" lon="11.078632624498951"><ele>50.0</ele><time>2026-03-23T07:01:44Z</time></trkpt><trkpt lat="45.4431898334211" lon="11.078599245648759"><ele>49.833333333333336</ele><time>2026-03-23T07:01:45Z</time></trkpt><trkpt lat="45.44329300171862" lon="11.078574478725141"><ele>49.66666666666667</ele><time>2026-03-23T07:01:47Z</time></trkpt><trkpt lat="45.44333882645064" lon="11.078656000608607"><ele>49.5</ele><time>2026-03-23T07:01:49Z</time></trkpt><trkpt lat="45.443326094065334" lon="11.078803750731966"><ele>49.33333333333333</ele><time>2026-03-23T07:01:51Z</time></trkpt><trkpt lat="45.44331350233297" lon="11.078897098541189"><ele>49.166666666666664</ele><time>2026-03-23T07:01:52Z</time></trkpt><trkpt lat="45.44330697298804" lon="11.07900291210011"><ele>49.0</ele><time>2026-03-23T07:01:53Z</time></trkpt><trkpt lat="45.44329743443371" lon="11.07911204109943"><ele>48.99999999999999</ele><time>2026-03-23T07:01:54Z</time></trkpt><trkpt lat="45.44328341934506" lon="11.079229189606018"><ele>49.0</ele><time>2026-03-23T07:01:55Z</time></trkpt><trkpt lat="45.44327547069107" lon="11.079350932623315"><ele>49.0</ele><time>2026-03-23T07:01:56Z</time></trkpt><trkpt lat="45.443272574322194" lon="11.079454986377792"><ele>49.0</ele><time>2026-03-23T07:01:57Z</time></trkpt><trkpt lat="45.44328093270772" lon="11.079556171679075"><ele>48.99999999999999</ele><time>2026-03-23T07:01:58Z</time></trkpt><trkpt lat="45.44329980478844" lon="11.079665066453801"><ele>49.0</ele><time>2026-03-23T07:01:59Z</time></trkpt><trkpt lat="45.44331944429217" lon="11.079792850682935"><ele>49.0</ele><time>2026-03-23T07:02:00Z</time></trkpt><trkpt lat="45.44334915036231" lon="11.079928753706536"><ele>49.0</ele><time>2026-03-23T07:02:01Z</time></trkpt><trkpt lat="45.44335860336564" lon="11.080074657981822"><ele>49.0</ele><time>2026-03-23T07:02:02Z</time></trkpt><trkpt lat="45.443362215000505" lon="11.08021695523403"><ele>49.0</ele><time>2026-03-23T07:02:03Z</time></trkpt><trkpt lat="45.44336675370455" lon="11.080344178676127"><ele>49.0</ele><time>2026-03-23T07:02:04Z</time></trkpt><trkpt lat="45.443371742516014" lon="11.080475506472718"><ele>49.0</ele><time>2026-03-23T07:02:05Z</time></trkpt><trkpt lat="45.4433680420847" lon="11.080618198792859"><ele>49.0</ele><time>2026-03-23T07:02:06Z</time></trkpt><trkpt lat="45.44334642896929" lon="11.080753901807286"><ele>49.0</ele><time>2026-03-23T07:02:07Z</time></trkpt><trkpt lat="45.44331655127582" lon="11.080871582669198"><ele>49.0</ele><time>2026-03-23T07:02:08Z</time></trkpt><trkpt lat="45.4432913907062" lon="11.080967488255274"><ele>49.0</ele><time>2026-03-23T07:02:09Z</time></trkpt><trkpt lat="45.443295281331075" lon="11.081117714274951"><ele>49.0</ele><time>2026-03-23T07:02:11Z</time></trkpt><trkpt lat="45.44339536043071" lon="11.081180322965652"><ele>49.0</ele><time>2026-03-23T07:02:13Z</time></trkpt><trkpt lat="45.443476811552244" lon="11.081137737834942"><ele>49.0</ele><time>2026-03-23T07:02:14Z</time></trkpt><trkpt lat="45.443578792081574" lon="11.081098365955844"><ele>49.0</ele><time>2026-03-23T07:02:15Z</time></trkpt><trkpt lat="45.443694340311346" lon="11.081049183467337"><ele>49.0</ele><time>2026-03-23T07:02:16Z</time></trkpt><trkpt lat="45.443805719964644" lon="11.081004360680579"><ele>49.5</ele><time>2026-03-23T07:02:17Z</time></trkpt><trkpt lat="45.44393590020519" lon="11.080949145742734"><ele>50.0</ele><time>2026-03-23T07:02:18Z</time></trkpt><trkpt lat="45.44407601768429" lon="11.08088425554269"><ele>50.5</ele><time>2026-03-23T07:02:19Z</time></trkpt><trkpt lat="45.44422093492535" lon="11.08082396643563"><ele>51.0</ele><time>2026-03-23T07:02:20Z</time></trkpt><trkpt lat="45.444352647366706" lon="11.080773533761347"><ele>50.25</ele><time>2026-03-23T07:02:21Z</time></trkpt><trkpt lat="45.44448743484967" lon="11.080721139378541"><ele>49.5</ele><time>2026-03-23T07:02:22Z</time></trkpt><trkpt lat="45.444617000185616" lon="11.080682278277454"><ele>48.75</ele><time>2026-03-23T07:02:23Z</time></trkpt><trkpt lat="45.444741230966784" lon="11.080664591616385"><ele>48.0</ele><time>2026-03-23T07:02:24Z</time></trkpt><trkpt lat="45.44487161845485" lon="11.080684305594504"><ele>48.0</ele><time>2026-03-23T07:02:25Z</time></trkpt><trkpt lat="45.44501396011969" lon="11.080703048598368"><ele>48.0</ele><time>2026-03-23T07:02:26Z</time></trkpt><trkpt lat="45.44514849912747" lon="11.080691542531937"><ele>48.0</ele><time>2026-03-23T07:02:27Z</time></trkpt><trkpt lat="45.445282653907434" lon="11.080652353319667"><ele>48.0</ele><time>2026-03-23T07:02:28Z</time></trkpt><trkpt lat="45.44542108809067" lon="11.08059852772687"><ele>49.25</ele><time>2026-03-23T07:02:29Z</time></trkpt><trkpt lat="45.44556305816785" lon="11.08054430882139"><ele>50.5</ele><time>2026-03-23T07:02:30Z</time></trkpt><trkpt lat="45.445699794688515" lon="11.08048650699181"><ele>51.75</ele><time>2026-03-23T07:02:31Z</time></trkpt><trkpt lat="45.44583938606744" lon="11.08042718800824"><ele>53.0</ele><time>2026-03-23T07:02:32Z</time></trkpt><trkpt lat="45.44597122744694" lon="11.080371900985252"><ele>53.0</ele><time>2026-03-23T07:02:33Z</time></trkpt><trkpt lat="45.446112622891015" lon="11.080326665359117"><ele>53.0</ele><time>2026-03-23T07:02:34Z</time></trkpt><trkpt lat="45.44624947794953" lon="11.080307121805552"><ele>53.0</ele><time>2026-03-23T07:02:35Z</time></trkpt><trkpt lat="45.446390714393914" lon="11.080298295491964"><ele>53.0</ele><time>2026-03-23T07:02:36Z</time></trkpt><trkpt lat="45.44652756615422" lon="11.08028831304044"><ele>54.0</ele><time>2026-03-23T07:02:37Z</time></trkpt><trkpt lat="45.446662139458425" lon="11.080278432473445"><ele>55.0</ele><time>2026-03-23T07:02:38Z</time></trkpt><trkpt lat="45.44679047690614" lon="11.08026181067795"><ele>56.0</ele><time>2026-03-23T07:02:39Z</time></trkpt><trkpt lat="45.446907549683765" lon="11.08024877432104"><ele>57.0</ele><time>2026-03-23T07:02:40Z</time></trkpt><trkpt lat="45.44703585870975" lon="11.080230192324192"><ele>57.25</ele><time>2026-03-23T07:02:41Z</time></trkpt><trkpt lat="45.44717134981595" lon="11.080230049801363"><ele>57.5</ele><time>2026-03-23T07:02:42Z</time></trkpt><trkpt lat="45.44730643225221" lon="11.08022797809938"><ele>57.75</ele><time>2026-03-23T07:02:43Z</time></trkpt><trkpt lat="45.447444575702264" lon="11.08021705868712"><ele>58.0</ele><time>2026-03-23T07:02:44Z</time></trkpt><trkpt lat="45.44758374268015" lon="11.080194889437236"><ele>58.0</ele><time>2026-03-23T07:02:45Z</time></trkpt><trkpt lat="45.44772351162783" lon="11.080174710681732"><ele>58.0</ele><time>2026-03-23T07:02:46Z</time></trkpt><trkpt lat="45.447865784929796" lon="11.08014543710157"><ele>58.0</ele><time>2026-03-23T07:02:47Z</time></trkpt><trkpt lat="45.44800919216165" lon="11.080113884122763"><ele>58.0</ele><time>2026-03-23T07:02:48Z</time></trkpt><trkpt lat="45.44815083447668" lon="11.080080108040079"><ele>58.25</ele><time>2026-03-23T07:02:49Z</time></trkpt><trkpt lat="45.44829688972427" lon="11.08006471451982"><ele>58.5</ele><time>2026-03-23T07:02:50Z</time></trkpt><trkpt lat="45.448444720636225" lon="11.080047755457004"><ele>58.75</ele><time>2026-03-23T07:02:51Z</time></trkpt><trkpt lat="45.4485856645912" lon="11.080034680953238"><ele>59.0</ele><time>2026-03-23T07:02:52Z</time></trkpt><trkpt lat="45.44872443310065" lon="11.080028098031521"><ele>58.5</ele><time>2026-03-23T07:02:53Z</time></trkpt><trkpt lat="45.44886204612149" lon="11.080040309950341"><ele>58.0</ele><time>2026-03-23T07:02:54Z</time></trkpt><trkpt lat="45.44898421421739" lon="11.08005444147522"><ele>57.5</ele><time>2026-03-23T07:02:55Z</time></trkpt><trkpt lat="45.44910047697415" lon="11.080065382547039"><ele>57.0</ele><time>2026-03-23T07:02:56Z</time></trkpt><trkpt lat="45.44920773339602" lon="11.08007225546423"><ele>57.0</ele><time>2026-03-23T07:02:57Z</time></trkpt><trkpt lat="45.44931544824931" lon="11.080044022082447"><ele>57.0</ele><time>2026-03-23T07:02:58Z</time></trkpt><trkpt lat="45.44943347954097" lon="11.080002080759412"><ele>57.0</ele><time>2026-03-23T07:02:59Z</time></trkpt><trkpt lat="45.449543265091364" lon="11.07991352959018"><ele>57.0</ele><time>2026-03-23T07:03:00Z</time></trkpt><trkpt lat="45.44966389985686" lon="11.079825466424591"><ele>55.0</ele><time>2026-03-23T07:03:01Z</time></trkpt><trkpt lat="45.44982142638293" lon="11.07977093938932"><ele>53.0</ele><time>2026-03-23T07:03:02Z</time></trkpt><trkpt lat="45.45000125483652" lon="11.079758354651798"><ele>51.0</ele><time>2026-03-23T07:03:03Z</time></trkpt><trkpt lat="45.45019591656576" lon="11.079773721550565"><ele>51.0</ele><time>2026-03-23T07:03:04Z</time></trkpt><trkpt lat="45.4504056306995" lon="11.079802683409785"><ele>51.0</ele><time>2026-03-23T07:03:05Z</time></trkpt><trkpt lat="45.4506258651978" lon="11.079828272631055"><ele>51.0</ele><time>2026-03-23T07:03:06Z</time></trkpt><trkpt lat="45.450522323999806" lon="11.079732538025917"><ele>51.25</ele><time>2026-03-23T07:03:07Z</time></trkpt><trkpt lat="45.45067728702" lon="11.079729122930365"><ele>51.5</ele><time>2026-03-23T07:03:08Z</time></trkpt><trkpt lat="45.450821675978396" lon="11.07972744050625"><ele>51.75</ele><time>2026-03-23T07:03:09Z</time></trkpt><trkpt lat="45.45096117393046" lon="11.079726142527473"><ele>52.0</ele><time>2026-03-23T07:03:10Z</time></trkpt><trkpt lat="45.45109111014268" lon="11.07971810351462"><ele>52.0</ele><time>2026-03-23T07:03:11Z</time></trkpt><trkpt lat="45.45122436145231" lon="11.079700795598997"><ele>52.0</ele><time>2026-03-23T07:03:12Z</time></trkpt><trkpt lat="45.45137522471762" lon="11.079687884698144"><ele>52.0</ele><time>2026-03-23T07:03:13Z</time></trkpt><trkpt lat="45.45152498608455" lon="11.07967815549554"><ele>52.0</ele><time>2026-03-23T07:03:14Z</time></trkpt><trkpt lat="45.451665901368386" lon="11.079667596299235"><ele>51.75</ele><time>2026-03-23T07:03:15Z</time></trkpt><trkpt lat="45.451793918875964" lon="11.079657536215546"><ele>51.5</ele><time>2026-03-23T07:03:16Z</time></trkpt><trkpt lat="45.451923025547565" lon="11.079654671759773"><ele>51.25</ele><time>2026-03-23T07:03:17Z</time></trkpt><trkpt lat="45.45204840618566" lon="11.079658955745762"><ele>51.0</ele><time>2026-03-23T07:03:18Z</time></trkpt><trkpt lat="45.452175135578315" lon="11.079662244499191"><ele>51.0</ele><time>2026-03-23T07:03:19Z</time></trkpt><trkpt lat="45.452291886020106" lon="11.079658899677359"><ele>51.0</ele><time>2026-03-23T07:03:20Z</time></trkpt><trkpt lat="45.45241630326127" lon="11.079653850520467"><ele>51.0</ele><time>2026-03-23T07:03:21Z</time></trkpt><trkpt lat="45.45255108202583" lon="11.079642903041451"><ele>51.0</ele><time>2026-03-23T07:03:22Z</time></trkpt><trkpt lat="45.45268556928305" lon="11.079631202243466"><ele>51.0</ele><time>2026-03-23T07:03:23Z</time></trkpt><trkpt lat="45.452818063361406" lon="11.079624503368247"><ele>51.0</ele><time>2026-03-23T07:03:24Z</time></trkpt><trkpt lat="45.45295477461236" lon="11.079607818218884"><ele>51.0</ele><time>2026-03-23T07:03:25Z</time></trkpt><trkpt lat="45.45308756837622" lon="11.0795965700702"><ele>51.0</ele><time>2026-03-23T07:03:26Z</time></trkpt><trkpt lat="45.45322409798604" lon="11.07959273172881"><ele>51.199999999999996</ele><time>2026-03-23T07:03:27Z</time></trkpt><trkpt lat="45.453348815702235" lon="11.079598139448215"><ele>51.4</ele><time>2026-03-23T07:03:28Z</time></trkpt><trkpt lat="45.45346157909075" lon="11.079599642522147"><ele>51.6</ele><time>2026-03-23T07:03:29Z</time></trkpt><trkpt lat="45.453545869932725" lon="11.0795926653267"><ele>51.8</ele><time>2026-03-23T07:03:30Z</time></trkpt><trkpt lat="45.453624601429276" lon="11.079556614551887"><ele>52.0</ele><time>2026-03-23T07:03:31Z</time></trkpt><trkpt lat="45.453703096744576" lon="11.079486624508537"><ele>52.0</ele><time>2026-03-23T07:03:32Z</time></trkpt><trkpt lat="45.4537613157078" lon="11.079373597301945"><ele>52.0</ele><time>2026-03-23T07:03:33Z</time></trkpt><trkpt lat="45.45382308185603" lon="11.079233990392291"><ele>52.0</ele><time>2026-03-23T07:03:34Z</time></trkpt><trkpt lat="45.45388935396751" lon="11.079080083989881"><ele>52.0</ele><time>2026-03-23T07:03:35Z</time></trkpt><trkpt lat="45.45395179348082" lon="11.078942669669882"><ele>52.400000000000006</ele><time>2026-03-23T07:03:36Z</time></trkpt><trkpt lat="45.45399472925408" lon="11.078836592248521"><ele>52.800000000000004</ele><time>2026-03-23T07:03:37Z</time></trkpt><trkpt lat="45.454042425733505" lon="11.078729753793592"><ele>53.2</ele><time>2026-03-23T07:03:38Z</time></trkpt><trkpt lat="45.454091547651885" lon="11.078609447646352"><ele>53.6</ele><time>2026-03-23T07:03:39Z</time></trkpt><trkpt lat="45.4541493295248" lon="11.078479756487573"><ele>54.0</ele><time>2026-03-23T07:03:40Z</time></trkpt><trkpt lat="45.45420810140165" lon="11.07835473666874"><ele>54.0</ele><time>2026-03-23T07:03:41Z</time></trkpt><trkpt lat="45.454261525190134" lon="11.078230748294198"><ele>54.00000000000001</ele><time>2026-03-23T07:03:42Z</time></trkpt><trkpt lat="45.45430792884016" lon="11.078149853065545"><ele>54.00000000000001</ele><time>2026-03-23T07:03:43Z</time></trkpt><trkpt lat="45.454378429261794" lon="11.078026488590446"><ele>54.0</ele><time>2026-03-23T07:03:45Z</time></trkpt><trkpt lat="45.45443972653983" lon="11.077872675255392"><ele>54.0</ele><time>2026-03-23T07:03:47Z</time></trkpt><trkpt lat="45.45447895771584" lon="11.07776820676725"><ele>54.0</ele><time>2026-03-23T07:03:48Z</time></trkpt><trkpt lat="45.45452627476155" lon="11.077648659010423"><ele>54.0</ele><time>2026-03-23T07:03:49Z</time></trkpt><trkpt lat="45.45458421499133" lon="11.077501065759737"><ele>54.0</ele><time>2026-03-23T07:03:50Z</time></trkpt><trkpt lat="45.45465616405809" lon="11.077341901801102"><ele>54.0</ele><time>2026-03-23T07:03:51Z</time></trkpt><trkpt lat="45.45473229149266" lon="11.077163893410638"><ele>53.66666666666667</ele><time>2026-03-23T07:03:52Z</time></trkpt><trkpt lat="45.454824663345626" lon="11.076955463394434"><ele>53.333333333333336</ele><time>2026-03-23T07:03:53Z</time></trkpt><trkpt lat="45.454923770142635" lon="11.076735376752401"><ele>53.0</ele><time>2026-03-23T07:03:54Z</time></trkpt><trkpt lat="45.45500914149982" lon="11.076535717555041"><ele>52.0</ele><time>2026-03-23T07:03:55Z</time></trkpt><trkpt lat="45.45510785025628" lon="11.076324596112727"><ele>51.0</ele><time>2026-03-23T07:03:56Z</time></trkpt><trkpt lat="45.4552000169461" lon="11.076116509452364"><ele>50.0</ele><time>2026-03-23T07:03:57Z</time></trkpt><trkpt lat="45.45529242581857" lon="11.075906650888557"><ele>50.0</ele><time>2026-03-23T07:03:58Z</time></trkpt><trkpt lat="45.45538487870244" lon="11.075702969924947"><ele>50.0</ele><time>2026-03-23T07:03:59Z</time></trkpt><trkpt lat="45.45547470312109" lon="11.075505870047593"><ele>50.0</ele><time>2026-03-23T07:04:00Z</time></trkpt><trkpt lat="45.45556517153039" lon="11.075304532437265"><ele>50.66666666666667</ele><time>2026-03-23T07:04:01Z</time></trkpt><trkpt lat="45.45566222735879" lon="11.075096052786982"><ele>51.33333333333333</ele><time>2026-03-23T07:04:02Z</time></trkpt><trkpt lat="45.45577518578801" lon="11.074870917418872"><ele>52.0</ele><time>2026-03-23T07:04:03Z</time></trkpt><trkpt lat="45.45582471863218" lon="11.074725923830812"><ele>52.0</ele><time>2026-03-23T07:04:04Z</time></trkpt><trkpt lat="45.455905153713275" lon="11.074542078517556"><ele>52.0</ele><time>2026-03-23T07:04:05Z</time></trkpt><trkpt lat="45.455989480195825" lon="11.074357068624222"><ele>52.0</ele><time>2026-03-23T07:04:06Z</time></trkpt><trkpt lat="45.45607411682505" lon="11.074176990415692"><ele>52.0</ele><time>2026-03-23T07:04:07Z</time></trkpt><trkpt lat="45.45615971632129" lon="11.074001884178887"><ele>52.0</ele><time>2026-03-23T07:04:08Z</time></trkpt><trkpt lat="45.4562429191792" lon="11.073828670136084"><ele>52.0</ele><time>2026-03-23T07:04:09Z</time></trkpt><trkpt lat="45.45632019171775" lon="11.073657286634333"><ele>52.0</ele><time>2026-03-23T07:04:10Z</time></trkpt><trkpt lat="45.45640075455092" lon="11.07348344592518"><ele>52.25</ele><time>2026-03-23T07:04:11Z</time></trkpt><trkpt lat="45.45648022599713" lon="11.073300038196777"><ele>52.5</ele><time>2026-03-23T07:04:12Z</time></trkpt><trkpt lat="45.456556703843546" lon="11.073129803323638"><ele>52.75</ele><time>2026-03-23T07:04:13Z</time></trkpt><trkpt lat="45.456628844481045" lon="11.072969490150152"><ele>53.0</ele><time>2026-03-23T07:04:14Z</time></trkpt><trkpt lat="45.456700881127794" lon="11.072807999748921"><ele>53.25</ele><time>2026-03-23T07:04:15Z</time></trkpt><trkpt lat="45.45677385495374" lon="11.072636074372008"><ele>53.5</ele><time>2026-03-23T07:04:16Z</time></trkpt><trkpt lat="45.456846843961394" lon="11.072461520814189"><ele>53.75</ele><time>2026-03-23T07:04:17Z</time></trkpt><trkpt lat="45.45692359309791" lon="11.072289643956728"><ele>54.0</ele><time>2026-03-23T07:04:18Z</time></trkpt><trkpt lat="45.45699939938952" lon="11.072125121466062"><ele>54.25</ele><time>2026-03-23T07:04:19Z</time></trkpt><trkpt lat="45.45707056813762" lon="11.071966346256584"><ele>54.5</ele><time>2026-03-23T07:04:20Z</time></trkpt><trkpt lat="45.45713758734803" lon="11.07181484782749"><ele>54.75</ele><time>2026-03-23T07:04:21Z</time></trkpt><trkpt lat="45.457200671057166" lon="11.071675517956184"><ele>55.0</ele><time>2026-03-23T07:04:22Z</time></trkpt><trkpt lat="45.457259721681204" lon="11.071547703239496"><ele>54.6</ele><time>2026-03-23T07:04:23Z</time></trkpt><trkpt lat="45.45731885091172" lon="11.071419851803496"><ele>54.2</ele><time>2026-03-23T07:04:24Z</time></trkpt><trkpt lat="45.45737710593849" lon="11.07129099488953"><ele>53.8</ele><time>2026-03-23T07:04:25Z</time></trkpt><trkpt lat="45.457429788670176" lon="11.071176138309532"><ele>53.4</ele><time>2026-03-23T07:04:26Z</time></trkpt><trkpt lat="45.457474517688865" lon="11.071074930242915"><ele>53.0</ele><time>2026-03-23T07:04:27Z</time></trkpt><trkpt lat="45.457513215580924" lon="11.070995606633725"><ele>53.00000000000001</ele><time>2026-03-23T07:04:28Z</time></trkpt><trkpt lat="45.45757459900938" lon="11.070875053348974"><ele>53.0</ele><time>2026-03-23T07:04:30Z</time></trkpt><trkpt lat="45.45757733585534" lon="11.070782620197933"><ele>53.0</ele><time>2026-03-23T07:04:31Z</time></trkpt><trkpt lat="45.45755332938486" lon="11.070670775912632"><ele>53.0</ele><time>2026-03-23T07:04:32Z</time></trkpt><trkpt lat="45.45752114443172" lon="11.070574346426183"><ele>53.00000000000001</ele><time>2026-03-23T07:04:33Z</time></trkpt><trkpt lat="45.457530736030755" lon="11.070431569032415"><ele>53.0</ele><time>2026-03-23T07:04:35Z</time></trkpt><trkpt lat="45.45764741080467" lon="11.070338687745942"><ele>53.0</ele><time>2026-03-23T07:04:37Z</time></trkpt><trkpt lat="45.45773121330699" lon="11.070278914157097"><ele>53.0</ele><time>2026-03-23T07:04:38Z</time></trkpt><trkpt lat="45.4578219172771" lon="11.07019549698374"><ele>53.0</ele><time>2026-03-23T07:04:39Z</time></trkpt><trkpt lat="45.457920860161416" lon="11.070097380978162"><ele>53.0</ele><time>2026-03-23T07:04:40Z</time></trkpt><trkpt lat="45.45802762332593" lon="11.0699849402449"><ele>53.0</ele><time>2026-03-23T07:04:41Z</time></trkpt><trkpt lat="45.45813596767004" lon="11.069871483392296"><ele>53.0</ele><time>2026-03-23T07:04:42Z</time></trkpt><trkpt lat="45.4582285214666" lon="11.069768571647657"><ele>53.0</ele><time>2026-03-23T07:04:43Z</time></trkpt><trkpt lat="45.458313564659264" lon="11.06966294802038"><ele>53.0</ele><time>2026-03-23T07:04:44Z</time></trkpt><trkpt lat="45.458396096233166" lon="11.069539561817807"><ele>53.0</ele><time>2026-03-23T07:04:45Z</time></trkpt><trkpt lat="45.45847656380408" lon="11.069396395311836"><ele>53.0</ele><time>2026-03-23T07:04:46Z</time></trkpt><trkpt lat="45.45855525004617" lon="11.069254007147974"><ele>53.0</ele><time>2026-03-23T07:04:47Z</time></trkpt><trkpt lat="45.458637748075255" lon="11.069119656542703"><ele>53.0</ele><time>2026-03-23T07:04:48Z</time></trkpt><trkpt lat="45.458722846085465" lon="11.06899714943543"><ele>53.25</ele><time>2026-03-23T07:04:49Z</time></trkpt><trkpt lat="45.45881100785104" lon="11.068887156928314"><ele>53.5</ele><time>2026-03-23T07:04:50Z</time></trkpt><trkpt lat="45.458898642157756" lon="11.068778110978778"><ele>53.75</ele><time>2026-03-23T07:04:51Z</time></trkpt><trkpt lat="45.458978164010006" lon="11.068662528334208"><ele>54.0</ele><time>2026-03-23T07:04:52Z</time></trkpt><trkpt lat="45.45904447846472" lon="11.068538651561855"><ele>54.0</ele><time>2026-03-23T07:04:53Z</time></trkpt><trkpt lat="45.45909651573071" lon="11.068414054095703"><ele>54.00000000000001</ele><time>2026-03-23T07:04:54Z</time></trkpt><trkpt lat="45.45914796539267" lon="11.068293289915834"><ele>54.00000000000001</ele><time>2026-03-23T07:04:55Z</time></trkpt><trkpt lat="45.459191951610755" lon="11.068165544575407"><ele>54.0</ele><time>2026-03-23T07:04:56Z</time></trkpt><trkpt lat="45.45923978514805" lon="11.068024857660978"><ele>54.0</ele><time>2026-03-23T07:04:57Z</time></trkpt><trkpt lat="45.45929583251139" lon="11.067875937535009"><ele>54.0</ele><time>2026-03-23T07:04:58Z</time></trkpt><trkpt lat="45.45934904528849" lon="11.067741532822621"><ele>54.00000000000001</ele><time>2026-03-23T07:04:59Z</time></trkpt><trkpt lat="45.45941495341498" lon="11.067633830709472"><ele>54.00000000000001</ele><time>2026-03-23T07:05:00Z</time></trkpt><trkpt lat="45.45949019889813" lon="11.067540208282617"><ele>54.0</ele><time>2026-03-23T07:05:01Z</time></trkpt><trkpt lat="45.459575015950634" lon="11.067442699495878"><ele>54.0</ele><time>2026-03-23T07:05:02Z</time></trkpt><trkpt lat="45.45966477376872" lon="11.067340877121513"><ele>54.0</ele><time>2026-03-23T07:05:03Z</time></trkpt><trkpt lat="45.45976341131422" lon="11.067256997204076"><ele>54.0</ele><time>2026-03-23T07:05:04Z</time></trkpt><trkpt lat="45.45987149654479" lon="11.067179786275716"><ele>54.0</ele><time>2026-03-23T07:05:05Z</time></trkpt><trkpt lat="45.459978572819395" lon="11.067100993407472"><ele>54.0</ele><time>2026-03-23T07:05:06Z</time></trkpt><trkpt lat="45.46008204348231" lon="11.06701765937847"><ele>54.0</ele><time>2026-03-23T07:05:07Z</time></trkpt><trkpt lat="45.460178483515996" lon="11.066935855159635"><ele>54.00000000000001</ele><time>2026-03-23T07:05:08Z</time></trkpt><trkpt lat="45.46026567804193" lon="11.066856706476457"><ele>54.00000000000001</ele><time>2026-03-23T07:05:09Z</time></trkpt><trkpt lat="45.460358324315536" lon="11.066788584104355"><ele>54.0</ele><time>2026-03-23T07:05:10Z</time></trkpt><trkpt lat="45.460452636759804" lon="11.066740794991127"><ele>54.0</ele><time>2026-03-23T07:05:11Z</time></trkpt><trkpt lat="45.46054430033322" lon="11.06668939192389"><ele>54.166666666666664</ele><time>2026-03-23T07:05:12Z</time></trkpt><trkpt lat="45.460629154517314" lon="11.066648461227986"><ele>54.33333333333333</ele><time>2026-03-23T07:05:13Z</time></trkpt><trkpt lat="45.46070775783251" lon="11.066616033575627"><ele>54.5</ele><time>2026-03-23T07:05:14Z</time></trkpt><trkpt lat="45.460780867042544" lon="11.066581680854936"><ele>54.666666666666664</ele><time>2026-03-23T07:05:15Z</time></trkpt><trkpt lat="45.460867211372715" lon="11.066534877531083"><ele>54.83333333333333</ele><time>2026-03-23T07:05:17Z</time></trkpt><trkpt lat="45.460952670138234" lon="11.06647972402431"><ele>55.0</ele><time>2026-03-23T07:05:19Z</time></trkpt><trkpt lat="45.461032042342" lon="11.066456399036833"><ele>54.99999999999999</ele><time>2026-03-23T07:05:21Z</time></trkpt><trkpt lat="45.461105999830416" lon="11.06642696095757"><ele>55.0</ele><time>2026-03-23T07:05:25Z</time></trkpt><trkpt lat="45.46121461002125" lon="11.066419772573868"><ele>55.0</ele><time>2026-03-23T07:05:27Z</time></trkpt><trkpt lat="45.461280435500676" lon="11.066436324360993"><ele>55.0</ele><time>2026-03-23T07:05:28Z</time></trkpt><trkpt lat="45.46139139986988" lon="11.066485754159935"><ele>54.99999999999999</ele><time>2026-03-23T07:05:30Z</time></trkpt><trkpt lat="45.46145761886352" lon="11.066491468754322"><ele>55.0</ele><time>2026-03-23T07:05:31Z</time></trkpt><trkpt lat="45.46152793185225" lon="11.066493156323418"><ele>55.42857142857142</ele><time>2026-03-23T07:05:32Z</time></trkpt><trkpt lat="45.46159527648038" lon="11.066485393881859"><ele>55.85714285714286</ele><time>2026-03-23T07:05:33Z</time></trkpt><trkpt lat="45.46165869224837" lon="11.066473907062438"><ele>56.28571428571429</ele><time>2026-03-23T07:05:34Z</time></trkpt><trkpt lat="45.46172742773071" lon="11.066452379085524"><ele>56.714285714285715</ele><time>2026-03-23T07:05:35Z</time></trkpt><trkpt lat="45.46179927797324" lon="11.066441793174555"><ele>57.142857142857146</ele><time>2026-03-23T07:05:36Z</time></trkpt><trkpt lat="45.461867289529884" lon="11.066429878375722"><ele>57.57142857142858</ele><time>2026-03-23T07:05:37Z</time></trkpt><trkpt lat="45.461940333108714" lon="11.066416253316794"><ele>58.00000000000001</ele><time>2026-03-23T07:05:38Z</time></trkpt><trkpt lat="45.462004012838555" lon="11.06640479766738"><ele>58.0</ele><time>2026-03-23T07:05:39Z</time></trkpt><trkpt lat="45.46209441438134" lon="11.066392235045344"><ele>58.0</ele><time>2026-03-23T07:05:41Z</time></trkpt><trkpt lat="45.46219609897472" lon="11.066404107006361"><ele>58.0</ele><time>2026-03-23T07:05:43Z</time></trkpt><trkpt lat="45.46231145092237" lon="11.066439157664293"><ele>58.0</ele><time>2026-03-23T07:05:45Z</time></trkpt><trkpt lat="45.4623561117131" lon="11.066522003873178"><ele>58.0</ele><time>2026-03-23T07:05:46Z</time></trkpt><trkpt lat="45.4623852097516" lon="11.066623584240808"><ele>58.33333333333333</ele><time>2026-03-23T07:05:47Z</time></trkpt><trkpt lat="45.4624128126127" lon="11.066731911613877"><ele>58.666666666666664</ele><time>2026-03-23T07:05:48Z</time></trkpt><trkpt lat="45.46244242114343" lon="11.066840811650076"><ele>59.0</ele><time>2026-03-23T07:05:49Z</time></trkpt><trkpt lat="45.46246625512518" lon="11.066946088983983"><ele>59.33333333333333</ele><time>2026-03-23T07:05:50Z</time></trkpt><trkpt lat="45.462492694728546" lon="11.067048583199128"><ele>59.666666666666664</ele><time>2026-03-23T07:05:51Z</time></trkpt><trkpt lat="45.4625194520419" lon="11.067147905195956"><ele>60.0</ele><time>2026-03-23T07:05:52Z</time></trkpt><trkpt lat="45.46254348225858" lon="11.06724439342862"><ele>60.0</ele><time>2026-03-23T07:05:53Z</time></trkpt><trkpt lat="45.4625677072191" lon="11.067340766284344"><ele>60.0</ele><time>2026-03-23T07:05:54Z</time></trkpt><trkpt lat="45.46259064959934" lon="11.067429468813742"><ele>60.0</ele><time>2026-03-23T07:05:55Z</time></trkpt><trkpt lat="45.46262423250628" lon="11.067583150012865"><ele>60.0</ele><time>2026-03-23T07:05:57Z</time></trkpt><trkpt lat="45.46265985907119" lon="11.067730096106187"><ele>60.0</ele><time>2026-03-23T07:05:59Z</time></trkpt><trkpt lat="45.46272899912699" lon="11.067875400801114"><ele>60.0</ele><time>2026-03-23T07:06:01Z</time></trkpt><trkpt lat="45.46284776952722" lon="11.067924603929333"><ele>60.0</ele><time>2026-03-23T07:06:03Z</time></trkpt><trkpt lat="45.462920170796465" lon="11.067915518998111"><ele>60.0</ele><time>2026-03-23T07:06:04Z</time></trkpt><trkpt lat="45.46298370265999" lon="11.06789172513288"><ele>60.0</ele><time>2026-03-23T07:06:05Z</time></trkpt><trkpt lat="45.463049125846275" lon="11.067858599233013"><ele>60.0</ele><time>2026-03-23T07:06:06Z</time></trkpt><trkpt lat="45.46312410551171" lon="11.067820555307508"><ele>60.0</ele><time>2026-03-23T07:06:07Z</time></trkpt><trkpt lat="45.463200512414105" lon="11.067781591699683"><ele>60.5</ele><time>2026-03-23T07:06:08Z</time></trkpt><trkpt lat="45.463280341951496" lon="11.067737630829667"><ele>61.0</ele><time>2026-03-23T07:06:09Z</time></trkpt><trkpt lat="45.463363863341876" lon="11.067688557785901"><ele>61.5</ele><time>2026-03-23T07:06:10Z</time></trkpt><trkpt lat="45.463437771059496" lon="11.067650048477148"><ele>62.0</ele><time>2026-03-23T07:06:11Z</time></trkpt><trkpt lat="45.46350238563114" lon="11.067613087220412"><ele>62.5</ele><time>2026-03-23T07:06:12Z</time></trkpt><trkpt lat="45.463568580112494" lon="11.067572767047674"><ele>63.0</ele><time>2026-03-23T07:06:13Z</time></trkpt><trkpt lat="45.46363991366742" lon="11.067532113270401"><ele>63.0</ele><time>2026-03-23T07:06:14Z</time></trkpt><trkpt lat="45.46371453873386" lon="11.06749285668553"><ele>63.0</ele><time>2026-03-23T07:06:15Z</time></trkpt><trkpt lat="45.46378967282158" lon="11.067450560306835"><ele>63.0</ele><time>2026-03-23T07:06:16Z</time></trkpt><trkpt lat="45.463867730054545" lon="11.06741031157224"><ele>63.0</ele><time>2026-03-23T07:06:17Z</time></trkpt><trkpt lat="45.46394815247511" lon="11.067371006014696"><ele>63.0</ele><time>2026-03-23T07:06:18Z</time></trkpt><trkpt lat="45.46402812515753" lon="11.067341853922576"><ele>63.0</ele><time>2026-03-23T07:06:19Z</time></trkpt><trkpt lat="45.46410113079284" lon="11.067316513479335"><ele>62.833333333333336</ele><time>2026-03-23T07:06:20Z</time></trkpt><trkpt lat="45.46416924073935" lon="11.067297396231892"><ele>62.66666666666667</ele><time>2026-03-23T07:06:21Z</time></trkpt><trkpt lat="45.464238526972395" lon="11.067285215218691"><ele>62.5</ele><time>2026-03-23T07:06:22Z</time></trkpt><trkpt lat="45.46431498980469" lon="11.067272632419536"><ele>62.333333333333336</ele><time>2026-03-23T07:06:23Z</time></trkpt><trkpt lat="45.46439293707262" lon="11.067269586266452"><ele>62.16666666666667</ele><time>2026-03-23T07:06:24Z</time></trkpt><trkpt lat="45.4644711387897" lon="11.067274368641762"><ele>62.0</ele><time>2026-03-23T07:06:25Z</time></trkpt><trkpt lat="45.46455044677704" lon="11.067282054552955"><ele>62.28571428571429</ele><time>2026-03-23T07:06:26Z</time></trkpt><trkpt lat="45.46462723766089" lon="11.067296609678344"><ele>62.57142857142858</ele><time>2026-03-23T07:06:27Z</time></trkpt><trkpt lat="45.46469798857242" lon="11.067314193188075"><ele>62.85714285714286</ele><time>2026-03-23T07:06:28Z</time></trkpt><trkpt lat="45.4647649820788" lon="11.067328229234072"><ele>63.14285714285714</ele><time>2026-03-23T07:06:29Z</time></trkpt><trkpt lat="45.46483284762885" lon="11.067344140393152"><ele>63.42857142857142</ele><time>2026-03-23T07:06:30Z</time></trkpt><trkpt lat="45.46490049263049" lon="11.067359527457775"><ele>63.71428571428571</ele><time>2026-03-23T07:06:31Z</time></trkpt><trkpt lat="45.46497378051257" lon="11.067376937252801"><ele>64.0</ele><time>2026-03-23T07:06:32Z</time></trkpt><trkpt lat="45.46504710777232" lon="11.067392205685401"><ele>63.99999999999999</ele><time>2026-03-23T07:06:33Z</time></trkpt><trkpt lat="45.46511880188111" lon="11.067405764545144"><ele>64.0</ele><time>2026-03-23T07:06:34Z</time></trkpt><trkpt lat="45.465205509544454" lon="11.067435793539047"><ele>64.0</ele><time>2026-03-23T07:06:36Z</time></trkpt><trkpt lat="45.46526486687305" lon="11.067474196449153"><ele>64.0</ele><time>2026-03-23T07:06:37Z</time></trkpt><trkpt lat="45.46532872206451" lon="11.067525897142874"><ele>63.99999999999999</ele><time>2026-03-23T07:06:38Z</time></trkpt><trkpt lat="45.46539295271473" lon="11.067582584996149"><ele>64.0</ele><time>2026-03-23T07:06:39Z</time></trkpt><trkpt lat="45.46545596356822" lon="11.067645814307205"><ele>64.60000000000001</ele><time>2026-03-23T07:06:40Z</time></trkpt><trkpt lat="45.465511675633564" lon="11.067742115237428"><ele>65.2</ele><time>2026-03-23T07:06:41Z</time></trkpt><trkpt lat="45.46557750804404" lon="11.067840762923003"><ele>65.80000000000001</ele><time>2026-03-23T07:06:42Z</time></trkpt><trkpt lat="45.465670333424335" lon="11.067934921484051"><ele>66.4</ele><time>2026-03-23T07:06:43Z</time></trkpt><trkpt lat="45.46576520149675" lon="11.068060107914244"><ele>67.0</ele><time>2026-03-23T07:06:44Z</time></trkpt><trkpt lat="45.46581978092208" lon="11.068168297755472"><ele>67.0</ele><time>2026-03-23T07:06:45Z</time></trkpt><trkpt lat="45.465867209710105" lon="11.068248979080545"><ele>67.0</ele><time>2026-03-23T07:06:47Z</time></trkpt><trkpt lat="45.46582209228641" lon="11.068142946772797"><ele>67.0</ele><time>2026-03-23T07:07:14Z</time></trkpt><trkpt lat="45.465782550216176" lon="11.068061037003883"><ele>67.0</ele><time>2026-03-23T07:07:16Z</time></trkpt><trkpt lat="45.46571890438597" lon="11.06794502976298"><ele>67.0</ele><time>2026-03-23T07:07:18Z</time></trkpt><trkpt lat="45.465665953098075" lon="11.067878998388888"><ele>67.0</ele><time>2026-03-23T07:07:19Z</time></trkpt><trkpt lat="45.46560269815092" lon="11.067801708085483"><ele>67.0</ele><time>2026-03-23T07:07:21Z</time></trkpt><trkpt lat="45.465645063544144" lon="11.067696201757082"><ele>67.0</ele><time>2026-03-23T07:07:31Z</time></trkpt><trkpt lat="45.465794730449595" lon="11.067697146456993"><ele>67.0</ele><time>2026-03-23T07:07:33Z</time></trkpt><trkpt lat="45.46589681144232" lon="11.06768130664311"><ele>67.0</ele><time>2026-03-23T07:07:34Z</time></trkpt><trkpt lat="45.466026911855714" lon="11.067658452026741"><ele>67.0</ele><time>2026-03-23T07:07:35Z</time></trkpt><trkpt lat="45.46614973504614" lon="11.06762616395561"><ele>67.0</ele><time>2026-03-23T07:07:36Z</time></trkpt><trkpt lat="45.46627235305608" lon="11.067576964604768"><ele>67.0</ele><time>2026-03-23T07:07:37Z</time></trkpt><trkpt lat="45.46638812159718" lon="11.067554029740322"><ele>67.0</ele><time>2026-03-23T07:07:38Z</time></trkpt><trkpt lat="45.466477507169124" lon="11.067558211035808"><ele>67.75</ele><time>2026-03-23T07:07:39Z</time></trkpt><trkpt lat="45.46655204292365" lon="11.067552873729179"><ele>68.5</ele><time>2026-03-23T07:07:40Z</time></trkpt><trkpt lat="45.4666285110152" lon="11.067558823211758"><ele>69.25</ele><time>2026-03-23T07:07:41Z</time></trkpt><trkpt lat="45.46688799451965" lon="11.067522727379309"><ele>70.0</ele><time>2026-03-23T07:07:42Z</time></trkpt><trkpt lat="45.46700294620535" lon="11.067499054969081"><ele>70.2</ele><time>2026-03-23T07:07:43Z</time></trkpt><trkpt lat="45.467115919879475" lon="11.06746361495619"><ele>70.4</ele><time>2026-03-23T07:07:44Z</time></trkpt><trkpt lat="45.46723169008255" lon="11.067431650252713"><ele>70.6</ele><time>2026-03-23T07:07:45Z</time></trkpt><trkpt lat="45.467338101177745" lon="11.067404514045002"><ele>70.8</ele><time>2026-03-23T07:07:46Z</time></trkpt><trkpt lat="45.46743389044591" lon="11.067379650578454"><ele>71.0</ele><time>2026-03-23T07:07:47Z</time></trkpt><trkpt lat="45.467528158594035" lon="11.067365568959845"><ele>71.0</ele><time>2026-03-23T07:07:48Z</time></trkpt><trkpt lat="45.467627240309575" lon="11.0673427426045"><ele>71.0</ele><time>2026-03-23T07:07:49Z</time></trkpt><trkpt lat="45.467732163469556" lon="11.067328950168275"><ele>71.0</ele><time>2026-03-23T07:07:50Z</time></trkpt><trkpt lat="45.467840611043265" lon="11.067323951423926"><ele>71.0</ele><time>2026-03-23T07:07:51Z</time></trkpt><trkpt lat="45.467938075552006" lon="11.067309910407461"><ele>71.0</ele><time>2026-03-23T07:07:52Z</time></trkpt><trkpt lat="45.46803728415012" lon="11.067292818204459"><ele>71.6</ele><time>2026-03-23T07:07:53Z</time></trkpt><trkpt lat="45.46814647248497" lon="11.067291655370717"><ele>72.19999999999999</ele><time>2026-03-23T07:07:54Z</time></trkpt><trkpt lat="45.46825573498893" lon="11.067294817360326"><ele>72.80000000000001</ele><time>2026-03-23T07:07:55Z</time></trkpt><trkpt lat="45.46835135214883" lon="11.067305604962753"><ele>73.4</ele><time>2026-03-23T07:07:56Z</time></trkpt><trkpt lat="45.46843990616827" lon="11.067322677958762"><ele>74.0</ele><time>2026-03-23T07:07:57Z</time></trkpt><trkpt lat="45.46851093000918" lon="11.06734425448433"><ele>74.0</ele><time>2026-03-23T07:07:58Z</time></trkpt><trkpt lat="45.46862961311081" lon="11.067382426412006"><ele>74.0</ele><time>2026-03-23T07:08:00Z</time></trkpt><trkpt lat="45.468701533634814" lon="11.067413585828984"><ele>74.0</ele><time>2026-03-23T07:08:01Z</time></trkpt><trkpt lat="45.46878229448179" lon="11.067439775805003"><ele>74.0</ele><time>2026-03-23T07:08:02Z</time></trkpt><trkpt lat="45.468884291096074" lon="11.067457715861217"><ele>74.0</ele><time>2026-03-23T07:08:03Z</time></trkpt><trkpt lat="45.46900631821306" lon="11.067496198756448"><ele>74.75</ele><time>2026-03-23T07:08:04Z</time></trkpt><trkpt lat="45.46914232612065" lon="11.067557613142057"><ele>75.5</ele><time>2026-03-23T07:08:05Z</time></trkpt><trkpt lat="45.469283149258345" lon="11.067590803014895"><ele>76.25</ele><time>2026-03-23T07:08:06Z</time></trkpt><trkpt lat="45.46941380387416" lon="11.067649798345132"><ele>77.0</ele><time>2026-03-23T07:08:07Z</time></trkpt><trkpt lat="45.46954210140461" lon="11.067694287059178"><ele>77.0</ele><time>2026-03-23T07:08:08Z</time></trkpt><trkpt lat="45.46965133360259" lon="11.067719265067247"><ele>77.0</ele><time>2026-03-23T07:08:09Z</time></trkpt><trkpt lat="45.46975049506657" lon="11.067746794587743"><ele>77.0</ele><time>2026-03-23T07:08:10Z</time></trkpt><trkpt lat="45.46985055423881" lon="11.067779515188557"><ele>77.0</ele><time>2026-03-23T07:08:11Z</time></trkpt><trkpt lat="45.46996364854286" lon="11.067805325590564"><ele>77.0</ele><time>2026-03-23T07:08:12Z</time></trkpt><trkpt lat="45.4700657590368" lon="11.067842121322743"><ele>77.0</ele><time>2026-03-23T07:08:13Z</time></trkpt><trkpt lat="45.4701716259625" lon="11.067855764978813"><ele>77.0</ele><time>2026-03-23T07:08:14Z</time></trkpt><trkpt lat="45.47026290951817" lon="11.067844531317231"><ele>77.0</ele><time>2026-03-23T07:08:15Z</time></trkpt><trkpt lat="45.47036877439327" lon="11.067789587324944"><ele>77.0</ele><time>2026-03-23T07:08:16Z</time></trkpt><trkpt lat="45.470465285557225" lon="11.067696125557545"><ele>77.0</ele><time>2026-03-23T07:08:17Z</time></trkpt><trkpt lat="45.470564643343614" lon="11.067586547064197"><ele>76.4</ele><time>2026-03-23T07:08:18Z</time></trkpt><trkpt lat="45.47066787264277" lon="11.067479435095786"><ele>75.80000000000001</ele><time>2026-03-23T07:08:19Z</time></trkpt><trkpt lat="45.47076325569621" lon="11.06739356594579"><ele>75.2</ele><time>2026-03-23T07:08:20Z</time></trkpt><trkpt lat="45.47084789499421" lon="11.067316845094055"><ele>74.60000000000001</ele><time>2026-03-23T07:08:21Z</time></trkpt><trkpt lat="45.470926184930796" lon="11.06725069873395"><ele>74.0</ele><time>2026-03-23T07:08:22Z</time></trkpt><trkpt lat="45.47100163951796" lon="11.067197282840658"><ele>74.0</ele><time>2026-03-23T07:08:23Z</time></trkpt><trkpt lat="45.47107491772749" lon="11.067161282911153"><ele>74.0</ele><time>2026-03-23T07:08:24Z</time></trkpt><trkpt lat="45.47114817636013" lon="11.067152671326783"><ele>74.0</ele><time>2026-03-23T07:08:25Z</time></trkpt><trkpt lat="45.471231818432024" lon="11.067174604660346"><ele>74.0</ele><time>2026-03-23T07:08:26Z</time></trkpt><trkpt lat="45.47132106136424" lon="11.067221935246389"><ele>74.0</ele><time>2026-03-23T07:08:27Z</time></trkpt><trkpt lat="45.47141203663885" lon="11.067292513153824"><ele>74.0</ele><time>2026-03-23T07:08:28Z</time></trkpt><trkpt lat="45.4715105733506" lon="11.067376555999129"><ele>76.2</ele><time>2026-03-23T07:08:29Z</time></trkpt><trkpt lat="45.471604072474584" lon="11.067479124604688"><ele>78.4</ele><time>2026-03-23T07:08:30Z</time></trkpt><trkpt lat="45.47168384303563" lon="11.067583323244824"><ele>80.6</ele><time>2026-03-23T07:08:31Z</time></trkpt><trkpt lat="45.47174995383533" lon="11.067682159625432"><ele>82.8</ele><time>2026-03-23T07:08:32Z</time></trkpt><trkpt lat="45.47179935382089" lon="11.067779408592337"><ele>85.0</ele><time>2026-03-23T07:08:33Z</time></trkpt><trkpt lat="45.47183780132471" lon="11.067882062610336"><ele>85.0</ele><time>2026-03-23T07:08:34Z</time></trkpt><trkpt lat="45.4718693806631" lon="11.067996699432337"><ele>85.0</ele><time>2026-03-23T07:08:35Z</time></trkpt><trkpt lat="45.4718935858372" lon="11.068114473647071"><ele>85.0</ele><time>2026-03-23T07:08:36Z</time></trkpt><trkpt lat="45.47193083661002" lon="11.068221024783883"><ele>85.0</ele><time>2026-03-23T07:08:37Z</time></trkpt><trkpt lat="45.47196812748742" lon="11.068358894158361"><ele>85.0</ele><time>2026-03-23T07:08:38Z</time></trkpt><trkpt lat="45.472006551400796" lon="11.068541466075908"><ele>85.25</ele><time>2026-03-23T07:08:39Z</time></trkpt><trkpt lat="45.472048544069295" lon="11.068724129253942"><ele>85.5</ele><time>2026-03-23T07:08:40Z</time></trkpt><trkpt lat="45.47210823870533" lon="11.068887281832726"><ele>85.75</ele><time>2026-03-23T07:08:41Z</time></trkpt><trkpt lat="45.472191607021664" lon="11.069036824964467"><ele>86.0</ele><time>2026-03-23T07:08:42Z</time></trkpt><trkpt lat="45.47229552968331" lon="11.069184208196912"><ele>89.0</ele><time>2026-03-23T07:08:43Z</time></trkpt><trkpt lat="45.47240985842471" lon="11.069329571679514"><ele>92.0</ele><time>2026-03-23T07:08:44Z</time></trkpt><trkpt lat="45.47252020189518" lon="11.069471989316208"><ele>95.0</ele><time>2026-03-23T07:08:45Z</time></trkpt><trkpt lat="45.47263312566128" lon="11.069614547924296"><ele>95.0</ele><time>2026-03-23T07:08:46Z</time></trkpt><trkpt lat="45.47274780728136" lon="11.069784221001784"><ele>95.0</ele><time>2026-03-23T07:08:47Z</time></trkpt><trkpt lat="45.472842753809246" lon="11.069959362242937"><ele>95.0</ele><time>2026-03-23T07:08:48Z</time></trkpt><trkpt lat="45.472924586469034" lon="11.070131579397673"><ele>95.75</ele><time>2026-03-23T07:08:49Z</time></trkpt><trkpt lat="45.472983731726146" lon="11.070316189010095"><ele>96.5</ele><time>2026-03-23T07:08:50Z</time></trkpt><trkpt lat="45.47305139094005" lon="11.070501650738544"><ele>97.25</ele><time>2026-03-23T07:08:51Z</time></trkpt><trkpt lat="45.47309644963376" lon="11.070675969716952"><ele>98.0</ele><time>2026-03-23T07:08:52Z</time></trkpt><trkpt lat="45.47314475318358" lon="11.070850439222513"><ele>99.75</ele><time>2026-03-23T07:08:53Z</time></trkpt><trkpt lat="45.473173182289486" lon="11.071017443963921"><ele>101.5</ele><time>2026-03-23T07:08:54Z</time></trkpt><trkpt lat="45.47320160874179" lon="11.071207897016873"><ele>103.25</ele><time>2026-03-23T07:08:55Z</time></trkpt><trkpt lat="45.47321404162012" lon="11.071428229839688"><ele>105.0</ele><time>2026-03-23T07:08:56Z</time></trkpt><trkpt lat="45.47322033678132" lon="11.071644420161535"><ele>105.75</ele><time>2026-03-23T07:08:57Z</time></trkpt><trkpt lat="45.47322290010654" lon="11.07185407027602"><ele>106.5</ele><time>2026-03-23T07:08:58Z</time></trkpt><trkpt lat="45.47323249600444" lon="11.072065994371892"><ele>107.25</ele><time>2026-03-23T07:08:59Z</time></trkpt><trkpt lat="45.47324848715444" lon="11.072277516759527"><ele>108.0</ele><time>2026-03-23T07:09:00Z</time></trkpt><trkpt lat="45.473271126849106" lon="11.072477302240134"><ele>109.2</ele><time>2026-03-23T07:09:01Z</time></trkpt><trkpt lat="45.473293247413835" lon="11.072652150440064"><ele>110.4</ele><time>2026-03-23T07:09:02Z</time></trkpt><trkpt lat="45.47331495754254" lon="11.072799453788518"><ele>111.60000000000001</ele><time>2026-03-23T07:09:03Z</time></trkpt><trkpt lat="45.47333556723297" lon="11.0729191845261"><ele>112.80000000000001</ele><time>2026-03-23T07:09:04Z</time></trkpt><trkpt lat="45.47337205839168" lon="11.07300118960297"><ele>114.0</ele><time>2026-03-23T07:09:05Z</time></trkpt><trkpt lat="45.47343049550804" lon="11.073044283503803"><ele>114.0</ele><time>2026-03-23T07:09:06Z</time></trkpt><trkpt lat="45.47351824983427" lon="11.073047520197226"><ele>114.0</ele><time>2026-03-23T07:09:07Z</time></trkpt><trkpt lat="45.473632383430456" lon="11.07301959730196"><ele>114.0</ele><time>2026-03-23T07:09:08Z</time></trkpt><trkpt lat="45.47376087821346" lon="11.072989945722833"><ele>114.0</ele><time>2026-03-23T07:09:09Z</time></trkpt><trkpt lat="45.47390213596318" lon="11.073001199613639"><ele>115.25</ele><time>2026-03-23T07:09:10Z</time></trkpt><trkpt lat="45.47405475467665" lon="11.073052485475268"><ele>116.5</ele><time>2026-03-23T07:09:11Z</time></trkpt><trkpt lat="45.47419254811119" lon="11.073121205333564"><ele>117.75</ele><time>2026-03-23T07:09:12Z</time></trkpt><trkpt lat="45.47431000670353" lon="11.073189746427262"><ele>119.0</ele><time>2026-03-23T07:09:13Z</time></trkpt><trkpt lat="45.4743931121525" lon="11.073229613545953"><ele>119.0</ele><time>2026-03-23T07:09:14Z</time></trkpt><trkpt lat="45.47445704447728" lon="11.073238756868653"><ele>119.0</ele><time>2026-03-23T07:09:15Z</time></trkpt><trkpt lat="45.4745428902417" lon="11.07311432997619"><ele>119.0</ele><time>2026-03-23T07:09:17Z</time></trkpt><trkpt lat="45.474531459634846" lon="11.072989310429461"><ele>119.0</ele><time>2026-03-23T07:09:18Z</time></trkpt><trkpt lat="45.47447421219756" lon="11.072869281585577"><ele>119.0</ele><time>2026-03-23T07:09:19Z</time></trkpt><trkpt lat="45.47439274628804" lon="11.072762804547027"><ele>119.0</ele><time>2026-03-23T07:09:20Z</time></trkpt><trkpt lat="45.47435889825521" lon="11.072625872750786"><ele>119.0</ele><time>2026-03-23T07:09:21Z</time></trkpt><trkpt lat="45.47437918704697" lon="11.072469734243002"><ele>119.0</ele><time>2026-03-23T07:09:22Z</time></trkpt><trkpt lat="45.474433382302664" lon="11.072300816625505"><ele>119.0</ele><time>2026-03-23T07:09:23Z</time></trkpt><trkpt lat="45.474502781607434" lon="11.072113719233808"><ele>117.33333333333333</ele><time>2026-03-23T07:09:24Z</time></trkpt><trkpt lat="45.47456998119879" lon="11.071915278861034"><ele>115.66666666666666</ele><time>2026-03-23T07:09:25Z</time></trkpt><trkpt lat="45.474640805940645" lon="11.071697583018283"><ele>114.0</ele><time>2026-03-23T07:09:26Z</time></trkpt><trkpt lat="45.47471714935774" lon="11.071506499253143"><ele>117.0</ele><time>2026-03-23T07:09:27Z</time></trkpt><trkpt lat="45.47480681187955" lon="11.071350198502632"><ele>120.0</ele><time>2026-03-23T07:09:28Z</time></trkpt><trkpt lat="45.47491628056743" lon="11.071204790223351"><ele>123.0</ele><time>2026-03-23T07:09:29Z</time></trkpt><trkpt lat="45.47503803743635" lon="11.071061915437284"><ele>126.0</ele><time>2026-03-23T07:09:30Z</time></trkpt><trkpt lat="45.47515838557825" lon="11.070941120082587"><ele>126.0</ele><time>2026-03-23T07:09:31Z</time></trkpt><trkpt lat="45.47525297418615" lon="11.070845695495894"><ele>126.0</ele><time>2026-03-23T07:09:32Z</time></trkpt><trkpt lat="45.47533686737884" lon="11.070765463306461"><ele>126.0</ele><time>2026-03-23T07:09:33Z</time></trkpt><trkpt lat="45.47540500652647" lon="11.070724063978178"><ele>126.0</ele><time>2026-03-23T07:09:34Z</time></trkpt><trkpt lat="45.47547285910546" lon="11.07069911976061"><ele>126.0</ele><time>2026-03-23T07:09:36Z</time></trkpt><trkpt lat="45.475501887382784" lon="11.070824799858794"><ele>126.0</ele><time>2026-03-23T07:09:38Z</time></trkpt><trkpt lat="45.475411394468686" lon="11.0709734547109"><ele>126.0</ele><time>2026-03-23T07:09:40Z</time></trkpt><trkpt lat="45.47535179836166" lon="11.071088478136604"><ele>126.0</ele><time>2026-03-23T07:09:41Z</time></trkpt><trkpt lat="45.47529991080781" lon="11.07123856561102"><ele>126.0</ele><time>2026-03-23T07:09:42Z</time></trkpt><trkpt lat="45.47525118378226" lon="11.071423941513668"><ele>128.0</ele><time>2026-03-23T07:09:43Z</time></trkpt><trkpt lat="45.475217541715736" lon="11.071613395765933"><ele>130.0</ele><time>2026-03-23T07:09:44Z</time></trkpt><trkpt lat="45.47519005915302" lon="11.071800394582397"><ele>132.0</ele><time>2026-03-23T07:09:45Z</time></trkpt><trkpt lat="45.47517893382809" lon="11.071960077537161"><ele>134.0</ele><time>2026-03-23T07:09:46Z</time></trkpt><trkpt lat="45.47518730062625" lon="11.072131354058014"><ele>134.0</ele><time>2026-03-23T07:09:47Z</time></trkpt><trkpt lat="45.475221183513725" lon="11.072316868570713"><ele>134.0</ele><time>2026-03-23T07:09:48Z</time></trkpt><trkpt lat="45.475273460921166" lon="11.072527834341317"><ele>134.0</ele><time>2026-03-23T07:09:49Z</time></trkpt><trkpt lat="45.475307691837685" lon="11.072752385843847"><ele>134.75</ele><time>2026-03-23T07:09:50Z</time></trkpt><trkpt lat="45.475316747755855" lon="11.07297867422613"><ele>135.5</ele><time>2026-03-23T07:09:51Z</time></trkpt><trkpt lat="45.47530817392094" lon="11.073187796995947"><ele>136.25</ele><time>2026-03-23T07:09:52Z</time></trkpt><trkpt lat="45.47529621630361" lon="11.073375056271972"><ele>137.0</ele><time>2026-03-23T07:09:53Z</time></trkpt><trkpt lat="45.47528686947602" lon="11.07352759515595"><ele>137.75</ele><time>2026-03-23T07:09:54Z</time></trkpt><trkpt lat="45.47527716619623" lon="11.07369755810317"><ele>138.5</ele><time>2026-03-23T07:09:55Z</time></trkpt><trkpt lat="45.47523561270649" lon="11.073891610999414"><ele>139.25</ele><time>2026-03-23T07:09:56Z</time></trkpt><trkpt lat="45.47517680390051" lon="11.074038767330654"><ele>140.0</ele><time>2026-03-23T07:09:57Z</time></trkpt><trkpt lat="45.475142902630296" lon="11.074155221969889"><ele>141.8</ele><time>2026-03-23T07:09:58Z</time></trkpt><trkpt lat="45.47519426065708" lon="11.07428099453432"><ele>143.6</ele><time>2026-03-23T07:10:00Z</time></trkpt><trkpt lat="45.475260744026016" lon="11.074291238646865"><ele>145.4</ele><time>2026-03-23T07:10:01Z</time></trkpt><trkpt lat="45.47532804612974" lon="11.07422923840346"><ele>147.2</ele><time>2026-03-23T07:10:02Z</time></trkpt><trkpt lat="45.47539944242194" lon="11.074110819753246"><ele>149.0</ele><time>2026-03-23T07:10:03Z</time></trkpt><trkpt lat="45.475472737763056" lon="11.073971205030361"><ele>151.66666666666666</ele><time>2026-03-23T07:10:04Z</time></trkpt><trkpt lat="45.47556492010076" lon="11.073815743125346"><ele>154.33333333333334</ele><time>2026-03-23T07:10:05Z</time></trkpt><trkpt lat="45.475661835364846" lon="11.073662755621022"><ele>157.0</ele><time>2026-03-23T07:10:06Z</time></trkpt><trkpt lat="45.47577276013572" lon="11.073484051937854"><ele>157.0</ele><time>2026-03-23T07:10:07Z</time></trkpt><trkpt lat="45.47587917923944" lon="11.073314430535287"><ele>157.0</ele><time>2026-03-23T07:10:08Z</time></trkpt><trkpt lat="45.47597584992935" lon="11.073181768982042"><ele>157.0</ele><time>2026-03-23T07:10:09Z</time></trkpt><trkpt lat="45.47604649790233" lon="11.073062045403358"><ele>157.0</ele><time>2026-03-23T07:10:10Z</time></trkpt><trkpt lat="45.476095881324994" lon="11.07294859921345"><ele>156.5</ele><time>2026-03-23T07:10:11Z</time></trkpt><trkpt lat="45.476142667726926" lon="11.072852886774113"><ele>156.0</ele><time>2026-03-23T07:10:12Z</time></trkpt><trkpt lat="45.476194812900616" lon="11.072782514977263"><ele>155.5</ele><time>2026-03-23T07:10:13Z</time></trkpt><trkpt lat="45.47625712290931" lon="11.072752863224801"><ele>155.0</ele><time>2026-03-23T07:10:14Z</time></trkpt><trkpt lat="45.47635445488357" lon="11.07284854603027"><ele>154.5</ele><time>2026-03-23T07:10:16Z</time></trkpt><trkpt lat="45.47637153772521" lon="11.072942079668294"><ele>154.0</ele><time>2026-03-23T07:10:17Z</time></trkpt><trkpt lat="45.476355078310824" lon="11.073058632964042"><ele>154.0</ele><time>2026-03-23T07:10:18Z</time></trkpt><trkpt lat="45.476305790990715" lon="11.073196820317982"><ele>154.0</ele><time>2026-03-23T07:10:19Z</time></trkpt><trkpt lat="45.476250333508894" lon="11.073353663888406"><ele>154.0</ele><time>2026-03-23T07:10:20Z</time></trkpt><trkpt lat="45.4761945050372" lon="11.07354724641705"><ele>154.0</ele><time>2026-03-23T07:10:21Z</time></trkpt><trkpt lat="45.476111804583496" lon="11.073707690316038"><ele>154.75</ele><time>2026-03-23T07:10:22Z</time></trkpt><trkpt lat="45.476036124528335" lon="11.073866130683944"><ele>155.5</ele><time>2026-03-23T07:10:23Z</time></trkpt><trkpt lat="45.475980770196415" lon="11.074041160456504"><ele>156.25</ele><time>2026-03-23T07:10:24Z</time></trkpt><trkpt lat="45.47591318552596" lon="11.07421168637671"><ele>157.0</ele><time>2026-03-23T07:10:25Z</time></trkpt><trkpt lat="45.475842914696905" lon="11.074386280511392"><ele>158.0</ele><time>2026-03-23T07:10:26Z</time></trkpt><trkpt lat="45.475774827396634" lon="11.074559047863392"><ele>159.0</ele><time>2026-03-23T07:10:27Z</time></trkpt><trkpt lat="45.47570297407604" lon="11.074734891912234"><ele>160.0</ele><time>2026-03-23T07:10:28Z</time></trkpt><trkpt lat="45.4756414176369" lon="11.07491286859873"><ele>161.0</ele><time>2026-03-23T07:10:29Z</time></trkpt><trkpt lat="45.47557726021325" lon="11.075099084867341"><ele>160.5</ele><time>2026-03-23T07:10:30Z</time></trkpt><trkpt lat="45.475524259236224" lon="11.075273394208951"><ele>160.0</ele><time>2026-03-23T07:10:31Z</time></trkpt><trkpt lat="45.475427491760634" lon="11.075444831470785"><ele>159.5</ele><time>2026-03-23T07:10:32Z</time></trkpt><trkpt lat="45.47536476278401" lon="11.075602576360724"><ele>159.0</ele><time>2026-03-23T07:10:33Z</time></trkpt><trkpt lat="45.475310004362065" lon="11.075747753773658"><ele>162.0</ele><time>2026-03-23T07:10:34Z</time></trkpt><trkpt lat="45.4752675085672" lon="11.075880244190193"><ele>165.0</ele><time>2026-03-23T07:10:35Z</time></trkpt><trkpt lat="45.4752190778725" lon="11.075991930436059"><ele>168.0</ele><time>2026-03-23T07:10:36Z</time></trkpt><trkpt lat="45.47514458548858" lon="11.076042712139968"><ele>171.0</ele><time>2026-03-23T07:10:37Z</time></trkpt><trkpt lat="45.47503450343564" lon="11.076053222499175"><ele>174.0</ele><time>2026-03-23T07:10:38Z</time></trkpt><trkpt lat="45.474891134297465" lon="11.076031203107242"><ele>174.0</ele><time>2026-03-23T07:10:39Z</time></trkpt><trkpt lat="45.474733425301004" lon="11.075998964482663"><ele>174.0</ele><time>2026-03-23T07:10:40Z</time></trkpt><trkpt lat="45.474570213796866" lon="11.075986981016099"><ele>174.0</ele><time>2026-03-23T07:10:41Z</time></trkpt><trkpt lat="45.47442978517027" lon="11.075971945590698"><ele>173.2</ele><time>2026-03-23T07:10:42Z</time></trkpt><trkpt lat="45.47431235967637" lon="11.075954997112888"><ele>172.39999999999998</ele><time>2026-03-23T07:10:43Z</time></trkpt><trkpt lat="45.474221052155634" lon="11.075956909299961"><ele>171.6</ele><time>2026-03-23T07:10:44Z</time></trkpt><trkpt lat="45.474141063406606" lon="11.076014845029468"><ele>170.8</ele><time>2026-03-23T07:10:45Z</time></trkpt><trkpt lat="45.4740474153095" lon="11.076121015113724"><ele>170.0</ele><time>2026-03-23T07:10:46Z</time></trkpt><trkpt lat="45.47395699461236" lon="11.076247470206637"><ele>170.0</ele><time>2026-03-23T07:10:47Z</time></trkpt><trkpt lat="45.473876169150486" lon="11.076363480926885"><ele>170.0</ele><time>2026-03-23T07:10:48Z</time></trkpt><trkpt lat="45.47380563361356" lon="11.076492173187651"><ele>170.0</ele><time>2026-03-23T07:10:49Z</time></trkpt><trkpt lat="45.473728558892425" lon="11.076648514284335"><ele>170.0</ele><time>2026-03-23T07:10:50Z</time></trkpt><trkpt lat="45.473669787605274" lon="11.076808773004897"><ele>170.75</ele><time>2026-03-23T07:10:51Z</time></trkpt><trkpt lat="45.473637036114674" lon="11.076977727973862"><ele>171.5</ele><time>2026-03-23T07:10:52Z</time></trkpt><trkpt lat="45.47362922481055" lon="11.077180222843001"><ele>172.25</ele><time>2026-03-23T07:10:53Z</time></trkpt><trkpt lat="45.4736237967713" lon="11.077396232869493"><ele>173.0</ele><time>2026-03-23T07:10:54Z</time></trkpt><trkpt lat="45.473595520810996" lon="11.077595311537122"><ele>174.8</ele><time>2026-03-23T07:10:55Z</time></trkpt><trkpt lat="45.47353884428353" lon="11.077732254614896"><ele>176.60000000000002</ele><time>2026-03-23T07:10:56Z</time></trkpt><trkpt lat="45.47346963041787" lon="11.077851197490006"><ele>178.39999999999998</ele><time>2026-03-23T07:10:57Z</time></trkpt><trkpt lat="45.473402656807586" lon="11.077944587042401"><ele>180.2</ele><time>2026-03-23T07:10:58Z</time></trkpt><trkpt lat="45.47335613339322" lon="11.07800532162502"><ele>182.0</ele><time>2026-03-23T07:10:59Z</time></trkpt><trkpt lat="45.473307615108524" lon="11.078101461792953"><ele>182.0</ele><time>2026-03-23T07:11:01Z</time></trkpt><trkpt lat="45.47338024014222" lon="11.078202303686533"><ele>182.0</ele><time>2026-03-23T07:11:03Z</time></trkpt><trkpt lat="45.47344310518967" lon="11.078171540387059"><ele>182.0</ele><time>2026-03-23T07:11:04Z</time></trkpt><trkpt lat="45.47349638385275" lon="11.078081864527967"><ele>182.0</ele><time>2026-03-23T07:11:05Z</time></trkpt><trkpt lat="45.4735705876204" lon="11.077955646407455"><ele>182.0</ele><time>2026-03-23T07:11:06Z</time></trkpt><trkpt lat="45.47367431470994" lon="11.077839611218328"><ele>187.33333333333331</ele><time>2026-03-23T07:11:07Z</time></trkpt><trkpt lat="45.473787919385884" lon="11.077721754489263"><ele>192.66666666666666</ele><time>2026-03-23T07:11:08Z</time></trkpt><trkpt lat="45.47392183151308" lon="11.077589422403893"><ele>198.0</ele><time>2026-03-23T07:11:09Z</time></trkpt><trkpt lat="45.47405827964254" lon="11.077456640280694"><ele>195.75</ele><time>2026-03-23T07:11:10Z</time></trkpt><trkpt lat="45.47418344681" lon="11.077322804907537"><ele>193.5</ele><time>2026-03-23T07:11:11Z</time></trkpt><trkpt lat="45.47428604332968" lon="11.077210104676903"><ele>191.25</ele><time>2026-03-23T07:11:12Z</time></trkpt><trkpt lat="45.47437167003251" lon="11.077107733613689"><ele>189.0</ele><time>2026-03-23T07:11:13Z</time></trkpt><trkpt lat="45.474445945755626" lon="11.077014947623812"><ele>189.0</ele><time>2026-03-23T07:11:14Z</time></trkpt><trkpt lat="45.47452511113826" lon="11.076947603635043"><ele>189.0</ele><time>2026-03-23T07:11:15Z</time></trkpt><trkpt lat="45.47460510378888" lon="11.076926890130826"><ele>189.0</ele><time>2026-03-23T07:11:16Z</time></trkpt><trkpt lat="45.47469976942994" lon="11.07698268762898"><ele>189.0</ele><time>2026-03-23T07:11:18Z</time></trkpt><trkpt lat="45.47466544824043" lon="11.07714814436653"><ele>189.0</ele><time>2026-03-23T07:11:20Z</time></trkpt><trkpt lat="45.47460467451211" lon="11.077209593155878"><ele>189.0</ele><time>2026-03-23T07:11:21Z</time></trkpt><trkpt lat="45.47453619577162" lon="11.07728137699058"><ele>189.0</ele><time>2026-03-23T07:11:22Z</time></trkpt><trkpt lat="45.47445591151622" lon="11.077388117843952"><ele>189.0</ele><time>2026-03-23T07:11:23Z</time></trkpt><trkpt lat="45.47437881050042" lon="11.077522592235377"><ele>189.0</ele><time>2026-03-23T07:11:24Z</time></trkpt><trkpt lat="45.4743010774096" lon="11.077693107981853"><ele>192.0</ele><time>2026-03-23T07:11:25Z</time></trkpt><trkpt lat="45.47421626404219" lon="11.077874346388619"><ele>195.0</ele><time>2026-03-23T07:11:26Z</time></trkpt><trkpt lat="45.47412345836183" lon="11.078057423650419"><ele>198.0</ele><time>2026-03-23T07:11:27Z</time></trkpt><trkpt lat="45.47402490600487" lon="11.078236814290342"><ele>197.75</ele><time>2026-03-23T07:11:28Z</time></trkpt><trkpt lat="45.47393776228678" lon="11.0783874722342"><ele>197.5</ele><time>2026-03-23T07:11:29Z</time></trkpt><trkpt lat="45.47386303409185" lon="11.07851341230982"><ele>197.25</ele><time>2026-03-23T07:11:30Z</time></trkpt><trkpt lat="45.4737908648883" lon="11.078633630461974"><ele>197.0</ele><time>2026-03-23T07:11:31Z</time></trkpt><trkpt lat="45.47372795205855" lon="11.078751451011176"><ele>197.0</ele><time>2026-03-23T07:11:32Z</time></trkpt><trkpt lat="45.473699006716785" lon="11.078844797939468"><ele>197.0</ele><time>2026-03-23T07:11:33Z</time></trkpt><trkpt lat="45.473763187045215" lon="11.078973485450884"><ele>197.0</ele><time>2026-03-23T07:11:35Z</time></trkpt><trkpt lat="45.47387170913787" lon="11.078893611446588"><ele>197.0</ele><time>2026-03-23T07:11:37Z</time></trkpt><trkpt lat="45.47391993552004" lon="11.078769713255022"><ele>197.0</ele><time>2026-03-23T07:11:38Z</time></trkpt><trkpt lat="45.47399450055604" lon="11.078626267326497"><ele>200.0</ele><time>2026-03-23T07:11:39Z</time></trkpt><trkpt lat="45.47409787618047" lon="11.078486832712798"><ele>203.0</ele><time>2026-03-23T07:11:40Z</time></trkpt><trkpt lat="45.4741947932336" lon="11.078385038906639"><ele>206.0</ele><time>2026-03-23T07:11:41Z</time></trkpt><trkpt lat="45.47428057352964" lon="11.078337942697317"><ele>209.0</ele><time>2026-03-23T07:11:42Z</time></trkpt><trkpt lat="45.474370415951206" lon="11.078330296770238"><ele>212.0</ele><time>2026-03-23T07:11:43Z</time></trkpt><trkpt lat="45.47448716509146" lon="11.07832936413687"><ele>212.0</ele><time>2026-03-23T07:11:44Z</time></trkpt><trkpt lat="45.47459322249585" lon="11.078337196221318"><ele>212.0</ele><time>2026-03-23T07:11:45Z</time></trkpt><trkpt lat="45.47466864611347" lon="11.078358064697197"><ele>212.0</ele><time>2026-03-23T07:11:46Z</time></trkpt><trkpt lat="45.474738277846555" lon="11.07844010987633"><ele>212.0</ele><time>2026-03-23T07:11:47Z</time></trkpt><trkpt lat="45.474795160252384" lon="11.078562187629618"><ele>212.0</ele><time>2026-03-23T07:11:48Z</time></trkpt><trkpt lat="45.47485765951873" lon="11.0787092297726"><ele>212.50000000000003</ele><time>2026-03-23T07:11:49Z</time></trkpt><trkpt lat="45.47491273697628" lon="11.078840299681799"><ele>213.0</ele><time>2026-03-23T07:11:50Z</time></trkpt><trkpt lat="45.47493741472306" lon="11.078950743412856"><ele>213.5</ele><time>2026-03-23T07:11:51Z</time></trkpt><trkpt lat="45.474938309720734" lon="11.079046290442822"><ele>214.0</ele><time>2026-03-23T07:11:52Z</time></trkpt><trkpt lat="45.4749070406594" lon="11.079127190359948"><ele>214.50000000000003</ele><time>2026-03-23T07:11:53Z</time></trkpt><trkpt lat="45.4748484350773" lon="11.079172448763313"><ele>215.0</ele><time>2026-03-23T07:11:54Z</time></trkpt><trkpt lat="45.474780226289305" lon="11.079175848739226"><ele>215.0</ele><time>2026-03-23T07:11:55Z</time></trkpt><trkpt lat="45.47470513318167" lon="11.07912297999183"><ele>215.0</ele><time>2026-03-23T07:11:56Z</time></trkpt><trkpt lat="45.474631359265935" lon="11.079023370201083"><ele>215.0</ele><time>2026-03-23T07:11:57Z</time></trkpt><trkpt lat="45.47454813220205" lon="11.07894026800608"><ele>215.0</ele><time>2026-03-23T07:11:58Z</time></trkpt><trkpt lat="45.47446153498031" lon="11.078912115270919"><ele>215.0</ele><time>2026-03-23T07:11:59Z</time></trkpt><trkpt lat="45.47437945019379" lon="11.078944721073183"><ele>214.25</ele><time>2026-03-23T07:12:00Z</time></trkpt><trkpt lat="45.47429911946431" lon="11.079031664957151"><ele>213.5</ele><time>2026-03-23T07:12:01Z</time></trkpt><trkpt lat="45.474224743931835" lon="11.079171035782391"><ele>212.75</ele><time>2026-03-23T07:12:02Z</time></trkpt><trkpt lat="45.474168417380156" lon="11.079330327909625"><ele>212.0</ele><time>2026-03-23T07:12:03Z</time></trkpt><trkpt lat="45.47412700766026" lon="11.079537640817762"><ele>215.33333333333334</ele><time>2026-03-23T07:12:04Z</time></trkpt><trkpt lat="45.47409113655138" lon="11.079769530380283"><ele>218.66666666666669</ele><time>2026-03-23T07:12:05Z</time></trkpt><trkpt lat="45.47405188969923" lon="11.080039447338644"><ele>222.0</ele><time>2026-03-23T07:12:06Z</time></trkpt><trkpt lat="45.47400964725523" lon="11.080307247808653"><ele>224.0</ele><time>2026-03-23T07:12:07Z</time></trkpt><trkpt lat="45.473982282126585" lon="11.080516227801807"><ele>226.0</ele><time>2026-03-23T07:12:08Z</time></trkpt><trkpt lat="45.47396427944127" lon="11.08069525072256"><ele>228.0</ele><time>2026-03-23T07:12:09Z</time></trkpt><trkpt lat="45.473949929240824" lon="11.080848403113754"><ele>230.0</ele><time>2026-03-23T07:12:10Z</time></trkpt><trkpt lat="45.473938503310954" lon="11.08097834777906"><ele>232.0</ele><time>2026-03-23T07:12:11Z</time></trkpt><trkpt lat="45.473947373237685" lon="11.081079473364042"><ele>234.0</ele><time>2026-03-23T07:12:12Z</time></trkpt><trkpt lat="45.473995148789896" lon="11.081170617988219"><ele>236.0</ele><time>2026-03-23T07:12:13Z</time></trkpt><trkpt lat="45.47407288110955" lon="11.081234939821513"><ele>238.0</ele><time>2026-03-23T07:12:14Z</time></trkpt><trkpt lat="45.4741922054341" lon="11.081270792111283"><ele>240.0</ele><time>2026-03-23T07:12:15Z</time></trkpt><trkpt lat="45.47431004184754" lon="11.081338773131154"><ele>240.0</ele><time>2026-03-23T07:12:16Z</time></trkpt><trkpt lat="45.47440427289369" lon="11.081469360580023"><ele>240.0</ele><time>2026-03-23T07:12:17Z</time></trkpt><trkpt lat="45.474475468563384" lon="11.08161306175168"><ele>240.0</ele><time>2026-03-23T07:12:18Z</time></trkpt><trkpt lat="45.4745206827134" lon="11.081719550824072"><ele>240.0</ele><time>2026-03-23T07:12:19Z</time></trkpt><trkpt lat="45.474573535480765" lon="11.08179562210526"><ele>240.0</ele><time>2026-03-23T07:12:20Z</time></trkpt><trkpt lat="45.47464700617954" lon="11.081853365987804"><ele>242.2</ele><time>2026-03-23T07:12:21Z</time></trkpt><trkpt lat="45.47473909027004" lon="11.08187943946638"><ele>244.4</ele><time>2026-03-23T07:12:22Z</time></trkpt><trkpt lat="45.47483683943165" lon="11.081881594391707"><ele>246.60000000000002</ele><time>2026-03-23T07:12:23Z</time></trkpt><trkpt lat="45.47494622873825" lon="11.081816763985344"><ele>248.8</ele><time>2026-03-23T07:12:24Z</time></trkpt><trkpt lat="45.47504697518065" lon="11.081725497435823"><ele>251.0</ele><time>2026-03-23T07:12:25Z</time></trkpt><trkpt lat="45.47513077183979" lon="11.081690923560075"><ele>251.0</ele><time>2026-03-23T07:12:26Z</time></trkpt><trkpt lat="45.47522652835265" lon="11.08169594591587"><ele>251.00000000000003</ele><time>2026-03-23T07:12:27Z</time></trkpt><trkpt lat="45.47533178033786" lon="11.081770316932028"><ele>251.00000000000003</ele><time>2026-03-23T07:12:28Z</time></trkpt><trkpt lat="45.47543062511557" lon="11.081893515111252"><ele>251.0</ele><time>2026-03-23T07:12:29Z</time></trkpt><trkpt lat="45.475510732054445" lon="11.081987967584533"><ele>251.0</ele><time>2026-03-23T07:12:30Z</time></trkpt><trkpt lat="45.47559754177634" lon="11.082018756393854"><ele>249.20000000000002</ele><time>2026-03-23T07:12:31Z</time></trkpt><trkpt lat="45.47568581567415" lon="11.082030857604035"><ele>247.40000000000003</ele><time>2026-03-23T07:12:32Z</time></trkpt><trkpt lat="45.475778603108395" lon="11.082016687010258"><ele>245.6</ele><time>2026-03-23T07:12:33Z</time></trkpt><trkpt lat="45.47586550661" lon="11.082077277629137"><ele>243.8</ele><time>2026-03-23T07:12:34Z</time></trkpt><trkpt lat="45.47594003204598" lon="11.08218495621281"><ele>242.0</ele><time>2026-03-23T07:12:35Z</time></trkpt><trkpt lat="45.47599573708001" lon="11.082293688457025"><ele>242.00000000000003</ele><time>2026-03-23T07:12:36Z</time></trkpt><trkpt lat="45.47601631044309" lon="11.082390784743309"><ele>242.0</ele><time>2026-03-23T07:12:37Z</time></trkpt><trkpt lat="45.47597742437187" lon="11.082464683082915"><ele>242.0</ele><time>2026-03-23T07:12:39Z</time></trkpt><trkpt lat="45.47591224877668" lon="11.082447572570608"><ele>242.0</ele><time>2026-03-23T07:12:41Z</time></trkpt><trkpt lat="45.47581985016009" lon="11.082290315513209"><ele>242.00000000000003</ele><time>2026-03-23T07:12:43Z</time></trkpt><trkpt lat="45.475751694614885" lon="11.082212140519326"><ele>242.0</ele><time>2026-03-23T07:12:44Z</time></trkpt><trkpt lat="45.47565982300394" lon="11.082176604677981"><ele>242.0</ele><time>2026-03-23T07:12:45Z</time></trkpt><trkpt lat="45.47553406008428" lon="11.082165263408447"><ele>242.0</ele><time>2026-03-23T07:12:46Z</time></trkpt><trkpt lat="45.4753930146642" lon="11.082153411256764"><ele>242.0</ele><time>2026-03-23T07:12:47Z</time></trkpt><trkpt lat="45.47525925569108" lon="11.082135810985399"><ele>242.0</ele><time>2026-03-23T07:12:48Z</time></trkpt><trkpt lat="45.4751271170713" lon="11.082161204774264"><ele>244.25</ele><time>2026-03-23T07:12:49Z</time></trkpt><trkpt lat="45.474987622159965" lon="11.082231330655855"><ele>246.5</ele><time>2026-03-23T07:12:50Z</time></trkpt><trkpt lat="45.47483681018702" lon="11.0822911082777"><ele>248.75</ele><time>2026-03-23T07:12:51Z</time></trkpt><trkpt lat="45.47472482503693" lon="11.08229731151172"><ele>251.0</ele><time>2026-03-23T07:12:52Z</time></trkpt><trkpt lat="45.47462248727278" lon="11.082278732836945"><ele>250.50000000000003</ele><time>2026-03-23T07:12:53Z</time></trkpt><trkpt lat="45.47455534039272" lon="11.082277016867943"><ele>250.0</ele><time>2026-03-23T07:12:54Z</time></trkpt><trkpt lat="45.47452718528651" lon="11.082388124535044"><ele>249.5</ele><time>2026-03-23T07:12:56Z</time></trkpt><trkpt lat="45.474619164675474" lon="11.082481599798163"><ele>249.0</ele><time>2026-03-23T07:12:58Z</time></trkpt><trkpt lat="45.47470411105518" lon="11.082464521537945"><ele>248.50000000000003</ele><time>2026-03-23T07:12:59Z</time></trkpt><trkpt lat="45.47480150182633" lon="11.08246244763555"><ele>248.0</ele><time>2026-03-23T07:13:00Z</time></trkpt><trkpt lat="45.47491851872844" lon="11.082513363036762"><ele>252.2</ele><time>2026-03-23T07:13:01Z</time></trkpt><trkpt lat="45.47503978599415" lon="11.082571203526893"><ele>256.4</ele><time>2026-03-23T07:13:02Z</time></trkpt><trkpt lat="45.47516124968659" lon="11.082581246571003"><ele>260.59999999999997</ele><time>2026-03-23T07:13:03Z</time></trkpt><trkpt lat="45.475266323491375" lon="11.082580869124222"><ele>264.8</ele><time>2026-03-23T07:13:04Z</time></trkpt><trkpt lat="45.47535009149086" lon="11.082632981419586"><ele>269.0</ele><time>2026-03-23T07:13:05Z</time></trkpt><trkpt lat="45.47542293981805" lon="11.082766646047848"><ele>269.0</ele><time>2026-03-23T07:13:06Z</time></trkpt><trkpt lat="45.47548401757887" lon="11.082893790069948"><ele>269.0</ele><time>2026-03-23T07:13:07Z</time></trkpt><trkpt lat="45.47553032782521" lon="11.08305285596509"><ele>269.0</ele><time>2026-03-23T07:13:08Z</time></trkpt><trkpt lat="45.47555017820143" lon="11.083222541465227"><ele>269.0</ele><time>2026-03-23T07:13:09Z</time></trkpt><trkpt lat="45.47555546306277" lon="11.083410450261685"><ele>269.0</ele><time>2026-03-23T07:13:10Z</time></trkpt><trkpt lat="45.47554109570925" lon="11.083587414636108"><ele>269.0</ele><time>2026-03-23T07:13:11Z</time></trkpt><trkpt lat="45.47552296156721" lon="11.083717769422922"><ele>269.0</ele><time>2026-03-23T07:13:12Z</time></trkpt><trkpt lat="45.47554182527179" lon="11.083832632564533"><ele>269.0</ele><time>2026-03-23T07:13:13Z</time></trkpt><trkpt lat="45.47558162290677" lon="11.083908821295902"><ele>269.0</ele><time>2026-03-23T07:13:14Z</time></trkpt><trkpt lat="45.47571920098685" lon="11.083997226334075"><ele>269.0</ele><time>2026-03-23T07:13:16Z</time></trkpt><trkpt lat="45.47584191635958" lon="11.084051423476165"><ele>269.0</ele><time>2026-03-23T07:13:17Z</time></trkpt><trkpt lat="45.47599146309567" lon="11.084099944414916"><ele>269.0</ele><time>2026-03-23T07:13:18Z</time></trkpt><trkpt lat="45.47618596886795" lon="11.084183043201032"><ele>271.0</ele><time>2026-03-23T07:13:19Z</time></trkpt><trkpt lat="45.476393788655265" lon="11.084335898712661"><ele>273.0</ele><time>2026-03-23T07:13:20Z</time></trkpt><trkpt lat="45.47654319847353" lon="11.08444101762507"><ele>275.0</ele><time>2026-03-23T07:13:21Z</time></trkpt><trkpt lat="45.47669268934639" lon="11.084500592870787"><ele>275.0</ele><time>2026-03-23T07:13:22Z</time></trkpt><trkpt lat="45.47680976530551" lon="11.084537023750205"><ele>275.0</ele><time>2026-03-23T07:13:23Z</time></trkpt><trkpt lat="45.47688314702096" lon="11.084592856122931"><ele>275.0</ele><time>2026-03-23T07:13:24Z</time></trkpt><trkpt lat="45.476932615151" lon="11.0847156917708"><ele>275.0</ele><time>2026-03-23T07:13:25Z</time></trkpt><trkpt lat="45.476989339978914" lon="11.084768049460688"><ele>275.0</ele><time>2026-03-23T07:13:26Z</time></trkpt><trkpt lat="45.477202074231954" lon="11.084907748795645"><ele>275.0</ele><time>2026-03-23T07:13:28Z</time></trkpt><trkpt lat="45.47717287812823" lon="11.085024907234777"><ele>275.0</ele><time>2026-03-23T07:13:30Z</time></trkpt><trkpt lat="45.4770633650065" lon="11.085004993984258"><ele>275.0</ele><time>2026-03-23T07:13:32Z</time></trkpt><trkpt lat="45.477014590691184" lon="11.084933669521499"><ele>275.0</ele><time>2026-03-23T07:13:33Z</time></trkpt><trkpt lat="45.476952941479276" lon="11.084877047727906"><ele>275.0</ele><time>2026-03-23T07:13:34Z</time></trkpt><trkpt lat="45.47688254971222" lon="11.084834734696868"><ele>275.0</ele><time>2026-03-23T07:13:35Z</time></trkpt><trkpt lat="45.476816302134445" lon="11.084804389247056"><ele>275.0</ele><time>2026-03-23T07:13:37Z</time></trkpt><trkpt lat="45.47668985918638" lon="11.084807442143704"><ele>275.0</ele><time>2026-03-23T07:14:57Z</time></trkpt><trkpt lat="45.476604324309825" lon="11.084797763981511"><ele>275.0</ele><time>2026-03-23T07:14:58Z</time></trkpt><trkpt lat="45.47650771160338" lon="11.08477865889744"><ele>275.0</ele><time>2026-03-23T07:14:59Z</time></trkpt><trkpt lat="45.47639161742638" lon="11.084750707079817"><ele>275.0</ele><time>2026-03-23T07:15:00Z</time></trkpt><trkpt lat="45.476270215266666" lon="11.084735644256302"><ele>277.5</ele><time>2026-03-23T07:15:01Z</time></trkpt><trkpt lat="45.47614193534708" lon="11.08472000579055"><ele>280.0</ele><time>2026-03-23T07:15:02Z</time></trkpt><trkpt lat="45.47601543593406" lon="11.084694635896781"><ele>282.5</ele><time>2026-03-23T07:15:03Z</time></trkpt><trkpt lat="45.475892008543305" lon="11.084640763632663"><ele>285.0</ele><time>2026-03-23T07:15:04Z</time></trkpt><trkpt lat="45.475756990397564" lon="11.084574278660694"><ele>285.0</ele><time>2026-03-23T07:15:05Z</time></trkpt><trkpt lat="45.475625996016376" lon="11.084567050627498"><ele>285.0</ele><time>2026-03-23T07:15:06Z</time></trkpt><trkpt lat="45.47549202738874" lon="11.084584303786091"><ele>285.0</ele><time>2026-03-23T07:15:07Z</time></trkpt><trkpt lat="45.4753697483947" lon="11.084576626650644"><ele>285.0</ele><time>2026-03-23T07:15:08Z</time></trkpt><trkpt lat="45.475262310576994" lon="11.0845072010766"><ele>287.8</ele><time>2026-03-23T07:15:09Z</time></trkpt><trkpt lat="45.47513983521478" lon="11.08442221431078"><ele>290.6</ele><time>2026-03-23T07:15:10Z</time></trkpt><trkpt lat="45.475046822227284" lon="11.084316819554962"><ele>293.4</ele><time>2026-03-23T07:15:11Z</time></trkpt><trkpt lat="45.47496921211559" lon="11.084243622362475"><ele>296.2</ele><time>2026-03-23T07:15:12Z</time></trkpt><trkpt lat="45.47490409081585" lon="11.084204028636275"><ele>299.0</ele><time>2026-03-23T07:15:13Z</time></trkpt><trkpt lat="45.474823146289495" lon="11.084212673072805"><ele>299.0</ele><time>2026-03-23T07:15:15Z</time></trkpt><trkpt lat="45.47478904700526" lon="11.084334405791232"><ele>299.0</ele><time>2026-03-23T07:15:17Z</time></trkpt><trkpt lat="45.47483440920031" lon="11.084409692499541"><ele>299.0</ele><time>2026-03-23T07:15:18Z</time></trkpt><trkpt lat="45.474916922014486" lon="11.08443618950963"><ele>299.0</ele><time>2026-03-23T07:15:19Z</time></trkpt><trkpt lat="45.474990735160475" lon="11.084500528555713"><ele>299.0</ele><time>2026-03-23T07:15:20Z</time></trkpt><trkpt lat="45.47507309942472" lon="11.084616779329608"><ele>299.0</ele><time>2026-03-23T07:15:21Z</time></trkpt><trkpt lat="45.47518509690116" lon="11.084710146792787"><ele>299.0</ele><time>2026-03-23T07:15:22Z</time></trkpt><trkpt lat="45.475287349959366" lon="11.084812556928222"><ele>299.0</ele><time>2026-03-23T07:15:23Z</time></trkpt><trkpt lat="45.475415391195945" lon="11.084897601133857"><ele>299.0</ele><time>2026-03-23T07:15:24Z</time></trkpt><trkpt lat="45.47558285518902" lon="11.084968439963095"><ele>299.0</ele><time>2026-03-23T07:15:25Z</time></trkpt><trkpt lat="45.47573212217853" lon="11.08507404516055"><ele>301.0</ele><time>2026-03-23T07:15:26Z</time></trkpt><trkpt lat="45.47584665604888" lon="11.085176357705619"><ele>303.0</ele><time>2026-03-23T07:15:27Z</time></trkpt><trkpt lat="45.47595655564199" lon="11.085301032869278"><ele>305.0</ele><time>2026-03-23T07:15:28Z</time></trkpt><trkpt lat="45.47608586711278" lon="11.085405073548351"><ele>307.0</ele><time>2026-03-23T07:15:29Z</time></trkpt><trkpt lat="45.47622989760361" lon="11.085488458907365"><ele>304.3333333333333</ele><time>2026-03-23T07:15:30Z</time></trkpt><trkpt lat="45.47641334147913" lon="11.085553778991926"><ele>301.6666666666667</ele><time>2026-03-23T07:15:31Z</time></trkpt><trkpt lat="45.47663141877426" lon="11.085670238257023"><ele>299.0</ele><time>2026-03-23T07:15:32Z</time></trkpt><trkpt lat="45.47680438083213" lon="11.085739250157939"><ele>303.6666666666667</ele><time>2026-03-23T07:15:33Z</time></trkpt><trkpt lat="45.476956198138375" lon="11.08578203140947"><ele>308.3333333333333</ele><time>2026-03-23T07:15:34Z</time></trkpt><trkpt lat="45.47708465316444" lon="11.085890466293892"><ele>313.0</ele><time>2026-03-23T07:15:35Z</time></trkpt><trkpt lat="45.47722775924659" lon="11.08601065055946"><ele>313.0</ele><time>2026-03-23T07:15:36Z</time></trkpt><trkpt lat="45.47736895831277" lon="11.086136828996452"><ele>313.0</ele><time>2026-03-23T07:15:37Z</time></trkpt><trkpt lat="45.47750229380608" lon="11.086277454406408"><ele>313.0</ele><time>2026-03-23T07:15:38Z</time></trkpt><trkpt lat="45.47759493502567" lon="11.086432222802488"><ele>313.0</ele><time>2026-03-23T07:15:39Z</time></trkpt><trkpt lat="45.47769132427215" lon="11.086548058252395"><ele>313.0</ele><time>2026-03-23T07:15:40Z</time></trkpt><trkpt lat="45.47781434434166" lon="11.086628871210493"><ele>313.0</ele><time>2026-03-23T07:15:41Z</time></trkpt><trkpt lat="45.4779606976475" lon="11.086677154381512"><ele>313.0</ele><time>2026-03-23T07:15:42Z</time></trkpt><trkpt lat="45.478120169317606" lon="11.086695542272828"><ele>317.0</ele><time>2026-03-23T07:15:43Z</time></trkpt><trkpt lat="45.478293942996565" lon="11.086743288389687"><ele>321.0</ele><time>2026-03-23T07:15:44Z</time></trkpt><trkpt lat="45.47846480699682" lon="11.086798464534356"><ele>325.0</ele><time>2026-03-23T07:15:45Z</time></trkpt><trkpt lat="45.47861623326173" lon="11.08688332314989"><ele>324.0</ele><time>2026-03-23T07:15:46Z</time></trkpt><trkpt lat="45.478770646727185" lon="11.086984303153166"><ele>323.0</ele><time>2026-03-23T07:15:47Z</time></trkpt><trkpt lat="45.47892619774888" lon="11.08707882571873"><ele>322.0</ele><time>2026-03-23T07:15:48Z</time></trkpt><trkpt lat="45.47907232949927" lon="11.087170302391323"><ele>322.0</ele><time>2026-03-23T07:15:49Z</time></trkpt><trkpt lat="45.479241881310585" lon="11.08728918188668"><ele>322.0</ele><time>2026-03-23T07:15:50Z</time></trkpt><trkpt lat="45.479371613519604" lon="11.087406428719733"><ele>322.0</ele><time>2026-03-23T07:15:51Z</time></trkpt><trkpt lat="45.47949489690547" lon="11.087525009785848"><ele>323.75</ele><time>2026-03-23T07:15:52Z</time></trkpt><trkpt lat="45.47959703984274" lon="11.08763890438303"><ele>325.5</ele><time>2026-03-23T07:15:53Z</time></trkpt><trkpt lat="45.47970084308704" lon="11.08776455803943"><ele>327.25</ele><time>2026-03-23T07:15:54Z</time></trkpt><trkpt lat="45.47982369471962" lon="11.087861717790261"><ele>329.0</ele><time>2026-03-23T07:15:55Z</time></trkpt><trkpt lat="45.4799277606693" lon="11.087946555930237"><ele>329.0</ele><time>2026-03-23T07:15:56Z</time></trkpt><trkpt lat="45.48003995144135" lon="11.088019963313025"><ele>329.0</ele><time>2026-03-23T07:15:57Z</time></trkpt><trkpt lat="45.480158209880926" lon="11.088115874879815"><ele>329.0</ele><time>2026-03-23T07:15:58Z</time></trkpt><trkpt lat="45.480294544606245" lon="11.088167313431178"><ele>329.0</ele><time>2026-03-23T07:15:59Z</time></trkpt><trkpt lat="45.480426647476506" lon="11.088219784727562"><ele>332.25</ele><time>2026-03-23T07:16:00Z</time></trkpt><trkpt lat="45.48056322932945" lon="11.088269162169082"><ele>335.5</ele><time>2026-03-23T07:16:01Z</time></trkpt><trkpt lat="45.48069021242075" lon="11.08831592902174"><ele>338.75</ele><time>2026-03-23T07:16:02Z</time></trkpt><trkpt lat="45.480806744628445" lon="11.088348686252473"><ele>342.0</ele><time>2026-03-23T07:16:03Z</time></trkpt><trkpt lat="45.48092429456964" lon="11.088347229775165"><ele>342.0</ele><time>2026-03-23T07:16:04Z</time></trkpt><trkpt lat="45.48104944025546" lon="11.088322979250886"><ele>342.0</ele><time>2026-03-23T07:16:05Z</time></trkpt><trkpt lat="45.48121371569152" lon="11.088261543446038"><ele>342.0</ele><time>2026-03-23T07:16:06Z</time></trkpt><trkpt lat="45.48138106533527" lon="11.088218376739283"><ele>342.5</ele><time>2026-03-23T07:16:07Z</time></trkpt><trkpt lat="45.481528206364025" lon="11.088239377919269"><ele>343.0</ele><time>2026-03-23T07:16:08Z</time></trkpt><trkpt lat="45.481659706568266" lon="11.088251687418124"><ele>343.5</ele><time>2026-03-23T07:16:09Z</time></trkpt><trkpt lat="45.48178019489101" lon="11.08834243270372"><ele>344.0</ele><time>2026-03-23T07:16:10Z</time></trkpt><trkpt lat="45.481916595704355" lon="11.08841558951786"><ele>344.0</ele><time>2026-03-23T07:16:11Z</time></trkpt><trkpt lat="45.48204227288246" lon="11.08853023562758"><ele>344.0</ele><time>2026-03-23T07:16:12Z</time></trkpt><trkpt lat="45.482178333781434" lon="11.088646818441214"><ele>344.0</ele><time>2026-03-23T07:16:13Z</time></trkpt><trkpt lat="45.482317873133695" lon="11.088751797909056"><ele>343.75</ele><time>2026-03-23T07:16:14Z</time></trkpt><trkpt lat="45.48245477142804" lon="11.088852783409463"><ele>343.5</ele><time>2026-03-23T07:16:15Z</time></trkpt><trkpt lat="45.48258828061236" lon="11.088949675798013"><ele>343.25</ele><time>2026-03-23T07:16:16Z</time></trkpt><trkpt lat="45.48271843884484" lon="11.08902879549379"><ele>343.0</ele><time>2026-03-23T07:16:17Z</time></trkpt><trkpt lat="45.482859625300115" lon="11.089084195535143"><ele>345.5</ele><time>2026-03-23T07:16:18Z</time></trkpt><trkpt lat="45.483003487409704" lon="11.089132034129321"><ele>348.0</ele><time>2026-03-23T07:16:19Z</time></trkpt><trkpt lat="45.483147282302255" lon="11.089172264207477"><ele>350.5</ele><time>2026-03-23T07:16:20Z</time></trkpt><trkpt lat="45.48329126818054" lon="11.089204557652277"><ele>353.0</ele><time>2026-03-23T07:16:21Z</time></trkpt><trkpt lat="45.48343754672789" lon="11.089232306094921"><ele>353.0</ele><time>2026-03-23T07:16:22Z</time></trkpt><trkpt lat="45.48358541043479" lon="11.089260142518988"><ele>353.0</ele><time>2026-03-23T07:16:23Z</time></trkpt><trkpt lat="45.48372854296664" lon="11.089289294917657"><ele>353.0</ele><time>2026-03-23T07:16:24Z</time></trkpt><trkpt lat="45.48386342006335" lon="11.089320413541795"><ele>353.0</ele><time>2026-03-23T07:16:25Z</time></trkpt><trkpt lat="45.48399289013478" lon="11.089344092812158"><ele>353.79999999999995</ele><time>2026-03-23T07:16:26Z</time></trkpt><trkpt lat="45.48411228441229" lon="11.089363933962172"><ele>354.6</ele><time>2026-03-23T07:16:27Z</time></trkpt><trkpt lat="45.48422201977496" lon="11.089380629179923"><ele>355.4</ele><time>2026-03-23T07:16:28Z</time></trkpt><trkpt lat="45.48432082132162" lon="11.08939344727614"><ele>356.20000000000005</ele><time>2026-03-23T07:16:29Z</time></trkpt><trkpt lat="45.48441255857446" lon="11.08940590046566"><ele>357.0</ele><time>2026-03-23T07:16:30Z</time></trkpt><trkpt lat="45.484492170689464" lon="11.089422068656992"><ele>357.0</ele><time>2026-03-23T07:16:31Z</time></trkpt><trkpt lat="45.48459186018171" lon="11.08946229086417"><ele>357.0</ele><time>2026-03-23T07:16:33Z</time></trkpt><trkpt lat="45.484646494656204" lon="11.089542110921357"><ele>357.0</ele><time>2026-03-23T07:16:36Z</time></trkpt><trkpt lat="45.484756355272495" lon="11.089532102269649"><ele>357.0</ele><time>2026-03-23T07:16:38Z</time></trkpt><trkpt lat="45.48482913641138" lon="11.08946825994187"><ele>357.0</ele><time>2026-03-23T07:16:39Z</time></trkpt><trkpt lat="45.484915041348266" lon="11.089418565332476"><ele>358.0</ele><time>2026-03-23T07:16:40Z</time></trkpt><trkpt lat="45.485041230756664" lon="11.089368320012154"><ele>359.0</ele><time>2026-03-23T07:16:41Z</time></trkpt><trkpt lat="45.48516675168741" lon="11.08933245101983"><ele>360.0</ele><time>2026-03-23T07:16:42Z</time></trkpt><trkpt lat="45.48526991806302" lon="11.089311581026314"><ele>361.0</ele><time>2026-03-23T07:16:43Z</time></trkpt><trkpt lat="45.48533688687885" lon="11.089302819156016"><ele>362.0</ele><time>2026-03-23T07:16:44Z</time></trkpt><trkpt lat="45.485458556154114" lon="11.08931316514781"><ele>363.0</ele><time>2026-03-23T07:16:52Z</time></trkpt><trkpt lat="45.48556673413962" lon="11.089297528418813"><ele>364.0</ele><time>2026-03-23T07:16:54Z</time></trkpt><trkpt lat="45.48564845401033" lon="11.089302039172072"><ele>365.0</ele><time>2026-03-23T07:16:55Z</time></trkpt><trkpt lat="45.48573024839453" lon="11.089304817152126"><ele>366.0</ele><time>2026-03-23T07:16:56Z</time></trkpt><trkpt lat="45.48583021985008" lon="11.089306866664835"><ele>367.0</ele><time>2026-03-23T07:16:57Z</time></trkpt><trkpt lat="45.485936773786676" lon="11.089308194183916"><ele>367.0</ele><time>2026-03-23T07:16:58Z</time></trkpt><trkpt lat="45.48605135000212" lon="11.089301978776424"><ele>367.0</ele><time>2026-03-23T07:16:59Z</time></trkpt><trkpt lat="45.48619554385114" lon="11.089277007224362"><ele>367.0</ele><time>2026-03-23T07:17:00Z</time></trkpt><trkpt lat="45.48637583390012" lon="11.089260147546163"><ele>367.0</ele><time>2026-03-23T07:17:01Z</time></trkpt><trkpt lat="45.48642166721049" lon="11.089339326970496"><ele>367.8</ele><time>2026-03-23T07:17:03Z</time></trkpt><trkpt lat="45.48649762219803" lon="11.089345580448482"><ele>368.6</ele><time>2026-03-23T07:17:04Z</time></trkpt><trkpt lat="45.48661366564956" lon="11.089371350124399"><ele>369.40000000000003</ele><time>2026-03-23T07:17:06Z</time></trkpt><trkpt lat="45.48669026953829" lon="11.089384701867631"><ele>370.20000000000005</ele><time>2026-03-23T07:17:07Z</time></trkpt><trkpt lat="45.48678544808762" lon="11.089392584219606"><ele>371.0</ele><time>2026-03-23T07:17:08Z</time></trkpt><trkpt lat="45.48689698667988" lon="11.089416272835127"><ele>371.0</ele><time>2026-03-23T07:17:09Z</time></trkpt><trkpt lat="45.487022402958665" lon="11.089441600563168"><ele>371.0</ele><time>2026-03-23T07:17:10Z</time></trkpt><trkpt lat="45.48715817271331" lon="11.089476736355946"><ele>371.0</ele><time>2026-03-23T07:17:11Z</time></trkpt><trkpt lat="45.48729294314637" lon="11.089521334143335"><ele>371.0</ele><time>2026-03-23T07:17:12Z</time></trkpt><trkpt lat="45.48742891401237" lon="11.089566363021794"><ele>371.0</ele><time>2026-03-23T07:17:13Z</time></trkpt><trkpt lat="45.48757170127251" lon="11.089621037839963"><ele>371.0</ele><time>2026-03-23T07:17:14Z</time></trkpt><trkpt lat="45.48770584981555" lon="11.089671555802976"><ele>371.0</ele><time>2026-03-23T07:17:15Z</time></trkpt><trkpt lat="45.48781997775866" lon="11.08971889875386"><ele>371.0</ele><time>2026-03-23T07:17:16Z</time></trkpt><trkpt lat="45.4879257866392" lon="11.089769060077526"><ele>370.83333333333337</ele><time>2026-03-23T07:17:17Z</time></trkpt><trkpt lat="45.488024399368314" lon="11.08981103177588"><ele>370.6666666666667</ele><time>2026-03-23T07:17:18Z</time></trkpt><trkpt lat="45.488105938379434" lon="11.089842209173877"><ele>370.5</ele><time>2026-03-23T07:17:19Z</time></trkpt><trkpt lat="45.48816784347249" lon="11.089873401687393"><ele>370.3333333333333</ele><time>2026-03-23T07:17:20Z</time></trkpt><trkpt lat="45.488260462233264" lon="11.089951677718497"><ele>370.16666666666663</ele><time>2026-03-23T07:17:22Z</time></trkpt><trkpt lat="45.48832594155141" lon="11.089977369361943"><ele>370.0</ele><time>2026-03-23T07:17:24Z</time></trkpt><trkpt lat="45.48831371661458" lon="11.089865807553947"><ele>370.0</ele><time>2026-03-23T07:18:19Z</time></trkpt><trkpt lat="45.48823725011065" lon="11.089826917391958"><ele>370.0</ele><time>2026-03-23T07:18:20Z</time></trkpt><trkpt lat="45.4881352974575" lon="11.089813954886473"><ele>370.0</ele><time>2026-03-23T07:18:21Z</time></trkpt><trkpt lat="45.4880371348623" lon="11.089777283749813"><ele>370.0</ele><time>2026-03-23T07:18:22Z</time></trkpt><trkpt lat="45.48792732372655" lon="11.089725014264788"><ele>370.0</ele><time>2026-03-23T07:18:23Z</time></trkpt><trkpt lat="45.48780457660062" lon="11.089668726672707"><ele>370.2</ele><time>2026-03-23T07:18:24Z</time></trkpt><trkpt lat="45.48767798634317" lon="11.089619747245019"><ele>370.4</ele><time>2026-03-23T07:18:25Z</time></trkpt><trkpt lat="45.48756255193206" lon="11.08958068841326"><ele>370.6</ele><time>2026-03-23T07:18:26Z</time></trkpt><trkpt lat="45.487461894127236" lon="11.089548556500947"><ele>370.8</ele><time>2026-03-23T07:18:27Z</time></trkpt><trkpt lat="45.48737118030556" lon="11.089514983577295"><ele>371.0</ele><time>2026-03-23T07:18:28Z</time></trkpt><trkpt lat="45.487287103688026" lon="11.089484023203216"><ele>371.0</ele><time>2026-03-23T07:18:29Z</time></trkpt><trkpt lat="45.48720207463115" lon="11.089454394896018"><ele>371.0</ele><time>2026-03-23T07:18:30Z</time></trkpt><trkpt lat="45.4871071745717" lon="11.089425252689205"><ele>371.0</ele><time>2026-03-23T07:18:31Z</time></trkpt><trkpt lat="45.486998685448626" lon="11.089395908387422"><ele>371.0</ele><time>2026-03-23T07:18:32Z</time></trkpt><trkpt lat="45.48687993665871" lon="11.089363256805528"><ele>371.0</ele><time>2026-03-23T07:18:33Z</time></trkpt><trkpt lat="45.48676739267265" lon="11.089339880934862"><ele>371.0</ele><time>2026-03-23T07:18:34Z</time></trkpt><trkpt lat="45.4866601558354" lon="11.089320762362945"><ele>371.0</ele><time>2026-03-23T07:18:35Z</time></trkpt><trkpt lat="45.48654971863969" lon="11.089308127891618"><ele>371.0</ele><time>2026-03-23T07:18:36Z</time></trkpt><trkpt lat="45.48643751478028" lon="11.089296656064315"><ele>371.0</ele><time>2026-03-23T07:18:37Z</time></trkpt><trkpt lat="45.486327470638386" lon="11.089287474982243"><ele>371.0</ele><time>2026-03-23T07:18:38Z</time></trkpt><trkpt lat="45.48623316580064" lon="11.089286342152425"><ele>370.20000000000005</ele><time>2026-03-23T07:18:39Z</time></trkpt><trkpt lat="45.486126944109905" lon="11.089282627993722"><ele>369.40000000000003</ele><time>2026-03-23T07:18:40Z</time></trkpt><trkpt lat="45.48602275135532" lon="11.089277326603783"><ele>368.6</ele><time>2026-03-23T07:18:41Z</time></trkpt><trkpt lat="45.48592878756519" lon="11.08927982620985"><ele>367.8</ele><time>2026-03-23T07:18:42Z</time></trkpt><trkpt lat="45.485839506680094" lon="11.089278605573446"><ele>367.0</ele><time>2026-03-23T07:18:43Z</time></trkpt><trkpt lat="45.48576731861573" lon="11.089269904872301"><ele>367.0</ele><time>2026-03-23T07:18:44Z</time></trkpt><trkpt lat="45.48564760279403" lon="11.089278889239518"><ele>367.0</ele><time>2026-03-23T07:18:46Z</time></trkpt><trkpt lat="45.48552857964529" lon="11.089278187318806"><ele>367.0</ele><time>2026-03-23T07:18:48Z</time></trkpt><trkpt lat="45.48545579644283" lon="11.089239602169092"><ele>367.0</ele><time>2026-03-23T07:18:50Z</time></trkpt><trkpt lat="45.48534675896303" lon="11.08910897368873"><ele>365.0</ele><time>2026-03-23T07:18:52Z</time></trkpt><trkpt lat="45.485265649198666" lon="11.089051360878438"><ele>363.0</ele><time>2026-03-23T07:18:53Z</time></trkpt><trkpt lat="45.48516885636246" lon="11.08899360062941"><ele>361.0</ele><time>2026-03-23T07:18:54Z</time></trkpt><trkpt lat="45.485078839249745" lon="11.088949208197574"><ele>359.0</ele><time>2026-03-23T07:18:55Z</time></trkpt><trkpt lat="45.48499866527088" lon="11.088913689198616"><ele>357.0</ele><time>2026-03-23T07:18:56Z</time></trkpt><trkpt lat="45.48493010676691" lon="11.08889091189484"><ele>355.0</ele><time>2026-03-23T07:18:57Z</time></trkpt><trkpt lat="45.48485163896337" lon="11.0887934860518"><ele>355.0</ele><time>2026-03-23T07:18:59Z</time></trkpt><trkpt lat="45.48487408225475" lon="11.088634304878997"><ele>355.0</ele><time>2026-03-23T07:19:01Z</time></trkpt><trkpt lat="45.484927953700435" lon="11.088558915594811"><ele>355.0</ele><time>2026-03-23T07:19:02Z</time></trkpt><trkpt lat="45.48499794593171" lon="11.088470842586137"><ele>355.0</ele><time>2026-03-23T07:19:03Z</time></trkpt><trkpt lat="45.48504853380988" lon="11.088363843777708"><ele>355.0</ele><time>2026-03-23T07:19:04Z</time></trkpt><trkpt lat="45.485087866606705" lon="11.088239733326628"><ele>353.0</ele><time>2026-03-23T07:19:05Z</time></trkpt><trkpt lat="45.48512767238249" lon="11.088115910629408"><ele>351.0</ele><time>2026-03-23T07:19:06Z</time></trkpt><trkpt lat="45.48516908943136" lon="11.087999621638282"><ele>349.0</ele><time>2026-03-23T07:19:07Z</time></trkpt><trkpt lat="45.48521721197097" lon="11.087886806254827"><ele>347.0</ele><time>2026-03-23T07:19:08Z</time></trkpt><trkpt lat="45.48527829218199" lon="11.08778610715055"><ele>345.0</ele><time>2026-03-23T07:19:09Z</time></trkpt><trkpt lat="45.485351646237355" lon="11.087690301765074"><ele>346.2</ele><time>2026-03-23T07:19:10Z</time></trkpt><trkpt lat="45.485437142067475" lon="11.087589047569685"><ele>347.4</ele><time>2026-03-23T07:19:11Z</time></trkpt><trkpt lat="45.485526031494345" lon="11.087494505481432"><ele>348.6</ele><time>2026-03-23T07:19:12Z</time></trkpt><trkpt lat="45.48561565830487" lon="11.087397256974162"><ele>349.8</ele><time>2026-03-23T07:19:13Z</time></trkpt><trkpt lat="45.48570147365072" lon="11.087290987598385"><ele>351.0</ele><time>2026-03-23T07:19:14Z</time></trkpt><trkpt lat="45.48577893615111" lon="11.087185402050249"><ele>347.6</ele><time>2026-03-23T07:19:15Z</time></trkpt><trkpt lat="45.48585858452054" lon="11.08709509598805"><ele>344.20000000000005</ele><time>2026-03-23T07:19:16Z</time></trkpt><trkpt lat="45.485939184769045" lon="11.087007019248126"><ele>340.79999999999995</ele><time>2026-03-23T07:19:17Z</time></trkpt><trkpt lat="45.48602490682996" lon="11.086928893100897"><ele>337.4</ele><time>2026-03-23T07:19:18Z</time></trkpt><trkpt lat="45.48611163128416" lon="11.086858308786422"><ele>334.0</ele><time>2026-03-23T07:19:19Z</time></trkpt><trkpt lat="45.48619555691029" lon="11.08679140101795"><ele>334.4</ele><time>2026-03-23T07:19:20Z</time></trkpt><trkpt lat="45.48627053295309" lon="11.08671010452279"><ele>334.79999999999995</ele><time>2026-03-23T07:19:21Z</time></trkpt><trkpt lat="45.48633027003795" lon="11.086623508121386"><ele>335.20000000000005</ele><time>2026-03-23T07:19:22Z</time></trkpt><trkpt lat="45.486380014797064" lon="11.086513145458268"><ele>335.6</ele><time>2026-03-23T07:19:23Z</time></trkpt><trkpt lat="45.48641094074242" lon="11.086381362758088"><ele>336.0</ele><time>2026-03-23T07:19:24Z</time></trkpt><trkpt lat="45.48643102703903" lon="11.08623587590603"><ele>333.20000000000005</ele><time>2026-03-23T07:19:25Z</time></trkpt><trkpt lat="45.48644294534879" lon="11.086090430418334"><ele>330.40000000000003</ele><time>2026-03-23T07:19:26Z</time></trkpt><trkpt lat="45.486467519861776" lon="11.085943148704796"><ele>327.6</ele><time>2026-03-23T07:19:27Z</time></trkpt><trkpt lat="45.48647854805958" lon="11.08579943729737"><ele>324.8</ele><time>2026-03-23T07:19:28Z</time></trkpt><trkpt lat="45.48649439692122" lon="11.085656874782705"><ele>322.0</ele><time>2026-03-23T07:19:29Z</time></trkpt><trkpt lat="45.486515376303416" lon="11.085509718206588"><ele>319.6</ele><time>2026-03-23T07:19:30Z</time></trkpt><trkpt lat="45.48654799618863" lon="11.085376105097012"><ele>317.20000000000005</ele><time>2026-03-23T07:19:31Z</time></trkpt><trkpt lat="45.486588940792736" lon="11.085261546135076"><ele>314.8</ele><time>2026-03-23T07:19:32Z</time></trkpt><trkpt lat="45.486638627727714" lon="11.085157312168871"><ele>312.4</ele><time>2026-03-23T07:19:33Z</time></trkpt><trkpt lat="45.486676664049234" lon="11.085041237497759"><ele>310.0</ele><time>2026-03-23T07:19:34Z</time></trkpt><trkpt lat="45.48668864765612" lon="11.084911570822653"><ele>308.2</ele><time>2026-03-23T07:19:35Z</time></trkpt><trkpt lat="45.48668333727398" lon="11.084771183635917"><ele>306.4</ele><time>2026-03-23T07:19:36Z</time></trkpt><trkpt lat="45.48666432239316" lon="11.084629740457016"><ele>304.6</ele><time>2026-03-23T07:19:37Z</time></trkpt><trkpt lat="45.48664327155813" lon="11.084483973698061"><ele>302.8</ele><time>2026-03-23T07:19:38Z</time></trkpt><trkpt lat="45.4866251744218" lon="11.084355358146484"><ele>301.0</ele><time>2026-03-23T07:19:39Z</time></trkpt><trkpt lat="45.48661152867275" lon="11.08424674585279"><ele>299.0</ele><time>2026-03-23T07:19:40Z</time></trkpt><trkpt lat="45.486611177436956" lon="11.084058523427153"><ele>297.0</ele><time>2026-03-23T07:19:42Z</time></trkpt><trkpt lat="45.48662008610189" lon="11.083946920198427"><ele>295.0</ele><time>2026-03-23T07:19:43Z</time></trkpt><trkpt lat="45.48663701547429" lon="11.083818119103348"><ele>293.0</ele><time>2026-03-23T07:19:44Z</time></trkpt><trkpt lat="45.48665191404961" lon="11.08367244543718"><ele>291.0</ele><time>2026-03-23T07:19:45Z</time></trkpt><trkpt lat="45.486667107932846" lon="11.083531430171728"><ele>291.0</ele><time>2026-03-23T07:19:46Z</time></trkpt><trkpt lat="45.48668135420496" lon="11.08338810902666"><ele>291.0</ele><time>2026-03-23T07:19:47Z</time></trkpt><trkpt lat="45.48669180462008" lon="11.083245747408842"><ele>291.0</ele><time>2026-03-23T07:19:48Z</time></trkpt><trkpt lat="45.486701970730294" lon="11.083105748908393"><ele>291.0</ele><time>2026-03-23T07:19:49Z</time></trkpt><trkpt lat="45.486712937661345" lon="11.082969341386189"><ele>291.0</ele><time>2026-03-23T07:19:50Z</time></trkpt><trkpt lat="45.48672716092462" lon="11.08282774625936"><ele>289.2</ele><time>2026-03-23T07:19:51Z</time></trkpt><trkpt lat="45.48673687403934" lon="11.082688061056562"><ele>287.40000000000003</ele><time>2026-03-23T07:19:52Z</time></trkpt><trkpt lat="45.48673482753299" lon="11.0825465969479"><ele>285.6</ele><time>2026-03-23T07:19:53Z</time></trkpt><trkpt lat="45.48671100665932" lon="11.082415170201465"><ele>283.8</ele><time>2026-03-23T07:19:54Z</time></trkpt><trkpt lat="45.48667766606788" lon="11.082289931961908"><ele>282.0</ele><time>2026-03-23T07:19:55Z</time></trkpt><trkpt lat="45.48664329025812" lon="11.082170326779048"><ele>281.14285714285717</ele><time>2026-03-23T07:19:56Z</time></trkpt><trkpt lat="45.48661573829718" lon="11.082053185369835"><ele>280.2857142857143</ele><time>2026-03-23T07:19:57Z</time></trkpt><trkpt lat="45.486604025708026" lon="11.081945027218973"><ele>279.42857142857144</ele><time>2026-03-23T07:19:58Z</time></trkpt><trkpt lat="45.486607728057464" lon="11.081841048003367"><ele>278.57142857142856</ele><time>2026-03-23T07:19:59Z</time></trkpt><trkpt lat="45.486634432164195" lon="11.08175059314065"><ele>277.7142857142857</ele><time>2026-03-23T07:20:00Z</time></trkpt><trkpt lat="45.48667605146017" lon="11.08167425096927"><ele>276.8571428571429</ele><time>2026-03-23T07:20:01Z</time></trkpt><trkpt lat="45.48673677017387" lon="11.081627633172626"><ele>276.0</ele><time>2026-03-23T07:20:02Z</time></trkpt><trkpt lat="45.486810075256315" lon="11.081605366737634"><ele>275.6666666666667</ele><time>2026-03-23T07:20:03Z</time></trkpt><trkpt lat="45.486883552080975" lon="11.081584231994565"><ele>275.3333333333333</ele><time>2026-03-23T07:20:04Z</time></trkpt><trkpt lat="45.48694628732342" lon="11.081554985441556"><ele>275.0</ele><time>2026-03-23T07:20:05Z</time></trkpt><trkpt lat="45.487006290668994" lon="11.081526597661265"><ele>274.66666666666663</ele><time>2026-03-23T07:20:06Z</time></trkpt><trkpt lat="45.48711244422927" lon="11.081553010808411"><ele>274.3333333333333</ele><time>2026-03-23T07:20:08Z</time></trkpt><trkpt lat="45.48715001251919" lon="11.081632590443546"><ele>274.0</ele><time>2026-03-23T07:20:09Z</time></trkpt><trkpt lat="45.48717929202716" lon="11.0817251117133"><ele>271.4</ele><time>2026-03-23T07:20:10Z</time></trkpt><trkpt lat="45.48721767287296" lon="11.081829013155886"><ele>268.79999999999995</ele><time>2026-03-23T07:20:11Z</time></trkpt><trkpt lat="45.48725534230144" lon="11.081946414125689"><ele>266.20000000000005</ele><time>2026-03-23T07:20:12Z</time></trkpt><trkpt lat="45.4872896164849" lon="11.08206696445308"><ele>263.6</ele><time>2026-03-23T07:20:13Z</time></trkpt><trkpt lat="45.487326954905186" lon="11.082197556438274"><ele>261.0</ele><time>2026-03-23T07:20:14Z</time></trkpt><trkpt lat="45.4873593431854" lon="11.082327562347341"><ele>262.0</ele><time>2026-03-23T07:20:15Z</time></trkpt><trkpt lat="45.487389610992466" lon="11.082461337967716"><ele>263.0</ele><time>2026-03-23T07:20:16Z</time></trkpt><trkpt lat="45.48741710523564" lon="11.082597420997011"><ele>264.0</ele><time>2026-03-23T07:20:17Z</time></trkpt><trkpt lat="45.487442399996006" lon="11.082737458229335"><ele>265.0</ele><time>2026-03-23T07:20:18Z</time></trkpt><trkpt lat="45.48745835030926" lon="11.082878539940566"><ele>266.0</ele><time>2026-03-23T07:20:19Z</time></trkpt><trkpt lat="45.487472174399805" lon="11.083019921847331"><ele>266.0</ele><time>2026-03-23T07:20:20Z</time></trkpt><trkpt lat="45.48749712661575" lon="11.08315465120865"><ele>266.0</ele><time>2026-03-23T07:20:21Z</time></trkpt><trkpt lat="45.48752928855695" lon="11.08330047800783"><ele>266.0</ele><time>2026-03-23T07:20:22Z</time></trkpt><trkpt lat="45.48757176416847" lon="11.083445781577533"><ele>266.0</ele><time>2026-03-23T07:20:23Z</time></trkpt><trkpt lat="45.48764116519018" lon="11.083599111637767"><ele>266.0</ele><time>2026-03-23T07:20:24Z</time></trkpt><trkpt lat="45.48772081748257" lon="11.083745984876861"><ele>265.25</ele><time>2026-03-23T07:20:25Z</time></trkpt><trkpt lat="45.487805527646294" lon="11.083873287564833"><ele>264.5</ele><time>2026-03-23T07:20:26Z</time></trkpt><trkpt lat="45.487866450233746" lon="11.083973972884161"><ele>263.75</ele><time>2026-03-23T07:20:27Z</time></trkpt><trkpt lat="45.487910045119605" lon="11.084044443327308"><ele>263.0</ele><time>2026-03-23T07:20:28Z</time></trkpt><trkpt lat="45.488005853996626" lon="11.084411154113969"><ele>263.0</ele><time>2026-03-23T07:20:32Z</time></trkpt><trkpt lat="45.48812520204385" lon="11.084408815717081"><ele>263.0</ele><time>2026-03-23T07:20:34Z</time></trkpt><trkpt lat="45.488195838714816" lon="11.08437690317712"><ele>263.0</ele><time>2026-03-23T07:20:35Z</time></trkpt><trkpt lat="45.4882710056771" lon="11.084325535679135"><ele>263.0</ele><time>2026-03-23T07:20:36Z</time></trkpt><trkpt lat="45.488363790120864" lon="11.084278368805803"><ele>263.0</ele><time>2026-03-23T07:20:37Z</time></trkpt><trkpt lat="45.48846349856527" lon="11.084250115960131"><ele>263.0</ele><time>2026-03-23T07:20:38Z</time></trkpt><trkpt lat="45.488552267132775" lon="11.08423373257645"><ele>263.0</ele><time>2026-03-23T07:20:39Z</time></trkpt><trkpt lat="45.48862939112765" lon="11.084226343802841"><ele>263.0</ele><time>2026-03-23T07:20:40Z</time></trkpt><trkpt lat="45.48872691570942" lon="11.084259101412322"><ele>263.0</ele><time>2026-03-23T07:20:42Z</time></trkpt><trkpt lat="45.488787009368956" lon="11.084344063710851"><ele>263.0</ele><time>2026-03-23T07:20:44Z</time></trkpt><trkpt lat="45.48882770656173" lon="11.08449530480543"><ele>263.5</ele><time>2026-03-23T07:20:46Z</time></trkpt><trkpt lat="45.48888497050647" lon="11.084642112066554"><ele>264.0</ele><time>2026-03-23T07:20:48Z</time></trkpt><trkpt lat="45.48897925396394" lon="11.084737575787093"><ele>264.5</ele><time>2026-03-23T07:20:50Z</time></trkpt><trkpt lat="45.48908818198422" lon="11.084775564859745"><ele>265.0</ele><time>2026-03-23T07:20:52Z</time></trkpt><trkpt lat="45.489170794198806" lon="11.08468115407439"><ele>265.0</ele><time>2026-03-23T07:20:54Z</time></trkpt><trkpt lat="45.48918736782979" lon="11.084533183681673"><ele>265.0</ele><time>2026-03-23T07:20:56Z</time></trkpt><trkpt lat="45.48919298484287" lon="11.08443696108734"><ele>265.0</ele><time>2026-03-23T07:20:57Z</time></trkpt><trkpt lat="45.48920488439141" lon="11.08433810465306"><ele>265.0</ele><time>2026-03-23T07:20:58Z</time></trkpt><trkpt lat="45.489216026908075" lon="11.084242082761147"><ele>265.0</ele><time>2026-03-23T07:20:59Z</time></trkpt><trkpt lat="45.48922347006188" lon="11.084142532201167"><ele>265.0</ele><time>2026-03-23T07:21:00Z</time></trkpt><trkpt lat="45.489222930796466" lon="11.08396974700474"><ele>263.6</ele><time>2026-03-23T07:21:02Z</time></trkpt><trkpt lat="45.48925724360795" lon="11.083798084821774"><ele>262.2</ele><time>2026-03-23T07:21:04Z</time></trkpt><trkpt lat="45.48932448800032" lon="11.083710654099713"><ele>260.8</ele><time>2026-03-23T07:21:06Z</time></trkpt><trkpt lat="45.48940665742973" lon="11.083688862499567"><ele>259.4</ele><time>2026-03-23T07:21:08Z</time></trkpt><trkpt lat="45.48948083851001" lon="11.083677460800525"><ele>258.0</ele><time>2026-03-23T07:21:10Z</time></trkpt><trkpt lat="45.48954093298936" lon="11.083578700033938"><ele>258.0</ele><time>2026-03-23T07:21:13Z</time></trkpt><trkpt lat="45.48955062631249" lon="11.083465023049692"><ele>258.0</ele><time>2026-03-23T07:21:15Z</time></trkpt><trkpt lat="45.4895560225303" lon="11.083329826592847"><ele>258.0</ele><time>2026-03-23T07:21:17Z</time></trkpt><trkpt lat="45.48956145263294" lon="11.083218656756797"><ele>258.0</ele><time>2026-03-23T07:21:20Z</time></trkpt><trkpt lat="45.48962244064527" lon="11.08316380939063"><ele>258.0</ele><time>2026-03-23T07:21:23Z</time></trkpt><trkpt lat="45.4897121556554" lon="11.083167831502216"><ele>258.0</ele><time>2026-03-23T07:21:25Z</time></trkpt><trkpt lat="45.48980710806373" lon="11.083148467861985"><ele>256.6</ele><time>2026-03-23T07:21:27Z</time></trkpt><trkpt lat="45.489894549191035" lon="11.083128398166197"><ele>255.20000000000002</ele><time>2026-03-23T07:21:29Z</time></trkpt><trkpt lat="45.48998027770935" lon="11.083113716266105"><ele>253.8</ele><time>2026-03-23T07:21:31Z</time></trkpt><trkpt lat="45.490072291848286" lon="11.083101620786413"><ele>252.4</ele><time>2026-03-23T07:21:33Z</time></trkpt><trkpt lat="45.490166445442696" lon="11.083127426603399"><ele>251.0</ele><time>2026-03-23T07:21:35Z</time></trkpt><trkpt lat="45.49024955726633" lon="11.083183678005314"><ele>252.20000000000002</ele><time>2026-03-23T07:21:37Z</time></trkpt><trkpt lat="45.49034112038139" lon="11.083275605130538"><ele>253.40000000000003</ele><time>2026-03-23T07:21:39Z</time></trkpt><trkpt lat="45.490463724331526" lon="11.083313266556404"><ele>254.6</ele><time>2026-03-23T07:21:41Z</time></trkpt><trkpt lat="45.49055008399594" lon="11.083297484259"><ele>255.8</ele><time>2026-03-23T07:21:42Z</time></trkpt><trkpt lat="45.49063166373435" lon="11.083274157107901"><ele>257.0</ele><time>2026-03-23T07:21:43Z</time></trkpt><trkpt lat="45.49072960584714" lon="11.083240405395792"><ele>258.0</ele><time>2026-03-23T07:21:44Z</time></trkpt><trkpt lat="45.49082396525178" lon="11.083200609681072"><ele>259.0</ele><time>2026-03-23T07:21:45Z</time></trkpt><trkpt lat="45.490908209687255" lon="11.083146520864748"><ele>260.0</ele><time>2026-03-23T07:21:46Z</time></trkpt><trkpt lat="45.490978232202835" lon="11.083088719392128"><ele>261.0</ele><time>2026-03-23T07:21:47Z</time></trkpt><trkpt lat="45.491037353394184" lon="11.083024309017967"><ele>262.0</ele><time>2026-03-23T07:21:48Z</time></trkpt><trkpt lat="45.4910853382179" lon="11.082953128889105"><ele>263.0</ele><time>2026-03-23T07:21:49Z</time></trkpt><trkpt lat="45.491122977827025" lon="11.082875937673197"><ele>263.0</ele><time>2026-03-23T07:21:50Z</time></trkpt><trkpt lat="45.49114537114967" lon="11.08278683646177"><ele>263.0</ele><time>2026-03-23T07:21:51Z</time></trkpt><trkpt lat="45.49114933209974" lon="11.082691867236758"><ele>263.0</ele><time>2026-03-23T07:21:52Z</time></trkpt><trkpt lat="45.49112954565698" lon="11.082588928380742"><ele>263.0</ele><time>2026-03-23T07:21:53Z</time></trkpt><trkpt lat="45.491099492616016" lon="11.082477191851682"><ele>263.0</ele><time>2026-03-23T07:21:54Z</time></trkpt><trkpt lat="45.4910588643498" lon="11.082356840206637"><ele>263.0</ele><time>2026-03-23T07:21:55Z</time></trkpt><trkpt lat="45.49101189273464" lon="11.082242732424257"><ele>264.4</ele><time>2026-03-23T07:21:56Z</time></trkpt><trkpt lat="45.490966602802956" lon="11.082145628770755"><ele>265.8</ele><time>2026-03-23T07:21:57Z</time></trkpt><trkpt lat="45.49091005633234" lon="11.082014826126326"><ele>267.2</ele><time>2026-03-23T07:21:59Z</time></trkpt><trkpt lat="45.49085862408878" lon="11.081847389597032"><ele>268.6</ele><time>2026-03-23T07:22:01Z</time></trkpt><trkpt lat="45.49081396205569" lon="11.081742566187717"><ele>270.0</ele><time>2026-03-23T07:22:02Z</time></trkpt><trkpt lat="45.49075314473053" lon="11.08163709139986"><ele>271.0</ele><time>2026-03-23T07:22:03Z</time></trkpt><trkpt lat="45.49068525641387" lon="11.081542713970702"><ele>272.0</ele><time>2026-03-23T07:22:04Z</time></trkpt><trkpt lat="45.49061648039344" lon="11.081453285814447"><ele>273.0</ele><time>2026-03-23T07:22:05Z</time></trkpt><trkpt lat="45.49054462695905" lon="11.081368503999196"><ele>274.0</ele><time>2026-03-23T07:22:06Z</time></trkpt><trkpt lat="45.490479980333674" lon="11.081283805070711"><ele>275.0</ele><time>2026-03-23T07:22:07Z</time></trkpt><trkpt lat="45.4904247557258" lon="11.081202799261755"><ele>276.0</ele><time>2026-03-23T07:22:08Z</time></trkpt><trkpt lat="45.49037525666664" lon="11.081126720362509"><ele>273.0</ele><time>2026-03-23T07:22:09Z</time></trkpt><trkpt lat="45.49032550115377" lon="11.081049862456467"><ele>270.0</ele><time>2026-03-23T07:22:10Z</time></trkpt><trkpt lat="45.49027684316746" lon="11.080975768651147"><ele>267.0</ele><time>2026-03-23T07:22:11Z</time></trkpt><trkpt lat="45.490238052461414" lon="11.080895379088414"><ele>264.0</ele><time>2026-03-23T07:22:12Z</time></trkpt><trkpt lat="45.49020639480344" lon="11.080811509101174"><ele>261.0</ele><time>2026-03-23T07:22:13Z</time></trkpt><trkpt lat="45.490192238303365" lon="11.08071083695368"><ele>258.0</ele><time>2026-03-23T07:22:14Z</time></trkpt><trkpt lat="45.49018439208824" lon="11.080609598625921"><ele>255.0</ele><time>2026-03-23T07:22:15Z</time></trkpt><trkpt lat="45.490190892616866" lon="11.080480146495862"><ele>254.0</ele><time>2026-03-23T07:22:16Z</time></trkpt><trkpt lat="45.49020527103162" lon="11.08035460145667"><ele>253.0</ele><time>2026-03-23T07:22:17Z</time></trkpt><trkpt lat="45.49022574639511" lon="11.080226156853834"><ele>252.0</ele><time>2026-03-23T07:22:18Z</time></trkpt><trkpt lat="45.49023801402788" lon="11.080095211377788"><ele>251.0</ele><time>2026-03-23T07:22:19Z</time></trkpt><trkpt lat="45.49025117075775" lon="11.079966516766397"><ele>250.0</ele><time>2026-03-23T07:22:20Z</time></trkpt><trkpt lat="45.490265303074175" lon="11.07983775743488"><ele>248.83333333333331</ele><time>2026-03-23T07:22:21Z</time></trkpt><trkpt lat="45.49027569083225" lon="11.079718657159601"><ele>247.66666666666666</ele><time>2026-03-23T07:22:22Z</time></trkpt><trkpt lat="45.49028500583441" lon="11.079608895599554"><ele>246.5</ele><time>2026-03-23T07:22:23Z</time></trkpt><trkpt lat="45.490294596039014" lon="11.079515542867753"><ele>245.33333333333331</ele><time>2026-03-23T07:22:24Z</time></trkpt><trkpt lat="45.49031117893976" lon="11.079371776575508"><ele>244.16666666666666</ele><time>2026-03-23T07:22:26Z</time></trkpt><trkpt lat="45.490341667169" lon="11.079272640674592"><ele>243.0</ele><time>2026-03-23T07:22:28Z</time></trkpt><trkpt lat="45.49044522902371" lon="11.079166971371897"><ele>245.25</ele><time>2026-03-23T07:22:30Z</time></trkpt><trkpt lat="45.490525479049886" lon="11.079113733142833"><ele>247.5</ele><time>2026-03-23T07:22:31Z</time></trkpt><trkpt lat="45.490627677492796" lon="11.079040337536016"><ele>249.75</ele><time>2026-03-23T07:22:32Z</time></trkpt><trkpt lat="45.490749987964584" lon="11.078965762534008"><ele>252.0</ele><time>2026-03-23T07:22:33Z</time></trkpt><trkpt lat="45.4908872306534" lon="11.07890194159527"><ele>252.0</ele><time>2026-03-23T07:22:34Z</time></trkpt><trkpt lat="45.49099116751009" lon="11.078844420244591"><ele>252.0</ele><time>2026-03-23T07:22:35Z</time></trkpt><trkpt lat="45.491073269975836" lon="11.078794417972397"><ele>252.0</ele><time>2026-03-23T07:22:36Z</time></trkpt><trkpt lat="45.491129476531086" lon="11.0787228525911"><ele>252.0</ele><time>2026-03-23T07:22:37Z</time></trkpt><trkpt lat="45.49116215108213" lon="11.078612664335244"><ele>252.0</ele><time>2026-03-23T07:22:38Z</time></trkpt><trkpt lat="45.491172707787506" lon="11.078460112795"><ele>252.0</ele><time>2026-03-23T07:22:39Z</time></trkpt><trkpt lat="45.491178165495676" lon="11.078296454260549"><ele>252.0</ele><time>2026-03-23T07:22:40Z</time></trkpt><trkpt lat="45.49119429772661" lon="11.078139683303306"><ele>252.0</ele><time>2026-03-23T07:22:41Z</time></trkpt><trkpt lat="45.49122229620897" lon="11.077980833399982"><ele>252.0</ele><time>2026-03-23T07:22:42Z</time></trkpt><trkpt lat="45.49125126416131" lon="11.077826942485062"><ele>253.6</ele><time>2026-03-23T07:22:43Z</time></trkpt><trkpt lat="45.49129604029094" lon="11.077717410664455"><ele>255.2</ele><time>2026-03-23T07:22:44Z</time></trkpt><trkpt lat="45.49137629246674" lon="11.077645808490992"><ele>256.8</ele><time>2026-03-23T07:22:45Z</time></trkpt><trkpt lat="45.4914896899769" lon="11.077610687402162"><ele>258.4</ele><time>2026-03-23T07:22:46Z</time></trkpt><trkpt lat="45.491602890383284" lon="11.07763020559548"><ele>260.0</ele><time>2026-03-23T07:22:47Z</time></trkpt><trkpt lat="45.491686006083675" lon="11.077694830230913"><ele>260.0</ele><time>2026-03-23T07:22:48Z</time></trkpt><trkpt lat="45.4917718287465" lon="11.077828411784077"><ele>260.0</ele><time>2026-03-23T07:22:49Z</time></trkpt><trkpt lat="45.49188671425131" lon="11.077994826375214"><ele>260.0</ele><time>2026-03-23T07:22:50Z</time></trkpt><trkpt lat="45.49201999084049" lon="11.0781522573885"><ele>263.33333333333337</ele><time>2026-03-23T07:22:51Z</time></trkpt><trkpt lat="45.49218454430354" lon="11.07827800651235"><ele>266.6666666666667</ele><time>2026-03-23T07:22:52Z</time></trkpt><trkpt lat="45.4923925173853" lon="11.078371887852535"><ele>270.0</ele><time>2026-03-23T07:22:53Z</time></trkpt><trkpt lat="45.49264171283003" lon="11.078461639228632"><ele>270.0</ele><time>2026-03-23T07:22:54Z</time></trkpt><trkpt lat="45.49289413276632" lon="11.078559649218956"><ele>270.0</ele><time>2026-03-23T07:22:55Z</time></trkpt><trkpt lat="45.49309741120373" lon="11.078665071585279"><ele>268.0</ele><time>2026-03-23T07:22:56Z</time></trkpt><trkpt lat="45.493272117080004" lon="11.0787561582326"><ele>266.0</ele><time>2026-03-23T07:22:57Z</time></trkpt><trkpt lat="45.49343230787561" lon="11.078843291818028"><ele>264.0</ele><time>2026-03-23T07:22:58Z</time></trkpt><trkpt lat="45.49356669818904" lon="11.078949498693284"><ele>264.0</ele><time>2026-03-23T07:22:59Z</time></trkpt><trkpt lat="45.49366890286353" lon="11.079074027414622"><ele>264.0</ele><time>2026-03-23T07:23:00Z</time></trkpt><trkpt lat="45.493728524422586" lon="11.079199701729694"><ele>264.0</ele><time>2026-03-23T07:23:01Z</time></trkpt><trkpt lat="45.49375958768426" lon="11.079363063426007"><ele>264.0</ele><time>2026-03-23T07:23:02Z</time></trkpt><trkpt lat="45.49375068525538" lon="11.079571731139865"><ele>268.25</ele><time>2026-03-23T07:23:03Z</time></trkpt><trkpt lat="45.49372075068688" lon="11.079805610023467"><ele>272.5</ele><time>2026-03-23T07:23:04Z</time></trkpt><trkpt lat="45.49370592195468" lon="11.079973029681817"><ele>276.75</ele><time>2026-03-23T07:23:05Z</time></trkpt><trkpt lat="45.49373208405516" lon="11.080072656448769"><ele>281.0</ele><time>2026-03-23T07:23:06Z</time></trkpt><trkpt lat="45.49380069829714" lon="11.080158833426552"><ele>281.5</ele><time>2026-03-23T07:23:07Z</time></trkpt><trkpt lat="45.49389167794398" lon="11.080220672936303"><ele>282.0</ele><time>2026-03-23T07:23:08Z</time></trkpt><trkpt lat="45.49400519689059" lon="11.080226735620258"><ele>282.5</ele><time>2026-03-23T07:23:09Z</time></trkpt><trkpt lat="45.49412054759356" lon="11.080196133947652"><ele>283.0</ele><time>2026-03-23T07:23:10Z</time></trkpt><trkpt lat="45.49423794756467" lon="11.08013513242747"><ele>283.0</ele><time>2026-03-23T07:23:11Z</time></trkpt><trkpt lat="45.49440059333059" lon="11.080019488025435"><ele>283.0</ele><time>2026-03-23T07:23:12Z</time></trkpt><trkpt lat="45.49456646511969" lon="11.079982918380214"><ele>283.0</ele><time>2026-03-23T07:23:13Z</time></trkpt><trkpt lat="45.49475294911025" lon="11.079981244704404"><ele>284.3333333333333</ele><time>2026-03-23T07:23:14Z</time></trkpt><trkpt lat="45.49490388193472" lon="11.079994621858603"><ele>285.6666666666667</ele><time>2026-03-23T07:23:15Z</time></trkpt><trkpt lat="45.495057986407645" lon="11.080063355084459"><ele>287.0</ele><time>2026-03-23T07:23:16Z</time></trkpt><trkpt lat="45.495254001200244" lon="11.080202231129038"><ele>288.33333333333337</ele><time>2026-03-23T07:23:17Z</time></trkpt><trkpt lat="45.495458419572344" lon="11.080337752007019"><ele>289.6666666666667</ele><time>2026-03-23T07:23:18Z</time></trkpt><trkpt lat="45.49562763630104" lon="11.080438480696793"><ele>291.0</ele><time>2026-03-23T07:23:19Z</time></trkpt><trkpt lat="45.495772360139846" lon="11.080549828921477"><ele>291.0</ele><time>2026-03-23T07:23:20Z</time></trkpt><trkpt lat="45.49590605906401" lon="11.080728287531636"><ele>291.0</ele><time>2026-03-23T07:23:21Z</time></trkpt><trkpt lat="45.496050698653555" lon="11.08098001060221"><ele>291.0</ele><time>2026-03-23T07:23:22Z</time></trkpt><trkpt lat="45.49621405039408" lon="11.08126123287911"><ele>295.6666666666667</ele><time>2026-03-23T07:23:23Z</time></trkpt><trkpt lat="45.49635224684511" lon="11.081503653565205"><ele>300.33333333333337</ele><time>2026-03-23T07:23:24Z</time></trkpt><trkpt lat="45.49646570612709" lon="11.081680231187022"><ele>305.0</ele><time>2026-03-23T07:23:25Z</time></trkpt><trkpt lat="45.49655421383867" lon="11.081797998004813"><ele>305.6</ele><time>2026-03-23T07:23:26Z</time></trkpt><trkpt lat="45.4966481556827" lon="11.081877881905726"><ele>306.2</ele><time>2026-03-23T07:23:27Z</time></trkpt><trkpt lat="45.496744877796274" lon="11.081906579547889"><ele>306.8</ele><time>2026-03-23T07:23:28Z</time></trkpt><trkpt lat="45.496852314555284" lon="11.08186893564605"><ele>307.4</ele><time>2026-03-23T07:23:29Z</time></trkpt><trkpt lat="45.49695291764537" lon="11.08177430436771"><ele>308.0</ele><time>2026-03-23T07:23:30Z</time></trkpt><trkpt lat="45.49703172870151" lon="11.081601823073063"><ele>312.33333333333337</ele><time>2026-03-23T07:23:31Z</time></trkpt><trkpt lat="45.497087896175714" lon="11.081373924171496"><ele>316.6666666666667</ele><time>2026-03-23T07:23:32Z</time></trkpt><trkpt lat="45.49713255220198" lon="11.081079859041198"><ele>321.0</ele><time>2026-03-23T07:23:33Z</time></trkpt><trkpt lat="45.49717760027865" lon="11.080823875798036"><ele>320.3333333333333</ele><time>2026-03-23T07:23:34Z</time></trkpt><trkpt lat="45.497240519294294" lon="11.080626490481569"><ele>319.66666666666663</ele><time>2026-03-23T07:23:35Z</time></trkpt><trkpt lat="45.49735937575641" lon="11.080421793973558"><ele>319.0</ele><time>2026-03-23T07:23:36Z</time></trkpt><trkpt lat="45.49752839649415" lon="11.08019920023567"><ele>319.0</ele><time>2026-03-23T07:23:37Z</time></trkpt><trkpt lat="45.49771697558008" lon="11.079979869748428"><ele>319.0</ele><time>2026-03-23T07:23:38Z</time></trkpt><trkpt lat="45.49791951918365" lon="11.079748246373219"><ele>323.0</ele><time>2026-03-23T07:23:39Z</time></trkpt><trkpt lat="45.49816974891396" lon="11.079455419341464"><ele>327.0</ele><time>2026-03-23T07:23:40Z</time></trkpt><trkpt lat="45.49835065648835" lon="11.079239596548325"><ele>326.6666666666667</ele><time>2026-03-23T07:23:41Z</time></trkpt><trkpt lat="45.49848372542438" lon="11.079078428474231"><ele>326.33333333333337</ele><time>2026-03-23T07:23:42Z</time></trkpt><trkpt lat="45.49859425056295" lon="11.078946005385367"><ele>326.0</ele><time>2026-03-23T07:23:43Z</time></trkpt><trkpt lat="45.498689287004765" lon="11.078812354683402"><ele>326.0</ele><time>2026-03-23T07:23:44Z</time></trkpt><trkpt lat="45.49873581855876" lon="11.07865945794492"><ele>326.0</ele><time>2026-03-23T07:23:45Z</time></trkpt><trkpt lat="45.49874166227504" lon="11.078468656848383"><ele>326.0</ele><time>2026-03-23T07:23:46Z</time></trkpt><trkpt lat="45.49869752544433" lon="11.078257346894517"><ele>326.0</ele><time>2026-03-23T07:23:47Z</time></trkpt><trkpt lat="45.49860672372956" lon="11.078041193464612"><ele>329.0</ele><time>2026-03-23T07:23:48Z</time></trkpt><trkpt lat="45.49848817494146" lon="11.077779284961178"><ele>332.0</ele><time>2026-03-23T07:23:49Z</time></trkpt><trkpt lat="45.498372270836036" lon="11.07743755807356"><ele>334.6666666666667</ele><time>2026-03-23T07:23:50Z</time></trkpt><trkpt lat="45.498284569853894" lon="11.077167416168777"><ele>337.3333333333333</ele><time>2026-03-23T07:23:51Z</time></trkpt><trkpt lat="45.498216846448265" lon="11.076954333134557"><ele>340.0</ele><time>2026-03-23T07:23:52Z</time></trkpt><trkpt lat="45.49818763485905" lon="11.07677459670356"><ele>339.25</ele><time>2026-03-23T07:23:53Z</time></trkpt><trkpt lat="45.49819894708768" lon="11.076570474576895"><ele>338.5</ele><time>2026-03-23T07:23:54Z</time></trkpt><trkpt lat="45.49825708713872" lon="11.076382079596055"><ele>337.75</ele><time>2026-03-23T07:23:55Z</time></trkpt><trkpt lat="45.498347578747655" lon="11.076229921653619"><ele>337.0</ele><time>2026-03-23T07:23:56Z</time></trkpt><trkpt lat="45.49848881142734" lon="11.076093255085649"><ele>337.0</ele><time>2026-03-23T07:23:57Z</time></trkpt><trkpt lat="45.49867934518729" lon="11.075924471907431"><ele>337.0</ele><time>2026-03-23T07:23:58Z</time></trkpt><trkpt lat="45.498897628737986" lon="11.075712586304153"><ele>339.66666666666663</ele><time>2026-03-23T07:23:59Z</time></trkpt><trkpt lat="45.49906897188153" lon="11.075526310841912"><ele>342.3333333333333</ele><time>2026-03-23T07:24:00Z</time></trkpt><trkpt lat="45.49917849191737" lon="11.075414967227333"><ele>345.0</ele><time>2026-03-23T07:24:01Z</time></trkpt><trkpt lat="45.49927294801142" lon="11.075349294072529"><ele>345.0</ele><time>2026-03-23T07:24:02Z</time></trkpt><trkpt lat="45.49937996032425" lon="11.075334737355199"><ele>345.0</ele><time>2026-03-23T07:24:03Z</time></trkpt><trkpt lat="45.49949977480345" lon="11.075378555583399"><ele>345.0</ele><time>2026-03-23T07:24:04Z</time></trkpt><trkpt lat="45.49959948683457" lon="11.075499007558777"><ele>345.0</ele><time>2026-03-23T07:24:05Z</time></trkpt><trkpt lat="45.49967116497646" lon="11.075667555391815"><ele>346.0</ele><time>2026-03-23T07:24:06Z</time></trkpt><trkpt lat="45.49971744858894" lon="11.075880418149993"><ele>347.0</ele><time>2026-03-23T07:24:07Z</time></trkpt><trkpt lat="45.49974578106091" lon="11.076147927461761"><ele>348.0</ele><time>2026-03-23T07:24:08Z</time></trkpt><trkpt lat="45.49977377630991" lon="11.076437720379339"><ele>350.5</ele><time>2026-03-23T07:24:09Z</time></trkpt><trkpt lat="45.4998072591399" lon="11.076753283395355"><ele>353.0</ele><time>2026-03-23T07:24:10Z</time></trkpt><trkpt lat="45.499845742243885" lon="11.077072747519333"><ele>353.0</ele><time>2026-03-23T07:24:11Z</time></trkpt><trkpt lat="45.49989372630016" lon="11.077411656958144"><ele>353.0</ele><time>2026-03-23T07:24:12Z</time></trkpt><trkpt lat="45.49995918952624" lon="11.077769010936825"><ele>354.5</ele><time>2026-03-23T07:24:13Z</time></trkpt><trkpt lat="45.50005154178391" lon="11.078155374702982"><ele>356.0</ele><time>2026-03-23T07:24:14Z</time></trkpt><trkpt lat="45.50016775997829" lon="11.078582706850412"><ele>356.5</ele><time>2026-03-23T07:24:15Z</time></trkpt><trkpt lat="45.5002665257222" lon="11.079013542860782"><ele>357.0</ele><time>2026-03-23T07:24:16Z</time></trkpt><trkpt lat="45.5003512849928" lon="11.079377598455585"><ele>357.5</ele><time>2026-03-23T07:24:17Z</time></trkpt><trkpt lat="45.5004299536905" lon="11.079700413651626"><ele>358.0</ele><time>2026-03-23T07:24:18Z</time></trkpt><trkpt lat="45.50051902832463" lon="11.079994775876738"><ele>360.66666666666663</ele><time>2026-03-23T07:24:19Z</time></trkpt><trkpt lat="45.50061494134747" lon="11.080292813489189"><ele>363.3333333333333</ele><time>2026-03-23T07:24:20Z</time></trkpt><trkpt lat="45.500683658189246" lon="11.080533982920187"><ele>366.0</ele><time>2026-03-23T07:24:21Z</time></trkpt><trkpt lat="45.500692131824664" lon="11.080747353258209"><ele>368.0</ele><time>2026-03-23T07:24:22Z</time></trkpt><trkpt lat="45.500672877036834" lon="11.081018819396624"><ele>370.0</ele><time>2026-03-23T07:24:23Z</time></trkpt><trkpt lat="45.50065226754253" lon="11.081284694069938"><ele>372.0</ele><time>2026-03-23T07:24:24Z</time></trkpt><trkpt lat="45.5006707454592" lon="11.081509295798886"><ele>374.0</ele><time>2026-03-23T07:24:25Z</time></trkpt><trkpt lat="45.50074382906263" lon="11.081736905762277"><ele>376.0</ele><time>2026-03-23T07:24:26Z</time></trkpt><trkpt lat="45.50086374276012" lon="11.081990578867213"><ele>378.0</ele><time>2026-03-23T07:24:27Z</time></trkpt><trkpt lat="45.50096358765599" lon="11.082208342815509"><ele>378.0</ele><time>2026-03-23T07:24:28Z</time></trkpt><trkpt lat="45.501045235573216" lon="11.082383420408474"><ele>378.0</ele><time>2026-03-23T07:24:29Z</time></trkpt><trkpt lat="45.50115224503691" lon="11.082506667358794"><ele>378.0</ele><time>2026-03-23T07:24:30Z</time></trkpt><trkpt lat="45.50129505939824" lon="11.082571034612085"><ele>378.0</ele><time>2026-03-23T07:24:31Z</time></trkpt><trkpt lat="45.50145009536849" lon="11.082587817572923"><ele>380.25</ele><time>2026-03-23T07:24:32Z</time></trkpt><trkpt lat="45.501595636916754" lon="11.082530374490446"><ele>382.5</ele><time>2026-03-23T07:24:33Z</time></trkpt><trkpt lat="45.50171569482972" lon="11.082423148343997"><ele>384.75</ele><time>2026-03-23T07:24:34Z</time></trkpt><trkpt lat="45.50181052028743" lon="11.082255927778917"><ele>387.0</ele><time>2026-03-23T07:24:35Z</time></trkpt><trkpt lat="45.50188226152337" lon="11.082026550816437"><ele>387.0</ele><time>2026-03-23T07:24:36Z</time></trkpt><trkpt lat="45.501959329534" lon="11.08183850343803"><ele>387.0</ele><time>2026-03-23T07:24:37Z</time></trkpt><trkpt lat="45.502045704786404" lon="11.081744887502333"><ele>387.0</ele><time>2026-03-23T07:24:38Z</time></trkpt><trkpt lat="45.502156842779314" lon="11.081721471405002"><ele>387.0</ele><time>2026-03-23T07:24:39Z</time></trkpt><trkpt lat="45.50231924585175" lon="11.081732048516107"><ele>393.0</ele><time>2026-03-23T07:24:40Z</time></trkpt><trkpt lat="45.50250704614948" lon="11.0817437942079"><ele>399.0</ele><time>2026-03-23T07:24:41Z</time></trkpt><trkpt lat="45.50264498156977" lon="11.081713041452254"><ele>405.0</ele><time>2026-03-23T07:24:42Z</time></trkpt><trkpt lat="45.50276517965424" lon="11.08161315435504"><ele>403.66666666666663</ele><time>2026-03-23T07:24:43Z</time></trkpt><trkpt lat="45.50287463178115" lon="11.081450209816575"><ele>402.3333333333333</ele><time>2026-03-23T07:24:44Z</time></trkpt><trkpt lat="45.50297545372834" lon="11.081221135907054"><ele>401.0</ele><time>2026-03-23T07:24:45Z</time></trkpt><trkpt lat="45.50311554758616" lon="11.080966495952278"><ele>404.0</ele><time>2026-03-23T07:24:46Z</time></trkpt><trkpt lat="45.503273026571286" lon="11.080711032181254"><ele>407.0</ele><time>2026-03-23T07:24:47Z</time></trkpt><trkpt lat="45.503445197872004" lon="11.080434237857487"><ele>407.0</ele><time>2026-03-23T07:24:48Z</time></trkpt><trkpt lat="45.503618826955204" lon="11.080164472957701"><ele>407.0</ele><time>2026-03-23T07:24:49Z</time></trkpt><trkpt lat="45.503750075711324" lon="11.07988603254382"><ele>408.0</ele><time>2026-03-23T07:24:50Z</time></trkpt><trkpt lat="45.50383977487126" lon="11.079623295063605"><ele>409.0</ele><time>2026-03-23T07:24:51Z</time></trkpt><trkpt lat="45.503909470323464" lon="11.079414731127578"><ele>410.0</ele><time>2026-03-23T07:24:52Z</time></trkpt><trkpt lat="45.50397313121783" lon="11.079288320820531"><ele>410.0</ele><time>2026-03-23T07:24:53Z</time></trkpt><trkpt lat="45.50406632142262" lon="11.079212319271873"><ele>410.0</ele><time>2026-03-23T07:24:54Z</time></trkpt><trkpt lat="45.504193566316154" lon="11.079178570366615"><ele>410.0</ele><time>2026-03-23T07:24:55Z</time></trkpt><trkpt lat="45.504310054587215" lon="11.07921836076335"><ele>410.0</ele><time>2026-03-23T07:24:56Z</time></trkpt><trkpt lat="45.504423964264" lon="11.079322752760705"><ele>410.0</ele><time>2026-03-23T07:24:57Z</time></trkpt><trkpt lat="45.50450657212324" lon="11.079494166535207"><ele>410.0</ele><time>2026-03-23T07:24:58Z</time></trkpt><trkpt lat="45.50455359132769" lon="11.079693585774335"><ele>410.0</ele><time>2026-03-23T07:24:59Z</time></trkpt><trkpt lat="45.504562289462115" lon="11.079961400705827"><ele>407.5</ele><time>2026-03-23T07:25:00Z</time></trkpt><trkpt lat="45.504568007008636" lon="11.080319916795451"><ele>405.0</ele><time>2026-03-23T07:25:01Z</time></trkpt><trkpt lat="45.504589234515166" lon="11.080684249820443"><ele>408.0</ele><time>2026-03-23T07:25:02Z</time></trkpt><trkpt lat="45.50462302877819" lon="11.081039328437358"><ele>411.0</ele><time>2026-03-23T07:25:03Z</time></trkpt><trkpt lat="45.5046611545205" lon="11.081340275140395"><ele>414.0</ele><time>2026-03-23T07:25:04Z</time></trkpt><trkpt lat="45.5047397589545" lon="11.081620317097384"><ele>417.0</ele><time>2026-03-23T07:25:05Z</time></trkpt><trkpt lat="45.50486232685652" lon="11.081892028827871"><ele>420.0</ele><time>2026-03-23T07:25:06Z</time></trkpt><trkpt lat="45.505031571915715" lon="11.082148261206997"><ele>420.0</ele><time>2026-03-23T07:25:07Z</time></trkpt><trkpt lat="45.50523425105742" lon="11.082391514608673"><ele>420.0</ele><time>2026-03-23T07:25:08Z</time></trkpt><trkpt lat="45.50539634816276" lon="11.08261404418266"><ele>418.66666666666663</ele><time>2026-03-23T07:25:09Z</time></trkpt><trkpt lat="45.505488089904574" lon="11.082815318993367"><ele>417.3333333333333</ele><time>2026-03-23T07:25:10Z</time></trkpt><trkpt lat="45.50552499974976" lon="11.083014435824575"><ele>416.0</ele><time>2026-03-23T07:25:11Z</time></trkpt><trkpt lat="45.505525282794636" lon="11.083238407171974"><ele>416.0</ele><time>2026-03-23T07:25:12Z</time></trkpt><trkpt lat="45.50549511721883" lon="11.083493294208694"><ele>416.0</ele><time>2026-03-23T07:25:13Z</time></trkpt><trkpt lat="45.50541981617592" lon="11.083794918151728"><ele>416.0</ele><time>2026-03-23T07:25:14Z</time></trkpt><trkpt lat="45.50533397816313" lon="11.084100964832045"><ele>425.66666666666663</ele><time>2026-03-23T07:25:15Z</time></trkpt><trkpt lat="45.50528067307644" lon="11.084345388573857"><ele>435.33333333333337</ele><time>2026-03-23T07:25:16Z</time></trkpt><trkpt lat="45.50525357089576" lon="11.084582692463616"><ele>445.0</ele><time>2026-03-23T07:25:17Z</time></trkpt><trkpt lat="45.50525415081917" lon="11.084832731446976"><ele>448.33333333333337</ele><time>2026-03-23T07:25:18Z</time></trkpt><trkpt lat="45.50527480318786" lon="11.08507981249928"><ele>451.66666666666663</ele><time>2026-03-23T07:25:19Z</time></trkpt><trkpt lat="45.50530546288114" lon="11.085301841388159"><ele>455.0</ele><time>2026-03-23T07:25:20Z</time></trkpt><trkpt lat="45.505340796507554" lon="11.085510839770748"><ele>455.0</ele><time>2026-03-23T07:25:21Z</time></trkpt><trkpt lat="45.50540376417686" lon="11.085729622293389"><ele>455.0</ele><time>2026-03-23T07:25:22Z</time></trkpt><trkpt lat="45.50547142969193" lon="11.085929065175664"><ele>455.0</ele><time>2026-03-23T07:25:23Z</time></trkpt><trkpt lat="45.505514658415734" lon="11.086114358931942"><ele>452.0</ele><time>2026-03-23T07:25:24Z</time></trkpt><trkpt lat="45.50552571537732" lon="11.086306210756195"><ele>449.0</ele><time>2026-03-23T07:25:25Z</time></trkpt><trkpt lat="45.505560690405446" lon="11.086476151226824"><ele>446.0</ele><time>2026-03-23T07:25:26Z</time></trkpt><trkpt lat="45.50565329888285" lon="11.086637480942278"><ele>443.0</ele><time>2026-03-23T07:25:27Z</time></trkpt><trkpt lat="45.50577031389888" lon="11.086781077756676"><ele>443.0</ele><time>2026-03-23T07:25:28Z</time></trkpt><trkpt lat="45.50587339243819" lon="11.08690706379422"><ele>443.0</ele><time>2026-03-23T07:25:29Z</time></trkpt><trkpt lat="45.505958745591236" lon="11.08702772461549"><ele>443.0</ele><time>2026-03-23T07:25:30Z</time></trkpt><trkpt lat="45.506042657910854" lon="11.087162297105445"><ele>443.0</ele><time>2026-03-23T07:25:31Z</time></trkpt><trkpt lat="45.50611218452691" lon="11.087328782070193"><ele>444.2</ele><time>2026-03-23T07:25:32Z</time></trkpt><trkpt lat="45.50617154758826" lon="11.08747669808829"><ele>445.4</ele><time>2026-03-23T07:25:33Z</time></trkpt><trkpt lat="45.50622529641155" lon="11.087606743986457"><ele>446.59999999999997</ele><time>2026-03-23T07:25:34Z</time></trkpt><trkpt lat="45.506269022392054" lon="11.087716816697789"><ele>447.79999999999995</ele><time>2026-03-23T07:25:35Z</time></trkpt><trkpt lat="45.506329891021565" lon="11.08781148008827"><ele>449.0</ele><time>2026-03-23T07:25:36Z</time></trkpt><trkpt lat="45.506424421103745" lon="11.087867085022285"><ele>449.0</ele><time>2026-03-23T07:25:37Z</time></trkpt><trkpt lat="45.50653140430737" lon="11.087847745356266"><ele>449.0</ele><time>2026-03-23T07:25:38Z</time></trkpt><trkpt lat="45.506628399075396" lon="11.087771731276442"><ele>449.0</ele><time>2026-03-23T07:25:39Z</time></trkpt><trkpt lat="45.506691422880785" lon="11.087630485814753"><ele>449.0</ele><time>2026-03-23T07:25:40Z</time></trkpt><trkpt lat="45.506712956448546" lon="11.0874384994321"><ele>446.0</ele><time>2026-03-23T07:25:41Z</time></trkpt><trkpt lat="45.50672519281002" lon="11.087205551216142"><ele>443.0</ele><time>2026-03-23T07:25:42Z</time></trkpt><trkpt lat="45.50675043053588" lon="11.086993789455613"><ele>440.0</ele><time>2026-03-23T07:25:43Z</time></trkpt><trkpt lat="45.5067997483481" lon="11.086823469144965"><ele>437.0</ele><time>2026-03-23T07:25:44Z</time></trkpt><trkpt lat="45.5068667029441" lon="11.086647310574746"><ele>435.0</ele><time>2026-03-23T07:25:45Z</time></trkpt><trkpt lat="45.50694286633932" lon="11.086471226963708"><ele>433.0</ele><time>2026-03-23T07:25:46Z</time></trkpt><trkpt lat="45.507031196641435" lon="11.086311674847655"><ele>431.0</ele><time>2026-03-23T07:25:47Z</time></trkpt><trkpt lat="45.507135927146" lon="11.086165397764786"><ele>429.0</ele><time>2026-03-23T07:25:48Z</time></trkpt><trkpt lat="45.507245298659875" lon="11.086024679413763"><ele>432.25</ele><time>2026-03-23T07:25:49Z</time></trkpt><trkpt lat="45.507362138584526" lon="11.085887342894367"><ele>435.5</ele><time>2026-03-23T07:25:50Z</time></trkpt><trkpt lat="45.507473734721934" lon="11.085750374506047"><ele>438.75</ele><time>2026-03-23T07:25:51Z</time></trkpt><trkpt lat="45.50758384023723" lon="11.08561222500908"><ele>442.0</ele><time>2026-03-23T07:25:52Z</time></trkpt><trkpt lat="45.507695333961145" lon="11.08548538892173"><ele>442.0</ele><time>2026-03-23T07:25:53Z</time></trkpt><trkpt lat="45.507804163352986" lon="11.085379337322449"><ele>442.0</ele><time>2026-03-23T07:25:54Z</time></trkpt><trkpt lat="45.507925960393344" lon="11.08531021891414"><ele>442.0</ele><time>2026-03-23T07:25:55Z</time></trkpt><trkpt lat="45.508056594843374" lon="11.085281007224037"><ele>442.0</ele><time>2026-03-23T07:25:56Z</time></trkpt><trkpt lat="45.508191661831894" lon="11.085279149150594"><ele>445.5</ele><time>2026-03-23T07:25:57Z</time></trkpt><trkpt lat="45.50831149826678" lon="11.085293962575015"><ele>449.0</ele><time>2026-03-23T07:25:58Z</time></trkpt><trkpt lat="45.50840928088899" lon="11.085324810167467"><ele>452.5</ele><time>2026-03-23T07:25:59Z</time></trkpt><trkpt lat="45.50851183030606" lon="11.08540138302662"><ele>456.0</ele><time>2026-03-23T07:26:00Z</time></trkpt><trkpt lat="45.50860168088836" lon="11.085529489868689"><ele>456.0</ele><time>2026-03-23T07:26:01Z</time></trkpt><trkpt lat="45.50866211455232" lon="11.085691042794876"><ele>456.0</ele><time>2026-03-23T07:26:02Z</time></trkpt><trkpt lat="45.50870217512628" lon="11.085867855789198"><ele>456.0</ele><time>2026-03-23T07:26:03Z</time></trkpt><trkpt lat="45.50873050813483" lon="11.086050114745374"><ele>456.0</ele><time>2026-03-23T07:26:04Z</time></trkpt><trkpt lat="45.50875705583267" lon="11.08625125186737"><ele>454.0</ele><time>2026-03-23T07:26:05Z</time></trkpt><trkpt lat="45.50876612528634" lon="11.086443366458324"><ele>452.0</ele><time>2026-03-23T07:26:06Z</time></trkpt><trkpt lat="45.508809735823775" lon="11.08666400919721"><ele>450.0</ele><time>2026-03-23T07:26:07Z</time></trkpt><trkpt lat="45.50879362223813" lon="11.086865311810259"><ele>448.0</ele><time>2026-03-23T07:26:08Z</time></trkpt><trkpt lat="45.508779835081334" lon="11.087073497290849"><ele>448.0</ele><time>2026-03-23T07:26:09Z</time></trkpt><trkpt lat="45.50876894102286" lon="11.087288452210725"><ele>448.0</ele><time>2026-03-23T07:26:10Z</time></trkpt><trkpt lat="45.50879048919962" lon="11.087516232362972"><ele>448.0</ele><time>2026-03-23T07:26:11Z</time></trkpt><trkpt lat="45.50885402060651" lon="11.087797000749788"><ele>450.5</ele><time>2026-03-23T07:26:12Z</time></trkpt><trkpt lat="45.50892963531548" lon="11.088145814415268"><ele>453.0</ele><time>2026-03-23T07:26:13Z</time></trkpt><trkpt lat="45.50898947391789" lon="11.088508680361967"><ele>460.0</ele><time>2026-03-23T07:26:14Z</time></trkpt><trkpt lat="45.50906240432279" lon="11.088848423181126"><ele>467.0</ele><time>2026-03-23T07:26:15Z</time></trkpt><trkpt lat="45.5091522030364" lon="11.08911675032689"><ele>465.3333333333333</ele><time>2026-03-23T07:26:16Z</time></trkpt><trkpt lat="45.509259826862575" lon="11.08938114468665"><ele>463.66666666666663</ele><time>2026-03-23T07:26:17Z</time></trkpt><trkpt lat="45.50940975788392" lon="11.089630479162464"><ele>462.0</ele><time>2026-03-23T07:26:18Z</time></trkpt><trkpt lat="45.509583848127065" lon="11.089845799868069"><ele>471.33333333333337</ele><time>2026-03-23T07:26:19Z</time></trkpt><trkpt lat="45.509778133825264" lon="11.090021437140214"><ele>480.6666666666667</ele><time>2026-03-23T07:26:20Z</time></trkpt><trkpt lat="45.50997069235599" lon="11.090136344878301"><ele>490.0</ele><time>2026-03-23T07:26:21Z</time></trkpt><trkpt lat="45.510145100171414" lon="11.090193368667602"><ele>490.0</ele><time>2026-03-23T07:26:22Z</time></trkpt><trkpt lat="45.51027757634722" lon="11.090277480931213"><ele>490.0</ele><time>2026-03-23T07:26:23Z</time></trkpt><trkpt lat="45.51041841479035" lon="11.09045890639262"><ele>490.0</ele><time>2026-03-23T07:26:24Z</time></trkpt><trkpt lat="45.510562780266596" lon="11.090707928905813"><ele>492.0</ele><time>2026-03-23T07:26:25Z</time></trkpt><trkpt lat="45.51067869247792" lon="11.09090757519539"><ele>494.0</ele><time>2026-03-23T07:26:26Z</time></trkpt><trkpt lat="45.51076666502408" lon="11.091019161492305"><ele>496.0</ele><time>2026-03-23T07:26:27Z</time></trkpt><trkpt lat="45.51087146935085" lon="11.091061011183651"><ele>498.0</ele><time>2026-03-23T07:26:28Z</time></trkpt><trkpt lat="45.511004479647156" lon="11.09095952041793"><ele>498.0</ele><time>2026-03-23T07:26:29Z</time></trkpt><trkpt lat="45.511112185764354" lon="11.090871142427783"><ele>498.0</ele><time>2026-03-23T07:26:30Z</time></trkpt><trkpt lat="45.5111945699659" lon="11.090712724257774"><ele>498.0</ele><time>2026-03-23T07:26:31Z</time></trkpt><trkpt lat="45.511263973468274" lon="11.090515263162908"><ele>498.0</ele><time>2026-03-23T07:26:32Z</time></trkpt><trkpt lat="45.51134132994997" lon="11.09040159750777"><ele>496.0</ele><time>2026-03-23T07:26:33Z</time></trkpt><trkpt lat="45.511462549929526" lon="11.090373454377852"><ele>494.0</ele><time>2026-03-23T07:26:34Z</time></trkpt><trkpt lat="45.51161776566601" lon="11.09039283262922"><ele>492.0</ele><time>2026-03-23T07:26:35Z</time></trkpt><trkpt lat="45.511801298831806" lon="11.090430851598656"><ele>492.0</ele><time>2026-03-23T07:26:36Z</time></trkpt><trkpt lat="45.51197326610369" lon="11.090407880010083"><ele>492.0</ele><time>2026-03-23T07:26:37Z</time></trkpt><trkpt lat="45.51210384939844" lon="11.090351949475343"><ele>492.0</ele><time>2026-03-23T07:26:38Z</time></trkpt><trkpt lat="45.51218038266485" lon="11.090295509801619"><ele>492.0</ele><time>2026-03-23T07:26:39Z</time></trkpt><trkpt lat="45.51223938246702" lon="11.090253151453085"><ele>494.6</ele><time>2026-03-23T07:26:40Z</time></trkpt><trkpt lat="45.51231495929479" lon="11.090227136022929"><ele>497.20000000000005</ele><time>2026-03-23T07:26:41Z</time></trkpt><trkpt lat="45.51242815498952" lon="11.090218041682252"><ele>499.8</ele><time>2026-03-23T07:26:42Z</time></trkpt><trkpt lat="45.512549984688654" lon="11.09025528155821"><ele>502.4</ele><time>2026-03-23T07:26:43Z</time></trkpt><trkpt lat="45.51264529642016" lon="11.090344182325175"><ele>505.0</ele><time>2026-03-23T07:26:44Z</time></trkpt><trkpt lat="45.51273851186362" lon="11.090440815806247"><ele>505.0</ele><time>2026-03-23T07:26:45Z</time></trkpt><trkpt lat="45.51282937492824" lon="11.090535729914787"><ele>505.0</ele><time>2026-03-23T07:26:46Z</time></trkpt><trkpt lat="45.51292536924316" lon="11.090625274646131"><ele>505.0</ele><time>2026-03-23T07:26:47Z</time></trkpt><trkpt lat="45.51303626232329" lon="11.090719316080666"><ele>505.0</ele><time>2026-03-23T07:26:48Z</time></trkpt><trkpt lat="45.51315826876982" lon="11.090821185358205"><ele>508.0</ele><time>2026-03-23T07:26:49Z</time></trkpt><trkpt lat="45.513277801945954" lon="11.090936239584039"><ele>511.0</ele><time>2026-03-23T07:26:50Z</time></trkpt><trkpt lat="45.51338728479195" lon="11.091042563224239"><ele>514.0</ele><time>2026-03-23T07:26:51Z</time></trkpt><trkpt lat="45.513482669529566" lon="11.091113961967356"><ele>517.0</ele><time>2026-03-23T07:26:52Z</time></trkpt><trkpt lat="45.51357224389229" lon="11.091194240300105"><ele>517.0</ele><time>2026-03-23T07:26:53Z</time></trkpt><trkpt lat="45.51367309904969" lon="11.091267976233413"><ele>517.0</ele><time>2026-03-23T07:26:54Z</time></trkpt><trkpt lat="45.513787235906165" lon="11.091336799472685"><ele>517.0</ele><time>2026-03-23T07:26:55Z</time></trkpt><trkpt lat="45.51390290149725" lon="11.091378017271833"><ele>517.0</ele><time>2026-03-23T07:26:56Z</time></trkpt><trkpt lat="45.514020821482404" lon="11.091385737856756"><ele>517.0</ele><time>2026-03-23T07:26:57Z</time></trkpt><trkpt lat="45.514142336827454" lon="11.091360359361003"><ele>517.0</ele><time>2026-03-23T07:26:58Z</time></trkpt><trkpt lat="45.51426178364516" lon="11.09130180120643"><ele>517.0</ele><time>2026-03-23T07:26:59Z</time></trkpt><trkpt lat="45.51436475322264" lon="11.091244096158727"><ele>517.0</ele><time>2026-03-23T07:27:00Z</time></trkpt><trkpt lat="45.51445508466654" lon="11.091217923205997"><ele>517.0</ele><time>2026-03-23T07:27:01Z</time></trkpt><trkpt lat="45.514566207393656" lon="11.091233094545482"><ele>517.0</ele><time>2026-03-23T07:27:02Z</time></trkpt><trkpt lat="45.514688846172845" lon="11.091284524338827"><ele>517.0</ele><time>2026-03-23T07:27:03Z</time></trkpt><trkpt lat="45.51480586143402" lon="11.091382686756187"><ele>517.0</ele><time>2026-03-23T07:27:04Z</time></trkpt><trkpt lat="45.514893535871586" lon="11.091501087081284"><ele>521.4</ele><time>2026-03-23T07:27:05Z</time></trkpt><trkpt lat="45.51495938653041" lon="11.09159439089915"><ele>525.8000000000001</ele><time>2026-03-23T07:27:06Z</time></trkpt><trkpt lat="45.51503835919699" lon="11.09168868833265"><ele>530.2</ele><time>2026-03-23T07:27:07Z</time></trkpt><trkpt lat="45.515135272545464" lon="11.091760109328279"><ele>534.6</ele><time>2026-03-23T07:27:08Z</time></trkpt><trkpt lat="45.51524015824625" lon="11.091802942841646"><ele>539.0</ele><time>2026-03-23T07:27:09Z</time></trkpt><trkpt lat="45.51534981306236" lon="11.09179364205237"><ele>540.0</ele><time>2026-03-23T07:27:10Z</time></trkpt><trkpt lat="45.515456092973885" lon="11.09172785810612"><ele>541.0</ele><time>2026-03-23T07:27:11Z</time></trkpt><trkpt lat="45.51555683094192" lon="11.091617709293175"><ele>542.0</ele><time>2026-03-23T07:27:12Z</time></trkpt><trkpt lat="45.5156316124489" lon="11.09150428335957"><ele>543.0</ele><time>2026-03-23T07:27:13Z</time></trkpt><trkpt lat="45.51570988805973" lon="11.091427629539448"><ele>544.0</ele><time>2026-03-23T07:27:14Z</time></trkpt><trkpt lat="45.515811798144284" lon="11.091399941882175"><ele>544.0</ele><time>2026-03-23T07:27:15Z</time></trkpt><trkpt lat="45.51593826409175" lon="11.091436677520006"><ele>544.0</ele><time>2026-03-23T07:27:16Z</time></trkpt><trkpt lat="45.516042686119896" lon="11.091527896688252"><ele>544.0</ele><time>2026-03-23T07:27:17Z</time></trkpt><trkpt lat="45.516117379214535" lon="11.09165088785442"><ele>544.0</ele><time>2026-03-23T07:27:18Z</time></trkpt><trkpt lat="45.51619847730984" lon="11.091785045617762"><ele>544.0</ele><time>2026-03-23T07:27:19Z</time></trkpt><trkpt lat="45.51627575499616" lon="11.091918909350031"><ele>544.0</ele><time>2026-03-23T07:27:20Z</time></trkpt><trkpt lat="45.51634541610501" lon="11.092052435846206"><ele>544.0</ele><time>2026-03-23T07:27:21Z</time></trkpt><trkpt lat="45.51641368893098" lon="11.092175098737078"><ele>544.0</ele><time>2026-03-23T07:27:22Z</time></trkpt><trkpt lat="45.516498231531266" lon="11.092278992298219"><ele>544.0</ele><time>2026-03-23T07:27:23Z</time></trkpt><trkpt lat="45.51660306564935" lon="11.092351509854083"><ele>544.0</ele><time>2026-03-23T07:27:24Z</time></trkpt><trkpt lat="45.516717801383535" lon="11.092376620949386"><ele>544.0</ele><time>2026-03-23T07:27:25Z</time></trkpt><trkpt lat="45.51683717332727" lon="11.092369427493686"><ele>544.0</ele><time>2026-03-23T07:27:26Z</time></trkpt><trkpt lat="45.51696454233805" lon="11.092309162093857"><ele>547.75</ele><time>2026-03-23T07:27:27Z</time></trkpt><trkpt lat="45.51709943766234" lon="11.092227055653312"><ele>551.5</ele><time>2026-03-23T07:27:28Z</time></trkpt><trkpt lat="45.51722690422755" lon="11.092110569567598"><ele>555.25</ele><time>2026-03-23T07:27:29Z</time></trkpt><trkpt lat="45.51731481043315" lon="11.092017097928085"><ele>559.0</ele><time>2026-03-23T07:27:30Z</time></trkpt><trkpt lat="45.51739219608916" lon="11.091904965351727"><ele>559.0</ele><time>2026-03-23T07:27:31Z</time></trkpt><trkpt lat="45.517469804375274" lon="11.09177540241393"><ele>559.0</ele><time>2026-03-23T07:27:32Z</time></trkpt><trkpt lat="45.51756166729552" lon="11.091666726070471"><ele>559.0</ele><time>2026-03-23T07:27:33Z</time></trkpt><trkpt lat="45.51767427429203" lon="11.091629491085934"><ele>559.0</ele><time>2026-03-23T07:27:34Z</time></trkpt><trkpt lat="45.517802543552456" lon="11.091636776122634"><ele>562.25</ele><time>2026-03-23T07:27:35Z</time></trkpt><trkpt lat="45.517940165196784" lon="11.091650819743755"><ele>565.5</ele><time>2026-03-23T07:27:36Z</time></trkpt><trkpt lat="45.518077533362046" lon="11.091670441211676"><ele>568.75</ele><time>2026-03-23T07:27:37Z</time></trkpt><trkpt lat="45.5182028703761" lon="11.091695765824332"><ele>572.0</ele><time>2026-03-23T07:27:38Z</time></trkpt><trkpt lat="45.51831684660513" lon="11.091713383689186"><ele>572.0</ele><time>2026-03-23T07:27:39Z</time></trkpt><trkpt lat="45.518437473395764" lon="11.091738386011537"><ele>572.0</ele><time>2026-03-23T07:27:40Z</time></trkpt><trkpt lat="45.51855665363288" lon="11.091760729443138"><ele>572.0</ele><time>2026-03-23T07:27:41Z</time></trkpt><trkpt lat="45.518644634187545" lon="11.091779023647922"><ele>572.0</ele><time>2026-03-23T07:27:42Z</time></trkpt><trkpt lat="45.5187456285891" lon="11.091800894854785"><ele>572.0</ele><time>2026-03-23T07:27:43Z</time></trkpt><trkpt lat="45.518845119690724" lon="11.091811425734862"><ele>571.4</ele><time>2026-03-23T07:27:44Z</time></trkpt><trkpt lat="45.51893469219593" lon="11.091795132048599"><ele>570.8000000000001</ele><time>2026-03-23T07:27:45Z</time></trkpt><trkpt lat="45.51901703341793" lon="11.091722743695094"><ele>570.2</ele><time>2026-03-23T07:27:46Z</time></trkpt><trkpt lat="45.51910015343928" lon="11.091595936386906"><ele>569.6</ele><time>2026-03-23T07:27:47Z</time></trkpt><trkpt lat="45.519187348548364" lon="11.091440703037186"><ele>569.0</ele><time>2026-03-23T07:27:48Z</time></trkpt><trkpt lat="45.519277272260545" lon="11.091324121704004"><ele>569.0</ele><time>2026-03-23T07:27:49Z</time></trkpt><trkpt lat="45.519381848012095" lon="11.091232400545419"><ele>569.0</ele><time>2026-03-23T07:27:50Z</time></trkpt><trkpt lat="45.51948833893264" lon="11.09114147830712"><ele>569.0</ele><time>2026-03-23T07:27:51Z</time></trkpt><trkpt lat="45.51958897905815" lon="11.09106176550863"><ele>569.0</ele><time>2026-03-23T07:27:52Z</time></trkpt><trkpt lat="45.51967464428349" lon="11.09100257583223"><ele>572.5</ele><time>2026-03-23T07:27:53Z</time></trkpt><trkpt lat="45.519774883636714" lon="11.090944149374478"><ele>576.0</ele><time>2026-03-23T07:27:54Z</time></trkpt><trkpt lat="45.51988691911051" lon="11.090916667808788"><ele>579.5</ele><time>2026-03-23T07:27:55Z</time></trkpt><trkpt lat="45.52000207255902" lon="11.090927211686386"><ele>583.0</ele><time>2026-03-23T07:27:56Z</time></trkpt><trkpt lat="45.520114216623966" lon="11.090980666084818"><ele>583.0</ele><time>2026-03-23T07:27:57Z</time></trkpt><trkpt lat="45.520211805756105" lon="11.091072215844905"><ele>583.0</ele><time>2026-03-23T07:27:58Z</time></trkpt><trkpt lat="45.52029321200292" lon="11.09120423321602"><ele>583.0</ele><time>2026-03-23T07:27:59Z</time></trkpt><trkpt lat="45.52036731400541" lon="11.091380785908186"><ele>583.0</ele><time>2026-03-23T07:28:00Z</time></trkpt><trkpt lat="45.520450317244624" lon="11.09160807636698"><ele>585.3333333333334</ele><time>2026-03-23T07:28:01Z</time></trkpt><trkpt lat="45.5205482361191" lon="11.091896553497094"><ele>587.6666666666666</ele><time>2026-03-23T07:28:02Z</time></trkpt><trkpt lat="45.520637853709744" lon="11.092170030200423"><ele>590.0</ele><time>2026-03-23T07:28:03Z</time></trkpt><trkpt lat="45.52070585259944" lon="11.092368955566531"><ele>593.5</ele><time>2026-03-23T07:28:04Z</time></trkpt><trkpt lat="45.52078242118788" lon="11.092505218320072"><ele>597.0</ele><time>2026-03-23T07:28:05Z</time></trkpt><trkpt lat="45.52089013894006" lon="11.092598255163571"><ele>600.5</ele><time>2026-03-23T07:28:06Z</time></trkpt><trkpt lat="45.521039073619576" lon="11.092664022573134"><ele>604.0</ele><time>2026-03-23T07:28:07Z</time></trkpt><trkpt lat="45.52121922071765" lon="11.092713119217317"><ele>600.6666666666667</ele><time>2026-03-23T07:28:08Z</time></trkpt><trkpt lat="45.5214248403114" lon="11.09277434611646"><ele>597.3333333333334</ele><time>2026-03-23T07:28:09Z</time></trkpt><trkpt lat="45.5216157092723" lon="11.092893361203984"><ele>594.0</ele><time>2026-03-23T07:28:10Z</time></trkpt><trkpt lat="45.52180706640368" lon="11.093076133991966"><ele>594.0</ele><time>2026-03-23T07:28:11Z</time></trkpt><trkpt lat="45.52196071301093" lon="11.0932541575799"><ele>594.0</ele><time>2026-03-23T07:28:12Z</time></trkpt><trkpt lat="45.52210592066335" lon="11.093357502336636"><ele>594.0</ele><time>2026-03-23T07:28:13Z</time></trkpt><trkpt lat="45.522258851727834" lon="11.0933865448613"><ele>594.0</ele><time>2026-03-23T07:28:14Z</time></trkpt><trkpt lat="45.52242271653807" lon="11.093346308452537"><ele>594.0</ele><time>2026-03-23T07:28:15Z</time></trkpt><trkpt lat="45.52259729542123" lon="11.093236433430029"><ele>594.0</ele><time>2026-03-23T07:28:16Z</time></trkpt><trkpt lat="45.52278135434997" lon="11.093072366174361"><ele>601.3333333333334</ele><time>2026-03-23T07:28:17Z</time></trkpt><trkpt lat="45.52297153843187" lon="11.092863168930908"><ele>608.6666666666667</ele><time>2026-03-23T07:28:18Z</time></trkpt><trkpt lat="45.52312643664831" lon="11.092662186942476"><ele>616.0</ele><time>2026-03-23T07:28:19Z</time></trkpt><trkpt lat="45.5232753216359" lon="11.092515225548512"><ele>613.6666666666667</ele><time>2026-03-23T07:28:20Z</time></trkpt><trkpt lat="45.523457714862026" lon="11.092418929124884"><ele>611.3333333333334</ele><time>2026-03-23T07:28:21Z</time></trkpt><trkpt lat="45.523659145972466" lon="11.09235080697682"><ele>609.0</ele><time>2026-03-23T07:28:22Z</time></trkpt><trkpt lat="45.523874990861955" lon="11.092268665904628"><ele>609.0</ele><time>2026-03-23T07:28:23Z</time></trkpt><trkpt lat="45.52410367459124" lon="11.092172591458622"><ele>609.0</ele><time>2026-03-23T07:28:24Z</time></trkpt><trkpt lat="45.52437700267389" lon="11.092047821292748"><ele>613.0</ele><time>2026-03-23T07:28:25Z</time></trkpt><trkpt lat="45.52465067010777" lon="11.09191634816378"><ele>617.0</ele><time>2026-03-23T07:28:26Z</time></trkpt><trkpt lat="45.5248976456053" lon="11.091804093781276"><ele>617.0</ele><time>2026-03-23T07:28:27Z</time></trkpt><trkpt lat="45.52511215974819" lon="11.091691402754432"><ele>617.0</ele><time>2026-03-23T07:28:28Z</time></trkpt><trkpt lat="45.525315740315506" lon="11.0915840351986"><ele>617.0</ele><time>2026-03-23T07:28:29Z</time></trkpt><trkpt lat="45.52550391485391" lon="11.091489293024663"><ele>615.3333333333333</ele><time>2026-03-23T07:28:30Z</time></trkpt><trkpt lat="45.525681200527" lon="11.09139575121364"><ele>613.6666666666666</ele><time>2026-03-23T07:28:31Z</time></trkpt><trkpt lat="45.52585022243939" lon="11.091313653865676"><ele>612.0</ele><time>2026-03-23T07:28:32Z</time></trkpt><trkpt lat="45.52601101268971" lon="11.091249814789908"><ele>612.0</ele><time>2026-03-23T07:28:33Z</time></trkpt><trkpt lat="45.52616285239738" lon="11.091211911830626"><ele>612.0</ele><time>2026-03-23T07:28:34Z</time></trkpt><trkpt lat="45.52632895090832" lon="11.09121320214533"><ele>612.0</ele><time>2026-03-23T07:28:35Z</time></trkpt><trkpt lat="45.526497379592165" lon="11.091205791942057"><ele>611.0</ele><time>2026-03-23T07:28:36Z</time></trkpt><trkpt lat="45.52669598681909" lon="11.091252639195918"><ele>610.0</ele><time>2026-03-23T07:28:37Z</time></trkpt><trkpt lat="45.52689264833622" lon="11.091316211607946"><ele>609.0</ele><time>2026-03-23T07:28:38Z</time></trkpt><trkpt lat="45.52709287686162" lon="11.091392451946247"><ele>608.3333333333334</ele><time>2026-03-23T07:28:39Z</time></trkpt><trkpt lat="45.52730007786054" lon="11.091455935688918"><ele>607.6666666666667</ele><time>2026-03-23T07:28:40Z</time></trkpt><trkpt lat="45.527507129967105" lon="11.09152049800993"><ele>607.0</ele><time>2026-03-23T07:28:41Z</time></trkpt><trkpt lat="45.52770352849313" lon="11.09158351535047"><ele>607.6666666666667</ele><time>2026-03-23T07:28:42Z</time></trkpt><trkpt lat="45.52790746512596" lon="11.091645298488514"><ele>608.3333333333334</ele><time>2026-03-23T07:28:43Z</time></trkpt><trkpt lat="45.52810956149392" lon="11.091704979539886"><ele>609.0</ele><time>2026-03-23T07:28:44Z</time></trkpt><trkpt lat="45.52831096622629" lon="11.09176749430444"><ele>609.0</ele><time>2026-03-23T07:28:45Z</time></trkpt><trkpt lat="45.5285158909091" lon="11.09182803572816"><ele>609.0</ele><time>2026-03-23T07:28:46Z</time></trkpt><trkpt lat="45.52872351600936" lon="11.09188447205767"><ele>609.0</ele><time>2026-03-23T07:28:47Z</time></trkpt><trkpt lat="45.528941344414285" lon="11.09192238757422"><ele>609.5</ele><time>2026-03-23T07:28:48Z</time></trkpt><trkpt lat="45.529175172746655" lon="11.091931441872521"><ele>610.0</ele><time>2026-03-23T07:28:49Z</time></trkpt><trkpt lat="45.52940721714473" lon="11.091904529285962"><ele>611.0</ele><time>2026-03-23T07:28:50Z</time></trkpt><trkpt lat="45.52963194232224" lon="11.091846012119994"><ele>612.0</ele><time>2026-03-23T07:28:51Z</time></trkpt><trkpt lat="45.52981012060069" lon="11.091805700145462"><ele>613.0</ele><time>2026-03-23T07:28:52Z</time></trkpt><trkpt lat="45.529962353588886" lon="11.091753322413318"><ele>613.0</ele><time>2026-03-23T07:28:53Z</time></trkpt><trkpt lat="45.53021644983433" lon="11.091902384755222"><ele>613.0</ele><time>2026-03-23T07:28:54Z</time></trkpt><trkpt lat="45.53038142786421" lon="11.092003930399477"><ele>613.3333333333334</ele><time>2026-03-23T07:28:55Z</time></trkpt><trkpt lat="45.53056043661772" lon="11.09217763985553"><ele>613.6666666666666</ele><time>2026-03-23T07:28:56Z</time></trkpt><trkpt lat="45.53072329415594" lon="11.092338168484757"><ele>614.0</ele><time>2026-03-23T07:28:57Z</time></trkpt><trkpt lat="45.53085933247671" lon="11.092432600964859"><ele>614.0</ele><time>2026-03-23T07:28:58Z</time></trkpt><trkpt lat="45.531020686689686" lon="11.092496363550337"><ele>614.0</ele><time>2026-03-23T07:28:59Z</time></trkpt><trkpt lat="45.53119436045998" lon="11.092523216169559"><ele>614.0</ele><time>2026-03-23T07:29:00Z</time></trkpt><trkpt lat="45.531394416592924" lon="11.092502059960939"><ele>613.5</ele><time>2026-03-23T07:29:01Z</time></trkpt><trkpt lat="45.531629612617955" lon="11.092455399701343"><ele>613.0</ele><time>2026-03-23T07:29:02Z</time></trkpt><trkpt lat="45.53188501781967" lon="11.092388648923448"><ele>619.0</ele><time>2026-03-23T07:29:03Z</time></trkpt><trkpt lat="45.532170738499204" lon="11.092296514534244"><ele>625.0</ele><time>2026-03-23T07:29:04Z</time></trkpt><trkpt lat="45.53247205021187" lon="11.092189057393698"><ele>625.0</ele><time>2026-03-23T07:29:05Z</time></trkpt><trkpt lat="45.53272447707621" lon="11.092092736636317"><ele>625.0</ele><time>2026-03-23T07:29:06Z</time></trkpt><trkpt lat="45.532957412371516" lon="11.092011609406102"><ele>624.3333333333334</ele><time>2026-03-23T07:29:07Z</time></trkpt><trkpt lat="45.53317131822274" lon="11.091939046769753"><ele>623.6666666666666</ele><time>2026-03-23T07:29:08Z</time></trkpt><trkpt lat="45.533370079156015" lon="11.091882795744144"><ele>623.0</ele><time>2026-03-23T07:29:09Z</time></trkpt><trkpt lat="45.533556068046536" lon="11.091841480601278"><ele>623.3333333333333</ele><time>2026-03-23T07:29:10Z</time></trkpt><trkpt lat="45.53372965043233" lon="11.091823711174584"><ele>623.6666666666666</ele><time>2026-03-23T07:29:11Z</time></trkpt><trkpt lat="45.53389363344974" lon="11.091812097725624"><ele>624.0</ele><time>2026-03-23T07:29:12Z</time></trkpt><trkpt lat="45.53406241953275" lon="11.091793173797978"><ele>624.0</ele><time>2026-03-23T07:29:13Z</time></trkpt><trkpt lat="45.534253785171245" lon="11.091769350216245"><ele>624.0</ele><time>2026-03-23T07:29:14Z</time></trkpt><trkpt lat="45.534459773976856" lon="11.09173680902924"><ele>624.0</ele><time>2026-03-23T07:29:15Z</time></trkpt><trkpt lat="45.534659016058264" lon="11.091667223804416"><ele>622.0</ele><time>2026-03-23T07:29:16Z</time></trkpt><trkpt lat="45.534832299577" lon="11.091599093753523"><ele>620.0</ele><time>2026-03-23T07:29:17Z</time></trkpt><trkpt lat="45.53499643041149" lon="11.091535004957835"><ele>618.0</ele><time>2026-03-23T07:29:18Z</time></trkpt><trkpt lat="45.53518420425411" lon="11.091482786440126"><ele>625.0</ele><time>2026-03-23T07:29:19Z</time></trkpt><trkpt lat="45.53541809479022" lon="11.091432642314189"><ele>632.0</ele><time>2026-03-23T07:29:20Z</time></trkpt><trkpt lat="45.535654474918935" lon="11.091405623927121"><ele>632.0</ele><time>2026-03-23T07:29:21Z</time></trkpt><trkpt lat="45.53588949774122" lon="11.09143279019956"><ele>632.0</ele><time>2026-03-23T07:29:22Z</time></trkpt><trkpt lat="45.53611515015783" lon="11.09152084629441"><ele>628.3333333333333</ele><time>2026-03-23T07:29:23Z</time></trkpt><trkpt lat="45.536302996882114" lon="11.091611653190457"><ele>624.6666666666666</ele><time>2026-03-23T07:29:24Z</time></trkpt><trkpt lat="45.536496998570115" lon="11.091660907631278"><ele>621.0</ele><time>2026-03-23T07:29:25Z</time></trkpt><trkpt lat="45.53672151279458" lon="11.09167830904998"><ele>621.0</ele><time>2026-03-23T07:29:26Z</time></trkpt><trkpt lat="45.53692162742999" lon="11.091681607769146"><ele>621.0</ele><time>2026-03-23T07:29:27Z</time></trkpt><trkpt lat="45.537114073732944" lon="11.091619153568049"><ele>621.0</ele><time>2026-03-23T07:29:28Z</time></trkpt><trkpt lat="45.537321850681366" lon="11.091502529699873"><ele>621.0</ele><time>2026-03-23T07:29:29Z</time></trkpt><trkpt lat="45.53754011860611" lon="11.091335130856088"><ele>621.0</ele><time>2026-03-23T07:29:30Z</time></trkpt><trkpt lat="45.537738666726014" lon="11.091187936624978"><ele>617.3333333333334</ele><time>2026-03-23T07:29:31Z</time></trkpt><trkpt lat="45.53791959971512" lon="11.091077564237992"><ele>613.6666666666667</ele><time>2026-03-23T07:29:32Z</time></trkpt><trkpt lat="45.538115213594686" lon="11.091019086757589"><ele>610.0</ele><time>2026-03-23T07:29:33Z</time></trkpt><trkpt lat="45.53835295948317" lon="11.09099964612138"><ele>610.0</ele><time>2026-03-23T07:29:34Z</time></trkpt><trkpt lat="45.53860461592319" lon="11.091014192227775"><ele>610.0</ele><time>2026-03-23T07:29:35Z</time></trkpt><trkpt lat="45.53881465144072" lon="11.091020081548002"><ele>608.0</ele><time>2026-03-23T07:29:36Z</time></trkpt><trkpt lat="45.53901750186738" lon="11.090985200598869"><ele>606.0</ele><time>2026-03-23T07:29:37Z</time></trkpt><trkpt lat="45.53922002638447" lon="11.090911143530324"><ele>604.0</ele><time>2026-03-23T07:29:38Z</time></trkpt><trkpt lat="45.53941281655342" lon="11.090777818754425"><ele>597.0</ele><time>2026-03-23T07:29:39Z</time></trkpt><trkpt lat="45.539635960318776" lon="11.09059427196901"><ele>590.0</ele><time>2026-03-23T07:29:40Z</time></trkpt><trkpt lat="45.5398521707283" lon="11.09042406138513"><ele>590.0</ele><time>2026-03-23T07:29:41Z</time></trkpt><trkpt lat="45.54004922232995" lon="11.090271462867644"><ele>590.0</ele><time>2026-03-23T07:29:42Z</time></trkpt><trkpt lat="45.5402386574342" lon="11.090143971031013"><ele>590.0</ele><time>2026-03-23T07:29:43Z</time></trkpt><trkpt lat="45.54042892367572" lon="11.090067108103359"><ele>591.0</ele><time>2026-03-23T07:29:44Z</time></trkpt><trkpt lat="45.5406154819901" lon="11.09004703619233"><ele>592.0</ele><time>2026-03-23T07:29:45Z</time></trkpt><trkpt lat="45.54080573343411" lon="11.090060486088401"><ele>593.0</ele><time>2026-03-23T07:29:46Z</time></trkpt><trkpt lat="45.54099538755877" lon="11.090115789227479"><ele>593.0</ele><time>2026-03-23T07:29:47Z</time></trkpt><trkpt lat="45.54121306408338" lon="11.090245319217079"><ele>593.0</ele><time>2026-03-23T07:29:48Z</time></trkpt><trkpt lat="45.541449610713144" lon="11.09035364771883"><ele>594.0</ele><time>2026-03-23T07:29:49Z</time></trkpt><trkpt lat="45.54166919915268" lon="11.09039343357773"><ele>595.0</ele><time>2026-03-23T07:29:50Z</time></trkpt><trkpt lat="45.54187668372791" lon="11.090349118374741"><ele>596.0</ele><time>2026-03-23T07:29:51Z</time></trkpt><trkpt lat="45.54207688305417" lon="11.090271390202355"><ele>596.0</ele><time>2026-03-23T07:29:52Z</time></trkpt><trkpt lat="45.54227102405281" lon="11.090133695866525"><ele>596.0</ele><time>2026-03-23T07:29:53Z</time></trkpt><trkpt lat="45.54249028887033" lon="11.089946963654494"><ele>596.0</ele><time>2026-03-23T07:29:54Z</time></trkpt><trkpt lat="45.542753309631465" lon="11.08973804637939"><ele>596.0</ele><time>2026-03-23T07:29:55Z</time></trkpt><trkpt lat="45.54305655591582" lon="11.089563501238967"><ele>595.5</ele><time>2026-03-23T07:29:56Z</time></trkpt><trkpt lat="45.54339774558361" lon="11.08941515422699"><ele>595.0</ele><time>2026-03-23T07:29:57Z</time></trkpt><trkpt lat="45.54370948395894" lon="11.08926771690643"><ele>596.5</ele><time>2026-03-23T07:29:58Z</time></trkpt><trkpt lat="45.543967964216826" lon="11.089146369869649"><ele>598.0</ele><time>2026-03-23T07:29:59Z</time></trkpt><trkpt lat="45.54421102495259" lon="11.089049439953948"><ele>598.0</ele><time>2026-03-23T07:30:00Z</time></trkpt><trkpt lat="45.544431485113435" lon="11.088984472977264"><ele>598.0</ele><time>2026-03-23T07:30:01Z</time></trkpt><trkpt lat="45.544657930452345" lon="11.08894368073617"><ele>597.0</ele><time>2026-03-23T07:30:02Z</time></trkpt><trkpt lat="45.54490781758509" lon="11.088909251063924"><ele>596.0</ele><time>2026-03-23T07:30:03Z</time></trkpt><trkpt lat="45.54518173646919" lon="11.088878122254867"><ele>596.5</ele><time>2026-03-23T07:30:04Z</time></trkpt><trkpt lat="45.54542872655007" lon="11.088861298200339"><ele>597.0</ele><time>2026-03-23T07:30:05Z</time></trkpt><trkpt lat="45.545650435819724" lon="11.088858451358083"><ele>597.0</ele><time>2026-03-23T07:30:06Z</time></trkpt><trkpt lat="45.545827972510224" lon="11.088868208972277"><ele>597.0</ele><time>2026-03-23T07:30:07Z</time></trkpt><trkpt lat="45.545997394392714" lon="11.08888758236086"><ele>597.0</ele><time>2026-03-23T07:30:08Z</time></trkpt><trkpt lat="45.5461584480317" lon="11.088940705893885"><ele>601.3333333333334</ele><time>2026-03-23T07:30:09Z</time></trkpt><trkpt lat="45.54633341257606" lon="11.089036934944412"><ele>605.6666666666667</ele><time>2026-03-23T07:30:10Z</time></trkpt><trkpt lat="45.54652943913173" lon="11.08918744292948"><ele>610.0</ele><time>2026-03-23T07:30:11Z</time></trkpt><trkpt lat="45.54673959295555" lon="11.089361377099115"><ele>610.0</ele><time>2026-03-23T07:30:12Z</time></trkpt><trkpt lat="45.54695543736789" lon="11.0895617241203"><ele>610.0</ele><time>2026-03-23T07:30:13Z</time></trkpt><trkpt lat="45.54714828788588" lon="11.089745622623477"><ele>611.0</ele><time>2026-03-23T07:30:14Z</time></trkpt><trkpt lat="45.54732009395243" lon="11.089887414437996"><ele>612.0</ele><time>2026-03-23T07:30:15Z</time></trkpt><trkpt lat="45.54750443878996" lon="11.090002746483886"><ele>613.0</ele><time>2026-03-23T07:30:16Z</time></trkpt><trkpt lat="45.547735762742775" lon="11.090069178924518"><ele>616.5</ele><time>2026-03-23T07:30:17Z</time></trkpt><trkpt lat="45.547987933202485" lon="11.090090490627857"><ele>620.0</ele><time>2026-03-23T07:30:18Z</time></trkpt><trkpt lat="45.548239587880126" lon="11.090089671403938"><ele>620.0</ele><time>2026-03-23T07:30:19Z</time></trkpt><trkpt lat="45.548446971754984" lon="11.090078484800507"><ele>620.0</ele><time>2026-03-23T07:30:20Z</time></trkpt><trkpt lat="45.54861729802038" lon="11.090030536129277"><ele>620.0</ele><time>2026-03-23T07:30:21Z</time></trkpt><trkpt lat="45.54878252225679" lon="11.089942080737268"><ele>623.3333333333333</ele><time>2026-03-23T07:30:22Z</time></trkpt><trkpt lat="45.54891519605068" lon="11.089798097103957"><ele>626.6666666666666</ele><time>2026-03-23T07:30:23Z</time></trkpt><trkpt lat="45.54903306001841" lon="11.089623129726094"><ele>630.0</ele><time>2026-03-23T07:30:24Z</time></trkpt><trkpt lat="45.54913468887023" lon="11.089408670264639"><ele>630.0</ele><time>2026-03-23T07:30:25Z</time></trkpt><trkpt lat="45.54923755223204" lon="11.089143411464661"><ele>630.0</ele><time>2026-03-23T07:30:26Z</time></trkpt><trkpt lat="45.54935839515259" lon="11.088849226298105"><ele>629.0</ele><time>2026-03-23T07:30:27Z</time></trkpt><trkpt lat="45.54947849997174" lon="11.088620446132245"><ele>628.0</ele><time>2026-03-23T07:30:28Z</time></trkpt><trkpt lat="45.54958470133794" lon="11.088435864566614"><ele>627.0</ele><time>2026-03-23T07:30:29Z</time></trkpt><trkpt lat="45.54968386956513" lon="11.088281252235568"><ele>628.75</ele><time>2026-03-23T07:30:30Z</time></trkpt><trkpt lat="45.549773704945" lon="11.088144026138815"><ele>630.5</ele><time>2026-03-23T07:30:31Z</time></trkpt><trkpt lat="45.54986130520371" lon="11.088011960127542"><ele>632.25</ele><time>2026-03-23T07:30:32Z</time></trkpt><trkpt lat="45.54993360383109" lon="11.087893722841784"><ele>634.0</ele><time>2026-03-23T07:30:33Z</time></trkpt><trkpt lat="45.550005061910355" lon="11.087770634427384"><ele>634.0</ele><time>2026-03-23T07:30:34Z</time></trkpt><trkpt lat="45.55010052488337" lon="11.087628476322115"><ele>634.0</ele><time>2026-03-23T07:30:35Z</time></trkpt><trkpt lat="45.55020442470991" lon="11.087488545756445"><ele>634.0</ele><time>2026-03-23T07:30:36Z</time></trkpt><trkpt lat="45.55030381818431" lon="11.087359436901892"><ele>634.0</ele><time>2026-03-23T07:30:37Z</time></trkpt><trkpt lat="45.55042199953308" lon="11.08722937618102"><ele>635.25</ele><time>2026-03-23T07:30:38Z</time></trkpt><trkpt lat="45.55053799389511" lon="11.087131305106938"><ele>636.5</ele><time>2026-03-23T07:30:39Z</time></trkpt><trkpt lat="45.550649720821475" lon="11.087064377008554"><ele>637.75</ele><time>2026-03-23T07:30:40Z</time></trkpt><trkpt lat="45.550757288143224" lon="11.087004547291736"><ele>639.0</ele><time>2026-03-23T07:30:41Z</time></trkpt><trkpt lat="45.55086722454333" lon="11.086944148449913"><ele>639.0</ele><time>2026-03-23T07:30:42Z</time></trkpt><trkpt lat="45.550982789749284" lon="11.086881973853234"><ele>639.0</ele><time>2026-03-23T07:30:43Z</time></trkpt><trkpt lat="45.55109360180529" lon="11.086824801094771"><ele>639.0</ele><time>2026-03-23T07:30:44Z</time></trkpt><trkpt lat="45.551205826644164" lon="11.086758585078421"><ele>639.0</ele><time>2026-03-23T07:30:45Z</time></trkpt><trkpt lat="45.55131614942983" lon="11.086698436314947"><ele>638.75</ele><time>2026-03-23T07:30:46Z</time></trkpt><trkpt lat="45.5514286950413" lon="11.08662578506401"><ele>638.5</ele><time>2026-03-23T07:30:47Z</time></trkpt><trkpt lat="45.55154524274039" lon="11.086537826188758"><ele>638.25</ele><time>2026-03-23T07:30:48Z</time></trkpt><trkpt lat="45.5516617019244" lon="11.086423273400719"><ele>638.0</ele><time>2026-03-23T07:30:49Z</time></trkpt><trkpt lat="45.55178242013479" lon="11.086310844528795"><ele>638.0</ele><time>2026-03-23T07:30:50Z</time></trkpt><trkpt lat="45.551909973783864" lon="11.086177948085501"><ele>638.0</ele><time>2026-03-23T07:30:51Z</time></trkpt><trkpt lat="45.55203989410183" lon="11.086042695902535"><ele>638.0</ele><time>2026-03-23T07:30:52Z</time></trkpt><trkpt lat="45.55216325335591" lon="11.085916094742919"><ele>638.0</ele><time>2026-03-23T07:30:53Z</time></trkpt><trkpt lat="45.55228167832025" lon="11.0857926955396"><ele>638.0</ele><time>2026-03-23T07:30:54Z</time></trkpt><trkpt lat="45.55239868727288" lon="11.085671515972036"><ele>638.0</ele><time>2026-03-23T07:30:55Z</time></trkpt><trkpt lat="45.55252050011569" lon="11.085541168359976"><ele>638.0</ele><time>2026-03-23T07:30:56Z</time></trkpt><trkpt lat="45.552645880916" lon="11.085413962994183"><ele>637.6666666666666</ele><time>2026-03-23T07:30:57Z</time></trkpt><trkpt lat="45.55277455635138" lon="11.08528130720208"><ele>637.3333333333334</ele><time>2026-03-23T07:30:58Z</time></trkpt><trkpt lat="45.552911408945256" lon="11.085151318056925"><ele>637.0</ele><time>2026-03-23T07:30:59Z</time></trkpt><trkpt lat="45.55306152457381" lon="11.08503573509737"><ele>638.3333333333334</ele><time>2026-03-23T07:31:00Z</time></trkpt><trkpt lat="45.55322467624699" lon="11.084939681144942"><ele>639.6666666666666</ele><time>2026-03-23T07:31:01Z</time></trkpt><trkpt lat="45.553378954471086" lon="11.084881611413387"><ele>641.0</ele><time>2026-03-23T07:31:02Z</time></trkpt><trkpt lat="45.553526510560374" lon="11.084855144826584"><ele>637.0</ele><time>2026-03-23T07:31:03Z</time></trkpt><trkpt lat="45.553704686465146" lon="11.08485221730358"><ele>633.0</ele><time>2026-03-23T07:31:04Z</time></trkpt><trkpt lat="45.55390447931852" lon="11.084880729392973"><ele>629.0</ele><time>2026-03-23T07:31:05Z</time></trkpt><trkpt lat="45.554095607188124" lon="11.084902415701167"><ele>628.6666666666666</ele><time>2026-03-23T07:31:06Z</time></trkpt><trkpt lat="45.554279116401084" lon="11.084899300471058"><ele>628.3333333333334</ele><time>2026-03-23T07:31:07Z</time></trkpt><trkpt lat="45.5544368192311" lon="11.0848467005269"><ele>628.0</ele><time>2026-03-23T07:31:08Z</time></trkpt><trkpt lat="45.55460731851734" lon="11.084727853020018"><ele>631.0</ele><time>2026-03-23T07:31:09Z</time></trkpt><trkpt lat="45.55477623872972" lon="11.084561634117385"><ele>634.0</ele><time>2026-03-23T07:31:10Z</time></trkpt><trkpt lat="45.55490259589533" lon="11.084393530532383"><ele>637.0</ele><time>2026-03-23T07:31:11Z</time></trkpt><trkpt lat="45.55503095128532" lon="11.084253360264999"><ele>637.0</ele><time>2026-03-23T07:31:12Z</time></trkpt><trkpt lat="45.55515269453825" lon="11.08416625708318"><ele>637.0</ele><time>2026-03-23T07:31:13Z</time></trkpt><trkpt lat="45.55526797713226" lon="11.084156374748469"><ele>637.0</ele><time>2026-03-23T07:31:14Z</time></trkpt><trkpt lat="45.55539637212457" lon="11.084195353026622"><ele>637.0</ele><time>2026-03-23T07:31:15Z</time></trkpt><trkpt lat="45.55552847297892" lon="11.084302971469505"><ele>638.3333333333334</ele><time>2026-03-23T07:31:16Z</time></trkpt><trkpt lat="45.555690860020114" lon="11.084476259057364"><ele>639.6666666666666</ele><time>2026-03-23T07:31:17Z</time></trkpt><trkpt lat="45.555863987512126" lon="11.08465009842453"><ele>641.0</ele><time>2026-03-23T07:31:18Z</time></trkpt><trkpt lat="45.55601697507986" lon="11.08475040374698"><ele>641.0</ele><time>2026-03-23T07:31:19Z</time></trkpt><trkpt lat="45.55615739738329" lon="11.08475531477022"><ele>641.0</ele><time>2026-03-23T07:31:20Z</time></trkpt><trkpt lat="45.55629197045618" lon="11.084677936882754"><ele>641.0</ele><time>2026-03-23T07:31:21Z</time></trkpt><trkpt lat="45.55644604086961" lon="11.084550924350692"><ele>643.5</ele><time>2026-03-23T07:31:22Z</time></trkpt><trkpt lat="45.55662738311638" lon="11.08435246819764"><ele>646.0</ele><time>2026-03-23T07:31:23Z</time></trkpt><trkpt lat="45.55681203625212" lon="11.084114871185754"><ele>645.6666666666667</ele><time>2026-03-23T07:31:24Z</time></trkpt><trkpt lat="45.55696243686475" lon="11.08386479784294"><ele>645.3333333333334</ele><time>2026-03-23T07:31:25Z</time></trkpt><trkpt lat="45.55705189037402" lon="11.08370102983721"><ele>645.0</ele><time>2026-03-23T07:31:26Z</time></trkpt><trkpt lat="45.55716672648846" lon="11.083577131496996"><ele>645.0</ele><time>2026-03-23T07:31:27Z</time></trkpt><trkpt lat="45.55731500085731" lon="11.083491460519237"><ele>645.0</ele><time>2026-03-23T07:31:28Z</time></trkpt><trkpt lat="45.55752792027944" lon="11.083445200914774"><ele>645.0</ele><time>2026-03-23T07:31:29Z</time></trkpt><trkpt lat="45.55777016998627" lon="11.083366060199015"><ele>646.0</ele><time>2026-03-23T07:31:30Z</time></trkpt><trkpt lat="45.558035603435314" lon="11.083268081124015"><ele>647.0</ele><time>2026-03-23T07:31:31Z</time></trkpt><trkpt lat="45.55832876707218" lon="11.083194375552715"><ele>649.5</ele><time>2026-03-23T07:31:32Z</time></trkpt><trkpt lat="45.55865058774871" lon="11.083113162280437"><ele>652.0</ele><time>2026-03-23T07:31:33Z</time></trkpt><trkpt lat="45.55898102496254" lon="11.082994971064462"><ele>653.5</ele><time>2026-03-23T07:31:34Z</time></trkpt><trkpt lat="45.55932567476401" lon="11.082881250870354"><ele>655.0</ele><time>2026-03-23T07:31:35Z</time></trkpt><trkpt lat="45.5596779285494" lon="11.082769643249557"><ele>658.0</ele><time>2026-03-23T07:31:36Z</time></trkpt><trkpt lat="45.56001339989186" lon="11.082660017909571"><ele>661.0</ele><time>2026-03-23T07:31:37Z</time></trkpt><trkpt lat="45.56035194099751" lon="11.082549127493103"><ele>665.5</ele><time>2026-03-23T07:31:38Z</time></trkpt><trkpt lat="45.56064912509464" lon="11.082445581515028"><ele>670.0</ele><time>2026-03-23T07:31:39Z</time></trkpt><trkpt lat="45.56093939643279" lon="11.082303119310943"><ele>673.0</ele><time>2026-03-23T07:31:40Z</time></trkpt><trkpt lat="45.56118607894557" lon="11.082116161597176"><ele>676.0</ele><time>2026-03-23T07:31:41Z</time></trkpt><trkpt lat="45.561396068381384" lon="11.081943852566395"><ele>676.6666666666667</ele><time>2026-03-23T07:31:42Z</time></trkpt><trkpt lat="45.561573171517274" lon="11.081832699404837"><ele>677.3333333333334</ele><time>2026-03-23T07:31:43Z</time></trkpt><trkpt lat="45.561721841897956" lon="11.081793882933622"><ele>678.0</ele><time>2026-03-23T07:31:44Z</time></trkpt><trkpt lat="45.56185951912561" lon="11.081809358545414"><ele>678.0</ele><time>2026-03-23T07:31:45Z</time></trkpt><trkpt lat="45.562002969978955" lon="11.08179373717599"><ele>678.0</ele><time>2026-03-23T07:31:46Z</time></trkpt><trkpt lat="45.56217597853635" lon="11.081694982223079"><ele>678.0</ele><time>2026-03-23T07:31:47Z</time></trkpt><trkpt lat="45.56235735047915" lon="11.081507403484625"><ele>679.0</ele><time>2026-03-23T07:31:48Z</time></trkpt><trkpt lat="45.562542566277074" lon="11.081241028953816"><ele>680.0</ele><time>2026-03-23T07:31:49Z</time></trkpt><trkpt lat="45.56272862032448" lon="11.080982671835109"><ele>680.3333333333333</ele><time>2026-03-23T07:31:50Z</time></trkpt><trkpt lat="45.562894153335826" lon="11.080802595763936"><ele>680.6666666666666</ele><time>2026-03-23T07:31:51Z</time></trkpt><trkpt lat="45.56309520131361" lon="11.080644581493319"><ele>681.0</ele><time>2026-03-23T07:31:52Z</time></trkpt><trkpt lat="45.563342357781146" lon="11.080516322645195"><ele>688.0</ele><time>2026-03-23T07:31:53Z</time></trkpt><trkpt lat="45.56363209542592" lon="11.080439864758835"><ele>695.0</ele><time>2026-03-23T07:31:54Z</time></trkpt><trkpt lat="45.56394701835878" lon="11.08035007540077"><ele>697.0</ele><time>2026-03-23T07:31:55Z</time></trkpt><trkpt lat="45.5642364314131" lon="11.08025532713321"><ele>699.0</ele><time>2026-03-23T07:31:56Z</time></trkpt><trkpt lat="45.564490361445436" lon="11.080208805807374"><ele>700.0</ele><time>2026-03-23T07:31:57Z</time></trkpt><trkpt lat="45.56476011612443" lon="11.080204644684697"><ele>701.0</ele><time>2026-03-23T07:31:58Z</time></trkpt><trkpt lat="45.565015733396706" lon="11.080233076804694"><ele>701.0</ele><time>2026-03-23T07:31:59Z</time></trkpt><trkpt lat="45.565238569721494" lon="11.080259358436972"><ele>701.0</ele><time>2026-03-23T07:32:00Z</time></trkpt><trkpt lat="45.5654253944344" lon="11.080263445289608"><ele>701.0</ele><time>2026-03-23T07:32:01Z</time></trkpt><trkpt lat="45.565582741670404" lon="11.080229105453157"><ele>700.6666666666666</ele><time>2026-03-23T07:32:02Z</time></trkpt><trkpt lat="45.565732046403184" lon="11.080128734445525"><ele>700.3333333333334</ele><time>2026-03-23T07:32:03Z</time></trkpt><trkpt lat="45.56588577711351" lon="11.079943807677795"><ele>700.0</ele><time>2026-03-23T07:32:04Z</time></trkpt><trkpt lat="45.56605625338403" lon="11.079703689231007"><ele>700.5</ele><time>2026-03-23T07:32:05Z</time></trkpt><trkpt lat="45.566256738509196" lon="11.079445176124237"><ele>701.0</ele><time>2026-03-23T07:32:06Z</time></trkpt><trkpt lat="45.566460951177085" lon="11.079182982445033"><ele>701.0</ele><time>2026-03-23T07:32:07Z</time></trkpt><trkpt lat="45.5666809249212" lon="11.078907111395083"><ele>701.0</ele><time>2026-03-23T07:32:08Z</time></trkpt><trkpt lat="45.56690822389123" lon="11.078635021938311"><ele>705.5</ele><time>2026-03-23T07:32:09Z</time></trkpt><trkpt lat="45.56715588092375" lon="11.078365506218915"><ele>710.0</ele><time>2026-03-23T07:32:10Z</time></trkpt><trkpt lat="45.567435136329244" lon="11.078114613925868"><ele>712.0</ele><time>2026-03-23T07:32:11Z</time></trkpt><trkpt lat="45.56773509368395" lon="11.077885123623133"><ele>714.0</ele><time>2026-03-23T07:32:12Z</time></trkpt><trkpt lat="45.568025183461366" lon="11.077644223148287"><ele>722.5</ele><time>2026-03-23T07:32:13Z</time></trkpt><trkpt lat="45.56829394615759" lon="11.077386066430089"><ele>731.0</ele><time>2026-03-23T07:32:14Z</time></trkpt><trkpt lat="45.56856769715767" lon="11.077124002446508"><ele>733.5</ele><time>2026-03-23T07:32:15Z</time></trkpt><trkpt lat="45.56879981885307" lon="11.076887436856927"><ele>736.0</ele><time>2026-03-23T07:32:16Z</time></trkpt><trkpt lat="45.56900802258099" lon="11.076685532099459"><ele>739.0</ele><time>2026-03-23T07:32:17Z</time></trkpt><trkpt lat="45.56919176266939" lon="11.076505904791365"><ele>742.0</ele><time>2026-03-23T07:32:18Z</time></trkpt><trkpt lat="45.56935283179154" lon="11.076353035410925"><ele>745.0</ele><time>2026-03-23T07:32:19Z</time></trkpt><trkpt lat="45.56949815875377" lon="11.076227814945717"><ele>749.0</ele><time>2026-03-23T07:32:20Z</time></trkpt><trkpt lat="45.569646377174564" lon="11.076157889013754"><ele>753.0</ele><time>2026-03-23T07:32:21Z</time></trkpt><trkpt lat="45.56983422774482" lon="11.076136798294115"><ele>757.0</ele><time>2026-03-23T07:32:22Z</time></trkpt><trkpt lat="45.57006059646173" lon="11.076158247132666"><ele>757.0</ele><time>2026-03-23T07:32:23Z</time></trkpt><trkpt lat="45.57031720417978" lon="11.076198798229635"><ele>757.0</ele><time>2026-03-23T07:32:24Z</time></trkpt><trkpt lat="45.570579513185066" lon="11.076333559134211"><ele>755.5</ele><time>2026-03-23T07:32:25Z</time></trkpt><trkpt lat="45.570824221089836" lon="11.07646456988072"><ele>754.0</ele><time>2026-03-23T07:32:26Z</time></trkpt><trkpt lat="45.571012765609325" lon="11.076607260392832"><ele>754.0</ele><time>2026-03-23T07:32:27Z</time></trkpt><trkpt lat="45.57113987624969" lon="11.076720025004478"><ele>754.0</ele><time>2026-03-23T07:32:28Z</time></trkpt><trkpt lat="45.57126438180754" lon="11.076759417406656"><ele>754.0</ele><time>2026-03-23T07:32:29Z</time></trkpt><trkpt lat="45.57138950003985" lon="11.07672201239903"><ele>754.0</ele><time>2026-03-23T07:32:30Z</time></trkpt><trkpt lat="45.571502129981965" lon="11.076609987431683"><ele>760.6666666666667</ele><time>2026-03-23T07:32:31Z</time></trkpt><trkpt lat="45.57162174304181" lon="11.076449393092451"><ele>767.3333333333334</ele><time>2026-03-23T07:32:32Z</time></trkpt><trkpt lat="45.57174784073678" lon="11.076204413794807"><ele>774.0</ele><time>2026-03-23T07:32:33Z</time></trkpt><trkpt lat="45.5719061465466" lon="11.075942025953353"><ele>778.3333333333333</ele><time>2026-03-23T07:32:34Z</time></trkpt><trkpt lat="45.57206920483858" lon="11.075677838019116"><ele>782.6666666666666</ele><time>2026-03-23T07:32:35Z</time></trkpt><trkpt lat="45.572209076167226" lon="11.07548025129907"><ele>787.0</ele><time>2026-03-23T07:32:36Z</time></trkpt><trkpt lat="45.572372053679096" lon="11.075312615876424"><ele>787.0</ele><time>2026-03-23T07:32:37Z</time></trkpt><trkpt lat="45.57256414465875" lon="11.075212743853518"><ele>787.0</ele><time>2026-03-23T07:32:38Z</time></trkpt><trkpt lat="45.5727870033385" lon="11.07515001170539"><ele>787.0</ele><time>2026-03-23T07:32:39Z</time></trkpt><trkpt lat="45.57301126072887" lon="11.075082527364154"><ele>790.5</ele><time>2026-03-23T07:32:40Z</time></trkpt><trkpt lat="45.5732760911069" lon="11.074981537756797"><ele>794.0</ele><time>2026-03-23T07:32:41Z</time></trkpt><trkpt lat="45.573558025815586" lon="11.074873216007918"><ele>798.0</ele><time>2026-03-23T07:32:42Z</time></trkpt><trkpt lat="45.57386876272376" lon="11.074815158348668"><ele>802.0</ele><time>2026-03-23T07:32:43Z</time></trkpt><trkpt lat="45.57418932131166" lon="11.074799540989568"><ele>802.0</ele><time>2026-03-23T07:32:44Z</time></trkpt><trkpt lat="45.57446995705233" lon="11.074805524509467"><ele>802.0</ele><time>2026-03-23T07:32:45Z</time></trkpt><trkpt lat="45.574719896738024" lon="11.07480570178618"><ele>806.0</ele><time>2026-03-23T07:32:46Z</time></trkpt><trkpt lat="45.57498071523749" lon="11.074773581639267"><ele>810.0</ele><time>2026-03-23T07:32:47Z</time></trkpt><trkpt lat="45.57525127448579" lon="11.074731339283955"><ele>812.5</ele><time>2026-03-23T07:32:48Z</time></trkpt><trkpt lat="45.57552333662158" lon="11.07467525984167"><ele>815.0</ele><time>2026-03-23T07:32:49Z</time></trkpt><trkpt lat="45.57575630302588" lon="11.074632890923242"><ele>815.0</ele><time>2026-03-23T07:32:50Z</time></trkpt><trkpt lat="45.57599191817408" lon="11.074590246445505"><ele>815.0</ele><time>2026-03-23T07:32:51Z</time></trkpt><trkpt lat="45.576242561364154" lon="11.074540701478524"><ele>819.0</ele><time>2026-03-23T07:32:52Z</time></trkpt><trkpt lat="45.57651458682002" lon="11.074486618869516"><ele>823.0</ele><time>2026-03-23T07:32:53Z</time></trkpt><trkpt lat="45.576792632063075" lon="11.074452100951602"><ele>827.0</ele><time>2026-03-23T07:32:54Z</time></trkpt><trkpt lat="45.577039590945134" lon="11.074456881636737"><ele>831.0</ele><time>2026-03-23T07:32:55Z</time></trkpt><trkpt lat="45.57725533990335" lon="11.074484942158163"><ele>831.0</ele><time>2026-03-23T07:32:56Z</time></trkpt><trkpt lat="45.577470020729024" lon="11.074510827949306"><ele>831.0</ele><time>2026-03-23T07:32:57Z</time></trkpt><trkpt lat="45.5777029871498" lon="11.074524696648757"><ele>831.0</ele><time>2026-03-23T07:32:58Z</time></trkpt><trkpt lat="45.577936384453125" lon="11.074537096156162"><ele>834.0</ele><time>2026-03-23T07:32:59Z</time></trkpt><trkpt lat="45.57816087223916" lon="11.074552819975336"><ele>837.0</ele><time>2026-03-23T07:33:00Z</time></trkpt><trkpt lat="45.57838318929535" lon="11.074568923708743"><ele>840.0</ele><time>2026-03-23T07:33:01Z</time></trkpt><trkpt lat="45.57860387226288" lon="11.074580886350988"><ele>839.3333333333333</ele><time>2026-03-23T07:33:02Z</time></trkpt><trkpt lat="45.5788214113667" lon="11.074590752036876"><ele>838.6666666666666</ele><time>2026-03-23T07:33:03Z</time></trkpt><trkpt lat="45.57903727102575" lon="11.074607066256723"><ele>838.0</ele><time>2026-03-23T07:33:04Z</time></trkpt><trkpt lat="45.57925859719812" lon="11.074635674938698"><ele>838.0</ele><time>2026-03-23T07:33:05Z</time></trkpt><trkpt lat="45.579474487805165" lon="11.074660114497632"><ele>838.0</ele><time>2026-03-23T07:33:06Z</time></trkpt><trkpt lat="45.5796890468536" lon="11.074676760223678"><ele>838.0</ele><time>2026-03-23T07:33:07Z</time></trkpt><trkpt lat="45.5798869061968" lon="11.074683404049212"><ele>837.0</ele><time>2026-03-23T07:33:08Z</time></trkpt><trkpt lat="45.580066631835834" lon="11.074683876156989"><ele>836.0</ele><time>2026-03-23T07:33:09Z</time></trkpt><trkpt lat="45.58023646095179" lon="11.07468895385689"><ele>835.0</ele><time>2026-03-23T07:33:10Z</time></trkpt><trkpt lat="45.58038806587379" lon="11.07471454153183"><ele>836.5</ele><time>2026-03-23T07:33:11Z</time></trkpt><trkpt lat="45.58052567212774" lon="11.074765940108426"><ele>838.0</ele><time>2026-03-23T07:33:12Z</time></trkpt><trkpt lat="45.580643277952625" lon="11.074869547652073"><ele>839.5</ele><time>2026-03-23T07:33:13Z</time></trkpt><trkpt lat="45.58075437117028" lon="11.07502935724503"><ele>841.0</ele><time>2026-03-23T07:33:14Z</time></trkpt><trkpt lat="45.58086119671911" lon="11.075250071051043"><ele>842.0</ele><time>2026-03-23T07:33:15Z</time></trkpt><trkpt lat="45.58095772994781" lon="11.075494581927238"><ele>843.0</ele><time>2026-03-23T07:33:16Z</time></trkpt><trkpt lat="45.58103317817562" lon="11.07569211407894"><ele>844.0</ele><time>2026-03-23T07:33:17Z</time></trkpt><trkpt lat="45.581122201318635" lon="11.075841459730285"><ele>851.6666666666666</ele><time>2026-03-23T07:33:18Z</time></trkpt><trkpt lat="45.58124648213644" lon="11.07598551629044"><ele>859.3333333333333</ele><time>2026-03-23T07:33:19Z</time></trkpt><trkpt lat="45.58138840681294" lon="11.076129528086215"><ele>867.0</ele><time>2026-03-23T07:33:20Z</time></trkpt><trkpt lat="45.58155791181601" lon="11.07627107686446"><ele>867.0</ele><time>2026-03-23T07:33:21Z</time></trkpt><trkpt lat="45.58174031228469" lon="11.076418177823006"><ele>867.0</ele><time>2026-03-23T07:33:22Z</time></trkpt><trkpt lat="45.58194945457931" lon="11.07657041011661"><ele>867.0</ele><time>2026-03-23T07:33:23Z</time></trkpt><trkpt lat="45.58219186064973" lon="11.076731985218759"><ele>866.5</ele><time>2026-03-23T07:33:24Z</time></trkpt><trkpt lat="45.58244248598706" lon="11.076875564342394"><ele>866.0</ele><time>2026-03-23T07:33:25Z</time></trkpt><trkpt lat="45.58265178642234" lon="11.076999480470098"><ele>866.0</ele><time>2026-03-23T07:33:26Z</time></trkpt><trkpt lat="45.582825037206284" lon="11.077128500391478"><ele>866.0</ele><time>2026-03-23T07:33:27Z</time></trkpt><trkpt lat="45.582969129585194" lon="11.0772512326351"><ele>866.0</ele><time>2026-03-23T07:33:28Z</time></trkpt><trkpt lat="45.58310263389681" lon="11.07734510618723"><ele>865.5</ele><time>2026-03-23T07:33:29Z</time></trkpt><trkpt lat="45.58323030509489" lon="11.077415584809756"><ele>865.0</ele><time>2026-03-23T07:33:30Z</time></trkpt><trkpt lat="45.583348413855575" lon="11.077458870808744"><ele>864.5</ele><time>2026-03-23T07:33:31Z</time></trkpt><trkpt lat="45.5834571172211" lon="11.077486033293479"><ele>864.0</ele><time>2026-03-23T07:33:32Z</time></trkpt><trkpt lat="45.58355528363846" lon="11.077510559444587"><ele>864.0</ele><time>2026-03-23T07:33:33Z</time></trkpt><trkpt lat="45.583654013797144" lon="11.077550670807662"><ele>864.0</ele><time>2026-03-23T07:33:34Z</time></trkpt><trkpt lat="45.58376368067933" lon="11.077625691491276"><ele>864.0</ele><time>2026-03-23T07:33:35Z</time></trkpt><trkpt lat="45.58385955591334" lon="11.077715783626816"><ele>864.0</ele><time>2026-03-23T07:33:36Z</time></trkpt><trkpt lat="45.58393951379789" lon="11.077829452234472"><ele>865.4000000000001</ele><time>2026-03-23T07:33:37Z</time></trkpt><trkpt lat="45.584004148443164" lon="11.077955883781776"><ele>866.8000000000001</ele><time>2026-03-23T07:33:38Z</time></trkpt><trkpt lat="45.58405260493915" lon="11.078069501993227"><ele>868.1999999999999</ele><time>2026-03-23T07:33:39Z</time></trkpt><trkpt lat="45.584085835849464" lon="11.078154921626357"><ele>869.5999999999999</ele><time>2026-03-23T07:33:40Z</time></trkpt><trkpt lat="45.584121186786206" lon="11.078251050585916"><ele>871.0</ele><time>2026-03-23T07:33:42Z</time></trkpt><trkpt lat="45.58418081823412" lon="11.078393779508277"><ele>871.0</ele><time>2026-03-23T07:33:44Z</time></trkpt><trkpt lat="45.58420889527815" lon="11.078486024033422"><ele>871.0</ele><time>2026-03-23T07:33:45Z</time></trkpt><trkpt lat="45.584238425736835" lon="11.07858072118599"><ele>871.0</ele><time>2026-03-23T07:33:46Z</time></trkpt><trkpt lat="45.58427111775769" lon="11.07866060675565"><ele>871.0</ele><time>2026-03-23T07:33:47Z</time></trkpt><trkpt lat="45.58433400608448" lon="11.078718698835319"><ele>871.0</ele><time>2026-03-23T07:33:49Z</time></trkpt><trkpt lat="45.584421260751284" lon="11.078722594801107"><ele>871.0</ele><time>2026-03-23T07:33:51Z</time></trkpt><trkpt lat="45.584483564483456" lon="11.078747242421203"><ele>871.0</ele><time>2026-03-23T07:33:52Z</time></trkpt><trkpt lat="45.584556995363975" lon="11.078781321569153"><ele>872.0</ele><time>2026-03-23T07:33:53Z</time></trkpt><trkpt lat="45.584645424250354" lon="11.078792894905154"><ele>872.9999999999999</ele><time>2026-03-23T07:33:54Z</time></trkpt><trkpt lat="45.584712183941534" lon="11.078738413010731"><ele>873.9999999999999</ele><time>2026-03-23T07:33:56Z</time></trkpt><trkpt lat="45.584733687638305" lon="11.07853763283992"><ele>875.0</ele><time>2026-03-23T07:33:58Z</time></trkpt><trkpt lat="45.58476482137145" lon="11.078413380565"><ele>876.0</ele><time>2026-03-23T07:34:00Z</time></trkpt><trkpt lat="45.58485227557768" lon="11.078381145313813"><ele>876.0</ele><time>2026-03-23T07:34:02Z</time></trkpt><trkpt lat="45.58491546074423" lon="11.078437036630614"><ele>875.9999999999999</ele><time>2026-03-23T07:34:03Z</time></trkpt><trkpt lat="45.584992779342144" lon="11.078486753467047"><ele>875.9999999999999</ele><time>2026-03-23T07:34:04Z</time></trkpt><trkpt lat="45.58508864656258" lon="11.07854589889761"><ele>876.0</ele><time>2026-03-23T07:34:05Z</time></trkpt><trkpt lat="45.58520453216627" lon="11.078588777916705"><ele>876.0</ele><time>2026-03-23T07:34:06Z</time></trkpt><trkpt lat="45.58533099974372" lon="11.07863916683953"><ele>872.0</ele><time>2026-03-23T07:34:07Z</time></trkpt><trkpt lat="45.58545389016991" lon="11.078687299603295"><ele>868.0</ele><time>2026-03-23T07:34:08Z</time></trkpt><trkpt lat="45.58557691287651" lon="11.07873016643759"><ele>864.0</ele><time>2026-03-23T07:34:09Z</time></trkpt><trkpt lat="45.58571553594523" lon="11.078781303505297"><ele>860.0</ele><time>2026-03-23T07:34:10Z</time></trkpt><trkpt lat="45.58584568068217" lon="11.078838606706933"><ele>860.0</ele><time>2026-03-23T07:34:11Z</time></trkpt><trkpt lat="45.58596132378881" lon="11.078889191960384"><ele>860.0</ele><time>2026-03-23T07:34:12Z</time></trkpt><trkpt lat="45.58608196094666" lon="11.078936591633212"><ele>860.0</ele><time>2026-03-23T07:34:13Z</time></trkpt><trkpt lat="45.58621409282722" lon="11.078986428241691"><ele>860.0</ele><time>2026-03-23T07:34:14Z</time></trkpt><trkpt lat="45.5863471008423" lon="11.079032973138442"><ele>861.0</ele><time>2026-03-23T07:34:15Z</time></trkpt><trkpt lat="45.586442858201856" lon="11.079074371845007"><ele>862.0</ele><time>2026-03-23T07:34:16Z</time></trkpt><trkpt lat="45.586609521794635" lon="11.07914575126717"><ele>863.0</ele><time>2026-03-23T07:34:17Z</time></trkpt><trkpt lat="45.58672961064996" lon="11.079201304877483"><ele>864.0</ele><time>2026-03-23T07:34:18Z</time></trkpt><trkpt lat="45.586851176676745" lon="11.07925118948624"><ele>864.0</ele><time>2026-03-23T07:34:19Z</time></trkpt><trkpt lat="45.58697434568017" lon="11.07929918354347"><ele>864.0</ele><time>2026-03-23T07:34:20Z</time></trkpt><trkpt lat="45.587097562695504" lon="11.0793508327225"><ele>864.0</ele><time>2026-03-23T07:34:21Z</time></trkpt><trkpt lat="45.587220945660754" lon="11.07940521459717"><ele>864.0</ele><time>2026-03-23T07:34:22Z</time></trkpt><trkpt lat="45.58734534400977" lon="11.079457263989958"><ele>862.5</ele><time>2026-03-23T07:34:23Z</time></trkpt><trkpt lat="45.58746865553026" lon="11.079508323439454"><ele>861.0</ele><time>2026-03-23T07:34:24Z</time></trkpt><trkpt lat="45.5875883627068" lon="11.079548415977417"><ele>859.5</ele><time>2026-03-23T07:34:25Z</time></trkpt><trkpt lat="45.58769812102442" lon="11.079563562991822"><ele>858.0</ele><time>2026-03-23T07:34:26Z</time></trkpt><trkpt lat="45.587815568992625" lon="11.07956910513279"><ele>858.25</ele><time>2026-03-23T07:34:27Z</time></trkpt><trkpt lat="45.587935496823995" lon="11.079555295505962"><ele>858.5</ele><time>2026-03-23T07:34:28Z</time></trkpt><trkpt lat="45.58806144947904" lon="11.079511771069422"><ele>858.75</ele><time>2026-03-23T07:34:29Z</time></trkpt><trkpt lat="45.58818448522345" lon="11.079437952371023"><ele>859.0</ele><time>2026-03-23T07:34:30Z</time></trkpt><trkpt lat="45.58829614879563" lon="11.079347065715284"><ele>859.0</ele><time>2026-03-23T07:34:31Z</time></trkpt><trkpt lat="45.58839301973014" lon="11.079249396363226"><ele>859.0</ele><time>2026-03-23T07:34:32Z</time></trkpt><trkpt lat="45.58847755810686" lon="11.079123875052625"><ele>859.0</ele><time>2026-03-23T07:34:33Z</time></trkpt><trkpt lat="45.58855235359348" lon="11.078964943394741"><ele>859.0</ele><time>2026-03-23T07:34:34Z</time></trkpt><trkpt lat="45.58861116935252" lon="11.078779575153073"><ele>858.0</ele><time>2026-03-23T07:34:35Z</time></trkpt><trkpt lat="45.58866086627337" lon="11.078596831535465"><ele>857.0</ele><time>2026-03-23T07:34:36Z</time></trkpt><trkpt lat="45.58869946790846" lon="11.078416900244985"><ele>856.0</ele><time>2026-03-23T07:34:37Z</time></trkpt><trkpt lat="45.58879310744877" lon="11.078199591568731"><ele>855.0</ele><time>2026-03-23T07:34:38Z</time></trkpt><trkpt lat="45.58884159037021" lon="11.077953541699278"><ele>859.0</ele><time>2026-03-23T07:34:39Z</time></trkpt><trkpt lat="45.5889048089006" lon="11.077695168493431"><ele>863.0</ele><time>2026-03-23T07:34:40Z</time></trkpt><trkpt lat="45.58897916859255" lon="11.077453154600457"><ele>867.0</ele><time>2026-03-23T07:34:41Z</time></trkpt><trkpt lat="45.58905847195772" lon="11.077238399095549"><ele>867.0</ele><time>2026-03-23T07:34:42Z</time></trkpt><trkpt lat="45.58912983488762" lon="11.077058966819049"><ele>867.0</ele><time>2026-03-23T07:34:43Z</time></trkpt><trkpt lat="45.58919412106149" lon="11.076902436890293"><ele>867.0</ele><time>2026-03-23T07:34:44Z</time></trkpt><trkpt lat="45.58926527596704" lon="11.076740350941698"><ele>867.0</ele><time>2026-03-23T07:34:45Z</time></trkpt><trkpt lat="45.58935223231286" lon="11.07660152822893"><ele>864.0</ele><time>2026-03-23T07:34:46Z</time></trkpt><trkpt lat="45.5894297034888" lon="11.076485678930414"><ele>861.0</ele><time>2026-03-23T07:34:47Z</time></trkpt><trkpt lat="45.589515526383046" lon="11.076366505022973"><ele>858.0</ele><time>2026-03-23T07:34:48Z</time></trkpt><trkpt lat="45.589590348755976" lon="11.076223494066708"><ele>855.0</ele><time>2026-03-23T07:34:49Z</time></trkpt><trkpt lat="45.58967715291248" lon="11.076032429558806"><ele>859.3333333333333</ele><time>2026-03-23T07:34:50Z</time></trkpt><trkpt lat="45.58978243074208" lon="11.075794357900476"><ele>863.6666666666666</ele><time>2026-03-23T07:34:51Z</time></trkpt><trkpt lat="45.58987780059431" lon="11.075593561287345"><ele>868.0</ele><time>2026-03-23T07:34:52Z</time></trkpt><trkpt lat="45.58997477370713" lon="11.075365073332723"><ele>868.0</ele><time>2026-03-23T07:34:53Z</time></trkpt><trkpt lat="45.59005548475283" lon="11.075157525796069"><ele>868.0</ele><time>2026-03-23T07:34:54Z</time></trkpt><trkpt lat="45.59012425403151" lon="11.074959212258307"><ele>868.0</ele><time>2026-03-23T07:34:55Z</time></trkpt><trkpt lat="45.590184114148826" lon="11.074792590494331"><ele>865.1666666666666</ele><time>2026-03-23T07:34:56Z</time></trkpt><trkpt lat="45.5902323866927" lon="11.074660952143548"><ele>862.3333333333333</ele><time>2026-03-23T07:34:57Z</time></trkpt><trkpt lat="45.59026727785936" lon="11.074559276824026"><ele>859.5</ele><time>2026-03-23T07:34:58Z</time></trkpt><trkpt lat="45.59030649078685" lon="11.074461473057065"><ele>856.6666666666667</ele><time>2026-03-23T07:34:59Z</time></trkpt><trkpt lat="45.59034684375176" lon="11.074372387885122"><ele>853.8333333333334</ele><time>2026-03-23T07:35:00Z</time></trkpt><trkpt lat="45.59038235463096" lon="11.07429322481296"><ele>851.0</ele><time>2026-03-23T07:35:03Z</time></trkpt><trkpt lat="45.59044652057303" lon="11.074196450426069"><ele>858.0</ele><time>2026-03-23T07:35:05Z</time></trkpt><trkpt lat="45.590490472532856" lon="11.074083780706438"><ele>865.0</ele><time>2026-03-23T07:35:06Z</time></trkpt><trkpt lat="45.59053005864616" lon="11.073925711512127"><ele>872.0</ele><time>2026-03-23T07:35:07Z</time></trkpt><trkpt lat="45.59058676066507" lon="11.073712492961116"><ele>879.0</ele><time>2026-03-23T07:35:08Z</time></trkpt><trkpt lat="45.590647897402086" lon="11.073462490852455"><ele>874.3333333333333</ele><time>2026-03-23T07:35:09Z</time></trkpt><trkpt lat="45.59071239521808" lon="11.073200119421118"><ele>869.6666666666666</ele><time>2026-03-23T07:35:10Z</time></trkpt><trkpt lat="45.590788177898624" lon="11.072984832245924"><ele>865.0</ele><time>2026-03-23T07:35:11Z</time></trkpt><trkpt lat="45.59085805548654" lon="11.072785493898357"><ele>865.0</ele><time>2026-03-23T07:35:12Z</time></trkpt><trkpt lat="45.59090223690062" lon="11.07258458891936"><ele>865.0</ele><time>2026-03-23T07:35:13Z</time></trkpt><trkpt lat="45.590939950434326" lon="11.072380304903659"><ele>865.0</ele><time>2026-03-23T07:35:14Z</time></trkpt><trkpt lat="45.59100125416062" lon="11.072230835320925"><ele>865.0</ele><time>2026-03-23T07:35:15Z</time></trkpt><trkpt lat="45.591074731368245" lon="11.072096792963363"><ele>867.0</ele><time>2026-03-23T07:35:16Z</time></trkpt><trkpt lat="45.59114913858861" lon="11.071968350776617"><ele>869.0</ele><time>2026-03-23T07:35:17Z</time></trkpt><trkpt lat="45.591210411989884" lon="11.071852203570131"><ele>871.0</ele><time>2026-03-23T07:35:18Z</time></trkpt><trkpt lat="45.5912379289435" lon="11.071734514301474"><ele>873.0</ele><time>2026-03-23T07:35:19Z</time></trkpt><trkpt lat="45.59123416075861" lon="11.071611253622665"><ele>875.0</ele><time>2026-03-23T07:35:20Z</time></trkpt><trkpt lat="45.59121995876372" lon="11.071494930163054"><ele>870.8</ele><time>2026-03-23T07:35:21Z</time></trkpt><trkpt lat="45.59123197545561" lon="11.071369091349064"><ele>866.6</ele><time>2026-03-23T07:35:22Z</time></trkpt><trkpt lat="45.59125862944294" lon="11.071246325376464"><ele>862.4000000000001</ele><time>2026-03-23T07:35:23Z</time></trkpt><trkpt lat="45.59133576837466" lon="11.0711368864464"><ele>858.2</ele><time>2026-03-23T07:35:24Z</time></trkpt><trkpt lat="45.591436930326175" lon="11.071074961517768"><ele>854.0</ele><time>2026-03-23T07:35:25Z</time></trkpt><trkpt lat="45.591554622404324" lon="11.071028792635447"><ele>854.0</ele><time>2026-03-23T07:35:26Z</time></trkpt><trkpt lat="45.591687390855135" lon="11.071024540492733"><ele>854.0</ele><time>2026-03-23T07:35:27Z</time></trkpt><trkpt lat="45.59183136447296" lon="11.07105475557991"><ele>854.0</ele><time>2026-03-23T07:35:28Z</time></trkpt><trkpt lat="45.59198200115949" lon="11.07112822530188"><ele>854.0</ele><time>2026-03-23T07:35:29Z</time></trkpt><trkpt lat="45.592065142897006" lon="11.071125350239686"><ele>858.6</ele><time>2026-03-23T07:35:30Z</time></trkpt><trkpt lat="45.59213483892436" lon="11.071071657303886"><ele>863.2</ele><time>2026-03-23T07:35:31Z</time></trkpt><trkpt lat="45.592186534566025" lon="11.070972251542008"><ele>867.8000000000001</ele><time>2026-03-23T07:35:32Z</time></trkpt><trkpt lat="45.59219534971071" lon="11.070839653912818"><ele>872.4000000000001</ele><time>2026-03-23T07:35:33Z</time></trkpt><trkpt lat="45.592178984095746" lon="11.07067450277224"><ele>877.0</ele><time>2026-03-23T07:35:34Z</time></trkpt><trkpt lat="45.59215038624303" lon="11.07047316459307"><ele>877.0</ele><time>2026-03-23T07:35:35Z</time></trkpt><trkpt lat="45.592117809280616" lon="11.070273381283341"><ele>877.0</ele><time>2026-03-23T07:35:36Z</time></trkpt><trkpt lat="45.59208051400386" lon="11.070094100167314"><ele>877.0</ele><time>2026-03-23T07:35:37Z</time></trkpt><trkpt lat="45.59205238904702" lon="11.069899979514938"><ele>877.0</ele><time>2026-03-23T07:35:38Z</time></trkpt><trkpt lat="45.59204654374515" lon="11.069713598302535"><ele>877.0</ele><time>2026-03-23T07:35:39Z</time></trkpt><trkpt lat="45.59205415093148" lon="11.069525032909144"><ele>877.0</ele><time>2026-03-23T07:35:40Z</time></trkpt><trkpt lat="45.59205960424143" lon="11.069332838156235"><ele>877.0</ele><time>2026-03-23T07:35:41Z</time></trkpt><trkpt lat="45.592064060552715" lon="11.069161983202624"><ele>877.0</ele><time>2026-03-23T07:35:42Z</time></trkpt><trkpt lat="45.59207369178264" lon="11.069016348491827"><ele>874.2</ele><time>2026-03-23T07:35:43Z</time></trkpt><trkpt lat="45.59208723629443" lon="11.06890140924145"><ele>871.4000000000001</ele><time>2026-03-23T07:35:44Z</time></trkpt><trkpt lat="45.592107223409364" lon="11.068785762532125"><ele>868.5999999999999</ele><time>2026-03-23T07:35:45Z</time></trkpt><trkpt lat="45.59213915943072" lon="11.068654471182574"><ele>865.8</ele><time>2026-03-23T07:35:46Z</time></trkpt><trkpt lat="45.59218653532089" lon="11.068494002144725"><ele>863.0</ele><time>2026-03-23T07:35:47Z</time></trkpt><trkpt lat="45.592250963219996" lon="11.068324492539777"><ele>858.5</ele><time>2026-03-23T07:35:48Z</time></trkpt><trkpt lat="45.592316563945815" lon="11.06815773371366"><ele>854.0</ele><time>2026-03-23T07:35:49Z</time></trkpt><trkpt lat="45.59237032972288" lon="11.068009855808915"><ele>849.5</ele><time>2026-03-23T07:35:50Z</time></trkpt><trkpt lat="45.592418387930294" lon="11.06786931857183"><ele>845.0</ele><time>2026-03-23T07:35:51Z</time></trkpt><trkpt lat="45.592464594735006" lon="11.067730258814615"><ele>845.0</ele><time>2026-03-23T07:35:52Z</time></trkpt><trkpt lat="45.59250810375021" lon="11.067600857917963"><ele>845.0</ele><time>2026-03-23T07:35:53Z</time></trkpt><trkpt lat="45.592547757869724" lon="11.067476291924178"><ele>845.0</ele><time>2026-03-23T07:35:54Z</time></trkpt><trkpt lat="45.592584452039475" lon="11.067353202458744"><ele>845.0</ele><time>2026-03-23T07:35:55Z</time></trkpt><trkpt lat="45.592626282305254" lon="11.067233665647008"><ele>845.0</ele><time>2026-03-23T07:35:56Z</time></trkpt><trkpt lat="45.59266831910044" lon="11.067124717966419"><ele>844.0000000000001</ele><time>2026-03-23T07:35:57Z</time></trkpt><trkpt lat="45.59270310896135" lon="11.067023581632165"><ele>843.0</ele><time>2026-03-23T07:35:58Z</time></trkpt><trkpt lat="45.59273419464338" lon="11.066931584410215"><ele>842.0</ele><time>2026-03-23T07:35:59Z</time></trkpt><trkpt lat="45.592762398093136" lon="11.066845348464645"><ele>841.0</ele><time>2026-03-23T07:36:00Z</time></trkpt><trkpt lat="45.59279883085849" lon="11.066763613565392"><ele>840.0000000000001</ele><time>2026-03-23T07:36:01Z</time></trkpt><trkpt lat="45.59284385906036" lon="11.066674379528033"><ele>839.0</ele><time>2026-03-23T07:36:02Z</time></trkpt><trkpt lat="45.592912237982766" lon="11.06657981110122"><ele>838.5000000000001</ele><time>2026-03-23T07:36:03Z</time></trkpt><trkpt lat="45.59297875086769" lon="11.066479593063141"><ele>838.0</ele><time>2026-03-23T07:36:04Z</time></trkpt><trkpt lat="45.59304596059959" lon="11.0663877939293"><ele>837.5</ele><time>2026-03-23T07:36:05Z</time></trkpt><trkpt lat="45.59311205476453" lon="11.066297870852765"><ele>837.0</ele><time>2026-03-23T07:36:06Z</time></trkpt><trkpt lat="45.59317341353459" lon="11.066216113180895"><ele>836.5000000000001</ele><time>2026-03-23T07:36:07Z</time></trkpt><trkpt lat="45.59322715620061" lon="11.066152699208816"><ele>836.0</ele><time>2026-03-23T07:36:08Z</time></trkpt><trkpt lat="45.59330182782415" lon="11.066071548057376"><ele>836.0000000000001</ele><time>2026-03-23T07:36:10Z</time></trkpt><trkpt lat="45.593359884765974" lon="11.066005352885423"><ele>836.0</ele><time>2026-03-23T07:36:13Z</time></trkpt><trkpt lat="45.5934212247801" lon="11.066034384767367"><ele>836.0</ele><time>2026-03-23T07:36:15Z</time></trkpt><trkpt lat="45.59344604262685" lon="11.066136861654552"><ele>836.0</ele><time>2026-03-23T07:36:17Z</time></trkpt><trkpt lat="45.593452467100064" lon="11.066323862702788"><ele>836.0000000000001</ele><time>2026-03-23T07:36:19Z</time></trkpt><trkpt lat="45.59346405588624" lon="11.06643245085651"><ele>836.0</ele><time>2026-03-23T07:36:20Z</time></trkpt><trkpt lat="45.593478436401135" lon="11.066535758334915"><ele>836.5999999999999</ele><time>2026-03-23T07:36:21Z</time></trkpt><trkpt lat="45.59349217720472" lon="11.066665716743087"><ele>837.2</ele><time>2026-03-23T07:36:22Z</time></trkpt><trkpt lat="45.59351551844556" lon="11.066809567498913"><ele>837.8</ele><time>2026-03-23T07:36:23Z</time></trkpt><trkpt lat="45.59352682469886" lon="11.066963143558764"><ele>838.4000000000001</ele><time>2026-03-23T07:36:24Z</time></trkpt><trkpt lat="45.593533037211884" lon="11.067111577129433"><ele>839.0</ele><time>2026-03-23T07:36:25Z</time></trkpt><trkpt lat="45.59355890596655" lon="11.0672966896823"><ele>840.6666666666667</ele><time>2026-03-23T07:36:27Z</time></trkpt><trkpt lat="45.593609636585214" lon="11.067583852333874"><ele>842.3333333333333</ele><time>2026-03-23T07:36:28Z</time></trkpt><trkpt lat="45.59367863868826" lon="11.067755077386295"><ele>844.0</ele><time>2026-03-23T07:36:29Z</time></trkpt><trkpt lat="45.5937387019314" lon="11.067908249322576"><ele>839.6666666666666</ele><time>2026-03-23T07:36:30Z</time></trkpt><trkpt lat="45.59382200513968" lon="11.06807843365417"><ele>835.3333333333333</ele><time>2026-03-23T07:36:31Z</time></trkpt><trkpt lat="45.59390286152576" lon="11.068261119844102"><ele>831.0</ele><time>2026-03-23T07:36:32Z</time></trkpt><trkpt lat="45.59398400614549" lon="11.068450992622685"><ele>831.0</ele><time>2026-03-23T07:36:33Z</time></trkpt><trkpt lat="45.59406129201892" lon="11.068650858960417"><ele>831.0</ele><time>2026-03-23T07:36:34Z</time></trkpt><trkpt lat="45.5941470506245" lon="11.068851612146016"><ele>831.0</ele><time>2026-03-23T07:36:35Z</time></trkpt><trkpt lat="45.59425633101111" lon="11.069027404788617"><ele>833.0</ele><time>2026-03-23T07:36:36Z</time></trkpt><trkpt lat="45.59438827508652" lon="11.069196020845682"><ele>835.0</ele><time>2026-03-23T07:36:37Z</time></trkpt><trkpt lat="45.59454417233198" lon="11.069336510519799"><ele>837.0</ele><time>2026-03-23T07:36:38Z</time></trkpt><trkpt lat="45.59474152094526" lon="11.069466358485519"><ele>837.0</ele><time>2026-03-23T07:36:39Z</time></trkpt><trkpt lat="45.594974275678645" lon="11.06961392420909"><ele>837.0</ele><time>2026-03-23T07:36:40Z</time></trkpt><trkpt lat="45.5952163528979" lon="11.069764206597222"><ele>839.0</ele><time>2026-03-23T07:36:41Z</time></trkpt><trkpt lat="45.595424186216356" lon="11.069890348574221"><ele>841.0</ele><time>2026-03-23T07:36:42Z</time></trkpt><trkpt lat="45.59561057579054" lon="11.070011932415397"><ele>843.0</ele><time>2026-03-23T07:36:43Z</time></trkpt><trkpt lat="45.59578467099246" lon="11.07013587847217"><ele>843.3333333333333</ele><time>2026-03-23T07:36:44Z</time></trkpt><trkpt lat="45.59594147462154" lon="11.070251745473266"><ele>843.6666666666666</ele><time>2026-03-23T07:36:45Z</time></trkpt><trkpt lat="45.59608708577921" lon="11.070357860606359"><ele>844.0</ele><time>2026-03-23T07:36:46Z</time></trkpt><trkpt lat="45.59622236088889" lon="11.070451866734697"><ele>844.2</ele><time>2026-03-23T07:36:47Z</time></trkpt><trkpt lat="45.596331253985106" lon="11.070556092580109"><ele>844.4000000000001</ele><time>2026-03-23T07:36:48Z</time></trkpt><trkpt lat="45.596408902495334" lon="11.07066280269086"><ele>844.6</ele><time>2026-03-23T07:36:49Z</time></trkpt><trkpt lat="45.5964839129562" lon="11.070716261727712"><ele>844.8</ele><time>2026-03-23T07:36:50Z</time></trkpt><trkpt lat="45.596578498913836" lon="11.070717022537083"><ele>845.0</ele><time>2026-03-23T07:36:51Z</time></trkpt><trkpt lat="45.59666590192455" lon="11.070653884213923"><ele>845.0</ele><time>2026-03-23T07:36:52Z</time></trkpt><trkpt lat="45.59673584543223" lon="11.070541678338813"><ele>845.0</ele><time>2026-03-23T07:36:53Z</time></trkpt><trkpt lat="45.59676648070123" lon="11.070379288836543"><ele>845.0</ele><time>2026-03-23T07:36:54Z</time></trkpt><trkpt lat="45.59678303205469" lon="11.070159033977422"><ele>845.0</ele><time>2026-03-23T07:36:55Z</time></trkpt><trkpt lat="45.59678646075157" lon="11.069924184502819"><ele>845.4</ele><time>2026-03-23T07:36:56Z</time></trkpt><trkpt lat="45.59678357859571" lon="11.069754408526078"><ele>845.8</ele><time>2026-03-23T07:36:57Z</time></trkpt><trkpt lat="45.59679744660284" lon="11.069625886584493"><ele>846.2</ele><time>2026-03-23T07:36:58Z</time></trkpt><trkpt lat="45.596853423771016" lon="11.069533762489472"><ele>846.6</ele><time>2026-03-23T07:36:59Z</time></trkpt><trkpt lat="45.59695516589797" lon="11.069413693078731"><ele>847.0</ele><time>2026-03-23T07:37:00Z</time></trkpt><trkpt lat="45.597069056646866" lon="11.069305581447036"><ele>847.25</ele><time>2026-03-23T07:37:01Z</time></trkpt><trkpt lat="45.59716105479951" lon="11.069234565936764"><ele>847.5</ele><time>2026-03-23T07:37:02Z</time></trkpt><trkpt lat="45.59726169999136" lon="11.069225474285536"><ele>847.75</ele><time>2026-03-23T07:37:03Z</time></trkpt><trkpt lat="45.59737124377695" lon="11.069277229690242"><ele>848.0</ele><time>2026-03-23T07:37:04Z</time></trkpt><trkpt lat="45.597480106324035" lon="11.069382524061027"><ele>848.0</ele><time>2026-03-23T07:37:05Z</time></trkpt><trkpt lat="45.597616633170865" lon="11.069533763082939"><ele>848.0</ele><time>2026-03-23T07:37:06Z</time></trkpt><trkpt lat="45.5977699943952" lon="11.06970948597115"><ele>848.0</ele><time>2026-03-23T07:37:07Z</time></trkpt><trkpt lat="45.597973611116444" lon="11.06991025437098"><ele>852.5</ele><time>2026-03-23T07:37:08Z</time></trkpt><trkpt lat="45.59817424201019" lon="11.070100030619045"><ele>857.0</ele><time>2026-03-23T07:37:09Z</time></trkpt><trkpt lat="45.59835171958811" lon="11.070287472567687"><ele>857.0</ele><time>2026-03-23T07:37:10Z</time></trkpt><trkpt lat="45.59850840476632" lon="11.070451202751183"><ele>857.0</ele><time>2026-03-23T07:37:11Z</time></trkpt><trkpt lat="45.59865105798646" lon="11.070580458450015"><ele>857.0</ele><time>2026-03-23T07:37:12Z</time></trkpt><trkpt lat="45.59879335570252" lon="11.07068484524853"><ele>860.0</ele><time>2026-03-23T07:37:13Z</time></trkpt><trkpt lat="45.59891969572689" lon="11.070764225085524"><ele>863.0</ele><time>2026-03-23T07:37:14Z</time></trkpt><trkpt lat="45.599035691594146" lon="11.070838596492646"><ele>866.0</ele><time>2026-03-23T07:37:15Z</time></trkpt><trkpt lat="45.59911537370456" lon="11.070880624763756"><ele>869.0</ele><time>2026-03-23T07:37:16Z</time></trkpt><trkpt lat="45.599224515026194" lon="11.070818452576527"><ele>870.4000000000001</ele><time>2026-03-23T07:37:18Z</time></trkpt><trkpt lat="45.59925082798995" lon="11.07073582496733"><ele>871.8000000000001</ele><time>2026-03-23T07:37:19Z</time></trkpt><trkpt lat="45.59923378914112" lon="11.070629506609306"><ele>873.1999999999999</ele><time>2026-03-23T07:37:20Z</time></trkpt><trkpt lat="45.59917914824219" lon="11.070510725407322"><ele>874.5999999999999</ele><time>2026-03-23T07:37:21Z</time></trkpt><trkpt lat="45.59908068793409" lon="11.07036306245824"><ele>876.0</ele><time>2026-03-23T07:37:22Z</time></trkpt><trkpt lat="45.59895027845843" lon="11.07017045385166"><ele>876.0</ele><time>2026-03-23T07:37:23Z</time></trkpt><trkpt lat="45.5988194968951" lon="11.069946863809797"><ele>876.0</ele><time>2026-03-23T07:37:24Z</time></trkpt><trkpt lat="45.598727647875315" lon="11.069752341362511"><ele>876.0</ele><time>2026-03-23T07:37:25Z</time></trkpt><trkpt lat="45.59866997832843" lon="11.069587799626218"><ele>873.1999999999999</ele><time>2026-03-23T07:37:26Z</time></trkpt><trkpt lat="45.59863363125917" lon="11.06943403047654"><ele>870.3999999999999</ele><time>2026-03-23T07:37:27Z</time></trkpt><trkpt lat="45.598608379565704" lon="11.069283834360995"><ele>867.6</ele><time>2026-03-23T07:37:28Z</time></trkpt><trkpt lat="45.59859011111101" lon="11.069142999222247"><ele>864.8</ele><time>2026-03-23T07:37:29Z</time></trkpt><trkpt lat="45.59858844525362" lon="11.069044286072813"><ele>862.0</ele><time>2026-03-23T07:37:30Z</time></trkpt><trkpt lat="45.59860469168833" lon="11.06895284721864"><ele>861.8</ele><time>2026-03-23T07:37:31Z</time></trkpt><trkpt lat="45.59864192154686" lon="11.068860971440293"><ele>861.6</ele><time>2026-03-23T07:37:32Z</time></trkpt><trkpt lat="45.59870585275163" lon="11.068762190871702"><ele>861.3999999999999</ele><time>2026-03-23T07:37:33Z</time></trkpt><trkpt lat="45.598794186394784" lon="11.068670807208512"><ele>861.1999999999999</ele><time>2026-03-23T07:37:34Z</time></trkpt><trkpt lat="45.59889205677034" lon="11.06859127903039"><ele>861.0</ele><time>2026-03-23T07:37:35Z</time></trkpt><trkpt lat="45.598996083753995" lon="11.068498841817615"><ele>866.0</ele><time>2026-03-23T07:37:36Z</time></trkpt><trkpt lat="45.599119894444975" lon="11.068393513563512"><ele>871.0</ele><time>2026-03-23T07:37:37Z</time></trkpt><trkpt lat="45.599268215977446" lon="11.068281200460271"><ele>876.0</ele><time>2026-03-23T07:37:38Z</time></trkpt><trkpt lat="45.59944836564738" lon="11.068150388142744"><ele>882.3333333333333</ele><time>2026-03-23T07:37:39Z</time></trkpt><trkpt lat="45.59963041373901" lon="11.068020349235631"><ele>888.6666666666666</ele><time>2026-03-23T07:37:40Z</time></trkpt><trkpt lat="45.5997821150555" lon="11.06792448540039"><ele>895.0</ele><time>2026-03-23T07:37:41Z</time></trkpt><trkpt lat="45.59989209121461" lon="11.067833776643386"><ele>894.9999999999999</ele><time>2026-03-23T07:37:42Z</time></trkpt><trkpt lat="45.59996369829616" lon="11.067752326075194"><ele>895.0</ele><time>2026-03-23T07:37:43Z</time></trkpt><trkpt lat="45.60006861960566" lon="11.067768556418534"><ele>895.0</ele><time>2026-03-23T07:37:45Z</time></trkpt><trkpt lat="45.600098502903464" lon="11.067858204397474"><ele>895.0</ele><time>2026-03-23T07:37:46Z</time></trkpt><trkpt lat="45.600075795013126" lon="11.067942186695007"><ele>894.9999999999999</ele><time>2026-03-23T07:37:47Z</time></trkpt><trkpt lat="45.60001758561277" lon="11.067992198052321"><ele>895.0</ele><time>2026-03-23T07:37:48Z</time></trkpt><trkpt lat="45.59992857478892" lon="11.068013800310977"><ele>895.0</ele><time>2026-03-23T07:37:49Z</time></trkpt><trkpt lat="45.59982880825777" lon="11.068049658270802"><ele>895.0</ele><time>2026-03-23T07:37:50Z</time></trkpt><trkpt lat="45.59972355175177" lon="11.06813074493629"><ele>895.0</ele><time>2026-03-23T07:37:51Z</time></trkpt><trkpt lat="45.5996074907172" lon="11.068274137086576"><ele>895.0</ele><time>2026-03-23T07:37:52Z</time></trkpt><trkpt lat="45.599495634353474" lon="11.068484520340634"><ele>888.6666666666666</ele><time>2026-03-23T07:37:53Z</time></trkpt><trkpt lat="45.599379458357255" lon="11.068723593498104"><ele>882.3333333333333</ele><time>2026-03-23T07:37:54Z</time></trkpt><trkpt lat="45.599272549293616" lon="11.068901203489771"><ele>876.0</ele><time>2026-03-23T07:37:55Z</time></trkpt><trkpt lat="45.59920491455611" lon="11.06900559189071"><ele>876.0</ele><time>2026-03-23T07:37:56Z</time></trkpt><trkpt lat="45.59916677949677" lon="11.069097037689286"><ele>875.9999999999999</ele><time>2026-03-23T07:37:57Z</time></trkpt><trkpt lat="45.59917202262701" lon="11.069203505940463"><ele>875.9999999999999</ele><time>2026-03-23T07:37:58Z</time></trkpt><trkpt lat="45.59922807498745" lon="11.069316588404256"><ele>876.0</ele><time>2026-03-23T07:37:59Z</time></trkpt><trkpt lat="45.59932788657469" lon="11.06943854410176"><ele>876.0</ele><time>2026-03-23T07:38:00Z</time></trkpt><trkpt lat="45.59945523123861" lon="11.069595790173116"><ele>886.0</ele><time>2026-03-23T07:38:01Z</time></trkpt><trkpt lat="45.59959737940779" lon="11.06979115444169"><ele>896.0</ele><time>2026-03-23T07:38:02Z</time></trkpt><trkpt lat="45.59975135101627" lon="11.070010842538801"><ele>906.0</ele><time>2026-03-23T07:38:03Z</time></trkpt><trkpt lat="45.59991937490443" lon="11.070252837299943"><ele>906.0</ele><time>2026-03-23T07:38:04Z</time></trkpt><trkpt lat="45.600082180047" lon="11.07049559388328"><ele>906.0</ele><time>2026-03-23T07:38:05Z</time></trkpt><trkpt lat="45.60021817587019" lon="11.070706850117737"><ele>906.0</ele><time>2026-03-23T07:38:06Z</time></trkpt><trkpt lat="45.60035240632824" lon="11.07088210519789"><ele>910.6666666666667</ele><time>2026-03-23T07:38:07Z</time></trkpt><trkpt lat="45.60050800833183" lon="11.07103435752709"><ele>915.3333333333334</ele><time>2026-03-23T07:38:08Z</time></trkpt><trkpt lat="45.60069156573423" lon="11.071166448715264"><ele>920.0</ele><time>2026-03-23T07:38:09Z</time></trkpt><trkpt lat="45.60089814142735" lon="11.071296378140588"><ele>920.0</ele><time>2026-03-23T07:38:10Z</time></trkpt><trkpt lat="45.6011336299474" lon="11.071415461710595"><ele>920.0</ele><time>2026-03-23T07:38:11Z</time></trkpt><trkpt lat="45.601405155238055" lon="11.071527243768461"><ele>921.0</ele><time>2026-03-23T07:38:12Z</time></trkpt><trkpt lat="45.6016621105883" lon="11.07164212283526"><ele>922.0</ele><time>2026-03-23T07:38:13Z</time></trkpt><trkpt lat="45.60184805095597" lon="11.071748198964983"><ele>923.0</ele><time>2026-03-23T07:38:14Z</time></trkpt><trkpt lat="45.6020121040971" lon="11.071833482723898"><ele>924.0</ele><time>2026-03-23T07:38:15Z</time></trkpt><trkpt lat="45.60215572643478" lon="11.071893052467024"><ele>925.0</ele><time>2026-03-23T07:38:16Z</time></trkpt><trkpt lat="45.60230690832584" lon="11.071923377087835"><ele>925.0</ele><time>2026-03-23T07:38:17Z</time></trkpt><trkpt lat="45.602486386428204" lon="11.071912846932289"><ele>925.0</ele><time>2026-03-23T07:38:18Z</time></trkpt><trkpt lat="45.60270794649617" lon="11.071868899769948"><ele>925.0</ele><time>2026-03-23T07:38:19Z</time></trkpt><trkpt lat="45.60292229471525" lon="11.071848497347547"><ele>927.0</ele><time>2026-03-23T07:38:20Z</time></trkpt><trkpt lat="45.603102777657384" lon="11.071865187258746"><ele>929.0</ele><time>2026-03-23T07:38:21Z</time></trkpt><trkpt lat="45.60326371005456" lon="11.071900204644123"><ele>931.0</ele><time>2026-03-23T07:38:22Z</time></trkpt><trkpt lat="45.60339053025115" lon="11.071967047363955"><ele>930.9999999999999</ele><time>2026-03-23T07:38:23Z</time></trkpt><trkpt lat="45.60346432115836" lon="11.072043036590207"><ele>931.0</ele><time>2026-03-23T07:38:24Z</time></trkpt><trkpt lat="45.60354426820534" lon="11.072042135384075"><ele>931.0</ele><time>2026-03-23T07:38:26Z</time></trkpt><trkpt lat="45.60355922746469" lon="11.071946880041006"><ele>931.0</ele><time>2026-03-23T07:38:27Z</time></trkpt><trkpt lat="45.603523671499914" lon="11.071860102388257"><ele>930.9999999999999</ele><time>2026-03-23T07:38:28Z</time></trkpt><trkpt lat="45.60344475063876" lon="11.071796165754453"><ele>931.0</ele><time>2026-03-23T07:38:29Z</time></trkpt><trkpt lat="45.60331900237597" lon="11.071752230247922"><ele>931.0</ele><time>2026-03-23T07:38:30Z</time></trkpt><trkpt lat="45.60317399238715" lon="11.071718564994518"><ele>931.0</ele><time>2026-03-23T07:38:31Z</time></trkpt><trkpt lat="45.602986054786186" lon="11.071686783655682"><ele>931.0</ele><time>2026-03-23T07:38:32Z</time></trkpt><trkpt lat="45.60276625738243" lon="11.071628163480126"><ele>935.3333333333333</ele><time>2026-03-23T07:38:33Z</time></trkpt><trkpt lat="45.60258463408189" lon="11.07159093364944"><ele>939.6666666666667</ele><time>2026-03-23T07:38:34Z</time></trkpt><trkpt lat="45.60243803499874" lon="11.071560189563685"><ele>944.0</ele><time>2026-03-23T07:38:35Z</time></trkpt><trkpt lat="45.60231647342546" lon="11.0715142960169"><ele>944.0</ele><time>2026-03-23T07:38:36Z</time></trkpt><trkpt lat="45.60219426540647" lon="11.07143996759807"><ele>944.0</ele><time>2026-03-23T07:38:37Z</time></trkpt><trkpt lat="45.60203023322881" lon="11.071317178337715"><ele>944.0</ele><time>2026-03-23T07:38:38Z</time></trkpt><trkpt lat="45.601837611785925" lon="11.071139112748222"><ele>944.3333333333334</ele><time>2026-03-23T07:38:39Z</time></trkpt><trkpt lat="45.601632380375506" lon="11.070943958837137"><ele>944.6666666666667</ele><time>2026-03-23T07:38:40Z</time></trkpt><trkpt lat="45.601480063927895" lon="11.070787201436671"><ele>945.0</ele><time>2026-03-23T07:38:41Z</time></trkpt><trkpt lat="45.601342644255105" lon="11.070608535658916"><ele>945.0</ele><time>2026-03-23T07:38:42Z</time></trkpt><trkpt lat="45.60122011725873" lon="11.070411616775027"><ele>945.0</ele><time>2026-03-23T07:38:43Z</time></trkpt><trkpt lat="45.6011217451525" lon="11.07026367909308"><ele>945.0</ele><time>2026-03-23T07:38:44Z</time></trkpt><trkpt lat="45.60106656334613" lon="11.070155929010513"><ele>945.0</ele><time>2026-03-23T07:38:45Z</time></trkpt><trkpt lat="45.601040287278536" lon="11.07005007860629"><ele>942.8</ele><time>2026-03-23T07:38:46Z</time></trkpt><trkpt lat="45.60107005982044" lon="11.069937935054934"><ele>940.6</ele><time>2026-03-23T07:38:47Z</time></trkpt><trkpt lat="45.60114069285248" lon="11.069863618283513"><ele>938.4000000000001</ele><time>2026-03-23T07:38:48Z</time></trkpt><trkpt lat="45.60125401891662" lon="11.069833128294427"><ele>936.2</ele><time>2026-03-23T07:38:49Z</time></trkpt><trkpt lat="45.60140106967395" lon="11.069853690515494"><ele>934.0</ele><time>2026-03-23T07:38:50Z</time></trkpt><trkpt lat="45.601564623041725" lon="11.069927167143751"><ele>937.6666666666666</ele><time>2026-03-23T07:38:51Z</time></trkpt><trkpt lat="45.601750610931866" lon="11.070023674519962"><ele>941.3333333333333</ele><time>2026-03-23T07:38:52Z</time></trkpt><trkpt lat="45.60195184898069" lon="11.070087485347404"><ele>945.0</ele><time>2026-03-23T07:38:53Z</time></trkpt><trkpt lat="45.602179495368304" lon="11.070113250960524"><ele>948.5</ele><time>2026-03-23T07:38:54Z</time></trkpt><trkpt lat="45.60243633679537" lon="11.070117304007193"><ele>952.0</ele><time>2026-03-23T07:38:55Z</time></trkpt><trkpt lat="45.602714649316724" lon="11.070098393255728"><ele>955.5</ele><time>2026-03-23T07:38:56Z</time></trkpt><trkpt lat="45.603025726038524" lon="11.070061872092493"><ele>959.0</ele><time>2026-03-23T07:38:57Z</time></trkpt><trkpt lat="45.603313974801274" lon="11.070037581194136"><ele>959.0</ele><time>2026-03-23T07:38:58Z</time></trkpt><trkpt lat="45.60355102505225" lon="11.070024733926887"><ele>959.0</ele><time>2026-03-23T07:38:59Z</time></trkpt><trkpt lat="45.60378606957243" lon="11.070018841010652"><ele>964.0</ele><time>2026-03-23T07:39:00Z</time></trkpt><trkpt lat="45.60401829357638" lon="11.070007726399524"><ele>969.0</ele><time>2026-03-23T07:39:01Z</time></trkpt><trkpt lat="45.60428331313593" lon="11.070003863667216"><ele>973.0</ele><time>2026-03-23T07:39:02Z</time></trkpt><trkpt lat="45.60455765435805" lon="11.070016902252124"><ele>977.0</ele><time>2026-03-23T07:39:03Z</time></trkpt><trkpt lat="45.60480060800998" lon="11.070037811277157"><ele>977.0</ele><time>2026-03-23T07:39:04Z</time></trkpt><trkpt lat="45.605011004024455" lon="11.070058564809651"><ele>977.0</ele><time>2026-03-23T07:39:05Z</time></trkpt><trkpt lat="45.60521369233151" lon="11.070078746309893"><ele>977.0</ele><time>2026-03-23T07:39:06Z</time></trkpt><trkpt lat="45.60542297576665" lon="11.070103910783702"><ele>978.5</ele><time>2026-03-23T07:39:07Z</time></trkpt><trkpt lat="45.6056508537382" lon="11.070162277151349"><ele>980.0</ele><time>2026-03-23T07:39:08Z</time></trkpt><trkpt lat="45.60587149528899" lon="11.070244878117851"><ele>980.0</ele><time>2026-03-23T07:39:09Z</time></trkpt><trkpt lat="45.60605891276564" lon="11.070327252420624"><ele>980.0</ele><time>2026-03-23T07:39:10Z</time></trkpt><trkpt lat="45.60622671357209" lon="11.070406632770927"><ele>980.0</ele><time>2026-03-23T07:39:11Z</time></trkpt><trkpt lat="45.606394435490884" lon="11.070496620542713"><ele>978.0</ele><time>2026-03-23T07:39:12Z</time></trkpt><trkpt lat="45.60656535906693" lon="11.070627361756697"><ele>976.0</ele><time>2026-03-23T07:39:13Z</time></trkpt><trkpt lat="45.60674662535748" lon="11.07081118545232"><ele>974.0</ele><time>2026-03-23T07:39:14Z</time></trkpt><trkpt lat="45.6069335510611" lon="11.070983356277132"><ele>978.3333333333334</ele><time>2026-03-23T07:39:15Z</time></trkpt><trkpt lat="45.607105155979525" lon="11.071127024246412"><ele>982.6666666666667</ele><time>2026-03-23T07:39:16Z</time></trkpt><trkpt lat="45.60724189280832" lon="11.071258210068175"><ele>987.0</ele><time>2026-03-23T07:39:17Z</time></trkpt><trkpt lat="45.60735708600074" lon="11.071425918681491"><ele>991.6666666666667</ele><time>2026-03-23T07:39:18Z</time></trkpt><trkpt lat="45.607501426146094" lon="11.071620579008089"><ele>996.3333333333334</ele><time>2026-03-23T07:39:19Z</time></trkpt><trkpt lat="45.60763847146225" lon="11.071814882063356"><ele>1001.0</ele><time>2026-03-23T07:39:20Z</time></trkpt><trkpt lat="45.60775072807218" lon="11.071984103016257"><ele>1000.0</ele><time>2026-03-23T07:39:21Z</time></trkpt><trkpt lat="45.60785372386727" lon="11.072124841527279"><ele>999.0</ele><time>2026-03-23T07:39:22Z</time></trkpt><trkpt lat="45.60795636657507" lon="11.072230471565131"><ele>998.0</ele><time>2026-03-23T07:39:23Z</time></trkpt><trkpt lat="45.608078459339126" lon="11.0723176429367"><ele>997.0</ele><time>2026-03-23T07:39:24Z</time></trkpt><trkpt lat="45.60821939758239" lon="11.07236187599306"><ele>997.0</ele><time>2026-03-23T07:39:25Z</time></trkpt><trkpt lat="45.60837438538012" lon="11.072355911407353"><ele>997.0</ele><time>2026-03-23T07:39:26Z</time></trkpt><trkpt lat="45.60855493294089" lon="11.072308521816142"><ele>997.0</ele><time>2026-03-23T07:39:27Z</time></trkpt><trkpt lat="45.608749552023625" lon="11.072275104660878"><ele>1000.3333333333333</ele><time>2026-03-23T07:39:28Z</time></trkpt><trkpt lat="45.60890667615175" lon="11.07225229315595"><ele>1003.6666666666667</ele><time>2026-03-23T07:39:29Z</time></trkpt><trkpt lat="45.609059586496734" lon="11.072228900833576"><ele>1007.0</ele><time>2026-03-23T07:39:30Z</time></trkpt><trkpt lat="45.60920164394615" lon="11.072209145670566"><ele>1007.0</ele><time>2026-03-23T07:39:31Z</time></trkpt><trkpt lat="45.60933955839147" lon="11.0721912616808"><ele>1007.0</ele><time>2026-03-23T07:39:32Z</time></trkpt><trkpt lat="45.60947020880888" lon="11.07217712464176"><ele>1007.0</ele><time>2026-03-23T07:39:33Z</time></trkpt><trkpt lat="45.60959744592034" lon="11.072174131100201"><ele>1007.0</ele><time>2026-03-23T07:39:34Z</time></trkpt><trkpt lat="45.609723404632774" lon="11.072170800268875"><ele>1006.25</ele><time>2026-03-23T07:39:35Z</time></trkpt><trkpt lat="45.60986255266813" lon="11.072165546036555"><ele>1005.5</ele><time>2026-03-23T07:39:36Z</time></trkpt><trkpt lat="45.61000458049741" lon="11.072162974434878"><ele>1004.75</ele><time>2026-03-23T07:39:37Z</time></trkpt><trkpt lat="45.61014882700915" lon="11.072156941207728"><ele>1004.0</ele><time>2026-03-23T07:39:38Z</time></trkpt><trkpt lat="45.61029462361349" lon="11.07214609089701"><ele>1002.0</ele><time>2026-03-23T07:39:39Z</time></trkpt><trkpt lat="45.61042685932979" lon="11.072143078346244"><ele>1000.0</ele><time>2026-03-23T07:39:40Z</time></trkpt><trkpt lat="45.61055865201854" lon="11.072132655655693"><ele>998.0</ele><time>2026-03-23T07:39:41Z</time></trkpt><trkpt lat="45.61070119320379" lon="11.072120486592357"><ele>996.0</ele><time>2026-03-23T07:39:42Z</time></trkpt><trkpt lat="45.610851484641906" lon="11.072104102728995"><ele>996.0</ele><time>2026-03-23T07:39:43Z</time></trkpt><trkpt lat="45.610993879918404" lon="11.072087810380966"><ele>996.0</ele><time>2026-03-23T07:39:44Z</time></trkpt><trkpt lat="45.61112795149841" lon="11.072073291254458"><ele>996.0</ele><time>2026-03-23T07:39:45Z</time></trkpt><trkpt lat="45.611256918904274" lon="11.072065528722318"><ele>996.0</ele><time>2026-03-23T07:39:46Z</time></trkpt><trkpt lat="45.611383246970234" lon="11.072060425675877"><ele>993.75</ele><time>2026-03-23T07:39:47Z</time></trkpt><trkpt lat="45.61151584134835" lon="11.072042752435733"><ele>991.5</ele><time>2026-03-23T07:39:48Z</time></trkpt><trkpt lat="45.61165323078644" lon="11.07202486049745"><ele>989.25</ele><time>2026-03-23T07:39:49Z</time></trkpt><trkpt lat="45.611786816585806" lon="11.072016499554756"><ele>987.0</ele><time>2026-03-23T07:39:50Z</time></trkpt><trkpt lat="45.611919918968454" lon="11.072002706481863"><ele>984.5</ele><time>2026-03-23T07:39:51Z</time></trkpt><trkpt lat="45.61206394565584" lon="11.071982063899762"><ele>982.0</ele><time>2026-03-23T07:39:52Z</time></trkpt><trkpt lat="45.612215748797546" lon="11.07196645957531"><ele>979.5</ele><time>2026-03-23T07:39:53Z</time></trkpt><trkpt lat="45.612367189591154" lon="11.071958567207838"><ele>977.0</ele><time>2026-03-23T07:39:54Z</time></trkpt><trkpt lat="45.61250785919407" lon="11.071948702965543"><ele>977.0</ele><time>2026-03-23T07:39:55Z</time></trkpt><trkpt lat="45.612645249788464" lon="11.071933083809803"><ele>977.0</ele><time>2026-03-23T07:39:56Z</time></trkpt><trkpt lat="45.612777576794805" lon="11.071899917228793"><ele>977.0</ele><time>2026-03-23T07:39:57Z</time></trkpt><trkpt lat="45.61290899683858" lon="11.071828336887144"><ele>977.0</ele><time>2026-03-23T07:39:58Z</time></trkpt><trkpt lat="45.61303458279008" lon="11.071712172900943"><ele>979.25</ele><time>2026-03-23T07:39:59Z</time></trkpt><trkpt lat="45.61312803502201" lon="11.07155557609248"><ele>981.5</ele><time>2026-03-23T07:40:00Z</time></trkpt><trkpt lat="45.613212063669295" lon="11.071385405959683"><ele>983.75</ele><time>2026-03-23T07:40:01Z</time></trkpt><trkpt lat="45.61330227253812" lon="11.07121809702606"><ele>986.0</ele><time>2026-03-23T07:40:02Z</time></trkpt><trkpt lat="45.613396394727985" lon="11.071073779140368"><ele>986.0</ele><time>2026-03-23T07:40:03Z</time></trkpt><trkpt lat="45.6134771219092" lon="11.070954131725296"><ele>985.9999999999999</ele><time>2026-03-23T07:40:04Z</time></trkpt><trkpt lat="45.61355164933204" lon="11.07084643062435"><ele>985.9999999999999</ele><time>2026-03-23T07:40:05Z</time></trkpt><trkpt lat="45.61362032367209" lon="11.070753302292921"><ele>986.0</ele><time>2026-03-23T07:40:06Z</time></trkpt><trkpt lat="45.61369169861392" lon="11.070689037194942"><ele>986.0</ele><time>2026-03-23T07:40:07Z</time></trkpt><trkpt lat="45.61377408902711" lon="11.070659284082405"><ele>984.25</ele><time>2026-03-23T07:40:08Z</time></trkpt><trkpt lat="45.61387907018826" lon="11.070687578596155"><ele>982.5</ele><time>2026-03-23T07:40:09Z</time></trkpt><trkpt lat="45.61401194448547" lon="11.070747058870971"><ele>980.75</ele><time>2026-03-23T07:40:10Z</time></trkpt><trkpt lat="45.61414054386871" lon="11.07080035800578"><ele>979.0</ele><time>2026-03-23T07:40:11Z</time></trkpt><trkpt lat="45.614261152574336" lon="11.070840549590237"><ele>979.0</ele><time>2026-03-23T07:40:12Z</time></trkpt><trkpt lat="45.61437552674738" lon="11.070879812361254"><ele>979.0</ele><time>2026-03-23T07:40:13Z</time></trkpt><trkpt lat="45.61449306437113" lon="11.070910298122524"><ele>979.0</ele><time>2026-03-23T07:40:14Z</time></trkpt><trkpt lat="45.614613642502064" lon="11.0709160040089"><ele>979.0</ele><time>2026-03-23T07:40:15Z</time></trkpt><trkpt lat="45.61473429279411" lon="11.07092320370054"><ele>976.75</ele><time>2026-03-23T07:40:16Z</time></trkpt><trkpt lat="45.61485715908352" lon="11.070894611422155"><ele>974.5</ele><time>2026-03-23T07:40:17Z</time></trkpt><trkpt lat="45.61498754080726" lon="11.070828732192345"><ele>972.25</ele><time>2026-03-23T07:40:18Z</time></trkpt><trkpt lat="45.61510454190922" lon="11.070745362949996"><ele>970.0</ele><time>2026-03-23T07:40:19Z</time></trkpt><trkpt lat="45.615205388387785" lon="11.070663585822025"><ele>968.6</ele><time>2026-03-23T07:40:20Z</time></trkpt><trkpt lat="45.615270003825536" lon="11.070640507497483"><ele>967.2</ele><time>2026-03-23T07:40:21Z</time></trkpt><trkpt lat="45.61535231522714" lon="11.070670760647543"><ele>965.8</ele><time>2026-03-23T07:40:22Z</time></trkpt><trkpt lat="45.615458032890174" lon="11.070745626208078"><ele>964.4</ele><time>2026-03-23T07:40:23Z</time></trkpt><trkpt lat="45.61557316531614" lon="11.070848822403747"><ele>963.0</ele><time>2026-03-23T07:40:24Z</time></trkpt><trkpt lat="45.61566745356828" lon="11.070977697982473"><ele>963.0</ele><time>2026-03-23T07:40:25Z</time></trkpt><trkpt lat="45.61573502234587" lon="11.071111536922094"><ele>963.0</ele><time>2026-03-23T07:40:26Z</time></trkpt><trkpt lat="45.615790036272436" lon="11.071292100129599"><ele>963.0</ele><time>2026-03-23T07:40:27Z</time></trkpt><trkpt lat="45.61586283000467" lon="11.071511012472124"><ele>963.0</ele><time>2026-03-23T07:40:28Z</time></trkpt><trkpt lat="45.61595541648912" lon="11.071723740551379"><ele>965.0</ele><time>2026-03-23T07:40:29Z</time></trkpt><trkpt lat="45.61605504352234" lon="11.071894129821153"><ele>967.0</ele><time>2026-03-23T07:40:30Z</time></trkpt><trkpt lat="45.61614703320789" lon="11.072029668526902"><ele>969.0</ele><time>2026-03-23T07:40:31Z</time></trkpt><trkpt lat="45.61622017912449" lon="11.072122887540797"><ele>971.0</ele><time>2026-03-23T07:40:32Z</time></trkpt><trkpt lat="45.61630357116537" lon="11.07216855263924"><ele>973.8</ele><time>2026-03-23T07:40:33Z</time></trkpt><trkpt lat="45.61639628288577" lon="11.072171287714744"><ele>976.5999999999999</ele><time>2026-03-23T07:40:34Z</time></trkpt><trkpt lat="45.616469338759494" lon="11.072104220996039"><ele>979.4</ele><time>2026-03-23T07:40:35Z</time></trkpt><trkpt lat="45.616522571741285" lon="11.071988206154552"><ele>982.2</ele><time>2026-03-23T07:40:36Z</time></trkpt><trkpt lat="45.61655863168223" lon="11.07181837719093"><ele>985.0</ele><time>2026-03-23T07:40:37Z</time></trkpt><trkpt lat="45.616584030621546" lon="11.071612715317556"><ele>984.0</ele><time>2026-03-23T07:40:38Z</time></trkpt><trkpt lat="45.616607780092586" lon="11.071409117793914"><ele>983.0</ele><time>2026-03-23T07:40:39Z</time></trkpt><trkpt lat="45.616607701282504" lon="11.071249054230316"><ele>982.0</ele><time>2026-03-23T07:40:40Z</time></trkpt><trkpt lat="45.616578942078505" lon="11.071132925056492"><ele>981.0</ele><time>2026-03-23T07:40:41Z</time></trkpt><trkpt lat="45.61656230465097" lon="11.071024179137298"><ele>980.0</ele><time>2026-03-23T07:40:42Z</time></trkpt><trkpt lat="45.61660763442528" lon="11.070908450301367"><ele>980.0</ele><time>2026-03-23T07:40:44Z</time></trkpt><trkpt lat="45.616701443477524" lon="11.070953444048332"><ele>980.0</ele><time>2026-03-23T07:40:46Z</time></trkpt><trkpt lat="45.61671654534366" lon="11.071048727585683"><ele>980.0</ele><time>2026-03-23T07:40:47Z</time></trkpt><trkpt lat="45.61671270302223" lon="11.071168032867684"><ele>980.0</ele><time>2026-03-23T07:40:48Z</time></trkpt><trkpt lat="45.616722779974275" lon="11.071318543554348"><ele>980.0</ele><time>2026-03-23T07:40:49Z</time></trkpt><trkpt lat="45.616763516092476" lon="11.071511253114485"><ele>981.6666666666667</ele><time>2026-03-23T07:40:50Z</time></trkpt><trkpt lat="45.61682412928054" lon="11.071726381197427"><ele>983.3333333333333</ele><time>2026-03-23T07:40:51Z</time></trkpt><trkpt lat="45.616908840117745" lon="11.071934896985672"><ele>985.0</ele><time>2026-03-23T07:40:52Z</time></trkpt><trkpt lat="45.61698143843335" lon="11.072104277508066"><ele>984.25</ele><time>2026-03-23T07:40:53Z</time></trkpt><trkpt lat="45.6170060082609" lon="11.072282791167451"><ele>983.5</ele><time>2026-03-23T07:40:54Z</time></trkpt><trkpt lat="45.616979021853574" lon="11.072472059285072"><ele>982.75</ele><time>2026-03-23T07:40:55Z</time></trkpt><trkpt lat="45.616916221375384" lon="11.072644164997033"><ele>982.0</ele><time>2026-03-23T07:40:56Z</time></trkpt><trkpt lat="45.61681807060303" lon="11.072800315014181"><ele>982.0</ele><time>2026-03-23T07:40:57Z</time></trkpt><trkpt lat="45.61673084398277" lon="11.07294647349989"><ele>982.0</ele><time>2026-03-23T07:40:58Z</time></trkpt><trkpt lat="45.61667911572785" lon="11.0731043802686"><ele>982.0</ele><time>2026-03-23T07:40:59Z</time></trkpt><trkpt lat="45.6166612561136" lon="11.073290259348646"><ele>982.0</ele><time>2026-03-23T07:41:00Z</time></trkpt><trkpt lat="45.616691229451966" lon="11.073471258179707"><ele>982.9999999999999</ele><time>2026-03-23T07:41:01Z</time></trkpt><trkpt lat="45.61675083905403" lon="11.07359866165"><ele>984.0</ele><time>2026-03-23T07:41:02Z</time></trkpt><trkpt lat="45.61681875466848" lon="11.073639691390811"><ele>985.0</ele><time>2026-03-23T07:41:03Z</time></trkpt><trkpt lat="45.616885755832655" lon="11.07362103924663"><ele>986.0</ele><time>2026-03-23T07:41:04Z</time></trkpt><trkpt lat="45.61694873425978" lon="11.073535048158234"><ele>986.9999999999999</ele><time>2026-03-23T07:41:05Z</time></trkpt><trkpt lat="45.617003178839674" lon="11.073394572994562"><ele>988.0</ele><time>2026-03-23T07:41:06Z</time></trkpt><trkpt lat="45.61706299264501" lon="11.073221052012263"><ele>995.0</ele><time>2026-03-23T07:41:07Z</time></trkpt><trkpt lat="45.61715939602997" lon="11.073028779310235"><ele>1002.0</ele><time>2026-03-23T07:41:08Z</time></trkpt><trkpt lat="45.617273008874754" lon="11.072834358176374"><ele>1009.0</ele><time>2026-03-23T07:41:09Z</time></trkpt><trkpt lat="45.61739246926773" lon="11.072650323598404"><ele>1009.0</ele><time>2026-03-23T07:41:10Z</time></trkpt><trkpt lat="45.61749271932099" lon="11.072484276424124"><ele>1009.0</ele><time>2026-03-23T07:41:11Z</time></trkpt><trkpt lat="45.61756860749519" lon="11.07233871906137"><ele>1009.0</ele><time>2026-03-23T07:41:12Z</time></trkpt><trkpt lat="45.617605892870024" lon="11.072209168776016"><ele>1009.0</ele><time>2026-03-23T07:41:13Z</time></trkpt><trkpt lat="45.617600826821224" lon="11.072060220426948"><ele>1010.3333333333333</ele><time>2026-03-23T07:41:14Z</time></trkpt><trkpt lat="45.61754283415035" lon="11.071894391809929"><ele>1011.6666666666667</ele><time>2026-03-23T07:41:15Z</time></trkpt><trkpt lat="45.617451070904515" lon="11.071720711182484"><ele>1013.0</ele><time>2026-03-23T07:41:16Z</time></trkpt><trkpt lat="45.61734050994908" lon="11.07153562970853"><ele>1013.0</ele><time>2026-03-23T07:41:17Z</time></trkpt><trkpt lat="45.61725646563985" lon="11.071398898501517"><ele>1013.0</ele><time>2026-03-23T07:41:18Z</time></trkpt><trkpt lat="45.61721553638002" lon="11.071279721738009"><ele>1013.0</ele><time>2026-03-23T07:41:19Z</time></trkpt><trkpt lat="45.61722727930088" lon="11.071189690210291"><ele>1013.0</ele><time>2026-03-23T07:41:20Z</time></trkpt><trkpt lat="45.617333367327085" lon="11.071123958285515"><ele>1013.0</ele><time>2026-03-23T07:41:22Z</time></trkpt><trkpt lat="45.617386111454756" lon="11.071185765378244"><ele>1013.0</ele><time>2026-03-23T07:41:23Z</time></trkpt><trkpt lat="45.61741697239803" lon="11.071286003960925"><ele>1013.0</ele><time>2026-03-23T07:41:24Z</time></trkpt><trkpt lat="45.617452090165344" lon="11.071417658816957"><ele>1013.0</ele><time>2026-03-23T07:41:25Z</time></trkpt><trkpt lat="45.61752887862091" lon="11.07155829700351"><ele>1013.0</ele><time>2026-03-23T07:41:26Z</time></trkpt><trkpt lat="45.61762993412248" lon="11.071671144827064"><ele>1013.0</ele><time>2026-03-23T07:41:27Z</time></trkpt><trkpt lat="45.61772963890935" lon="11.07173676295831"><ele>1021.6666666666667</ele><time>2026-03-23T07:41:28Z</time></trkpt><trkpt lat="45.6178563824026" lon="11.071762546730554"><ele>1030.3333333333333</ele><time>2026-03-23T07:41:29Z</time></trkpt><trkpt lat="45.61801294014358" lon="11.071800377460148"><ele>1039.0</ele><time>2026-03-23T07:41:30Z</time></trkpt><trkpt lat="45.61818397296933" lon="11.071868138274956"><ele>1039.0</ele><time>2026-03-23T07:41:31Z</time></trkpt><trkpt lat="45.618343958988866" lon="11.071929959578549"><ele>1039.0</ele><time>2026-03-23T07:41:32Z</time></trkpt><trkpt lat="45.61849987872088" lon="11.071987971453376"><ele>1039.0</ele><time>2026-03-23T07:41:33Z</time></trkpt><trkpt lat="45.61862479341589" lon="11.072016871968676"><ele>1039.25</ele><time>2026-03-23T07:41:34Z</time></trkpt><trkpt lat="45.61872257135675" lon="11.072012459864208"><ele>1039.5</ele><time>2026-03-23T07:41:35Z</time></trkpt><trkpt lat="45.61882777750835" lon="11.071958705859853"><ele>1039.75</ele><time>2026-03-23T07:41:36Z</time></trkpt><trkpt lat="45.61893446021938" lon="11.071863545174768"><ele>1040.0</ele><time>2026-03-23T07:41:37Z</time></trkpt><trkpt lat="45.61905817074253" lon="11.071769397370673"><ele>1040.0</ele><time>2026-03-23T07:41:38Z</time></trkpt><trkpt lat="45.619200899651446" lon="11.071729081625122"><ele>1040.0</ele><time>2026-03-23T07:41:39Z</time></trkpt><trkpt lat="45.61935583786504" lon="11.071725568682417"><ele>1040.0</ele><time>2026-03-23T07:41:40Z</time></trkpt><trkpt lat="45.619508696230696" lon="11.07175968209118"><ele>1037.0</ele><time>2026-03-23T07:41:41Z</time></trkpt><trkpt lat="45.619654982700986" lon="11.071806515089312"><ele>1034.0</ele><time>2026-03-23T07:41:42Z</time></trkpt><trkpt lat="45.61978736361161" lon="11.071844414102356"><ele>1031.0</ele><time>2026-03-23T07:41:43Z</time></trkpt><trkpt lat="45.619903014535645" lon="11.071886053985114"><ele>1028.0</ele><time>2026-03-23T07:41:44Z</time></trkpt><trkpt lat="45.62003253051264" lon="11.071965040519897"><ele>1028.0</ele><time>2026-03-23T07:41:45Z</time></trkpt><trkpt lat="45.620170371052915" lon="11.072079172632385"><ele>1028.0</ele><time>2026-03-23T07:41:46Z</time></trkpt><trkpt lat="45.620330135752695" lon="11.07216785212932"><ele>1028.0</ele><time>2026-03-23T07:41:47Z</time></trkpt><trkpt lat="45.62049947603863" lon="11.072217922007296"><ele>1026.25</ele><time>2026-03-23T07:41:48Z</time></trkpt><trkpt lat="45.620659663273216" lon="11.072246381925815"><ele>1024.5</ele><time>2026-03-23T07:41:49Z</time></trkpt><trkpt lat="45.62080912318864" lon="11.072245726811076"><ele>1022.75</ele><time>2026-03-23T07:41:50Z</time></trkpt><trkpt lat="45.62093732649814" lon="11.072219007250512"><ele>1021.0</ele><time>2026-03-23T07:41:51Z</time></trkpt><trkpt lat="45.62103349854427" lon="11.072203529165318"><ele>1021.0</ele><time>2026-03-23T07:41:52Z</time></trkpt><trkpt lat="45.621135371005074" lon="11.07224076007684"><ele>1021.0</ele><time>2026-03-23T07:41:53Z</time></trkpt><trkpt lat="45.62124754492798" lon="11.072314041966726"><ele>1021.0</ele><time>2026-03-23T07:41:54Z</time></trkpt><trkpt lat="45.62137591211175" lon="11.072408501372017"><ele>1021.0</ele><time>2026-03-23T07:41:55Z</time></trkpt><trkpt lat="45.62152126663408" lon="11.07245733754675"><ele>1021.0</ele><time>2026-03-23T07:41:56Z</time></trkpt><trkpt lat="45.621658317376195" lon="11.07243005114188"><ele>1021.0</ele><time>2026-03-23T07:41:57Z</time></trkpt><trkpt lat="45.62178954623337" lon="11.072362498272176"><ele>1021.0</ele><time>2026-03-23T07:41:58Z</time></trkpt><trkpt lat="45.621911363702736" lon="11.072241506777965"><ele>1021.0</ele><time>2026-03-23T07:41:59Z</time></trkpt><trkpt lat="45.62206112006605" lon="11.072068245046397"><ele>1025.0</ele><time>2026-03-23T07:42:00Z</time></trkpt><trkpt lat="45.62222896541618" lon="11.071881476203032"><ele>1029.0</ele><time>2026-03-23T07:42:01Z</time></trkpt><trkpt lat="45.622369938353046" lon="11.071750416411813"><ele>1033.0</ele><time>2026-03-23T07:42:02Z</time></trkpt><trkpt lat="45.622495852872255" lon="11.07165577025501"><ele>1034.0</ele><time>2026-03-23T07:42:03Z</time></trkpt><trkpt lat="45.622626063571154" lon="11.071569512415751"><ele>1035.0</ele><time>2026-03-23T07:42:04Z</time></trkpt><trkpt lat="45.62275268677909" lon="11.071484605871632"><ele>1036.0</ele><time>2026-03-23T07:42:05Z</time></trkpt><trkpt lat="45.62283443014382" lon="11.071423791679914"><ele>1037.0</ele><time>2026-03-23T07:42:06Z</time></trkpt><trkpt lat="45.622884237682904" lon="11.071338222605462"><ele>1037.25</ele><time>2026-03-23T07:42:07Z</time></trkpt><trkpt lat="45.62290869270202" lon="11.071202024261282"><ele>1037.5</ele><time>2026-03-23T07:42:08Z</time></trkpt><trkpt lat="45.62289023772342" lon="11.071054503550025"><ele>1037.75</ele><time>2026-03-23T07:42:09Z</time></trkpt><trkpt lat="45.62282228043789" lon="11.070897692967721"><ele>1038.0</ele><time>2026-03-23T07:42:10Z</time></trkpt><trkpt lat="45.622730284404334" lon="11.070730610925944"><ele>1038.0</ele><time>2026-03-23T07:42:11Z</time></trkpt><trkpt lat="45.62261031063501" lon="11.07054545065322"><ele>1038.0</ele><time>2026-03-23T07:42:12Z</time></trkpt><trkpt lat="45.62251534804791" lon="11.070393707505783"><ele>1038.0</ele><time>2026-03-23T07:42:13Z</time></trkpt><trkpt lat="45.62244984084749" lon="11.070264102367902"><ele>1038.0</ele><time>2026-03-23T07:42:14Z</time></trkpt><trkpt lat="45.622412901272206" lon="11.070156367937287"><ele>1038.0</ele><time>2026-03-23T07:42:15Z</time></trkpt><trkpt lat="45.62241759397455" lon="11.070052926620255"><ele>1038.0</ele><time>2026-03-23T07:42:16Z</time></trkpt><trkpt lat="45.62246217137622" lon="11.069975039626849"><ele>1038.0</ele><time>2026-03-23T07:42:17Z</time></trkpt><trkpt lat="45.62254114231852" lon="11.069936204514146"><ele>1038.0</ele><time>2026-03-23T07:42:18Z</time></trkpt><trkpt lat="45.62265276277855" lon="11.069924341497991"><ele>1038.0</ele><time>2026-03-23T07:42:19Z</time></trkpt><trkpt lat="45.62279316145928" lon="11.06991934749809"><ele>1039.4</ele><time>2026-03-23T07:42:20Z</time></trkpt><trkpt lat="45.62293370152315" lon="11.069876660718192"><ele>1040.8</ele><time>2026-03-23T07:42:21Z</time></trkpt><trkpt lat="45.62304152957529" lon="11.069794586191598"><ele>1042.2</ele><time>2026-03-23T07:42:22Z</time></trkpt><trkpt lat="45.62312084270254" lon="11.069694699637884"><ele>1043.6</ele><time>2026-03-23T07:42:23Z</time></trkpt><trkpt lat="45.62317875176078" lon="11.0696299737674"><ele>1045.0</ele><time>2026-03-23T07:42:24Z</time></trkpt><trkpt lat="45.62325484414178" lon="11.069754765220399"><ele>1045.0</ele><time>2026-03-23T07:42:26Z</time></trkpt><trkpt lat="45.62316663318923" lon="11.069884145199667"><ele>1045.0</ele><time>2026-03-23T07:42:28Z</time></trkpt><trkpt lat="45.62308103043265" lon="11.069916489142352"><ele>1045.0</ele><time>2026-03-23T07:42:29Z</time></trkpt><trkpt lat="45.62297136992389" lon="11.069952807004476"><ele>1045.0</ele><time>2026-03-23T07:42:30Z</time></trkpt><trkpt lat="45.62287916415108" lon="11.07001093616184"><ele>1045.0</ele><time>2026-03-23T07:42:31Z</time></trkpt><trkpt lat="45.62285361541621" lon="11.070099173049808"><ele>1047.0</ele><time>2026-03-23T07:42:32Z</time></trkpt><trkpt lat="45.622903055121746" lon="11.070263665594052"><ele>1049.0</ele><time>2026-03-23T07:42:34Z</time></trkpt><trkpt lat="45.622976948303126" lon="11.0703086807817"><ele>1051.0</ele><time>2026-03-23T07:42:35Z</time></trkpt><trkpt lat="45.62307105281304" lon="11.070340918473589"><ele>1053.0</ele><time>2026-03-23T07:42:36Z</time></trkpt><trkpt lat="45.623186622183056" lon="11.070373080885114"><ele>1055.0</ele><time>2026-03-23T07:42:37Z</time></trkpt><trkpt lat="45.62332675534757" lon="11.07043282514351"><ele>1055.0</ele><time>2026-03-23T07:42:38Z</time></trkpt><trkpt lat="45.623404908332" lon="11.070472970928552"><ele>1055.0</ele><time>2026-03-23T07:42:39Z</time></trkpt><trkpt lat="45.6234660651198" lon="11.07052830257226"><ele>1055.0</ele><time>2026-03-23T07:42:40Z</time></trkpt><trkpt lat="45.62348873320795" lon="11.070612943498231"><ele>1055.0</ele><time>2026-03-23T07:42:41Z</time></trkpt><trkpt lat="45.623481223249755" lon="11.07073264476614"><ele>1055.0</ele><time>2026-03-23T07:42:42Z</time></trkpt><trkpt lat="45.62348603715706" lon="11.070869475393026"><ele>1055.0</ele><time>2026-03-23T07:42:43Z</time></trkpt><trkpt lat="45.62354738206969" lon="11.070996094328212"><ele>1061.25</ele><time>2026-03-23T07:42:44Z</time></trkpt><trkpt lat="45.62364917527559" lon="11.071109855658957"><ele>1067.5</ele><time>2026-03-23T07:42:45Z</time></trkpt><trkpt lat="45.62373106929462" lon="11.071234470563825"><ele>1073.75</ele><time>2026-03-23T07:42:46Z</time></trkpt><trkpt lat="45.62376651570033" lon="11.071382850502332"><ele>1080.0</ele><time>2026-03-23T07:42:47Z</time></trkpt><trkpt lat="45.62379225713436" lon="11.071523731012883"><ele>1078.5</ele><time>2026-03-23T07:42:48Z</time></trkpt><trkpt lat="45.62385307813142" lon="11.071654768893147"><ele>1077.0</ele><time>2026-03-23T07:42:49Z</time></trkpt><trkpt lat="45.623932061443114" lon="11.071720238803373"><ele>1075.5</ele><time>2026-03-23T07:42:50Z</time></trkpt><trkpt lat="45.624054819279735" lon="11.071742166554"><ele>1074.0</ele><time>2026-03-23T07:42:51Z</time></trkpt><trkpt lat="45.624195500577876" lon="11.07175469951667"><ele>1074.0</ele><time>2026-03-23T07:42:52Z</time></trkpt><trkpt lat="45.62434062424652" lon="11.071790367352047"><ele>1074.0</ele><time>2026-03-23T07:42:53Z</time></trkpt><trkpt lat="45.624486376864674" lon="11.071819402232794"><ele>1074.0</ele><time>2026-03-23T07:42:54Z</time></trkpt><trkpt lat="45.62459965528299" lon="11.071830248151871"><ele>1074.0</ele><time>2026-03-23T07:42:55Z</time></trkpt><trkpt lat="45.62468148325596" lon="11.0718469643763"><ele>1074.0</ele><time>2026-03-23T07:42:56Z</time></trkpt><trkpt lat="45.62473770437796" lon="11.071895746704799"><ele>1074.0</ele><time>2026-03-23T07:42:57Z</time></trkpt><trkpt lat="45.62473871034715" lon="11.072067012485451"><ele>1074.0</ele><time>2026-03-23T07:42:59Z</time></trkpt><trkpt lat="45.62467625470378" lon="11.07211607189219"><ele>1074.0</ele><time>2026-03-23T07:43:00Z</time></trkpt><trkpt lat="45.624583208659" lon="11.072142078439613"><ele>1074.0</ele><time>2026-03-23T07:43:01Z</time></trkpt><trkpt lat="45.62450708476817" lon="11.072178456238209"><ele>1074.0</ele><time>2026-03-23T07:43:02Z</time></trkpt><trkpt lat="45.62446550070785" lon="11.072316992718347"><ele>1077.2</ele><time>2026-03-23T07:43:04Z</time></trkpt><trkpt lat="45.62454800863092" lon="11.072384610309502"><ele>1080.4</ele><time>2026-03-23T07:43:06Z</time></trkpt><trkpt lat="45.624613286944836" lon="11.072348681148137"><ele>1083.6</ele><time>2026-03-23T07:43:07Z</time></trkpt><trkpt lat="45.624688401485614" lon="11.072274156208307"><ele>1086.8</ele><time>2026-03-23T07:43:08Z</time></trkpt><trkpt lat="45.62478125570508" lon="11.072214489619329"><ele>1090.0</ele><time>2026-03-23T07:43:09Z</time></trkpt><trkpt lat="45.62487961543276" lon="11.072136167208173"><ele>1090.0</ele><time>2026-03-23T07:43:10Z</time></trkpt><trkpt lat="45.62497123899739" lon="11.072040439234456"><ele>1090.0</ele><time>2026-03-23T07:43:11Z</time></trkpt><trkpt lat="45.6250123048464" lon="11.071933136077135"><ele>1090.0</ele><time>2026-03-23T07:43:12Z</time></trkpt><trkpt lat="45.62502658881726" lon="11.071790316176164"><ele>1090.0</ele><time>2026-03-23T07:43:13Z</time></trkpt><trkpt lat="45.62501149257814" lon="11.07165985563086"><ele>1090.0</ele><time>2026-03-23T07:43:14Z</time></trkpt><trkpt lat="45.62495632373719" lon="11.071551862173628"><ele>1091.25</ele><time>2026-03-23T07:43:15Z</time></trkpt><trkpt lat="45.624870518806965" lon="11.071470565656236"><ele>1092.5</ele><time>2026-03-23T07:43:16Z</time></trkpt><trkpt lat="45.624744707285316" lon="11.071416903716857"><ele>1093.75</ele><time>2026-03-23T07:43:17Z</time></trkpt><trkpt lat="45.62460553682817" lon="11.071346100848293"><ele>1095.0</ele><time>2026-03-23T07:43:18Z</time></trkpt><trkpt lat="45.62451236075141" lon="11.07126945441071"><ele>1095.0</ele><time>2026-03-23T07:43:19Z</time></trkpt><trkpt lat="45.62444093877751" lon="11.071214262002794"><ele>1095.0</ele><time>2026-03-23T07:43:20Z</time></trkpt><trkpt lat="45.624361023029394" lon="11.071134888197077"><ele>1095.0</ele><time>2026-03-23T07:43:22Z</time></trkpt><trkpt lat="45.62445403612977" lon="11.071036813105774"><ele>1095.0</ele><time>2026-03-23T07:43:24Z</time></trkpt><trkpt lat="45.62454842161114" lon="11.071122583229982"><ele>1095.0</ele><time>2026-03-23T07:43:26Z</time></trkpt><trkpt lat="45.624583159260986" lon="11.071207136866587"><ele>1095.0</ele><time>2026-03-23T07:43:27Z</time></trkpt><trkpt lat="45.62465331115131" lon="11.07128147538532"><ele>1095.0</ele><time>2026-03-23T07:43:28Z</time></trkpt><trkpt lat="45.624747383141674" lon="11.071310790264436"><ele>1095.0</ele><time>2026-03-23T07:43:29Z</time></trkpt><trkpt lat="45.62487630720827" lon="11.071310775159128"><ele>1095.0</ele><time>2026-03-23T07:43:30Z</time></trkpt><trkpt lat="45.625030716901094" lon="11.071294671002432"><ele>1095.0</ele><time>2026-03-23T07:43:31Z</time></trkpt><trkpt lat="45.62517147056351" lon="11.07127538385243"><ele>1095.0</ele><time>2026-03-23T07:43:32Z</time></trkpt><trkpt lat="45.62529043843712" lon="11.071275011188357"><ele>1095.0</ele><time>2026-03-23T07:43:33Z</time></trkpt><trkpt lat="45.62540839618024" lon="11.071299302943224"><ele>1095.0</ele><time>2026-03-23T07:43:34Z</time></trkpt><trkpt lat="45.62553098680947" lon="11.071362426846548"><ele>1095.6</ele><time>2026-03-23T07:43:35Z</time></trkpt><trkpt lat="45.62563988648375" lon="11.071450541424655"><ele>1096.2</ele><time>2026-03-23T07:43:36Z</time></trkpt><trkpt lat="45.625729641947785" lon="11.071537854365136"><ele>1096.8</ele><time>2026-03-23T07:43:37Z</time></trkpt><trkpt lat="45.62578928935071" lon="11.071613983853917"><ele>1097.4</ele><time>2026-03-23T07:43:38Z</time></trkpt><trkpt lat="45.62588179139489" lon="11.071687751288657"><ele>1098.0</ele><time>2026-03-23T07:43:40Z</time></trkpt><trkpt lat="45.625986149607584" lon="11.071675432317956"><ele>1098.0</ele><time>2026-03-23T07:43:42Z</time></trkpt><trkpt lat="45.62607286250459" lon="11.071664084431598"><ele>1098.0</ele><time>2026-03-23T07:43:43Z</time></trkpt><trkpt lat="45.62618792949595" lon="11.071645213892943"><ele>1098.0</ele><time>2026-03-23T07:43:44Z</time></trkpt><trkpt lat="45.62632321073829" lon="11.07162341466189"><ele>1098.0</ele><time>2026-03-23T07:43:45Z</time></trkpt><trkpt lat="45.626450778606596" lon="11.071606689789867"><ele>1099.0</ele><time>2026-03-23T07:43:46Z</time></trkpt><trkpt lat="45.62658182670331" lon="11.07158197267464"><ele>1100.0</ele><time>2026-03-23T07:43:47Z</time></trkpt><trkpt lat="45.62673131211012" lon="11.071559247259522"><ele>1101.0</ele><time>2026-03-23T07:43:48Z</time></trkpt><trkpt lat="45.62687013199355" lon="11.071527378152096"><ele>1102.0</ele><time>2026-03-23T07:43:49Z</time></trkpt><trkpt lat="45.62700169537165" lon="11.071508486873993"><ele>1102.0</ele><time>2026-03-23T07:43:50Z</time></trkpt><trkpt lat="45.62713777769148" lon="11.071478729452558"><ele>1102.0</ele><time>2026-03-23T07:43:51Z</time></trkpt><trkpt lat="45.62728895714451" lon="11.071446021901691"><ele>1102.0</ele><time>2026-03-23T07:43:52Z</time></trkpt><trkpt lat="45.62744720674364" lon="11.071412224810613"><ele>1102.0</ele><time>2026-03-23T07:43:53Z</time></trkpt><trkpt lat="45.62760533984925" lon="11.071381411629927"><ele>1102.0</ele><time>2026-03-23T07:43:54Z</time></trkpt><trkpt lat="45.62775612065465" lon="11.071360551550454"><ele>1102.0</ele><time>2026-03-23T07:43:55Z</time></trkpt><trkpt lat="45.6279045421636" lon="11.071340831678095"><ele>1102.6666666666665</ele><time>2026-03-23T07:43:56Z</time></trkpt><trkpt lat="45.62805868463626" lon="11.071323944889096"><ele>1103.3333333333333</ele><time>2026-03-23T07:43:57Z</time></trkpt><trkpt lat="45.62821049347106" lon="11.071305411437416"><ele>1104.0</ele><time>2026-03-23T07:43:58Z</time></trkpt><trkpt lat="45.628360223686094" lon="11.071296932326655"><ele>1104.0</ele><time>2026-03-23T07:43:59Z</time></trkpt><trkpt lat="45.62850222877784" lon="11.071312813052918"><ele>1104.0</ele><time>2026-03-23T07:44:00Z</time></trkpt><trkpt lat="45.628650385830625" lon="11.071350130286277"><ele>1104.0</ele><time>2026-03-23T07:44:01Z</time></trkpt><trkpt lat="45.62880916786263" lon="11.071401363329095"><ele>1097.3333333333333</ele><time>2026-03-23T07:44:02Z</time></trkpt><trkpt lat="45.62896897592844" lon="11.071474898397447"><ele>1090.6666666666665</ele><time>2026-03-23T07:44:03Z</time></trkpt><trkpt lat="45.62912697688761" lon="11.071555781371336"><ele>1084.0</ele><time>2026-03-23T07:44:04Z</time></trkpt><trkpt lat="45.629273528777446" lon="11.07162690570642"><ele>1084.0</ele><time>2026-03-23T07:44:05Z</time></trkpt><trkpt lat="45.62941654865079" lon="11.071665858234413"><ele>1084.0</ele><time>2026-03-23T07:44:06Z</time></trkpt><trkpt lat="45.62955219036739" lon="11.071679619653425"><ele>1084.0</ele><time>2026-03-23T07:44:07Z</time></trkpt><trkpt lat="45.62966580833907" lon="11.071657998305229"><ele>1084.0</ele><time>2026-03-23T07:44:08Z</time></trkpt><trkpt lat="45.62977129769419" lon="11.071607623246898"><ele>1078.0</ele><time>2026-03-23T07:44:09Z</time></trkpt><trkpt lat="45.62987979672011" lon="11.07154579690838"><ele>1072.0</ele><time>2026-03-23T07:44:10Z</time></trkpt><trkpt lat="45.62997000780023" lon="11.071450930515041"><ele>1066.0</ele><time>2026-03-23T07:44:11Z</time></trkpt><trkpt lat="45.63003998328845" lon="11.071326873554689"><ele>1060.0</ele><time>2026-03-23T07:44:12Z</time></trkpt><trkpt lat="45.6301150454617" lon="11.071200797731914"><ele>1060.0</ele><time>2026-03-23T07:44:13Z</time></trkpt><trkpt lat="45.63022218519885" lon="11.071080444658074"><ele>1060.0</ele><time>2026-03-23T07:44:14Z</time></trkpt><trkpt lat="45.630383213733396" lon="11.070951816274508"><ele>1060.0</ele><time>2026-03-23T07:44:15Z</time></trkpt><trkpt lat="45.630582912900884" lon="11.070819552708016"><ele>1054.3333333333333</ele><time>2026-03-23T07:44:16Z</time></trkpt><trkpt lat="45.630795147731575" lon="11.07066006089714"><ele>1048.6666666666667</ele><time>2026-03-23T07:44:17Z</time></trkpt><trkpt lat="45.63097552102392" lon="11.07051802879021"><ele>1043.0</ele><time>2026-03-23T07:44:18Z</time></trkpt><trkpt lat="45.63112999103861" lon="11.070416660003676"><ele>1049.3333333333335</ele><time>2026-03-23T07:44:19Z</time></trkpt><trkpt lat="45.631281349672214" lon="11.070341238373766"><ele>1055.6666666666667</ele><time>2026-03-23T07:44:20Z</time></trkpt><trkpt lat="45.63143687648248" lon="11.070249598473646"><ele>1062.0</ele><time>2026-03-23T07:44:21Z</time></trkpt><trkpt lat="45.63161261222361" lon="11.070124476001983"><ele>1062.0</ele><time>2026-03-23T07:44:22Z</time></trkpt><trkpt lat="45.63183639449715" lon="11.069999916242558"><ele>1062.0</ele><time>2026-03-23T07:44:23Z</time></trkpt><trkpt lat="45.63206574806625" lon="11.06989666172652"><ele>1054.3333333333333</ele><time>2026-03-23T07:44:24Z</time></trkpt><trkpt lat="45.6322676995471" lon="11.06981461798896"><ele>1046.6666666666665</ele><time>2026-03-23T07:44:25Z</time></trkpt><trkpt lat="45.632448218484484" lon="11.069716284076625"><ele>1039.0</ele><time>2026-03-23T07:44:26Z</time></trkpt><trkpt lat="45.6326200176217" lon="11.069608712932812"><ele>1039.0</ele><time>2026-03-23T07:44:27Z</time></trkpt><trkpt lat="45.63277918629433" lon="11.06951020761489"><ele>1039.0</ele><time>2026-03-23T07:44:28Z</time></trkpt><trkpt lat="45.632932413444216" lon="11.069419397609693"><ele>1039.0</ele><time>2026-03-23T07:44:29Z</time></trkpt><trkpt lat="45.63308156224979" lon="11.069327037171501"><ele>1045.3333333333333</ele><time>2026-03-23T07:44:30Z</time></trkpt><trkpt lat="45.633233260817015" lon="11.069229226431544"><ele>1051.6666666666667</ele><time>2026-03-23T07:44:31Z</time></trkpt><trkpt lat="45.633402307463214" lon="11.069142072859954"><ele>1058.0</ele><time>2026-03-23T07:44:32Z</time></trkpt><trkpt lat="45.633563582320505" lon="11.06905973911132"><ele>1049.75</ele><time>2026-03-23T07:44:33Z</time></trkpt><trkpt lat="45.63371225717834" lon="11.068994190995852"><ele>1041.5</ele><time>2026-03-23T07:44:34Z</time></trkpt><trkpt lat="45.633842324514404" lon="11.068935208540758"><ele>1033.25</ele><time>2026-03-23T07:44:35Z</time></trkpt><trkpt lat="45.63396494218557" lon="11.068906983434976"><ele>1025.0</ele><time>2026-03-23T07:44:36Z</time></trkpt><trkpt lat="45.634066766763844" lon="11.068905220597632"><ele>1025.0</ele><time>2026-03-23T07:44:37Z</time></trkpt><trkpt lat="45.63416967240523" lon="11.068928274251109"><ele>1025.0</ele><time>2026-03-23T07:44:38Z</time></trkpt><trkpt lat="45.634305455796024" lon="11.068978789042953"><ele>1025.0</ele><time>2026-03-23T07:44:39Z</time></trkpt><trkpt lat="45.63444510931267" lon="11.069060514262901"><ele>1025.0</ele><time>2026-03-23T07:44:40Z</time></trkpt><trkpt lat="45.634559366464806" lon="11.069108216758416"><ele>1028.8</ele><time>2026-03-23T07:44:41Z</time></trkpt><trkpt lat="45.634656444577836" lon="11.069121566359744"><ele>1032.6</ele><time>2026-03-23T07:44:42Z</time></trkpt><trkpt lat="45.634755421941435" lon="11.06908307489683"><ele>1036.4</ele><time>2026-03-23T07:44:43Z</time></trkpt><trkpt lat="45.63484397683857" lon="11.06899036962173"><ele>1040.2</ele><time>2026-03-23T07:44:44Z</time></trkpt><trkpt lat="45.634924238935525" lon="11.068856378947824"><ele>1044.0</ele><time>2026-03-23T07:44:45Z</time></trkpt><trkpt lat="45.634991192995855" lon="11.06867857257798"><ele>1044.0</ele><time>2026-03-23T07:44:46Z</time></trkpt><trkpt lat="45.63505070901612" lon="11.068452247586412"><ele>1044.0</ele><time>2026-03-23T07:44:47Z</time></trkpt><trkpt lat="45.63511316930987" lon="11.068206468601202"><ele>1044.0</ele><time>2026-03-23T07:44:48Z</time></trkpt><trkpt lat="45.635170667597244" lon="11.067990827248158"><ele>1040.5</ele><time>2026-03-23T07:44:49Z</time></trkpt><trkpt lat="45.63522294028123" lon="11.067795962492095"><ele>1037.0</ele><time>2026-03-23T07:44:50Z</time></trkpt><trkpt lat="45.63527414835559" lon="11.067623278920184"><ele>1033.5</ele><time>2026-03-23T07:44:51Z</time></trkpt><trkpt lat="45.635319285484655" lon="11.067467966149918"><ele>1030.0</ele><time>2026-03-23T07:44:52Z</time></trkpt><trkpt lat="45.63535487559328" lon="11.067352633981319"><ele>1030.0</ele><time>2026-03-23T07:44:53Z</time></trkpt><trkpt lat="45.63539479585564" lon="11.067231242978448"><ele>1030.0</ele><time>2026-03-23T07:44:54Z</time></trkpt><trkpt lat="45.63545139438553" lon="11.067120947144193"><ele>1030.0</ele><time>2026-03-23T07:44:55Z</time></trkpt><trkpt lat="45.635535465991616" lon="11.067040549390411"><ele>1030.0</ele><time>2026-03-23T07:44:56Z</time></trkpt><trkpt lat="45.63564408043327" lon="11.067022263768738"><ele>1030.0</ele><time>2026-03-23T07:44:57Z</time></trkpt><trkpt lat="45.635781707361154" lon="11.067027288053607"><ele>1030.0</ele><time>2026-03-23T07:44:58Z</time></trkpt><trkpt lat="45.63592233584292" lon="11.06704600998906"><ele>1030.0</ele><time>2026-03-23T07:44:59Z</time></trkpt><trkpt lat="45.636029661662" lon="11.067023454430462"><ele>1030.0</ele><time>2026-03-23T07:45:00Z</time></trkpt><trkpt lat="45.63611071536905" lon="11.066934046984313"><ele>1030.0</ele><time>2026-03-23T07:45:01Z</time></trkpt><trkpt lat="45.63620908092951" lon="11.066784674599656"><ele>1031.25</ele><time>2026-03-23T07:45:02Z</time></trkpt><trkpt lat="45.63630735486002" lon="11.066641175767984"><ele>1032.5</ele><time>2026-03-23T07:45:03Z</time></trkpt><trkpt lat="45.63640219973477" lon="11.066535528881756"><ele>1033.75</ele><time>2026-03-23T07:45:04Z</time></trkpt><trkpt lat="45.6364950405857" lon="11.06645702681662"><ele>1035.0</ele><time>2026-03-23T07:45:05Z</time></trkpt><trkpt lat="45.63657710278371" lon="11.066380074819605"><ele>1035.0</ele><time>2026-03-23T07:45:06Z</time></trkpt><trkpt lat="45.636668081841684" lon="11.066332337155773"><ele>1035.0</ele><time>2026-03-23T07:45:07Z</time></trkpt><trkpt lat="45.63674980170695" lon="11.0662875709965"><ele>1035.0</ele><time>2026-03-23T07:45:08Z</time></trkpt><trkpt lat="45.636817129027904" lon="11.066212754983486"><ele>1035.0</ele><time>2026-03-23T07:45:09Z</time></trkpt><trkpt lat="45.636850781797975" lon="11.066093047486204"><ele>1035.0</ele><time>2026-03-23T07:45:10Z</time></trkpt><trkpt lat="45.63684587246709" lon="11.0659551740703"><ele>1035.0</ele><time>2026-03-23T07:45:11Z</time></trkpt><trkpt lat="45.63680115502616" lon="11.065816740099214"><ele>1035.0</ele><time>2026-03-23T07:45:12Z</time></trkpt><trkpt lat="45.63673324238835" lon="11.065678506253915"><ele>1035.0</ele><time>2026-03-23T07:45:13Z</time></trkpt><trkpt lat="45.63667730371388" lon="11.06556904316041"><ele>1035.0</ele><time>2026-03-23T07:45:14Z</time></trkpt><trkpt lat="45.63662922412604" lon="11.065428051951324"><ele>1035.0</ele><time>2026-03-23T07:45:16Z</time></trkpt><trkpt lat="45.63658484723176" lon="11.065353424821268"><ele>1034.75</ele><time>2026-03-23T07:45:17Z</time></trkpt><trkpt lat="45.63652408022255" lon="11.065248513188013"><ele>1034.5</ele><time>2026-03-23T07:45:18Z</time></trkpt><trkpt lat="45.636454029146584" lon="11.065105681030097"><ele>1034.25</ele><time>2026-03-23T07:45:19Z</time></trkpt><trkpt lat="45.63637237723223" lon="11.064927786829347"><ele>1034.0</ele><time>2026-03-23T07:45:20Z</time></trkpt><trkpt lat="45.63630385220167" lon="11.064760643722378"><ele>1033.0</ele><time>2026-03-23T07:45:21Z</time></trkpt><trkpt lat="45.63627054384119" lon="11.064594373351538"><ele>1032.0</ele><time>2026-03-23T07:45:22Z</time></trkpt><trkpt lat="45.63627961395259" lon="11.064422929872741"><ele>1031.0</ele><time>2026-03-23T07:45:23Z</time></trkpt><trkpt lat="45.63630574381331" lon="11.064241260303874"><ele>1030.0</ele><time>2026-03-23T07:45:24Z</time></trkpt><trkpt lat="45.636367900953566" lon="11.064061010889803"><ele>1025.0</ele><time>2026-03-23T07:45:25Z</time></trkpt><trkpt lat="45.636453756536135" lon="11.063866514690698"><ele>1020.0</ele><time>2026-03-23T07:45:26Z</time></trkpt><trkpt lat="45.63654413070183" lon="11.063688729032048"><ele>1015.0</ele><time>2026-03-23T07:45:27Z</time></trkpt><trkpt lat="45.63664209304404" lon="11.063513164250185"><ele>1015.0</ele><time>2026-03-23T07:45:28Z</time></trkpt><trkpt lat="45.63673648000585" lon="11.06332329960008"><ele>1015.0</ele><time>2026-03-23T07:45:29Z</time></trkpt><trkpt lat="45.63682897951583" lon="11.063122154254621"><ele>1015.0</ele><time>2026-03-23T07:45:30Z</time></trkpt><trkpt lat="45.63692690960884" lon="11.062924652270924"><ele>1012.6666666666666</ele><time>2026-03-23T07:45:31Z</time></trkpt><trkpt lat="45.63702437587541" lon="11.062736068584643"><ele>1010.3333333333333</ele><time>2026-03-23T07:45:32Z</time></trkpt><trkpt lat="45.637118604415804" lon="11.062534302093198"><ele>1008.0</ele><time>2026-03-23T07:45:33Z</time></trkpt><trkpt lat="45.637206720535325" lon="11.062332441029987"><ele>1008.0</ele><time>2026-03-23T07:45:34Z</time></trkpt><trkpt lat="45.637278425869184" lon="11.06214037028117"><ele>1008.0</ele><time>2026-03-23T07:45:35Z</time></trkpt><trkpt lat="45.63734660305054" lon="11.06194980275163"><ele>1008.0</ele><time>2026-03-23T07:45:36Z</time></trkpt><trkpt lat="45.63741492964396" lon="11.06176584330948"><ele>1008.0</ele><time>2026-03-23T07:45:37Z</time></trkpt><trkpt lat="45.63748381112653" lon="11.061593857693827"><ele>1003.0</ele><time>2026-03-23T07:45:38Z</time></trkpt><trkpt lat="45.6375548985928" lon="11.061429832324727"><ele>998.0</ele><time>2026-03-23T07:45:39Z</time></trkpt><trkpt lat="45.63762851416864" lon="11.061280969807964"><ele>993.0</ele><time>2026-03-23T07:45:40Z</time></trkpt><trkpt lat="45.6377148267854" lon="11.061127298927142"><ele>988.0</ele><time>2026-03-23T07:45:41Z</time></trkpt><trkpt lat="45.637790091143735" lon="11.060999204384883"><ele>986.6666666666666</ele><time>2026-03-23T07:45:42Z</time></trkpt><trkpt lat="45.63785248178577" lon="11.0609188087535"><ele>985.3333333333333</ele><time>2026-03-23T07:45:43Z</time></trkpt><trkpt lat="45.637893805500966" lon="11.060847037826571"><ele>984.0</ele><time>2026-03-23T07:45:44Z</time></trkpt><trkpt lat="45.638179307320996" lon="11.060690879684545"><ele>984.0</ele><time>2026-03-23T07:45:45Z</time></trkpt><trkpt lat="45.63832361568054" lon="11.060622613595546"><ele>984.0</ele><time>2026-03-23T07:45:46Z</time></trkpt><trkpt lat="45.63847839752297" lon="11.060568250230808"><ele>984.0</ele><time>2026-03-23T07:45:47Z</time></trkpt><trkpt lat="45.63863451456863" lon="11.060514866929994"><ele>987.6666666666667</ele><time>2026-03-23T07:45:48Z</time></trkpt><trkpt lat="45.638789493228686" lon="11.060435650423212"><ele>991.3333333333334</ele><time>2026-03-23T07:45:49Z</time></trkpt><trkpt lat="45.63894614472992" lon="11.06036620486784"><ele>995.0</ele><time>2026-03-23T07:45:50Z</time></trkpt><trkpt lat="45.63909362869418" lon="11.060304975827947"><ele>995.0</ele><time>2026-03-23T07:45:51Z</time></trkpt><trkpt lat="45.639233352531924" lon="11.060254407885186"><ele>995.0</ele><time>2026-03-23T07:45:52Z</time></trkpt><trkpt lat="45.639382526654686" lon="11.060206220919842"><ele>995.0</ele><time>2026-03-23T07:45:53Z</time></trkpt><trkpt lat="45.639529626577605" lon="11.060166321972051"><ele>995.0</ele><time>2026-03-23T07:45:54Z</time></trkpt><trkpt lat="45.63968167004754" lon="11.060140507738376"><ele>998.6666666666667</ele><time>2026-03-23T07:45:55Z</time></trkpt><trkpt lat="45.639835688354594" lon="11.060121978429752"><ele>1002.3333333333333</ele><time>2026-03-23T07:45:56Z</time></trkpt><trkpt lat="45.63998902466901" lon="11.060109804743295"><ele>1006.0</ele><time>2026-03-23T07:45:57Z</time></trkpt><trkpt lat="45.64014177657221" lon="11.060091908701438"><ele>1006.0</ele><time>2026-03-23T07:45:58Z</time></trkpt><trkpt lat="45.640287413367226" lon="11.060083541253237"><ele>1006.0</ele><time>2026-03-23T07:45:59Z</time></trkpt><trkpt lat="45.64043017295861" lon="11.060062882355826"><ele>1006.0</ele><time>2026-03-23T07:46:00Z</time></trkpt><trkpt lat="45.640584787684176" lon="11.060042103874574"><ele>1006.0</ele><time>2026-03-23T07:46:01Z</time></trkpt><trkpt lat="45.64072768204021" lon="11.060024147796751"><ele>1005.8</ele><time>2026-03-23T07:46:02Z</time></trkpt><trkpt lat="45.64086465810773" lon="11.060007141717055"><ele>1005.5999999999999</ele><time>2026-03-23T07:46:03Z</time></trkpt><trkpt lat="45.6409833253799" lon="11.059987834769037"><ele>1005.4</ele><time>2026-03-23T07:46:04Z</time></trkpt><trkpt lat="45.64108062839331" lon="11.059982786094546"><ele>1005.2</ele><time>2026-03-23T07:46:05Z</time></trkpt><trkpt lat="45.6411520656087" lon="11.059969507517406"><ele>1005.0</ele><time>2026-03-23T07:46:06Z</time></trkpt><trkpt lat="45.641248255445824" lon="11.059847208189279"><ele>1008.5</ele><time>2026-03-23T07:46:08Z</time></trkpt><trkpt lat="45.64126591010889" lon="11.059755815955615"><ele>1012.0</ele><time>2026-03-23T07:46:09Z</time></trkpt><trkpt lat="45.641241073571614" lon="11.059641087789945"><ele>1015.5</ele><time>2026-03-23T07:46:10Z</time></trkpt><trkpt lat="45.64120520140344" lon="11.059548424471686"><ele>1019.0</ele><time>2026-03-23T07:46:11Z</time></trkpt><trkpt lat="45.6411557905599" lon="11.059458620579953"><ele>1022.5</ele><time>2026-03-23T07:46:12Z</time></trkpt><trkpt lat="45.64104534765244" lon="11.059427586828985"><ele>1026.0</ele><time>2026-03-23T07:46:13Z</time></trkpt><trkpt lat="45.640931707370235" lon="11.059365949164441"><ele>1026.0</ele><time>2026-03-23T07:46:14Z</time></trkpt><trkpt lat="45.64078100497287" lon="11.059306183291719"><ele>1026.0</ele><time>2026-03-23T07:46:15Z</time></trkpt><trkpt lat="45.640608462713" lon="11.059264484315824"><ele>1026.0</ele><time>2026-03-23T07:46:16Z</time></trkpt><trkpt lat="45.64040180146782" lon="11.059242653090442"><ele>1021.6666666666667</ele><time>2026-03-23T07:46:17Z</time></trkpt><trkpt lat="45.640211857422386" lon="11.059228090866458"><ele>1017.3333333333334</ele><time>2026-03-23T07:46:18Z</time></trkpt><trkpt lat="45.64003761059447" lon="11.059201294045803"><ele>1013.0</ele><time>2026-03-23T07:46:19Z</time></trkpt><trkpt lat="45.63985784698667" lon="11.0591657530121"><ele>1013.0</ele><time>2026-03-23T07:46:20Z</time></trkpt><trkpt lat="45.639668167967805" lon="11.059124429721871"><ele>1013.0</ele><time>2026-03-23T07:46:21Z</time></trkpt><trkpt lat="45.63948628741914" lon="11.059103908481541"><ele>1013.0</ele><time>2026-03-23T07:46:22Z</time></trkpt><trkpt lat="45.639299856289156" lon="11.05910720424829"><ele>1028.0</ele><time>2026-03-23T07:46:23Z</time></trkpt><trkpt lat="45.639104633380036" lon="11.059102382338445"><ele>1043.0</ele><time>2026-03-23T07:46:24Z</time></trkpt><trkpt lat="45.63890347322968" lon="11.05909792847582"><ele>1058.0</ele><time>2026-03-23T07:46:25Z</time></trkpt><trkpt lat="45.63871394720893" lon="11.059078411581924"><ele>1056.0</ele><time>2026-03-23T07:46:26Z</time></trkpt><trkpt lat="45.63852308200021" lon="11.059047697357432"><ele>1054.0</ele><time>2026-03-23T07:46:27Z</time></trkpt><trkpt lat="45.63833420508673" lon="11.059035974782969"><ele>1052.0</ele><time>2026-03-23T07:46:28Z</time></trkpt><trkpt lat="45.638144966471685" lon="11.05904132519459"><ele>1052.0</ele><time>2026-03-23T07:46:29Z</time></trkpt><trkpt lat="45.63796018512948" lon="11.059044537844237"><ele>1052.0</ele><time>2026-03-23T07:46:30Z</time></trkpt><trkpt lat="45.63777283786697" lon="11.059058151372348"><ele>1052.0</ele><time>2026-03-23T07:46:31Z</time></trkpt><trkpt lat="45.63759913093438" lon="11.059082788324853"><ele>1054.3333333333335</ele><time>2026-03-23T07:46:32Z</time></trkpt><trkpt lat="45.637433671004025" lon="11.059110818186484"><ele>1056.6666666666667</ele><time>2026-03-23T07:46:33Z</time></trkpt><trkpt lat="45.63727132266876" lon="11.059163984584977"><ele>1059.0</ele><time>2026-03-23T07:46:34Z</time></trkpt><trkpt lat="45.63709311731607" lon="11.059256756668017"><ele>1047.6666666666667</ele><time>2026-03-23T07:46:35Z</time></trkpt><trkpt lat="45.636898546189784" lon="11.059356504464086"><ele>1036.3333333333335</ele><time>2026-03-23T07:46:36Z</time></trkpt><trkpt lat="45.63670453802784" lon="11.059456612915179"><ele>1025.0</ele><time>2026-03-23T07:46:37Z</time></trkpt><trkpt lat="45.636524955593266" lon="11.059553433174308"><ele>1025.0</ele><time>2026-03-23T07:46:38Z</time></trkpt><trkpt lat="45.63636052941222" lon="11.059641344723566"><ele>1025.0</ele><time>2026-03-23T07:46:39Z</time></trkpt><trkpt lat="45.63620626152783" lon="11.059717901911934"><ele>1025.0</ele><time>2026-03-23T07:46:40Z</time></trkpt><trkpt lat="45.636041691594805" lon="11.059795226219586"><ele>1017.6666666666667</ele><time>2026-03-23T07:46:41Z</time></trkpt><trkpt lat="45.635855465172774" lon="11.059854109048578"><ele>1010.3333333333333</ele><time>2026-03-23T07:46:42Z</time></trkpt><trkpt lat="45.63566157683867" lon="11.059896864285113"><ele>1003.0</ele><time>2026-03-23T07:46:43Z</time></trkpt><trkpt lat="45.635482685850434" lon="11.05995644333603"><ele>1003.0</ele><time>2026-03-23T07:46:44Z</time></trkpt><trkpt lat="45.635330101900294" lon="11.060025485847515"><ele>1003.0</ele><time>2026-03-23T07:46:45Z</time></trkpt><trkpt lat="45.63518555952574" lon="11.060066029071118"><ele>1003.0</ele><time>2026-03-23T07:46:46Z</time></trkpt><trkpt lat="45.635059902710246" lon="11.060133938838291"><ele>1003.0</ele><time>2026-03-23T07:46:47Z</time></trkpt><trkpt lat="45.63494720936341" lon="11.060171190438163"><ele>1010.75</ele><time>2026-03-23T07:46:48Z</time></trkpt><trkpt lat="45.63484013672405" lon="11.060263687569183"><ele>1018.5</ele><time>2026-03-23T07:46:49Z</time></trkpt><trkpt lat="45.63473775821441" lon="11.060402790963577"><ele>1026.25</ele><time>2026-03-23T07:46:50Z</time></trkpt><trkpt lat="45.63462694753232" lon="11.060553864256372"><ele>1034.0</ele><time>2026-03-23T07:46:51Z</time></trkpt><trkpt lat="45.634518596510574" lon="11.060705845846002"><ele>1030.6000000000001</ele><time>2026-03-23T07:46:52Z</time></trkpt><trkpt lat="45.6344199094643" lon="11.06082123920228"><ele>1027.2</ele><time>2026-03-23T07:46:53Z</time></trkpt><trkpt lat="45.63434268820492" lon="11.06089299919234"><ele>1023.8000000000001</ele><time>2026-03-23T07:46:54Z</time></trkpt><trkpt lat="45.634266753163345" lon="11.060939166786193"><ele>1020.4000000000001</ele><time>2026-03-23T07:46:55Z</time></trkpt><trkpt lat="45.63419518425521" lon="11.060941821621302"><ele>1017.0</ele><time>2026-03-23T07:46:56Z</time></trkpt><trkpt lat="45.634117608388635" lon="11.060875784263825"><ele>1017.0</ele><time>2026-03-23T07:46:57Z</time></trkpt><trkpt lat="45.63400764782282" lon="11.060908692908109"><ele>1017.0</ele><time>2026-03-23T07:46:58Z</time></trkpt><trkpt lat="45.63390965343096" lon="11.060998914921525"><ele>1017.0</ele><time>2026-03-23T07:46:59Z</time></trkpt><trkpt lat="45.63382201814915" lon="11.061028071167001"><ele>1017.0</ele><time>2026-03-23T07:47:00Z</time></trkpt><trkpt lat="45.63371997874622" lon="11.061044120498574"><ele>1017.0</ele><time>2026-03-23T07:47:01Z</time></trkpt><trkpt lat="45.63364789366537" lon="11.061080163186395"><ele>1027.1666666666667</ele><time>2026-03-23T07:47:02Z</time></trkpt><trkpt lat="45.63359791557459" lon="11.061190499945877"><ele>1037.3333333333333</ele><time>2026-03-23T07:47:03Z</time></trkpt><trkpt lat="45.63358285441397" lon="11.061328039922357"><ele>1047.5</ele><time>2026-03-23T07:47:04Z</time></trkpt><trkpt lat="45.63354687976568" lon="11.061435133833191"><ele>1057.6666666666665</ele><time>2026-03-23T07:47:05Z</time></trkpt><trkpt lat="45.633507184362564" lon="11.061515067467196"><ele>1067.8333333333333</ele><time>2026-03-23T07:47:06Z</time></trkpt><trkpt lat="45.6334228165165" lon="11.061539740030227"><ele>1078.0</ele><time>2026-03-23T07:47:07Z</time></trkpt><trkpt lat="45.63336952063477" lon="11.061589334989304"><ele>1069.0</ele><time>2026-03-23T07:47:08Z</time></trkpt><trkpt lat="45.63329208546356" lon="11.061692569772088"><ele>1060.0</ele><time>2026-03-23T07:47:09Z</time></trkpt><trkpt lat="45.63328749362926" lon="11.061858807782388"><ele>1051.0</ele><time>2026-03-23T07:47:10Z</time></trkpt><trkpt lat="45.63322692350444" lon="11.06198020558104"><ele>1042.0</ele><time>2026-03-23T07:47:11Z</time></trkpt><trkpt lat="45.633165532425124" lon="11.06209873847635"><ele>1033.0</ele><time>2026-03-23T07:47:12Z</time></trkpt><trkpt lat="45.63308808920597" lon="11.06221437830685"><ele>1033.0</ele><time>2026-03-23T07:47:13Z</time></trkpt><trkpt lat="45.632993540133725" lon="11.062307840385447"><ele>1033.0</ele><time>2026-03-23T07:47:14Z</time></trkpt><trkpt lat="45.63289734328657" lon="11.06240884458138"><ele>1033.0</ele><time>2026-03-23T07:47:15Z</time></trkpt><trkpt lat="45.63280064309944" lon="11.062493440662575"><ele>1033.0</ele><time>2026-03-23T07:47:16Z</time></trkpt><trkpt lat="45.63269777776999" lon="11.06256977332134"><ele>1033.0</ele><time>2026-03-23T07:47:17Z</time></trkpt><trkpt lat="45.63259551578682" lon="11.062629455222016"><ele>1033.0</ele><time>2026-03-23T07:47:18Z</time></trkpt><trkpt lat="45.632494296569455" lon="11.06267410095509"><ele>1033.0</ele><time>2026-03-23T07:47:19Z</time></trkpt><trkpt lat="45.63238822268132" lon="11.06271414051822"><ele>1033.0</ele><time>2026-03-23T07:47:20Z</time></trkpt><trkpt lat="45.63227865430875" lon="11.062747377310343"><ele>1033.0</ele><time>2026-03-23T07:47:21Z</time></trkpt><trkpt lat="45.63216832605758" lon="11.062762088620197"><ele>1033.0</ele><time>2026-03-23T07:47:22Z</time></trkpt><trkpt lat="45.63206009789219" lon="11.062757617180745"><ele>1033.0</ele><time>2026-03-23T07:47:23Z</time></trkpt><trkpt lat="45.6319352992383" lon="11.062727478853395"><ele>1033.0</ele><time>2026-03-23T07:47:24Z</time></trkpt><trkpt lat="45.631791324063464" lon="11.062668026255613"><ele>1033.0</ele><time>2026-03-23T07:47:25Z</time></trkpt><trkpt lat="45.631633730030075" lon="11.062600589936757"><ele>1033.3333333333333</ele><time>2026-03-23T07:47:26Z</time></trkpt><trkpt lat="45.631450097363825" lon="11.062498361271407"><ele>1033.6666666666667</ele><time>2026-03-23T07:47:27Z</time></trkpt><trkpt lat="45.6312822696726" lon="11.06241694811113"><ele>1034.0</ele><time>2026-03-23T07:47:28Z</time></trkpt><trkpt lat="45.63114059717137" lon="11.062354036277334"><ele>1039.25</ele><time>2026-03-23T07:47:29Z</time></trkpt><trkpt lat="45.6310145150794" lon="11.062288217513101"><ele>1044.5</ele><time>2026-03-23T07:47:30Z</time></trkpt><trkpt lat="45.63090252054642" lon="11.062223974430248"><ele>1049.75</ele><time>2026-03-23T07:47:31Z</time></trkpt><trkpt lat="45.630782591616025" lon="11.062160770098892"><ele>1055.0</ele><time>2026-03-23T07:47:32Z</time></trkpt><trkpt lat="45.630651719513594" lon="11.062098464324064"><ele>1055.0</ele><time>2026-03-23T07:47:33Z</time></trkpt><trkpt lat="45.63053183586707" lon="11.062035750671535"><ele>1055.0</ele><time>2026-03-23T07:47:34Z</time></trkpt><trkpt lat="45.630423501829426" lon="11.061982142405096"><ele>1055.0</ele><time>2026-03-23T07:47:35Z</time></trkpt><trkpt lat="45.63032605227673" lon="11.061934277899544"><ele>1055.0</ele><time>2026-03-23T07:47:36Z</time></trkpt><trkpt lat="45.63025139342396" lon="11.061856336664261"><ele>1055.0</ele><time>2026-03-23T07:47:37Z</time></trkpt><trkpt lat="45.630178417668304" lon="11.061722263320476"><ele>1055.25</ele><time>2026-03-23T07:47:38Z</time></trkpt><trkpt lat="45.63008765136139" lon="11.061556802218186"><ele>1055.5</ele><time>2026-03-23T07:47:39Z</time></trkpt><trkpt lat="45.62998868340371" lon="11.061403128591554"><ele>1055.75</ele><time>2026-03-23T07:47:40Z</time></trkpt><trkpt lat="45.62990382878171" lon="11.061286846591049"><ele>1056.0</ele><time>2026-03-23T07:47:41Z</time></trkpt><trkpt lat="45.629840231595864" lon="11.061183442023829"><ele>1056.0</ele><time>2026-03-23T07:47:42Z</time></trkpt><trkpt lat="45.629781699825024" lon="11.061076492565686"><ele>1056.0</ele><time>2026-03-23T07:47:43Z</time></trkpt><trkpt lat="45.62975797240092" lon="11.060868464458517"><ele>1056.0</ele><time>2026-03-23T07:47:44Z</time></trkpt><trkpt lat="45.62973425797575" lon="11.06069751102619"><ele>1056.0</ele><time>2026-03-23T07:47:45Z</time></trkpt><trkpt lat="45.62970091364762" lon="11.060571977810309"><ele>1058.2</ele><time>2026-03-23T07:47:46Z</time></trkpt><trkpt lat="45.6296347491557" lon="11.060514688041197"><ele>1060.3999999999999</ele><time>2026-03-23T07:47:47Z</time></trkpt><trkpt lat="45.629555511798266" lon="11.06051835140856"><ele>1062.6</ele><time>2026-03-23T07:47:48Z</time></trkpt><trkpt lat="45.629470189391846" lon="11.060550036637746"><ele>1064.8</ele><time>2026-03-23T07:47:49Z</time></trkpt><trkpt lat="45.62938679691566" lon="11.060652841135193"><ele>1067.0</ele><time>2026-03-23T07:47:50Z</time></trkpt><trkpt lat="45.62924586878456" lon="11.060730385458195"><ele>1059.0</ele><time>2026-03-23T07:47:51Z</time></trkpt><trkpt lat="45.62908842283413" lon="11.060807370503856"><ele>1051.0</ele><time>2026-03-23T07:47:52Z</time></trkpt><trkpt lat="45.62892665896954" lon="11.060901067739376"><ele>1043.0</ele><time>2026-03-23T07:47:53Z</time></trkpt><trkpt lat="45.62876524692785" lon="11.060998936577978"><ele>1045.25</ele><time>2026-03-23T07:47:54Z</time></trkpt><trkpt lat="45.62862263518876" lon="11.061048285113047"><ele>1047.5</ele><time>2026-03-23T07:47:55Z</time></trkpt><trkpt lat="45.62849012389994" lon="11.061073424111358"><ele>1049.75</ele><time>2026-03-23T07:47:56Z</time></trkpt><trkpt lat="45.628361297563686" lon="11.061074174678856"><ele>1052.0</ele><time>2026-03-23T07:47:57Z</time></trkpt><trkpt lat="45.62821293236437" lon="11.061047370282436"><ele>1052.0</ele><time>2026-03-23T07:47:58Z</time></trkpt><trkpt lat="45.62804670352677" lon="11.060969639947901"><ele>1052.0</ele><time>2026-03-23T07:47:59Z</time></trkpt><trkpt lat="45.62785354342322" lon="11.060884876824906"><ele>1052.0</ele><time>2026-03-23T07:48:00Z</time></trkpt><trkpt lat="45.6276432788501" lon="11.060812140879907"><ele>1063.0</ele><time>2026-03-23T07:48:01Z</time></trkpt><trkpt lat="45.627419880882535" lon="11.060732906333937"><ele>1074.0</ele><time>2026-03-23T07:48:02Z</time></trkpt><trkpt lat="45.62722568578081" lon="11.060654698958633"><ele>1085.0</ele><time>2026-03-23T07:48:03Z</time></trkpt><trkpt lat="45.62705646416774" lon="11.060584668303182"><ele>1079.25</ele><time>2026-03-23T07:48:04Z</time></trkpt><trkpt lat="45.62690092012957" lon="11.060534861146406"><ele>1073.5</ele><time>2026-03-23T07:48:05Z</time></trkpt><trkpt lat="45.6267652130738" lon="11.060490574794162"><ele>1067.75</ele><time>2026-03-23T07:48:06Z</time></trkpt><trkpt lat="45.62663489783262" lon="11.060412661453174"><ele>1062.0</ele><time>2026-03-23T07:48:07Z</time></trkpt><trkpt lat="45.62647627432929" lon="11.060300296699756"><ele>1062.0</ele><time>2026-03-23T07:48:08Z</time></trkpt><trkpt lat="45.62634945683407" lon="11.06014903836546"><ele>1062.0</ele><time>2026-03-23T07:48:09Z</time></trkpt><trkpt lat="45.62625453893855" lon="11.060071288716935"><ele>1062.0</ele><time>2026-03-23T07:48:10Z</time></trkpt><trkpt lat="45.626186365978015" lon="11.060005523653778"><ele>1062.0</ele><time>2026-03-23T07:48:11Z</time></trkpt><trkpt lat="45.62615865418088" lon="11.059923115453016"><ele>1062.0</ele><time>2026-03-23T07:48:12Z</time></trkpt><trkpt lat="45.62614509447133" lon="11.059806310123845"><ele>1064.3333333333333</ele><time>2026-03-23T07:48:13Z</time></trkpt><trkpt lat="45.626144688049" lon="11.059623951308284"><ele>1066.6666666666665</ele><time>2026-03-23T07:48:14Z</time></trkpt><trkpt lat="45.62615450095847" lon="11.059397515168078"><ele>1069.0</ele><time>2026-03-23T07:48:15Z</time></trkpt><trkpt lat="45.62617418106355" lon="11.05913283785117"><ele>1071.3333333333333</ele><time>2026-03-23T07:48:16Z</time></trkpt><trkpt lat="45.62617269139711" lon="11.058848173494507"><ele>1073.6666666666667</ele><time>2026-03-23T07:48:17Z</time></trkpt><trkpt lat="45.62614856692923" lon="11.058535152180651"><ele>1076.0</ele><time>2026-03-23T07:48:18Z</time></trkpt><trkpt lat="45.62614298180841" lon="11.058284125323109"><ele>1075.0</ele><time>2026-03-23T07:48:19Z</time></trkpt><trkpt lat="45.626146319582205" lon="11.058078486051533"><ele>1074.0</ele><time>2026-03-23T07:48:20Z</time></trkpt><trkpt lat="45.62616988370525" lon="11.057880415169635"><ele>1073.0</ele><time>2026-03-23T07:48:21Z</time></trkpt><trkpt lat="45.62621798516465" lon="11.057679345833488"><ele>1072.0</ele><time>2026-03-23T07:48:22Z</time></trkpt><trkpt lat="45.6262884399749" lon="11.057466349287127"><ele>1067.6666666666665</ele><time>2026-03-23T07:48:23Z</time></trkpt><trkpt lat="45.626400798361225" lon="11.057235429882297"><ele>1063.3333333333333</ele><time>2026-03-23T07:48:24Z</time></trkpt><trkpt lat="45.62652517672476" lon="11.05697529340855"><ele>1059.0</ele><time>2026-03-23T07:48:25Z</time></trkpt><trkpt lat="45.62663238511428" lon="11.056730636347437"><ele>1056.0</ele><time>2026-03-23T07:48:26Z</time></trkpt><trkpt lat="45.62672249294729" lon="11.056523632065716"><ele>1053.0</ele><time>2026-03-23T07:48:27Z</time></trkpt><trkpt lat="45.626823023141185" lon="11.056324055910897"><ele>1050.0</ele><time>2026-03-23T07:48:28Z</time></trkpt><trkpt lat="45.62696508990311" lon="11.056106078172109"><ele>1056.0</ele><time>2026-03-23T07:48:29Z</time></trkpt><trkpt lat="45.62712192123795" lon="11.055905942119026"><ele>1062.0</ele><time>2026-03-23T07:48:30Z</time></trkpt><trkpt lat="45.627257463747526" lon="11.055732426863768"><ele>1068.0</ele><time>2026-03-23T07:48:31Z</time></trkpt><trkpt lat="45.62737717852664" lon="11.05557203339395"><ele>1068.0</ele><time>2026-03-23T07:48:32Z</time></trkpt><trkpt lat="45.627478767149576" lon="11.055437112612701"><ele>1068.0</ele><time>2026-03-23T07:48:33Z</time></trkpt><trkpt lat="45.62757120186996" lon="11.055328244633479"><ele>1068.0</ele><time>2026-03-23T07:48:34Z</time></trkpt><trkpt lat="45.62763093065748" lon="11.055243051194067"><ele>1068.0</ele><time>2026-03-23T07:48:35Z</time></trkpt><trkpt lat="45.627659549804356" lon="11.0551358572511"><ele>1068.0</ele><time>2026-03-23T07:48:36Z</time></trkpt><trkpt lat="45.627642979740514" lon="11.055021665069686"><ele>1072.5</ele><time>2026-03-23T07:48:37Z</time></trkpt><trkpt lat="45.627588083361445" lon="11.054920365316493"><ele>1077.0</ele><time>2026-03-23T07:48:38Z</time></trkpt><trkpt lat="45.627499657741076" lon="11.054871848339161"><ele>1081.5</ele><time>2026-03-23T07:48:39Z</time></trkpt><trkpt lat="45.62738071447163" lon="11.054856739382616"><ele>1086.0</ele><time>2026-03-23T07:48:40Z</time></trkpt><trkpt lat="45.62720174545072" lon="11.054874434688665"><ele>1084.0</ele><time>2026-03-23T07:48:41Z</time></trkpt><trkpt lat="45.62697529393679" lon="11.054867430319689"><ele>1082.0</ele><time>2026-03-23T07:48:42Z</time></trkpt><trkpt lat="45.62673718089917" lon="11.054812107062341"><ele>1082.0</ele><time>2026-03-23T07:48:43Z</time></trkpt><trkpt lat="45.626505214999966" lon="11.054782017060488"><ele>1082.0</ele><time>2026-03-23T07:48:44Z</time></trkpt><trkpt lat="45.6262624850083" lon="11.054750007165023"><ele>1082.0</ele><time>2026-03-23T07:48:45Z</time></trkpt><trkpt lat="45.626313929773545" lon="11.054822321879175"><ele>1082.0</ele><time>2026-03-23T07:48:46Z</time></trkpt><trkpt lat="45.62621252329266" lon="11.05478916740855"><ele>1082.0</ele><time>2026-03-23T07:48:47Z</time></trkpt><trkpt lat="45.62612436526618" lon="11.054727896610313"><ele>1082.0</ele><time>2026-03-23T07:48:48Z</time></trkpt><trkpt lat="45.62606526387484" lon="11.05461051843321"><ele>1082.0</ele><time>2026-03-23T07:48:49Z</time></trkpt><trkpt lat="45.62600692813839" lon="11.05443300962629"><ele>1083.0</ele><time>2026-03-23T07:48:50Z</time></trkpt><trkpt lat="45.62595980226504" lon="11.054229294635418"><ele>1084.0</ele><time>2026-03-23T07:48:51Z</time></trkpt><trkpt lat="45.62587646437638" lon="11.054061473545516"><ele>1085.0</ele><time>2026-03-23T07:48:52Z</time></trkpt><trkpt lat="45.62573221844351" lon="11.05390787639596"><ele>1085.0</ele><time>2026-03-23T07:48:53Z</time></trkpt><trkpt lat="45.6255654196628" lon="11.05374353431278"><ele>1085.0</ele><time>2026-03-23T07:48:54Z</time></trkpt><trkpt lat="45.62541673224906" lon="11.053622006086245"><ele>1085.0</ele><time>2026-03-23T07:48:55Z</time></trkpt><trkpt lat="45.625231932755774" lon="11.05355752435353"><ele>1081.25</ele><time>2026-03-23T07:48:56Z</time></trkpt><trkpt lat="45.625070024801154" lon="11.053507677538162"><ele>1077.5</ele><time>2026-03-23T07:48:57Z</time></trkpt><trkpt lat="45.624933755417764" lon="11.053456571809807"><ele>1073.75</ele><time>2026-03-23T07:48:58Z</time></trkpt><trkpt lat="45.62480408599238" lon="11.053401567678655"><ele>1070.0</ele><time>2026-03-23T07:48:59Z</time></trkpt><trkpt lat="45.62467280634061" lon="11.053344192460125"><ele>1068.0</ele><time>2026-03-23T07:49:00Z</time></trkpt><trkpt lat="45.62456816199364" lon="11.053262363083613"><ele>1066.0</ele><time>2026-03-23T07:49:01Z</time></trkpt><trkpt lat="45.62447333419292" lon="11.053150997522032"><ele>1064.0</ele><time>2026-03-23T07:49:02Z</time></trkpt><trkpt lat="45.62440075179147" lon="11.053025570762143"><ele>1062.0</ele><time>2026-03-23T07:49:03Z</time></trkpt><trkpt lat="45.62432557207015" lon="11.052862565698874"><ele>1062.0</ele><time>2026-03-23T07:49:04Z</time></trkpt><trkpt lat="45.6242588701581" lon="11.052658402937357"><ele>1062.0</ele><time>2026-03-23T07:49:05Z</time></trkpt><trkpt lat="45.62420446175265" lon="11.05243120585008"><ele>1062.0</ele><time>2026-03-23T07:49:06Z</time></trkpt><trkpt lat="45.624170474606636" lon="11.052187827420665"><ele>1062.75</ele><time>2026-03-23T07:49:07Z</time></trkpt><trkpt lat="45.6241641958131" lon="11.051945462103202"><ele>1063.5</ele><time>2026-03-23T07:49:08Z</time></trkpt><trkpt lat="45.62417491645859" lon="11.051740631625846"><ele>1064.25</ele><time>2026-03-23T07:49:09Z</time></trkpt><trkpt lat="45.624185281360624" lon="11.05157020379472"><ele>1065.0</ele><time>2026-03-23T07:49:10Z</time></trkpt><trkpt lat="45.62419514185421" lon="11.05143483381501"><ele>1064.857142857143</ele><time>2026-03-23T07:49:11Z</time></trkpt><trkpt lat="45.624207553551905" lon="11.051345039463863"><ele>1064.7142857142858</ele><time>2026-03-23T07:49:12Z</time></trkpt><trkpt lat="45.62423016649849" lon="11.051260216810077"><ele>1064.5714285714284</ele><time>2026-03-23T07:49:13Z</time></trkpt><trkpt lat="45.62427713973081" lon="11.051191686910434"><ele>1064.4285714285716</ele><time>2026-03-23T07:49:14Z</time></trkpt><trkpt lat="45.62434878607127" lon="11.051183703378086"><ele>1064.2857142857142</ele><time>2026-03-23T07:49:15Z</time></trkpt><trkpt lat="45.62442293431391" lon="11.051165943578193"><ele>1064.142857142857</ele><time>2026-03-23T07:49:16Z</time></trkpt><trkpt lat="45.6245126096955" lon="11.051162061714662"><ele>1064.0</ele><time>2026-03-23T07:49:17Z</time></trkpt><trkpt lat="45.62463750009286" lon="11.051192613504186"><ele>1064.0</ele><time>2026-03-23T07:49:18Z</time></trkpt><trkpt lat="45.624784474182654" lon="11.051199657522943"><ele>1064.0</ele><time>2026-03-23T07:49:19Z</time></trkpt><trkpt lat="45.62491763175351" lon="11.051168302090488"><ele>1064.0</ele><time>2026-03-23T07:49:20Z</time></trkpt><trkpt lat="45.62505710860725" lon="11.05113174798034"><ele>1064.0</ele><time>2026-03-23T07:49:21Z</time></trkpt><trkpt lat="45.62518520577279" lon="11.051095458120477"><ele>1064.0</ele><time>2026-03-23T07:49:22Z</time></trkpt><trkpt lat="45.625282293274715" lon="11.051067919580738"><ele>1064.0</ele><time>2026-03-23T07:49:23Z</time></trkpt><trkpt lat="45.62537459327662" lon="11.051023620332446"><ele>1064.0</ele><time>2026-03-23T07:49:24Z</time></trkpt><trkpt lat="45.62547727151745" lon="11.050973673531034"><ele>1064.0</ele><time>2026-03-23T07:49:25Z</time></trkpt><trkpt lat="45.62559259658666" lon="11.050924414759956"><ele>1064.0</ele><time>2026-03-23T07:49:26Z</time></trkpt><trkpt lat="45.62571436659481" lon="11.05087389333933"><ele>1066.25</ele><time>2026-03-23T07:49:27Z</time></trkpt><trkpt lat="45.62583934985279" lon="11.050842167069604"><ele>1068.5</ele><time>2026-03-23T07:49:28Z</time></trkpt><trkpt lat="45.62597879994596" lon="11.050838077614237"><ele>1070.75</ele><time>2026-03-23T07:49:29Z</time></trkpt><trkpt lat="45.62613447916726" lon="11.050847224261894"><ele>1073.0</ele><time>2026-03-23T07:49:30Z</time></trkpt><trkpt lat="45.62626460358147" lon="11.050840747759297"><ele>1073.0</ele><time>2026-03-23T07:49:31Z</time></trkpt><trkpt lat="45.62638063305644" lon="11.050840935662793"><ele>1073.0</ele><time>2026-03-23T07:49:32Z</time></trkpt><trkpt lat="45.62649949956554" lon="11.050857464332926"><ele>1073.0</ele><time>2026-03-23T07:49:33Z</time></trkpt><trkpt lat="45.62658022712027" lon="11.05083778836168"><ele>1073.0</ele><time>2026-03-23T07:49:34Z</time></trkpt><trkpt lat="45.62666078403252" lon="11.050778810768051"><ele>1073.0</ele><time>2026-03-23T07:49:35Z</time></trkpt><trkpt lat="45.62671682221668" lon="11.050675875920827"><ele>1072.25</ele><time>2026-03-23T07:49:36Z</time></trkpt><trkpt lat="45.626757795806675" lon="11.050534295225134"><ele>1071.5</ele><time>2026-03-23T07:49:37Z</time></trkpt><trkpt lat="45.626765301027106" lon="11.050370454017884"><ele>1070.75</ele><time>2026-03-23T07:49:38Z</time></trkpt><trkpt lat="45.62673273515406" lon="11.05021266009126"><ele>1070.0</ele><time>2026-03-23T07:49:39Z</time></trkpt><trkpt lat="45.62665687073785" lon="11.050089469243689"><ele>1070.0</ele><time>2026-03-23T07:49:40Z</time></trkpt><trkpt lat="45.626553118827744" lon="11.049975611356752"><ele>1070.0</ele><time>2026-03-23T07:49:41Z</time></trkpt><trkpt lat="45.62641803769735" lon="11.049860473140606"><ele>1070.0</ele><time>2026-03-23T07:49:42Z</time></trkpt><trkpt lat="45.6262738135107" lon="11.049742507082607"><ele>1068.25</ele><time>2026-03-23T07:49:43Z</time></trkpt><trkpt lat="45.626181709607756" lon="11.049600061582085"><ele>1066.5</ele><time>2026-03-23T07:49:44Z</time></trkpt><trkpt lat="45.62611647250537" lon="11.049449339510234"><ele>1064.75</ele><time>2026-03-23T07:49:45Z</time></trkpt><trkpt lat="45.6260544695959" lon="11.049259020794317"><ele>1063.0</ele><time>2026-03-23T07:49:46Z</time></trkpt><trkpt lat="45.625990620273136" lon="11.049049608298732"><ele>1063.0</ele><time>2026-03-23T07:49:47Z</time></trkpt><trkpt lat="45.62593526553523" lon="11.048847751439688"><ele>1063.0</ele><time>2026-03-23T07:49:48Z</time></trkpt><trkpt lat="45.625901280992046" lon="11.048677534989224"><ele>1063.0</ele><time>2026-03-23T07:49:49Z</time></trkpt><trkpt lat="45.62589214342851" lon="11.048515664460693"><ele>1063.0</ele><time>2026-03-23T07:49:50Z</time></trkpt><trkpt lat="45.62590892038307" lon="11.048357152003318"><ele>1062.8</ele><time>2026-03-23T07:49:51Z</time></trkpt><trkpt lat="45.625938919025" lon="11.048202363367468"><ele>1062.6</ele><time>2026-03-23T07:49:52Z</time></trkpt><trkpt lat="45.625985828513194" lon="11.048079926439199"><ele>1062.4</ele><time>2026-03-23T07:49:53Z</time></trkpt><trkpt lat="45.62605524211675" lon="11.047996518646187"><ele>1062.2</ele><time>2026-03-23T07:49:54Z</time></trkpt><trkpt lat="45.62615268311109" lon="11.047959293518769"><ele>1062.0</ele><time>2026-03-23T07:49:55Z</time></trkpt><trkpt lat="45.62627035034322" lon="11.047956767639018"><ele>1062.0</ele><time>2026-03-23T07:49:56Z</time></trkpt><trkpt lat="45.62641532537393" lon="11.047990557301675"><ele>1062.0</ele><time>2026-03-23T07:49:57Z</time></trkpt><trkpt lat="45.6265792832535" lon="11.048048543278828"><ele>1062.0</ele><time>2026-03-23T07:49:58Z</time></trkpt><trkpt lat="45.626726357095116" lon="11.048088224868408"><ele>1062.0</ele><time>2026-03-23T07:49:59Z</time></trkpt><trkpt lat="45.62684451011637" lon="11.048098480482887"><ele>1062.0</ele><time>2026-03-23T07:50:00Z</time></trkpt><trkpt lat="45.62695337686581" lon="11.048094627884216"><ele>1062.0</ele><time>2026-03-23T07:50:01Z</time></trkpt><trkpt lat="45.627037245766395" lon="11.048043240126011"><ele>1062.0</ele><time>2026-03-23T07:50:02Z</time></trkpt><trkpt lat="45.62709250035693" lon="11.047947882837375"><ele>1062.0</ele><time>2026-03-23T07:50:03Z</time></trkpt><trkpt lat="45.62709842111988" lon="11.047804020186431"><ele>1062.75</ele><time>2026-03-23T07:50:04Z</time></trkpt><trkpt lat="45.627069088117416" lon="11.04763070797746"><ele>1063.5</ele><time>2026-03-23T07:50:05Z</time></trkpt><trkpt lat="45.627005271732436" lon="11.047449451066404"><ele>1064.25</ele><time>2026-03-23T07:50:06Z</time></trkpt><trkpt lat="45.62690833625858" lon="11.047238037782671"><ele>1065.0</ele><time>2026-03-23T07:50:07Z</time></trkpt><trkpt lat="45.62678196449337" lon="11.04698448545647"><ele>1065.0</ele><time>2026-03-23T07:50:08Z</time></trkpt><trkpt lat="45.62666821481102" lon="11.046728779006715"><ele>1065.0</ele><time>2026-03-23T07:50:09Z</time></trkpt><trkpt lat="45.626592061083755" lon="11.046495189163661"><ele>1065.0</ele><time>2026-03-23T07:50:10Z</time></trkpt><trkpt lat="45.626534929366684" lon="11.046278729652805"><ele>1066.0</ele><time>2026-03-23T07:50:11Z</time></trkpt><trkpt lat="45.626489917804896" lon="11.04605964870896"><ele>1067.0</ele><time>2026-03-23T07:50:12Z</time></trkpt><trkpt lat="45.626468073548764" lon="11.04581971417369"><ele>1068.0</ele><time>2026-03-23T07:50:13Z</time></trkpt><trkpt lat="45.62646061630519" lon="11.045600756895167"><ele>1066.0</ele><time>2026-03-23T07:50:14Z</time></trkpt><trkpt lat="45.626457281427165" lon="11.04541173120351"><ele>1064.0</ele><time>2026-03-23T07:50:15Z</time></trkpt><trkpt lat="45.62647272257231" lon="11.045249459119596"><ele>1062.0</ele><time>2026-03-23T07:50:16Z</time></trkpt><trkpt lat="45.626520312870255" lon="11.045105256827943"><ele>1060.0</ele><time>2026-03-23T07:50:17Z</time></trkpt><trkpt lat="45.626596010187185" lon="11.045009519797073"><ele>1052.6666666666665</ele><time>2026-03-23T07:50:18Z</time></trkpt><trkpt lat="45.626703794405" lon="11.044937005963599"><ele>1045.3333333333333</ele><time>2026-03-23T07:50:19Z</time></trkpt><trkpt lat="45.626865936219225" lon="11.04486796612529"><ele>1038.0</ele><time>2026-03-23T07:50:20Z</time></trkpt><trkpt lat="45.62705427295971" lon="11.044834044464496"><ele>1038.0</ele><time>2026-03-23T07:50:21Z</time></trkpt><trkpt lat="45.62723310866159" lon="11.044841214379112"><ele>1038.0</ele><time>2026-03-23T07:50:22Z</time></trkpt><trkpt lat="45.627389696627034" lon="11.044884894264557"><ele>1038.0</ele><time>2026-03-23T07:50:23Z</time></trkpt><trkpt lat="45.62752756679067" lon="11.044947114484824"><ele>1046.6666666666667</ele><time>2026-03-23T07:50:24Z</time></trkpt><trkpt lat="45.627658404478524" lon="11.045028576522"><ele>1055.3333333333335</ele><time>2026-03-23T07:50:25Z</time></trkpt><trkpt lat="45.627804677128516" lon="11.045146255559096"><ele>1064.0</ele><time>2026-03-23T07:50:26Z</time></trkpt><trkpt lat="45.62795597714673" lon="11.045285572904463"><ele>1064.75</ele><time>2026-03-23T07:50:27Z</time></trkpt><trkpt lat="45.62809834999882" lon="11.045408781378457"><ele>1065.5</ele><time>2026-03-23T07:50:28Z</time></trkpt><trkpt lat="45.628219774884755" lon="11.04546444475181"><ele>1066.25</ele><time>2026-03-23T07:50:29Z</time></trkpt><trkpt lat="45.62832606889584" lon="11.045476827999993"><ele>1067.0</ele><time>2026-03-23T07:50:30Z</time></trkpt><trkpt lat="45.628406231407865" lon="11.04544302080442"><ele>1067.0</ele><time>2026-03-23T07:50:31Z</time></trkpt><trkpt lat="45.628473742424696" lon="11.045359977536945"><ele>1067.0</ele><time>2026-03-23T07:50:32Z</time></trkpt><trkpt lat="45.62851003809632" lon="11.045278748695491"><ele>1067.0</ele><time>2026-03-23T07:50:33Z</time></trkpt><trkpt lat="45.628489922666716" lon="11.045107913416095"><ele>1067.0</ele><time>2026-03-23T07:50:35Z</time></trkpt><trkpt lat="45.62844141541239" lon="11.044963164510285"><ele>1067.0</ele><time>2026-03-23T07:50:36Z</time></trkpt><trkpt lat="45.62838810167049" lon="11.044756186673522"><ele>1063.25</ele><time>2026-03-23T07:50:37Z</time></trkpt><trkpt lat="45.62836796798887" lon="11.044508183047311"><ele>1059.5</ele><time>2026-03-23T07:50:38Z</time></trkpt><trkpt lat="45.62836963353571" lon="11.044301973588727"><ele>1055.75</ele><time>2026-03-23T07:50:39Z</time></trkpt><trkpt lat="45.62837456822067" lon="11.044144718516682"><ele>1052.0</ele><time>2026-03-23T07:50:40Z</time></trkpt><trkpt lat="45.62839559202419" lon="11.04401861877831"><ele>1051.8</ele><time>2026-03-23T07:50:41Z</time></trkpt><trkpt lat="45.62844550868868" lon="11.043931604278743"><ele>1051.6</ele><time>2026-03-23T07:50:42Z</time></trkpt><trkpt lat="45.62852383587462" lon="11.043876072165249"><ele>1051.3999999999999</ele><time>2026-03-23T07:50:43Z</time></trkpt><trkpt lat="45.628650591176374" lon="11.04383681552152"><ele>1051.2</ele><time>2026-03-23T07:50:44Z</time></trkpt><trkpt lat="45.6288032615253" lon="11.043812375654925"><ele>1051.0</ele><time>2026-03-23T07:50:45Z</time></trkpt><trkpt lat="45.62894921806272" lon="11.043821908686896"><ele>1051.0</ele><time>2026-03-23T07:50:46Z</time></trkpt><trkpt lat="45.62910369205202" lon="11.043858570353832"><ele>1051.0</ele><time>2026-03-23T07:50:47Z</time></trkpt><trkpt lat="45.629270806009636" lon="11.043913281387928"><ele>1051.0</ele><time>2026-03-23T07:50:48Z</time></trkpt><trkpt lat="45.629452473824855" lon="11.043964898149525"><ele>1054.25</ele><time>2026-03-23T07:50:49Z</time></trkpt><trkpt lat="45.62961903029942" lon="11.044021880387204"><ele>1057.5</ele><time>2026-03-23T07:50:50Z</time></trkpt><trkpt lat="45.62975583863687" lon="11.044072342214037"><ele>1060.75</ele><time>2026-03-23T07:50:51Z</time></trkpt><trkpt lat="45.629882469499115" lon="11.044116300753798"><ele>1064.0</ele><time>2026-03-23T07:50:52Z</time></trkpt><trkpt lat="45.629970945216634" lon="11.044182239902904"><ele>1064.0</ele><time>2026-03-23T07:50:53Z</time></trkpt><trkpt lat="45.630047086894194" lon="11.044219224351425"><ele>1064.0</ele><time>2026-03-23T07:50:54Z</time></trkpt><trkpt lat="45.630124446044036" lon="11.044172282893033"><ele>1064.0</ele><time>2026-03-23T07:50:55Z</time></trkpt><trkpt lat="45.63019761149452" lon="11.04408532312833"><ele>1064.0</ele><time>2026-03-23T07:50:56Z</time></trkpt><trkpt lat="45.63025154188468" lon="11.043938483355134"><ele>1064.0</ele><time>2026-03-23T07:50:57Z</time></trkpt><trkpt lat="45.630273656326395" lon="11.04378987848781"><ele>1065.75</ele><time>2026-03-23T07:50:58Z</time></trkpt><trkpt lat="45.63024885130351" lon="11.043654147026617"><ele>1067.5</ele><time>2026-03-23T07:50:59Z</time></trkpt><trkpt lat="45.63018389651955" lon="11.043545121323374"><ele>1069.25</ele><time>2026-03-23T07:51:00Z</time></trkpt><trkpt lat="45.630070165086615" lon="11.043433503618353"><ele>1071.0</ele><time>2026-03-23T07:51:01Z</time></trkpt><trkpt lat="45.62991658016951" lon="11.043305326915753"><ele>1079.6666666666667</ele><time>2026-03-23T07:51:02Z</time></trkpt><trkpt lat="45.62979591712289" lon="11.04316823924814"><ele>1088.3333333333335</ele><time>2026-03-23T07:51:03Z</time></trkpt><trkpt lat="45.62969002447442" lon="11.042984650165762"><ele>1097.0</ele><time>2026-03-23T07:51:04Z</time></trkpt><trkpt lat="45.629599025424504" lon="11.042771142817946"><ele>1097.0</ele><time>2026-03-23T07:51:05Z</time></trkpt><trkpt lat="45.62951293794982" lon="11.04257262410016"><ele>1097.0</ele><time>2026-03-23T07:51:06Z</time></trkpt><trkpt lat="45.629420849447676" lon="11.04240479011478"><ele>1097.0</ele><time>2026-03-23T07:51:07Z</time></trkpt><trkpt lat="45.629324724294456" lon="11.042259002651079"><ele>1091.3333333333335</ele><time>2026-03-23T07:51:08Z</time></trkpt><trkpt lat="45.629217429928495" lon="11.042093280656031"><ele>1085.6666666666667</ele><time>2026-03-23T07:51:09Z</time></trkpt><trkpt lat="45.629111927226134" lon="11.04192098434178"><ele>1080.0</ele><time>2026-03-23T07:51:10Z</time></trkpt><trkpt lat="45.62901340147738" lon="11.041753089248132"><ele>1085.0</ele><time>2026-03-23T07:51:11Z</time></trkpt><trkpt lat="45.62893856802171" lon="11.041594112726157"><ele>1090.0</ele><time>2026-03-23T07:51:12Z</time></trkpt><trkpt lat="45.62888531471632" lon="11.041424086150673"><ele>1095.0</ele><time>2026-03-23T07:51:13Z</time></trkpt><trkpt lat="45.62884967832121" lon="11.041261246694303"><ele>1100.0</ele><time>2026-03-23T07:51:14Z</time></trkpt><trkpt lat="45.62880929570495" lon="11.041131454869848"><ele>1100.0</ele><time>2026-03-23T07:51:15Z</time></trkpt><trkpt lat="45.628735552702544" lon="11.0410654105719"><ele>1100.0</ele><time>2026-03-23T07:51:16Z</time></trkpt><trkpt lat="45.62863890901187" lon="11.041051970195165"><ele>1100.0</ele><time>2026-03-23T07:51:17Z</time></trkpt><trkpt lat="45.628525374919214" lon="11.041075218883003"><ele>1100.0</ele><time>2026-03-23T07:51:18Z</time></trkpt><trkpt lat="45.62841355723517" lon="11.041131107216213"><ele>1100.0</ele><time>2026-03-23T07:51:19Z</time></trkpt><trkpt lat="45.6282866300902" lon="11.04117300209448"><ele>1095.2</ele><time>2026-03-23T07:51:20Z</time></trkpt><trkpt lat="45.6281814264037" lon="11.041182232713536"><ele>1090.4</ele><time>2026-03-23T07:51:21Z</time></trkpt><trkpt lat="45.62811196330396" lon="11.041161768396147"><ele>1085.6</ele><time>2026-03-23T07:51:22Z</time></trkpt><trkpt lat="45.62803438113712" lon="11.04114242618016"><ele>1080.8</ele><time>2026-03-23T07:51:24Z</time></trkpt><trkpt lat="45.6279501285941" lon="11.041136676786042"><ele>1076.0</ele><time>2026-03-23T07:51:35Z</time></trkpt><trkpt lat="45.62781963359607" lon="11.041127756959025"><ele>1073.5</ele><time>2026-03-23T07:51:37Z</time></trkpt><trkpt lat="45.62772961782036" lon="11.041111844297944"><ele>1071.0</ele><time>2026-03-23T07:51:38Z</time></trkpt><trkpt lat="45.62760750259998" lon="11.041056763612978"><ele>1068.5</ele><time>2026-03-23T07:51:39Z</time></trkpt><trkpt lat="45.62748042689251" lon="11.04100148185946"><ele>1066.0</ele><time>2026-03-23T07:51:40Z</time></trkpt><trkpt lat="45.62732501782407" lon="11.040934096706524"><ele>1066.0</ele><time>2026-03-23T07:51:41Z</time></trkpt><trkpt lat="45.62716096976806" lon="11.040824320975599"><ele>1066.0</ele><time>2026-03-23T07:51:42Z</time></trkpt><trkpt lat="45.627040875731595" lon="11.040712109765094"><ele>1066.0</ele><time>2026-03-23T07:51:43Z</time></trkpt><trkpt lat="45.626929208087404" lon="11.040593499230171"><ele>1069.75</ele><time>2026-03-23T07:51:44Z</time></trkpt><trkpt lat="45.62680833416455" lon="11.040481732472644"><ele>1073.5</ele><time>2026-03-23T07:51:45Z</time></trkpt><trkpt lat="45.62669617992993" lon="11.040379127334399"><ele>1077.25</ele><time>2026-03-23T07:51:46Z</time></trkpt><trkpt lat="45.62658618346672" lon="11.040291857128238"><ele>1081.0</ele><time>2026-03-23T07:51:47Z</time></trkpt><trkpt lat="45.626485559608305" lon="11.040207822280854"><ele>1081.0</ele><time>2026-03-23T07:51:48Z</time></trkpt><trkpt lat="45.626383902250126" lon="11.040104729369254"><ele>1081.0</ele><time>2026-03-23T07:51:49Z</time></trkpt><trkpt lat="45.626271944844405" lon="11.039990844407566"><ele>1081.0</ele><time>2026-03-23T07:51:50Z</time></trkpt><trkpt lat="45.62614430725385" lon="11.039896783028938"><ele>1081.0</ele><time>2026-03-23T07:51:51Z</time></trkpt><trkpt lat="45.6260186855473" lon="11.039823880374856"><ele>1081.0</ele><time>2026-03-23T07:51:52Z</time></trkpt><trkpt lat="45.62586174855187" lon="11.039740009934226"><ele>1081.0</ele><time>2026-03-23T07:51:53Z</time></trkpt><trkpt lat="45.625742071503375" lon="11.039672062360408"><ele>1081.0</ele><time>2026-03-23T07:51:54Z</time></trkpt><trkpt lat="45.62564237287876" lon="11.039568008647539"><ele>1081.0</ele><time>2026-03-23T07:51:55Z</time></trkpt><trkpt lat="45.62555036009943" lon="11.039437018951336"><ele>1081.0</ele><time>2026-03-23T07:51:56Z</time></trkpt><trkpt lat="45.62547249604009" lon="11.039285021453674"><ele>1081.0</ele><time>2026-03-23T07:51:57Z</time></trkpt><trkpt lat="45.625406158335544" lon="11.039126811875391"><ele>1081.0</ele><time>2026-03-23T07:51:58Z</time></trkpt><trkpt lat="45.625348433550414" lon="11.03896778081344"><ele>1081.0</ele><time>2026-03-23T07:51:59Z</time></trkpt><trkpt lat="45.625312658127925" lon="11.038800671954426"><ele>1082.25</ele><time>2026-03-23T07:52:00Z</time></trkpt><trkpt lat="45.62529909598663" lon="11.038630570048236"><ele>1083.5</ele><time>2026-03-23T07:52:01Z</time></trkpt><trkpt lat="45.62530710254614" lon="11.03844348968433"><ele>1084.75</ele><time>2026-03-23T07:52:02Z</time></trkpt><trkpt lat="45.625323311555604" lon="11.03825197772384"><ele>1086.0</ele><time>2026-03-23T07:52:03Z</time></trkpt><trkpt lat="45.62534594657057" lon="11.03803989361078"><ele>1086.0</ele><time>2026-03-23T07:52:04Z</time></trkpt><trkpt lat="45.6253720041555" lon="11.03782406321558"><ele>1086.0</ele><time>2026-03-23T07:52:05Z</time></trkpt><trkpt lat="45.625408722070134" lon="11.037620903052616"><ele>1086.0</ele><time>2026-03-23T07:52:06Z</time></trkpt><trkpt lat="45.62545063964278" lon="11.03743948297542"><ele>1086.0</ele><time>2026-03-23T07:52:07Z</time></trkpt><trkpt lat="45.62549672944462" lon="11.037258347671088"><ele>1085.5</ele><time>2026-03-23T07:52:08Z</time></trkpt><trkpt lat="45.62553305113134" lon="11.037081162891164"><ele>1085.0</ele><time>2026-03-23T07:52:09Z</time></trkpt><trkpt lat="45.62555562381002" lon="11.036919264177715"><ele>1084.5</ele><time>2026-03-23T07:52:10Z</time></trkpt><trkpt lat="45.62557439445854" lon="11.036746865885938"><ele>1084.0</ele><time>2026-03-23T07:52:11Z</time></trkpt><trkpt lat="45.625479698222094" lon="11.036822355523258"><ele>1084.0</ele><time>2026-03-23T07:52:12Z</time></trkpt><trkpt lat="45.625424691453894" lon="11.036765194940848"><ele>1084.0</ele><time>2026-03-23T07:52:13Z</time></trkpt><trkpt lat="45.625336094616806" lon="11.036734468330778"><ele>1084.0</ele><time>2026-03-23T07:52:14Z</time></trkpt><trkpt lat="45.62521418883366" lon="11.036721245590245"><ele>1084.0</ele><time>2026-03-23T07:52:15Z</time></trkpt><trkpt lat="45.62507791378523" lon="11.03674494902301"><ele>1084.0</ele><time>2026-03-23T07:52:16Z</time></trkpt><trkpt lat="45.62493472226143" lon="11.036819747378862"><ele>1080.75</ele><time>2026-03-23T07:52:17Z</time></trkpt><trkpt lat="45.62482675425609" lon="11.036922839893398"><ele>1077.5</ele><time>2026-03-23T07:52:18Z</time></trkpt><trkpt lat="45.62473006247197" lon="11.037071395118843"><ele>1074.25</ele><time>2026-03-23T07:52:19Z</time></trkpt><trkpt lat="45.62463745544366" lon="11.03721326111967"><ele>1071.0</ele><time>2026-03-23T07:52:20Z</time></trkpt><trkpt lat="45.624530797376934" lon="11.037294276003502"><ele>1069.0</ele><time>2026-03-23T07:52:21Z</time></trkpt><trkpt lat="45.62441827203689" lon="11.037312084126038"><ele>1067.0</ele><time>2026-03-23T07:52:22Z</time></trkpt><trkpt lat="45.62430675099147" lon="11.037277346029446"><ele>1065.0</ele><time>2026-03-23T07:52:23Z</time></trkpt><trkpt lat="45.62419971992325" lon="11.037194470823742"><ele>1063.0</ele><time>2026-03-23T07:52:24Z</time></trkpt><trkpt lat="45.62412687130194" lon="11.037065741937939"><ele>1063.0</ele><time>2026-03-23T07:52:25Z</time></trkpt><trkpt lat="45.62407847689688" lon="11.036891058856781"><ele>1063.0</ele><time>2026-03-23T07:52:26Z</time></trkpt><trkpt lat="45.62404985054183" lon="11.036679336995407"><ele>1063.0</ele><time>2026-03-23T07:52:27Z</time></trkpt><trkpt lat="45.6239991584388" lon="11.036535628239932"><ele>1063.0</ele><time>2026-03-23T07:52:28Z</time></trkpt><trkpt lat="45.62392050840852" lon="11.03643953795377"><ele>1065.75</ele><time>2026-03-23T07:52:29Z</time></trkpt><trkpt lat="45.623811227410506" lon="11.036412127165677"><ele>1068.5</ele><time>2026-03-23T07:52:30Z</time></trkpt><trkpt lat="45.623682190700876" lon="11.036444143427643"><ele>1071.25</ele><time>2026-03-23T07:52:31Z</time></trkpt><trkpt lat="45.62353561830517" lon="11.036518890216113"><ele>1074.0</ele><time>2026-03-23T07:52:32Z</time></trkpt><trkpt lat="45.62341729847719" lon="11.036543015485508"><ele>1074.0</ele><time>2026-03-23T07:52:33Z</time></trkpt><trkpt lat="45.62332477701574" lon="11.036507881233167"><ele>1074.0</ele><time>2026-03-23T07:52:34Z</time></trkpt><trkpt lat="45.62324328337864" lon="11.036432303427725"><ele>1074.0</ele><time>2026-03-23T07:52:35Z</time></trkpt><trkpt lat="45.62319619277743" lon="11.0363398502363"><ele>1074.0</ele><time>2026-03-23T07:52:36Z</time></trkpt><trkpt lat="45.62319120787836" lon="11.03620360747672"><ele>1074.0</ele><time>2026-03-23T07:52:38Z</time></trkpt><trkpt lat="45.62320729039897" lon="11.03609804713524"><ele>1074.0</ele><time>2026-03-23T07:52:41Z</time></trkpt><trkpt lat="45.62312953499141" lon="11.036014414350579"><ele>1074.0</ele><time>2026-03-23T07:52:46Z</time></trkpt><trkpt lat="45.623045084604186" lon="11.036001183521893"><ele>1074.0</ele><time>2026-03-23T07:52:47Z</time></trkpt><trkpt lat="45.622943231533014" lon="11.035998639534942"><ele>1074.0</ele><time>2026-03-23T07:52:48Z</time></trkpt><trkpt lat="45.6228058348365" lon="11.035974284425036"><ele>1074.0</ele><time>2026-03-23T07:52:49Z</time></trkpt><trkpt lat="45.6226727420164" lon="11.035921773196794"><ele>1071.8</ele><time>2026-03-23T07:52:50Z</time></trkpt><trkpt lat="45.62258984254391" lon="11.035899816834396"><ele>1069.6000000000001</ele><time>2026-03-23T07:52:51Z</time></trkpt><trkpt lat="45.62250396625966" lon="11.035873641447722"><ele>1067.4</ele><time>2026-03-23T07:52:52Z</time></trkpt><trkpt lat="45.62238362183611" lon="11.035830378115941"><ele>1065.2</ele><time>2026-03-23T07:52:53Z</time></trkpt><trkpt lat="45.62224870685036" lon="11.03576033338737"><ele>1063.0</ele><time>2026-03-23T07:52:54Z</time></trkpt><trkpt lat="45.622093467411474" lon="11.035661399937464"><ele>1067.5</ele><time>2026-03-23T07:52:55Z</time></trkpt><trkpt lat="45.62194726973842" lon="11.035584628617688"><ele>1072.0</ele><time>2026-03-23T07:52:56Z</time></trkpt><trkpt lat="45.621820782917766" lon="11.035533045814919"><ele>1076.5</ele><time>2026-03-23T07:52:57Z</time></trkpt><trkpt lat="45.62171674876429" lon="11.0355199284829"><ele>1081.0</ele><time>2026-03-23T07:52:58Z</time></trkpt><trkpt lat="45.62161760609096" lon="11.035568447814022"><ele>1081.0</ele><time>2026-03-23T07:52:59Z</time></trkpt><trkpt lat="45.62152399904141" lon="11.035679574745151"><ele>1081.0</ele><time>2026-03-23T07:53:00Z</time></trkpt><trkpt lat="45.62142908525947" lon="11.035851714670432"><ele>1081.0</ele><time>2026-03-23T07:53:01Z</time></trkpt><trkpt lat="45.621343921536806" lon="11.036006815754943"><ele>1081.0</ele><time>2026-03-23T07:53:02Z</time></trkpt><trkpt lat="45.62126894960622" lon="11.036106124671054"><ele>1077.6</ele><time>2026-03-23T07:53:03Z</time></trkpt><trkpt lat="45.621198721782264" lon="11.036174550961666"><ele>1074.1999999999998</ele><time>2026-03-23T07:53:04Z</time></trkpt><trkpt lat="45.621105696573004" lon="11.036191223642467"><ele>1070.8000000000002</ele><time>2026-03-23T07:53:05Z</time></trkpt><trkpt lat="45.62100579218994" lon="11.036137585285454"><ele>1067.4</ele><time>2026-03-23T07:53:06Z</time></trkpt><trkpt lat="45.6208933868528" lon="11.036090933315405"><ele>1064.0</ele><time>2026-03-23T07:53:07Z</time></trkpt><trkpt lat="45.62079241915672" lon="11.035980421771391"><ele>1064.0</ele><time>2026-03-23T07:53:08Z</time></trkpt><trkpt lat="45.620677875157234" lon="11.03582506137045"><ele>1064.0</ele><time>2026-03-23T07:53:09Z</time></trkpt><trkpt lat="45.62056940733766" lon="11.035705764522946"><ele>1064.0</ele><time>2026-03-23T07:53:10Z</time></trkpt><trkpt lat="45.62046198181514" lon="11.035624022773867"><ele>1064.0</ele><time>2026-03-23T07:53:11Z</time></trkpt><trkpt lat="45.62036220226236" lon="11.035538853316059"><ele>1064.6000000000001</ele><time>2026-03-23T07:53:12Z</time></trkpt><trkpt lat="45.62027100748713" lon="11.035459149988244"><ele>1065.2</ele><time>2026-03-23T07:53:13Z</time></trkpt><trkpt lat="45.62018238677764" lon="11.035387093121985"><ele>1065.8000000000002</ele><time>2026-03-23T07:53:14Z</time></trkpt><trkpt lat="45.62010320752559" lon="11.035317205847221"><ele>1066.4</ele><time>2026-03-23T07:53:15Z</time></trkpt><trkpt lat="45.62004021839753" lon="11.035236979201146"><ele>1067.0</ele><time>2026-03-23T07:53:16Z</time></trkpt><trkpt lat="45.61997787263588" lon="11.035130892455907"><ele>1067.0</ele><time>2026-03-23T07:53:17Z</time></trkpt><trkpt lat="45.61992520565072" lon="11.034999250942654"><ele>1067.0</ele><time>2026-03-23T07:53:18Z</time></trkpt><trkpt lat="45.61989163986926" lon="11.034856155697804"><ele>1067.0</ele><time>2026-03-23T07:53:19Z</time></trkpt><trkpt lat="45.619893227002024" lon="11.034692558285633"><ele>1067.0</ele><time>2026-03-23T07:53:20Z</time></trkpt><trkpt lat="45.61990928132822" lon="11.034494578866207"><ele>1070.0</ele><time>2026-03-23T07:53:21Z</time></trkpt><trkpt lat="45.61991075643593" lon="11.034271389849433"><ele>1073.0</ele><time>2026-03-23T07:53:22Z</time></trkpt><trkpt lat="45.61988721639897" lon="11.034029148095327"><ele>1076.0</ele><time>2026-03-23T07:53:23Z</time></trkpt><trkpt lat="45.61986631677727" lon="11.033792040995738"><ele>1078.25</ele><time>2026-03-23T07:53:24Z</time></trkpt><trkpt lat="45.619858173435304" lon="11.033601817960319"><ele>1080.5</ele><time>2026-03-23T07:53:25Z</time></trkpt><trkpt lat="45.619866822916755" lon="11.033427144542781"><ele>1082.75</ele><time>2026-03-23T07:53:26Z</time></trkpt><trkpt lat="45.6198789056785" lon="11.033288056480007"><ele>1085.0</ele><time>2026-03-23T07:53:27Z</time></trkpt><trkpt lat="45.6198789120796" lon="11.033132928441285"><ele>1085.2</ele><time>2026-03-23T07:53:28Z</time></trkpt><trkpt lat="45.61987093180725" lon="11.03293089051902"><ele>1085.4</ele><time>2026-03-23T07:53:29Z</time></trkpt><trkpt lat="45.61985424211378" lon="11.032753632867701"><ele>1085.6</ele><time>2026-03-23T07:53:30Z</time></trkpt><trkpt lat="45.61983139603686" lon="11.03261725973365"><ele>1085.8</ele><time>2026-03-23T07:53:31Z</time></trkpt><trkpt lat="45.61982041622014" lon="11.03251141972579"><ele>1086.0</ele><time>2026-03-23T07:53:32Z</time></trkpt><trkpt lat="45.61983828321482" lon="11.032411497093893"><ele>1085.0</ele><time>2026-03-23T07:53:33Z</time></trkpt><trkpt lat="45.619889234446525" lon="11.032321845471907"><ele>1084.0</ele><time>2026-03-23T07:53:34Z</time></trkpt><trkpt lat="45.61998183205707" lon="11.032233984956966"><ele>1083.0</ele><time>2026-03-23T07:53:35Z</time></trkpt><trkpt lat="45.62009543003596" lon="11.03213149049429"><ele>1082.0</ele><time>2026-03-23T07:53:36Z</time></trkpt><trkpt lat="45.62021328876071" lon="11.032007878963825"><ele>1085.4</ele><time>2026-03-23T07:53:37Z</time></trkpt><trkpt lat="45.62031789894571" lon="11.031885363950153"><ele>1088.8000000000002</ele><time>2026-03-23T07:53:38Z</time></trkpt><trkpt lat="45.620407885690774" lon="11.031787213273828"><ele>1092.2</ele><time>2026-03-23T07:53:39Z</time></trkpt><trkpt lat="45.620494532673526" lon="11.031728552899123"><ele>1095.6000000000001</ele><time>2026-03-23T07:53:40Z</time></trkpt><trkpt lat="45.62058808408756" lon="11.031693301030986"><ele>1099.0</ele><time>2026-03-23T07:53:41Z</time></trkpt><trkpt lat="45.62065132844195" lon="11.031629378935314"><ele>1099.0</ele><time>2026-03-23T07:53:42Z</time></trkpt><trkpt lat="45.62068133628305" lon="11.031523402975617"><ele>1099.0</ele><time>2026-03-23T07:53:43Z</time></trkpt><trkpt lat="45.620670913751944" lon="11.03139857487558"><ele>1099.0</ele><time>2026-03-23T07:53:44Z</time></trkpt><trkpt lat="45.62060714666606" lon="11.031267117622543"><ele>1099.0</ele><time>2026-03-23T07:53:45Z</time></trkpt><trkpt lat="45.62053239419073" lon="11.031139546398258"><ele>1099.0</ele><time>2026-03-23T07:53:46Z</time></trkpt><trkpt lat="45.62043756837204" lon="11.031001475172692"><ele>1099.0</ele><time>2026-03-23T07:53:47Z</time></trkpt><trkpt lat="45.62037712307566" lon="11.03087039650594"><ele>1099.0</ele><time>2026-03-23T07:53:48Z</time></trkpt><trkpt lat="45.62037521843635" lon="11.030755683978796"><ele>1099.0</ele><time>2026-03-23T07:53:49Z</time></trkpt><trkpt lat="45.620406442470525" lon="11.030647631892212"><ele>1099.0</ele><time>2026-03-23T07:53:50Z</time></trkpt><trkpt lat="45.62046676758419" lon="11.030569945946889"><ele>1099.0</ele><time>2026-03-23T07:53:51Z</time></trkpt><trkpt lat="45.620544239966875" lon="11.030521834949793"><ele>1099.0</ele><time>2026-03-23T07:53:52Z</time></trkpt><trkpt lat="45.620643933148" lon="11.030518425921823"><ele>1096.5</ele><time>2026-03-23T07:53:53Z</time></trkpt><trkpt lat="45.62076155843814" lon="11.030527061586525"><ele>1094.0</ele><time>2026-03-23T07:53:54Z</time></trkpt><trkpt lat="45.62087876507172" lon="11.03054022886595"><ele>1091.5</ele><time>2026-03-23T07:53:55Z</time></trkpt><trkpt lat="45.620993864121836" lon="11.030579896133785"><ele>1089.0</ele><time>2026-03-23T07:53:56Z</time></trkpt><trkpt lat="45.62108881052294" lon="11.0306216466595"><ele>1091.4</ele><time>2026-03-23T07:53:57Z</time></trkpt><trkpt lat="45.62116884097138" lon="11.03066897727037"><ele>1093.8000000000002</ele><time>2026-03-23T07:53:58Z</time></trkpt><trkpt lat="45.621250913250556" lon="11.03071829417811"><ele>1096.1999999999998</ele><time>2026-03-23T07:53:59Z</time></trkpt><trkpt lat="45.62133254485801" lon="11.03076969902257"><ele>1098.6</ele><time>2026-03-23T07:54:00Z</time></trkpt><trkpt lat="45.62142273286003" lon="11.030803457804591"><ele>1101.0</ele><time>2026-03-23T07:54:01Z</time></trkpt><trkpt lat="45.621515752940354" lon="11.030808808117715"><ele>1101.0</ele><time>2026-03-23T07:54:02Z</time></trkpt><trkpt lat="45.621610937055294" lon="11.030787956700289"><ele>1101.0</ele><time>2026-03-23T07:54:03Z</time></trkpt><trkpt lat="45.62170569054978" lon="11.030741756376578"><ele>1101.0</ele><time>2026-03-23T07:54:04Z</time></trkpt><trkpt lat="45.62178690565283" lon="11.030692551547434"><ele>1101.0</ele><time>2026-03-23T07:54:05Z</time></trkpt><trkpt lat="45.62187589077708" lon="11.030592274805459"><ele>1101.0</ele><time>2026-03-23T07:54:07Z</time></trkpt><trkpt lat="45.6219619855455" lon="11.030606474173295"><ele>1102.3999999999999</ele><time>2026-03-23T07:54:15Z</time></trkpt><trkpt lat="45.62205595800089" lon="11.030641788693853"><ele>1103.8</ele><time>2026-03-23T07:54:17Z</time></trkpt><trkpt lat="45.62206413769054" lon="11.030796186542778"><ele>1105.1999999999998</ele><time>2026-03-23T07:54:19Z</time></trkpt><trkpt lat="45.62200433644689" lon="11.030944283081165"><ele>1106.6</ele><time>2026-03-23T07:54:21Z</time></trkpt><trkpt lat="45.6219793904447" lon="11.031033703149948"><ele>1108.0</ele><time>2026-03-23T07:54:22Z</time></trkpt><trkpt lat="45.621942767938435" lon="11.031123306931894"><ele>1108.0</ele><time>2026-03-23T07:54:23Z</time></trkpt><trkpt lat="45.62189325114632" lon="11.031215435890092"><ele>1108.0</ele><time>2026-03-23T07:54:24Z</time></trkpt><trkpt lat="45.621848068171296" lon="11.031293066648374"><ele>1108.0</ele><time>2026-03-23T07:54:25Z</time></trkpt><trkpt lat="45.62178960065403" lon="11.031374434325997"><ele>1108.0</ele><time>2026-03-23T07:54:26Z</time></trkpt><trkpt lat="45.62171573199958" lon="11.031480456767442"><ele>1108.0</ele><time>2026-03-23T07:54:28Z</time></trkpt><trkpt lat="45.62167101106616" lon="11.031591923404749"><ele>1108.0</ele><time>2026-03-23T07:54:30Z</time></trkpt><trkpt lat="45.621667197591805" lon="11.031736358406889"><ele>1109.0</ele><time>2026-03-23T07:54:32Z</time></trkpt><trkpt lat="45.62167488969147" lon="11.031856676392792"><ele>1110.0</ele><time>2026-03-23T07:54:34Z</time></trkpt><trkpt lat="45.621659253149524" lon="11.031975859809437"><ele>1111.0</ele><time>2026-03-23T07:54:37Z</time></trkpt><trkpt lat="45.6217442811706" lon="11.031964595124325"><ele>1112.0</ele><time>2026-03-23T07:54:38Z</time></trkpt><trkpt lat="45.621699958809394" lon="11.031861043449716"><ele>1113.0</ele><time>2026-03-23T07:54:50Z</time></trkpt><trkpt lat="45.62155854677748" lon="11.031853934214844"><ele>1113.0</ele><time>2026-03-23T07:54:51Z</time></trkpt><trkpt lat="45.621521110658136" lon="11.031780423032014"><ele>1113.0</ele><time>2026-03-23T07:54:52Z</time></trkpt><trkpt lat="45.62150958418852" lon="11.03165621758986"><ele>1113.0</ele><time>2026-03-23T07:54:55Z</time></trkpt><trkpt lat="45.621797246457824" lon="11.031378719533356"><ele>1112.2</ele><time>2026-03-23T07:54:57Z</time></trkpt><trkpt lat="45.62184549361384" lon="11.031313685582427"><ele>1111.4</ele><time>2026-03-23T07:54:58Z</time></trkpt><trkpt lat="45.62192587677951" lon="11.0311869583657"><ele>1110.6000000000001</ele><time>2026-03-23T07:55:00Z</time></trkpt><trkpt lat="45.621979927738636" lon="11.031074296451056"><ele>1109.8</ele><time>2026-03-23T07:55:02Z</time></trkpt><trkpt lat="45.622040630249636" lon="11.030985025347245"><ele>1109.0</ele><time>2026-03-23T07:55:04Z</time></trkpt><trkpt lat="45.62205206714751" lon="11.030859588212248"><ele>1108.8333333333335</ele><time>2026-03-23T07:55:06Z</time></trkpt><trkpt lat="45.622088307918474" lon="11.030751177465538"><ele>1108.6666666666667</ele><time>2026-03-23T07:55:09Z</time></trkpt><trkpt lat="45.62211078958923" lon="11.030649928578512"><ele>1108.5</ele><time>2026-03-23T07:55:11Z</time></trkpt><trkpt lat="45.62210656206754" lon="11.03055897309761"><ele>1108.3333333333333</ele><time>2026-03-23T07:55:14Z</time></trkpt><trkpt lat="45.622090744789745" lon="11.030395784069086"><ele>1108.1666666666665</ele><time>2026-03-23T07:55:16Z</time></trkpt><trkpt lat="45.62211501354396" lon="11.030283675463066"><ele>1108.0</ele><time>2026-03-23T07:55:18Z</time></trkpt><trkpt lat="45.6221811482181" lon="11.030202609985826"><ele>1108.0</ele><time>2026-03-23T07:55:21Z</time></trkpt><trkpt lat="45.622252137925386" lon="11.030188923362719"><ele>1108.0</ele><time>2026-03-23T07:55:23Z</time></trkpt><trkpt lat="45.622320711710415" lon="11.03024171486748"><ele>1108.0</ele><time>2026-03-23T07:55:25Z</time></trkpt><trkpt lat="45.622390560456225" lon="11.030222670659557"><ele>1108.0</ele><time>2026-03-23T07:55:27Z</time></trkpt><trkpt lat="45.62245552252047" lon="11.030202060362885"><ele>1108.0</ele><time>2026-03-23T07:55:29Z</time></trkpt><trkpt lat="45.62251914144346" lon="11.030158251795244"><ele>1108.0</ele><time>2026-03-23T07:55:33Z</time></trkpt><trkpt lat="45.62251220676452" lon="11.03004018803933"><ele>1108.0</ele><time>2026-03-23T07:55:34Z</time></trkpt><trkpt lat="45.62258452182434" lon="11.029969845386226"><ele>1108.0</ele><time>2026-03-23T07:55:37Z</time></trkpt><trkpt lat="45.62266732531005" lon="11.030000223564352"><ele>1108.0</ele><time>2026-03-23T07:55:39Z</time></trkpt><trkpt lat="45.62273431879298" lon="11.030004987501643"><ele>1108.0</ele><time>2026-03-23T07:55:42Z</time></trkpt></trkseg></trk></gpx>